<?xml version='1.0' encoding='UTF-8'?><gpx version="1.1" creator="JPX - https://github.com/jenetics/jpx" xmlns="http://www.topografix.com/GPX/1/1"><trk><trkseg><trkpt lat="44.87975816780695" lon="-1.0815370358708707"><ele>27.0</ele><time>2026-04-05T12:36:47Z</time></trkpt><trkpt lat="44.87983964834762" lon="-1.081549485235345"><ele>27.0</ele><time>2026-04-05T12:36:50Z</time></trkpt><trkpt lat="44.87993564643624" lon="-1.0815257372748088"><ele>27.0</ele><time>2026-04-05T12:37:15.999Z</time></trkpt><trkpt lat="44.87989250957592" lon="-1.081599101048701"><ele>27.0</ele><time>2026-04-05T12:37:17.999Z</time></trkpt><trkpt lat="44.879857837945366" lon="-1.0817425044152336"><ele>27.0</ele><time>2026-04-05T12:37:45.999Z</time></trkpt><trkpt lat="44.8798405008282" lon="-1.0818586138174564"><ele>27.0</ele><time>2026-04-05T12:37:46.999Z</time></trkpt><trkpt lat="44.87981368747447" lon="-1.0819738210264598"><ele>26.833333333333332</ele><time>2026-04-05T12:37:47.999Z</time></trkpt><trkpt lat="44.87986055901742" lon="-1.0820948853748575"><ele>26.666666666666664</ele><time>2026-04-05T12:37:48.999Z</time></trkpt><trkpt lat="44.87986832578842" lon="-1.0822260695586006"><ele>26.5</ele><time>2026-04-05T12:37:49.999Z</time></trkpt><trkpt lat="44.87987120407229" lon="-1.0823614248384574"><ele>26.333333333333332</ele><time>2026-04-05T12:37:50.999Z</time></trkpt><trkpt lat="44.87985605465552" lon="-1.0824648625405802"><ele>26.166666666666664</ele><time>2026-04-05T12:37:51.999Z</time></trkpt><trkpt lat="44.879808939547026" lon="-1.0825500754788024"><ele>26.0</ele><time>2026-04-05T12:37:52.999Z</time></trkpt><trkpt lat="44.87977526142683" lon="-1.0826537484356074"><ele>25.6</ele><time>2026-04-05T12:37:53.999Z</time></trkpt><trkpt lat="44.87978634472669" lon="-1.0827804809127461"><ele>25.200000000000003</ele><time>2026-04-05T12:37:54.998Z</time></trkpt><trkpt lat="44.87982751693668" lon="-1.082895451607719"><ele>24.799999999999997</ele><time>2026-04-05T12:37:55.998Z</time></trkpt><trkpt lat="44.87987340059088" lon="-1.0830083285534189"><ele>24.4</ele><time>2026-04-05T12:37:56.998Z</time></trkpt><trkpt lat="44.87988650988074" lon="-1.083137040412327"><ele>24.0</ele><time>2026-04-05T12:37:57.998Z</time></trkpt><trkpt lat="44.879876572834256" lon="-1.0833120781691805"><ele>23.75</ele><time>2026-04-05T12:37:58.998Z</time></trkpt><trkpt lat="44.87987221742645" lon="-1.08349551553335"><ele>23.5</ele><time>2026-04-05T12:37:59.998Z</time></trkpt><trkpt lat="44.87989270992594" lon="-1.0836404942427773"><ele>23.25</ele><time>2026-04-05T12:38:00.998Z</time></trkpt><trkpt lat="44.879898660012124" lon="-1.0837814299202555"><ele>23.0</ele><time>2026-04-05T12:38:01.998Z</time></trkpt><trkpt lat="44.879894901136254" lon="-1.0839471290989278"><ele>22.75</ele><time>2026-04-05T12:38:02.998Z</time></trkpt><trkpt lat="44.879893957612886" lon="-1.0841194056182992"><ele>22.5</ele><time>2026-04-05T12:38:03.998Z</time></trkpt><trkpt lat="44.87989148126959" lon="-1.0842953125069568"><ele>22.25</ele><time>2026-04-05T12:38:04.998Z</time></trkpt><trkpt lat="44.879887562518824" lon="-1.084481172655163"><ele>22.0</ele><time>2026-04-05T12:38:05.998Z</time></trkpt><trkpt lat="44.879883984314034" lon="-1.0846287834066322"><ele>22.0</ele><time>2026-04-05T12:38:06.998Z</time></trkpt><trkpt lat="44.879877122322554" lon="-1.0847622640814674"><ele>22.0</ele><time>2026-04-05T12:38:07.998Z</time></trkpt><trkpt lat="44.879872427263045" lon="-1.0848755913931991"><ele>22.0</ele><time>2026-04-05T12:38:08.998Z</time></trkpt><trkpt lat="44.879872478525094" lon="-1.0849755429877757"><ele>22.0</ele><time>2026-04-05T12:38:10.998Z</time></trkpt><trkpt lat="44.87977220324807" lon="-1.0850112553520084"><ele>22.0</ele><time>2026-04-05T12:38:25Z</time></trkpt><trkpt lat="44.87967425545277" lon="-1.0849680755990234"><ele>22.0</ele><time>2026-04-05T12:38:26Z</time></trkpt><trkpt lat="44.87958241993395" lon="-1.084945124812925"><ele>22.0</ele><time>2026-04-05T12:38:27Z</time></trkpt><trkpt lat="44.879466785197515" lon="-1.084932654285659"><ele>22.0</ele><time>2026-04-05T12:38:28Z</time></trkpt><trkpt lat="44.879351575675095" lon="-1.0849163876941974"><ele>22.0</ele><time>2026-04-05T12:38:29Z</time></trkpt><trkpt lat="44.87923186585699" lon="-1.0848953730447572"><ele>22.0</ele><time>2026-04-05T12:38:30Z</time></trkpt><trkpt lat="44.879102956832064" lon="-1.0848762447715874"><ele>22.0</ele><time>2026-04-05T12:38:31Z</time></trkpt><trkpt lat="44.87896660376529" lon="-1.0848565197076172"><ele>22.0</ele><time>2026-04-05T12:38:32Z</time></trkpt><trkpt lat="44.878838874719634" lon="-1.0848359992026468"><ele>22.0</ele><time>2026-04-05T12:38:33Z</time></trkpt><trkpt lat="44.87871361889245" lon="-1.084814737655433"><ele>22.0</ele><time>2026-04-05T12:38:34Z</time></trkpt><trkpt lat="44.878581007184984" lon="-1.0847942686629024"><ele>22.333333333333332</ele><time>2026-04-05T12:38:35Z</time></trkpt><trkpt lat="44.878426856122346" lon="-1.084771160899614"><ele>22.666666666666668</ele><time>2026-04-05T12:38:36Z</time></trkpt><trkpt lat="44.878262860998085" lon="-1.0847474577065903"><ele>23.0</ele><time>2026-04-05T12:38:37Z</time></trkpt><trkpt lat="44.87809626245173" lon="-1.0847231023133241"><ele>23.0</ele><time>2026-04-05T12:38:38Z</time></trkpt><trkpt lat="44.877923000610046" lon="-1.0846925584360925"><ele>23.0</ele><time>2026-04-05T12:38:39Z</time></trkpt><trkpt lat="44.87774619602544" lon="-1.084669183156653"><ele>23.0</ele><time>2026-04-05T12:38:40Z</time></trkpt><trkpt lat="44.87754950708633" lon="-1.0846464481318672"><ele>23.333333333333336</ele><time>2026-04-05T12:38:41Z</time></trkpt><trkpt lat="44.877333775559684" lon="-1.0846103288217488"><ele>23.666666666666668</ele><time>2026-04-05T12:38:42Z</time></trkpt><trkpt lat="44.877144885951076" lon="-1.0845825702917016"><ele>24.0</ele><time>2026-04-05T12:38:43Z</time></trkpt><trkpt lat="44.876990114093644" lon="-1.0845644674710186"><ele>24.0</ele><time>2026-04-05T12:38:44Z</time></trkpt><trkpt lat="44.87685734965207" lon="-1.0845538263295855"><ele>24.0</ele><time>2026-04-05T12:38:45Z</time></trkpt><trkpt lat="44.87670157939539" lon="-1.084525094223813"><ele>24.0</ele><time>2026-04-05T12:38:46Z</time></trkpt><trkpt lat="44.876542952231624" lon="-1.0844941847093457"><ele>24.0</ele><time>2026-04-05T12:38:47Z</time></trkpt><trkpt lat="44.876393572739644" lon="-1.0844936795166493"><ele>24.0</ele><time>2026-04-05T12:38:48Z</time></trkpt><trkpt lat="44.876251507625724" lon="-1.084518740915457"><ele>24.0</ele><time>2026-04-05T12:38:49Z</time></trkpt><trkpt lat="44.87610941452221" lon="-1.0845639904131557"><ele>24.0</ele><time>2026-04-05T12:38:50Z</time></trkpt><trkpt lat="44.87598950511525" lon="-1.0846170032453215"><ele>23.833333333333332</ele><time>2026-04-05T12:38:51Z</time></trkpt><trkpt lat="44.87588153109564" lon="-1.084673634057763"><ele>23.666666666666668</ele><time>2026-04-05T12:38:52Z</time></trkpt><trkpt lat="44.87579820609897" lon="-1.0847266598929213"><ele>23.5</ele><time>2026-04-05T12:38:53Z</time></trkpt><trkpt lat="44.875728758069684" lon="-1.0847728898331048"><ele>23.333333333333336</ele><time>2026-04-05T12:38:54Z</time></trkpt><trkpt lat="44.87566436639097" lon="-1.0848232087933585"><ele>23.166666666666668</ele><time>2026-04-05T12:38:55Z</time></trkpt><trkpt lat="44.87559444010038" lon="-1.084900332464256"><ele>23.0</ele><time>2026-04-05T12:38:56Z</time></trkpt><trkpt lat="44.87552477135643" lon="-1.0849997361071066"><ele>22.75</ele><time>2026-04-05T12:38:57Z</time></trkpt><trkpt lat="44.87545406822934" lon="-1.0851366070531765"><ele>22.5</ele><time>2026-04-05T12:38:58Z</time></trkpt><trkpt lat="44.875406956885115" lon="-1.0852804576288548"><ele>22.25</ele><time>2026-04-05T12:38:59Z</time></trkpt><trkpt lat="44.87537014631744" lon="-1.0854635261233359"><ele>22.0</ele><time>2026-04-05T12:39:00Z</time></trkpt><trkpt lat="44.87535129604094" lon="-1.0856202027290351"><ele>22.0</ele><time>2026-04-05T12:39:01Z</time></trkpt><trkpt lat="44.87535120081551" lon="-1.0857547613142708"><ele>22.0</ele><time>2026-04-05T12:39:02Z</time></trkpt><trkpt lat="44.875348540272704" lon="-1.0858803518621047"><ele>22.0</ele><time>2026-04-05T12:39:03Z</time></trkpt><trkpt lat="44.87534282622719" lon="-1.0860204238917337"><ele>22.0</ele><time>2026-04-05T12:39:04Z</time></trkpt><trkpt lat="44.87534135279633" lon="-1.0861654109270074"><ele>22.0</ele><time>2026-04-05T12:39:05Z</time></trkpt><trkpt lat="44.87533526430195" lon="-1.0863280941540114"><ele>22.0</ele><time>2026-04-05T12:39:06Z</time></trkpt><trkpt lat="44.87532520311548" lon="-1.086519092137897"><ele>22.0</ele><time>2026-04-05T12:39:06.999Z</time></trkpt><trkpt lat="44.875316518697495" lon="-1.0866911885352153"><ele>22.0</ele><time>2026-04-05T12:39:07.999Z</time></trkpt><trkpt lat="44.875310519200966" lon="-1.086869351226143"><ele>22.0</ele><time>2026-04-05T12:39:08.999Z</time></trkpt><trkpt lat="44.87529328875552" lon="-1.0870612532687727"><ele>22.0</ele><time>2026-04-05T12:39:09.999Z</time></trkpt><trkpt lat="44.875279776992244" lon="-1.0872584669937302"><ele>22.0</ele><time>2026-04-05T12:39:10.999Z</time></trkpt><trkpt lat="44.87526835892379" lon="-1.087464270650262"><ele>22.0</ele><time>2026-04-05T12:39:11.999Z</time></trkpt><trkpt lat="44.87524447003205" lon="-1.0876633634822694"><ele>22.0</ele><time>2026-04-05T12:39:12.999Z</time></trkpt><trkpt lat="44.8752268893962" lon="-1.0878594127310455"><ele>22.0</ele><time>2026-04-05T12:39:13.999Z</time></trkpt><trkpt lat="44.87521356168695" lon="-1.0880334995093661"><ele>22.0</ele><time>2026-04-05T12:39:14.999Z</time></trkpt><trkpt lat="44.87520142147428" lon="-1.0882019355332784"><ele>22.0</ele><time>2026-04-05T12:39:15.999Z</time></trkpt><trkpt lat="44.87519061785761" lon="-1.0883872484942452"><ele>22.0</ele><time>2026-04-05T12:39:16.999Z</time></trkpt><trkpt lat="44.87517536082466" lon="-1.0885676705024603"><ele>22.0</ele><time>2026-04-05T12:39:17.999Z</time></trkpt><trkpt lat="44.87515257963718" lon="-1.088758281704972"><ele>22.0</ele><time>2026-04-05T12:39:18.999Z</time></trkpt><trkpt lat="44.87511690643035" lon="-1.0889598042383852"><ele>22.0</ele><time>2026-04-05T12:39:19.999Z</time></trkpt><trkpt lat="44.875084849090335" lon="-1.0891420495830209"><ele>22.0</ele><time>2026-04-05T12:39:20.999Z</time></trkpt><trkpt lat="44.87505608614368" lon="-1.0893050243285913"><ele>22.0</ele><time>2026-04-05T12:39:21.999Z</time></trkpt><trkpt lat="44.8750278579581" lon="-1.089467467303887"><ele>22.0</ele><time>2026-04-05T12:39:22.999Z</time></trkpt><trkpt lat="44.87500464646078" lon="-1.0896435478225328"><ele>22.0</ele><time>2026-04-05T12:39:23.999Z</time></trkpt><trkpt lat="44.874968045455276" lon="-1.0898130340923116"><ele>22.0</ele><time>2026-04-05T12:39:24.999Z</time></trkpt><trkpt lat="44.87490106631582" lon="-1.0899967336749965"><ele>22.0</ele><time>2026-04-05T12:39:25.999Z</time></trkpt><trkpt lat="44.87479505181625" lon="-1.0901643282788247"><ele>22.0</ele><time>2026-04-05T12:39:26.999Z</time></trkpt><trkpt lat="44.8746891168064" lon="-1.0902948595707016"><ele>22.0</ele><time>2026-04-05T12:39:27.999Z</time></trkpt><trkpt lat="44.87459919200033" lon="-1.0904063845190752"><ele>22.0</ele><time>2026-04-05T12:39:28.999Z</time></trkpt><trkpt lat="44.874527887694036" lon="-1.0905217074437048"><ele>22.0</ele><time>2026-04-05T12:39:29.999Z</time></trkpt><trkpt lat="44.8744704012307" lon="-1.0906413701443307"><ele>22.0</ele><time>2026-04-05T12:39:30.999Z</time></trkpt><trkpt lat="44.87442246522198" lon="-1.090768517977557"><ele>22.0</ele><time>2026-04-05T12:39:31.999Z</time></trkpt><trkpt lat="44.874378916196314" lon="-1.0909096087378172"><ele>22.0</ele><time>2026-04-05T12:39:32.999Z</time></trkpt><trkpt lat="44.87434239913631" lon="-1.0910664994996118"><ele>22.0</ele><time>2026-04-05T12:39:33.999Z</time></trkpt><trkpt lat="44.874302556870674" lon="-1.0912284644147763"><ele>22.333333333333332</ele><time>2026-04-05T12:39:34.999Z</time></trkpt><trkpt lat="44.87425832386053" lon="-1.0913774389734003"><ele>22.666666666666664</ele><time>2026-04-05T12:39:35.999Z</time></trkpt><trkpt lat="44.874216269355884" lon="-1.091508213389332"><ele>23.0</ele><time>2026-04-05T12:39:36.999Z</time></trkpt><trkpt lat="44.87417725258117" lon="-1.0916135225104038"><ele>23.333333333333332</ele><time>2026-04-05T12:39:37.999Z</time></trkpt><trkpt lat="44.8741402731698" lon="-1.0917068897150208"><ele>23.666666666666668</ele><time>2026-04-05T12:39:38.999Z</time></trkpt><trkpt lat="44.87408922727887" lon="-1.0917688680100113"><ele>24.0</ele><time>2026-04-05T12:39:39.999Z</time></trkpt><trkpt lat="44.87402714169094" lon="-1.0917993206395182"><ele>24.0</ele><time>2026-04-05T12:39:40.999Z</time></trkpt><trkpt lat="44.87394442369231" lon="-1.0918490734951631"><ele>24.0</ele><time>2026-04-05T12:39:41.999Z</time></trkpt><trkpt lat="44.873876398878835" lon="-1.0918960219733838"><ele>24.0</ele><time>2026-04-05T12:39:42.999Z</time></trkpt><trkpt lat="44.873808992949655" lon="-1.0919507730504718"><ele>24.0</ele><time>2026-04-05T12:39:43.999Z</time></trkpt><trkpt lat="44.8737344464747" lon="-1.092011711514563"><ele>24.0</ele><time>2026-04-05T12:39:44.999Z</time></trkpt><trkpt lat="44.87365176555057" lon="-1.0920731203912057"><ele>24.0</ele><time>2026-04-05T12:39:45.999Z</time></trkpt><trkpt lat="44.87356576437573" lon="-1.0921419653984945"><ele>24.0</ele><time>2026-04-05T12:39:46.999Z</time></trkpt><trkpt lat="44.87347094362621" lon="-1.0922185975380836"><ele>24.0</ele><time>2026-04-05T12:39:47.999Z</time></trkpt><trkpt lat="44.87338114453524" lon="-1.092288416338252"><ele>24.0</ele><time>2026-04-05T12:39:48.999Z</time></trkpt><trkpt lat="44.873295076176426" lon="-1.092356364090655"><ele>24.0</ele><time>2026-04-05T12:39:49.999Z</time></trkpt><trkpt lat="44.87321897167889" lon="-1.0924210115621025"><ele>24.0</ele><time>2026-04-05T12:39:50.999Z</time></trkpt><trkpt lat="44.87315638560273" lon="-1.0924690680488471"><ele>23.6</ele><time>2026-04-05T12:39:51.999Z</time></trkpt><trkpt lat="44.87310296539787" lon="-1.092525790606004"><ele>23.2</ele><time>2026-04-05T12:39:52.999Z</time></trkpt><trkpt lat="44.873073829532714" lon="-1.0926119544983932"><ele>22.8</ele><time>2026-04-05T12:39:53.999Z</time></trkpt><trkpt lat="44.873060476410885" lon="-1.0927377009697108"><ele>22.400000000000002</ele><time>2026-04-05T12:39:54.999Z</time></trkpt><trkpt lat="44.87305467470395" lon="-1.0928930221700677"><ele>22.0</ele><time>2026-04-05T12:39:55.999Z</time></trkpt><trkpt lat="44.87305647612856" lon="-1.0930560748930995"><ele>22.0</ele><time>2026-04-05T12:39:56.998Z</time></trkpt><trkpt lat="44.8730548037697" lon="-1.0932032997014896"><ele>22.0</ele><time>2026-04-05T12:39:57.998Z</time></trkpt><trkpt lat="44.87304913670899" lon="-1.0933572566455494"><ele>22.0</ele><time>2026-04-05T12:39:58.998Z</time></trkpt><trkpt lat="44.87304817393949" lon="-1.0934975856271754"><ele>22.0</ele><time>2026-04-05T12:39:59.998Z</time></trkpt><trkpt lat="44.873069717198355" lon="-1.0936094990132388"><ele>22.0</ele><time>2026-04-05T12:40:00.998Z</time></trkpt><trkpt lat="44.873114253804786" lon="-1.0937236606589829"><ele>22.0</ele><time>2026-04-05T12:40:01.998Z</time></trkpt><trkpt lat="44.873170011282" lon="-1.0938467663243097"><ele>22.0</ele><time>2026-04-05T12:40:02.998Z</time></trkpt><trkpt lat="44.87321554166168" lon="-1.0939805193753398"><ele>22.0</ele><time>2026-04-05T12:40:03.998Z</time></trkpt><trkpt lat="44.873241897237456" lon="-1.0941228443624214"><ele>22.0</ele><time>2026-04-05T12:40:04.998Z</time></trkpt><trkpt lat="44.87326193444195" lon="-1.0942916699556284"><ele>22.0</ele><time>2026-04-05T12:40:05.998Z</time></trkpt><trkpt lat="44.873274284116086" lon="-1.0944505737549073"><ele>22.0</ele><time>2026-04-05T12:40:06.998Z</time></trkpt><trkpt lat="44.87328932638907" lon="-1.0946317724276615"><ele>22.0</ele><time>2026-04-05T12:40:07.998Z</time></trkpt><trkpt lat="44.87330351639303" lon="-1.094827661028929"><ele>22.0</ele><time>2026-04-05T12:40:08.998Z</time></trkpt><trkpt lat="44.87332301768625" lon="-1.0950386688054081"><ele>22.0</ele><time>2026-04-05T12:40:09.998Z</time></trkpt><trkpt lat="44.87334521488687" lon="-1.0952803682729793"><ele>22.0</ele><time>2026-04-05T12:40:10.998Z</time></trkpt><trkpt lat="44.87336256560302" lon="-1.0955009397225157"><ele>22.0</ele><time>2026-04-05T12:40:11.998Z</time></trkpt><trkpt lat="44.873377268860025" lon="-1.0957232393395193"><ele>22.0</ele><time>2026-04-05T12:40:12.998Z</time></trkpt><trkpt lat="44.87339573024532" lon="-1.095956817939573"><ele>22.0</ele><time>2026-04-05T12:40:13.998Z</time></trkpt><trkpt lat="44.87341630999766" lon="-1.096205509177391"><ele>22.0</ele><time>2026-04-05T12:40:14.998Z</time></trkpt><trkpt lat="44.87343697451016" lon="-1.0964385226529199"><ele>22.0</ele><time>2026-04-05T12:40:15.998Z</time></trkpt><trkpt lat="44.87346006264282" lon="-1.0966995527842738"><ele>22.0</ele><time>2026-04-05T12:40:16.998Z</time></trkpt><trkpt lat="44.87348013438986" lon="-1.0969393174531274"><ele>22.0</ele><time>2026-04-05T12:40:17.998Z</time></trkpt><trkpt lat="44.87350097977618" lon="-1.0971937209286544"><ele>22.0</ele><time>2026-04-05T12:40:18.998Z</time></trkpt><trkpt lat="44.873517262323574" lon="-1.097441614158646"><ele>22.0</ele><time>2026-04-05T12:40:19.998Z</time></trkpt><trkpt lat="44.87353710671493" lon="-1.0976892555166964"><ele>22.0</ele><time>2026-04-05T12:40:21Z</time></trkpt><trkpt lat="44.873564734109394" lon="-1.0979412356830935"><ele>22.0</ele><time>2026-04-05T12:40:22Z</time></trkpt><trkpt lat="44.87358789097933" lon="-1.098190840428161"><ele>22.0</ele><time>2026-04-05T12:40:23Z</time></trkpt><trkpt lat="44.87361289474792" lon="-1.0984539326587024"><ele>22.0</ele><time>2026-04-05T12:40:24Z</time></trkpt><trkpt lat="44.87364299157188" lon="-1.0987459378418114"><ele>22.0</ele><time>2026-04-05T12:40:25Z</time></trkpt><trkpt lat="44.8736682783265" lon="-1.0990064944604625"><ele>22.333333333333332</ele><time>2026-04-05T12:40:26Z</time></trkpt><trkpt lat="44.87369179736861" lon="-1.0992220915808233"><ele>22.666666666666668</ele><time>2026-04-05T12:40:27Z</time></trkpt><trkpt lat="44.873713909998315" lon="-1.0994346911241923"><ele>23.0</ele><time>2026-04-05T12:40:28Z</time></trkpt><trkpt lat="44.87372780306442" lon="-1.0996699496326197"><ele>23.0</ele><time>2026-04-05T12:40:29Z</time></trkpt><trkpt lat="44.87375765889941" lon="-1.099913618781795"><ele>23.0</ele><time>2026-04-05T12:40:30Z</time></trkpt><trkpt lat="44.87381580460285" lon="-1.1001759938505333"><ele>23.0</ele><time>2026-04-05T12:40:31Z</time></trkpt><trkpt lat="44.873883193150526" lon="-1.100456750505615"><ele>23.0</ele><time>2026-04-05T12:40:32Z</time></trkpt><trkpt lat="44.873927549793784" lon="-1.1006797545357052"><ele>23.0</ele><time>2026-04-05T12:40:33Z</time></trkpt><trkpt lat="44.87397095940362" lon="-1.1008862662857903"><ele>23.0</ele><time>2026-04-05T12:40:34Z</time></trkpt><trkpt lat="44.87400932563623" lon="-1.101076641115294"><ele>23.0</ele><time>2026-04-05T12:40:35Z</time></trkpt><trkpt lat="44.874047475883614" lon="-1.1012685065546"><ele>23.0</ele><time>2026-04-05T12:40:36Z</time></trkpt><trkpt lat="44.87409500461307" lon="-1.1014834833813354"><ele>23.0</ele><time>2026-04-05T12:40:37Z</time></trkpt><trkpt lat="44.87413456922077" lon="-1.101682564966302"><ele>23.0</ele><time>2026-04-05T12:40:38Z</time></trkpt><trkpt lat="44.8741662906195" lon="-1.1018750881030686"><ele>22.666666666666668</ele><time>2026-04-05T12:40:39Z</time></trkpt><trkpt lat="44.87419991546584" lon="-1.102081806327753"><ele>22.333333333333332</ele><time>2026-04-05T12:40:40Z</time></trkpt><trkpt lat="44.874246808846365" lon="-1.102308997005579"><ele>22.0</ele><time>2026-04-05T12:40:41Z</time></trkpt><trkpt lat="44.87428752065916" lon="-1.102496564558507"><ele>22.0</ele><time>2026-04-05T12:40:42Z</time></trkpt><trkpt lat="44.87432595334047" lon="-1.1026711623741803"><ele>22.0</ele><time>2026-04-05T12:40:43Z</time></trkpt><trkpt lat="44.87436475909658" lon="-1.1028648228178493"><ele>22.0</ele><time>2026-04-05T12:40:44Z</time></trkpt><trkpt lat="44.87439960245031" lon="-1.1030530642840886"><ele>22.0</ele><time>2026-04-05T12:40:45Z</time></trkpt><trkpt lat="44.87443446473499" lon="-1.103228598950143"><ele>21.75</ele><time>2026-04-05T12:40:46Z</time></trkpt><trkpt lat="44.87447569980707" lon="-1.1034024701869936"><ele>21.5</ele><time>2026-04-05T12:40:47Z</time></trkpt><trkpt lat="44.8745322755151" lon="-1.103580351343143"><ele>21.25</ele><time>2026-04-05T12:40:48Z</time></trkpt><trkpt lat="44.8745968473603" lon="-1.10376229717642"><ele>21.0</ele><time>2026-04-05T12:40:49Z</time></trkpt><trkpt lat="44.87465945689835" lon="-1.1039197460364"><ele>21.0</ele><time>2026-04-05T12:40:50Z</time></trkpt><trkpt lat="44.87471614335129" lon="-1.104067500374428"><ele>21.0</ele><time>2026-04-05T12:40:51Z</time></trkpt><trkpt lat="44.874767537779604" lon="-1.104230608956375"><ele>21.0</ele><time>2026-04-05T12:40:52Z</time></trkpt><trkpt lat="44.87480504557603" lon="-1.1044464272797772"><ele>21.0</ele><time>2026-04-05T12:40:53Z</time></trkpt><trkpt lat="44.874840992475214" lon="-1.1046744683453091"><ele>22.0</ele><time>2026-04-05T12:40:54Z</time></trkpt><trkpt lat="44.87488374242542" lon="-1.104947977894432"><ele>23.0</ele><time>2026-04-05T12:40:55Z</time></trkpt><trkpt lat="44.874940270087976" lon="-1.1052723632761383"><ele>24.0</ele><time>2026-04-05T12:40:56Z</time></trkpt><trkpt lat="44.87500238888173" lon="-1.105619591674284"><ele>23.5</ele><time>2026-04-05T12:40:57Z</time></trkpt><trkpt lat="44.875065814265476" lon="-1.1059821185928715"><ele>23.0</ele><time>2026-04-05T12:40:58Z</time></trkpt><trkpt lat="44.87514506349214" lon="-1.1063744287118398"><ele>27.0</ele><time>2026-04-05T12:40:59Z</time></trkpt><trkpt lat="44.87522370350442" lon="-1.1067828874266272"><ele>31.0</ele><time>2026-04-05T12:41:00Z</time></trkpt><trkpt lat="44.87529811101167" lon="-1.1072300494186824"><ele>30.5</ele><time>2026-04-05T12:41:01Z</time></trkpt><trkpt lat="44.87537587295933" lon="-1.1076913039703538"><ele>30.0</ele><time>2026-04-05T12:41:02Z</time></trkpt><trkpt lat="44.87545823708219" lon="-1.1081647368746754"><ele>28.5</ele><time>2026-04-05T12:41:03Z</time></trkpt><trkpt lat="44.87553195131374" lon="-1.1085877729640998"><ele>27.0</ele><time>2026-04-05T12:41:04Z</time></trkpt><trkpt lat="44.87559587052519" lon="-1.1089495694991751"><ele>26.5</ele><time>2026-04-05T12:41:05Z</time></trkpt><trkpt lat="44.87565126749442" lon="-1.1092724925517194"><ele>26.0</ele><time>2026-04-05T12:41:06Z</time></trkpt><trkpt lat="44.875706645809686" lon="-1.1095687048749616"><ele>26.0</ele><time>2026-04-05T12:41:07Z</time></trkpt><trkpt lat="44.875756850464434" lon="-1.1098448921615403"><ele>26.0</ele><time>2026-04-05T12:41:08Z</time></trkpt><trkpt lat="44.87578769241531" lon="-1.1101401370261201"><ele>26.0</ele><time>2026-04-05T12:41:09Z</time></trkpt><trkpt lat="44.87580917509549" lon="-1.1104049969205132"><ele>25.333333333333332</ele><time>2026-04-05T12:41:10Z</time></trkpt><trkpt lat="44.87583262133092" lon="-1.1106404323032826"><ele>24.666666666666664</ele><time>2026-04-05T12:41:10.999Z</time></trkpt><trkpt lat="44.87586044176628" lon="-1.1108475747036781"><ele>24.0</ele><time>2026-04-05T12:41:11.999Z</time></trkpt><trkpt lat="44.87588653651395" lon="-1.1110740681254159"><ele>23.666666666666668</ele><time>2026-04-05T12:41:12.999Z</time></trkpt><trkpt lat="44.87590488938025" lon="-1.1113141943899756"><ele>23.333333333333336</ele><time>2026-04-05T12:41:13.999Z</time></trkpt><trkpt lat="44.87591524190991" lon="-1.1115672200617228"><ele>23.0</ele><time>2026-04-05T12:41:14.999Z</time></trkpt><trkpt lat="44.875952801784166" lon="-1.111808777442419"><ele>23.666666666666668</ele><time>2026-04-05T12:41:15.999Z</time></trkpt><trkpt lat="44.87600670000995" lon="-1.1120447104727862"><ele>24.333333333333336</ele><time>2026-04-05T12:41:16.999Z</time></trkpt><trkpt lat="44.87604511300213" lon="-1.1122932093333535"><ele>25.0</ele><time>2026-04-05T12:41:17.999Z</time></trkpt><trkpt lat="44.87606950112817" lon="-1.1125437019315878"><ele>25.0</ele><time>2026-04-05T12:41:18.999Z</time></trkpt><trkpt lat="44.87609071116804" lon="-1.1127616903373099"><ele>25.0</ele><time>2026-04-05T12:41:19.999Z</time></trkpt><trkpt lat="44.87610889559585" lon="-1.1129557940782413"><ele>25.0</ele><time>2026-04-05T12:41:20.999Z</time></trkpt><trkpt lat="44.87612857135428" lon="-1.1131483445336399"><ele>25.0</ele><time>2026-04-05T12:41:21.999Z</time></trkpt><trkpt lat="44.87615121075187" lon="-1.1133347079934952"><ele>24.5</ele><time>2026-04-05T12:41:22.999Z</time></trkpt><trkpt lat="44.87617617482071" lon="-1.1135318253056714"><ele>24.0</ele><time>2026-04-05T12:41:23.999Z</time></trkpt><trkpt lat="44.876196349785175" lon="-1.1137166940158372"><ele>23.5</ele><time>2026-04-05T12:41:24.999Z</time></trkpt><trkpt lat="44.876207213385165" lon="-1.1138808660992965"><ele>23.0</ele><time>2026-04-05T12:41:25.999Z</time></trkpt><trkpt lat="44.876207947387144" lon="-1.1140326088483086"><ele>22.599999999999998</ele><time>2026-04-05T12:41:26.999Z</time></trkpt><trkpt lat="44.87620276458225" lon="-1.114168880548771"><ele>22.2</ele><time>2026-04-05T12:41:27.999Z</time></trkpt><trkpt lat="44.87618732796529" lon="-1.1142938161743272"><ele>21.8</ele><time>2026-04-05T12:41:28.999Z</time></trkpt><trkpt lat="44.876164138498844" lon="-1.1143991347234754"><ele>21.4</ele><time>2026-04-05T12:41:29.999Z</time></trkpt><trkpt lat="44.87615562527031" lon="-1.1145066834877253"><ele>21.0</ele><time>2026-04-05T12:41:30.999Z</time></trkpt><trkpt lat="44.87623148824233" lon="-1.114621760740452"><ele>21.0</ele><time>2026-04-05T12:41:32.999Z</time></trkpt><trkpt lat="44.876317942353" lon="-1.114650935498215"><ele>21.0</ele><time>2026-04-05T12:41:33.999Z</time></trkpt><trkpt lat="44.87641253869067" lon="-1.1146206056954135"><ele>21.0</ele><time>2026-04-05T12:41:34.999Z</time></trkpt><trkpt lat="44.87650549366475" lon="-1.1146318244592828"><ele>21.0</ele><time>2026-04-05T12:41:35.999Z</time></trkpt><trkpt lat="44.87657089954204" lon="-1.1146570939639648"><ele>21.0</ele><time>2026-04-05T12:41:36.999Z</time></trkpt><trkpt lat="44.876600014038" lon="-1.114807775505048"><ele>20.75</ele><time>2026-04-05T12:41:38.999Z</time></trkpt><trkpt lat="44.87657678085944" lon="-1.1149384484726885"><ele>20.5</ele><time>2026-04-05T12:41:39.999Z</time></trkpt><trkpt lat="44.87654229643783" lon="-1.1151192100086258"><ele>20.25</ele><time>2026-04-05T12:41:40.999Z</time></trkpt><trkpt lat="44.87651122965306" lon="-1.1152709347054914"><ele>20.0</ele><time>2026-04-05T12:41:41.999Z</time></trkpt><trkpt lat="44.87648741075421" lon="-1.1156664841872856"><ele>19.333333333333336</ele><time>2026-04-05T12:41:42.999Z</time></trkpt><trkpt lat="44.87644696965048" lon="-1.1159811714503867"><ele>18.666666666666668</ele><time>2026-04-05T12:41:43.999Z</time></trkpt><trkpt lat="44.87640637922022" lon="-1.1162735511048174"><ele>18.0</ele><time>2026-04-05T12:41:44.999Z</time></trkpt><trkpt lat="44.8763743839787" lon="-1.1164880599472446"><ele>18.5</ele><time>2026-04-05T12:41:45.999Z</time></trkpt><trkpt lat="44.876352678984325" lon="-1.1166841408980899"><ele>19.0</ele><time>2026-04-05T12:41:46.999Z</time></trkpt><trkpt lat="44.8763285610658" lon="-1.116871885904653"><ele>19.5</ele><time>2026-04-05T12:41:47.999Z</time></trkpt><trkpt lat="44.87630662668079" lon="-1.1170494527335986"><ele>20.0</ele><time>2026-04-05T12:41:48.999Z</time></trkpt><trkpt lat="44.876273394134024" lon="-1.1172830524465867"><ele>20.333333333333336</ele><time>2026-04-05T12:41:49.999Z</time></trkpt><trkpt lat="44.87622938366731" lon="-1.1175487022898503"><ele>20.666666666666668</ele><time>2026-04-05T12:41:50.999Z</time></trkpt><trkpt lat="44.87620069352061" lon="-1.1177758943717084"><ele>21.0</ele><time>2026-04-05T12:41:51.999Z</time></trkpt><trkpt lat="44.876171465568724" lon="-1.1180286051688852"><ele>20.0</ele><time>2026-04-05T12:41:52.999Z</time></trkpt><trkpt lat="44.87614496831249" lon="-1.1182619214831722"><ele>19.0</ele><time>2026-04-05T12:41:53.999Z</time></trkpt><trkpt lat="44.876109963709396" lon="-1.1184921259620852"><ele>18.0</ele><time>2026-04-05T12:41:54.999Z</time></trkpt><trkpt lat="44.87607704013922" lon="-1.118723483904755"><ele>18.0</ele><time>2026-04-05T12:41:55.999Z</time></trkpt><trkpt lat="44.87604867424184" lon="-1.1189505695640105"><ele>18.0</ele><time>2026-04-05T12:41:56.999Z</time></trkpt><trkpt lat="44.87601740511447" lon="-1.1191412517474892"><ele>18.0</ele><time>2026-04-05T12:41:57.999Z</time></trkpt><trkpt lat="44.87600535396375" lon="-1.1193800017987365"><ele>18.333333333333332</ele><time>2026-04-05T12:41:58.999Z</time></trkpt><trkpt lat="44.87597224067571" lon="-1.1196639619067579"><ele>18.666666666666664</ele><time>2026-04-05T12:41:59.999Z</time></trkpt><trkpt lat="44.875936211829185" lon="-1.1199075456385608"><ele>19.0</ele><time>2026-04-05T12:42:00.999Z</time></trkpt><trkpt lat="44.87591489061045" lon="-1.1201010989086897"><ele>18.5</ele><time>2026-04-05T12:42:01.998Z</time></trkpt><trkpt lat="44.87589386733431" lon="-1.1202984567881706"><ele>18.0</ele><time>2026-04-05T12:42:02.998Z</time></trkpt><trkpt lat="44.87587381839697" lon="-1.120460419186081"><ele>17.5</ele><time>2026-04-05T12:42:03.998Z</time></trkpt><trkpt lat="44.875838153336986" lon="-1.1206516333586594"><ele>17.0</ele><time>2026-04-05T12:42:04.998Z</time></trkpt><trkpt lat="44.875774159630616" lon="-1.1208859503837738"><ele>17.0</ele><time>2026-04-05T12:42:05.998Z</time></trkpt><trkpt lat="44.87571087294372" lon="-1.121083270492583"><ele>17.0</ele><time>2026-04-05T12:42:06.998Z</time></trkpt><trkpt lat="44.87566800259085" lon="-1.1212314610060616"><ele>17.0</ele><time>2026-04-05T12:42:07.998Z</time></trkpt><trkpt lat="44.87562048513443" lon="-1.1214075331642959"><ele>17.0</ele><time>2026-04-05T12:42:08.998Z</time></trkpt><trkpt lat="44.87557611860943" lon="-1.1216160507400086"><ele>17.6</ele><time>2026-04-05T12:42:09.998Z</time></trkpt><trkpt lat="44.87553357181894" lon="-1.121790259175585"><ele>18.2</ele><time>2026-04-05T12:42:10.998Z</time></trkpt><trkpt lat="44.875491507629704" lon="-1.1219358047786756"><ele>18.8</ele><time>2026-04-05T12:42:11.998Z</time></trkpt><trkpt lat="44.87546679859592" lon="-1.1220586363772733"><ele>19.4</ele><time>2026-04-05T12:42:12.998Z</time></trkpt><trkpt lat="44.875447606296696" lon="-1.1221689486502067"><ele>20.0</ele><time>2026-04-05T12:42:13.998Z</time></trkpt><trkpt lat="44.8754184568793" lon="-1.1222800575224714"><ele>20.0</ele><time>2026-04-05T12:42:14.998Z</time></trkpt><trkpt lat="44.87538377175249" lon="-1.122384582359637"><ele>20.0</ele><time>2026-04-05T12:42:15.998Z</time></trkpt><trkpt lat="44.875355527962405" lon="-1.1225130339960039"><ele>20.0</ele><time>2026-04-05T12:42:16.998Z</time></trkpt><trkpt lat="44.8753147720577" lon="-1.1227013036198128"><ele>20.0</ele><time>2026-04-05T12:42:17.998Z</time></trkpt><trkpt lat="44.875266995249454" lon="-1.1229133540870178"><ele>20.0</ele><time>2026-04-05T12:42:18.998Z</time></trkpt><trkpt lat="44.87521322840389" lon="-1.1231444715462002"><ele>20.0</ele><time>2026-04-05T12:42:19.998Z</time></trkpt><trkpt lat="44.875147766776685" lon="-1.1234109778803756"><ele>20.0</ele><time>2026-04-05T12:42:20.998Z</time></trkpt><trkpt lat="44.87507782752177" lon="-1.1236900351356978"><ele>20.0</ele><time>2026-04-05T12:42:21.998Z</time></trkpt><trkpt lat="44.87502029815477" lon="-1.1239489282729742"><ele>20.0</ele><time>2026-04-05T12:42:22.998Z</time></trkpt><trkpt lat="44.87496430864639" lon="-1.1241967624747267"><ele>20.0</ele><time>2026-04-05T12:42:23.998Z</time></trkpt><trkpt lat="44.87489562009593" lon="-1.1244721493731098"><ele>19.0</ele><time>2026-04-05T12:42:24.998Z</time></trkpt><trkpt lat="44.874822934086836" lon="-1.1247742353646148"><ele>18.0</ele><time>2026-04-05T12:42:25.998Z</time></trkpt><trkpt lat="44.874745625968885" lon="-1.125097006357697"><ele>18.0</ele><time>2026-04-05T12:42:27Z</time></trkpt><trkpt lat="44.874697416910074" lon="-1.1253331237523148"><ele>18.0</ele><time>2026-04-05T12:42:28Z</time></trkpt><trkpt lat="44.87464278287199" lon="-1.1255650086334623"><ele>18.0</ele><time>2026-04-05T12:42:29Z</time></trkpt><trkpt lat="44.87458696236464" lon="-1.1257803162925446"><ele>17.75</ele><time>2026-04-05T12:42:30Z</time></trkpt><trkpt lat="44.87453127827646" lon="-1.1260040511099598"><ele>17.5</ele><time>2026-04-05T12:42:31Z</time></trkpt><trkpt lat="44.87448581809478" lon="-1.12616985329201"><ele>17.25</ele><time>2026-04-05T12:42:32Z</time></trkpt><trkpt lat="44.87445218690402" lon="-1.1263493953635033"><ele>17.0</ele><time>2026-04-05T12:42:33Z</time></trkpt><trkpt lat="44.87440138010483" lon="-1.1265853074012553"><ele>16.5</ele><time>2026-04-05T12:42:34Z</time></trkpt><trkpt lat="44.87434753665175" lon="-1.1268046023317222"><ele>16.0</ele><time>2026-04-05T12:42:35Z</time></trkpt><trkpt lat="44.874296902141964" lon="-1.12702003345134"><ele>15.5</ele><time>2026-04-05T12:42:36Z</time></trkpt><trkpt lat="44.87425953310105" lon="-1.1271829326844"><ele>15.0</ele><time>2026-04-05T12:42:37Z</time></trkpt><trkpt lat="44.874214095140296" lon="-1.127368262577709"><ele>15.2</ele><time>2026-04-05T12:42:38Z</time></trkpt><trkpt lat="44.8741741114208" lon="-1.1275310515077446"><ele>15.4</ele><time>2026-04-05T12:42:39Z</time></trkpt><trkpt lat="44.87414200042008" lon="-1.1276711705099407"><ele>15.600000000000001</ele><time>2026-04-05T12:42:40Z</time></trkpt><trkpt lat="44.87413412248241" lon="-1.1278039782987477"><ele>15.8</ele><time>2026-04-05T12:42:41Z</time></trkpt><trkpt lat="44.8741496269719" lon="-1.1279785899847585"><ele>16.0</ele><time>2026-04-05T12:42:42Z</time></trkpt><trkpt lat="44.87418264173413" lon="-1.1281292309941877"><ele>16.2</ele><time>2026-04-05T12:42:43Z</time></trkpt><trkpt lat="44.87422319962669" lon="-1.1282508464186043"><ele>16.400000000000002</ele><time>2026-04-05T12:42:44Z</time></trkpt><trkpt lat="44.87425980301387" lon="-1.1284199302589581"><ele>16.6</ele><time>2026-04-05T12:42:45Z</time></trkpt><trkpt lat="44.87426148623183" lon="-1.1285650683508426"><ele>16.8</ele><time>2026-04-05T12:42:46Z</time></trkpt><trkpt lat="44.87425796363838" lon="-1.1287043032384023"><ele>17.0</ele><time>2026-04-05T12:42:47Z</time></trkpt><trkpt lat="44.87428978721692" lon="-1.1288293239975598"><ele>17.0</ele><time>2026-04-05T12:42:48Z</time></trkpt><trkpt lat="44.874329333874606" lon="-1.1289391909753408"><ele>17.0</ele><time>2026-04-05T12:42:49Z</time></trkpt><trkpt lat="44.874366494456666" lon="-1.1290865786514659"><ele>17.0</ele><time>2026-04-05T12:42:50Z</time></trkpt><trkpt lat="44.874400398602006" lon="-1.1292501203082355"><ele>17.0</ele><time>2026-04-05T12:42:51Z</time></trkpt><trkpt lat="44.874415445070376" lon="-1.1293791455457707"><ele>17.0</ele><time>2026-04-05T12:42:52Z</time></trkpt><trkpt lat="44.874419081622285" lon="-1.1294899770572746"><ele>17.0</ele><time>2026-04-05T12:42:53Z</time></trkpt><trkpt lat="44.874420623375215" lon="-1.1295914908111742"><ele>17.0</ele><time>2026-04-05T12:42:54Z</time></trkpt><trkpt lat="44.87447386162869" lon="-1.1297454013948374"><ele>17.0</ele><time>2026-04-05T12:42:56Z</time></trkpt><trkpt lat="44.874565353515784" lon="-1.1298391873134028"><ele>17.0</ele><time>2026-04-05T12:42:58Z</time></trkpt><trkpt lat="44.87463350452504" lon="-1.1299452450356549"><ele>17.0</ele><time>2026-04-05T12:43:00Z</time></trkpt><trkpt lat="44.874657370798175" lon="-1.1300424174098238"><ele>17.0</ele><time>2026-04-05T12:43:03Z</time></trkpt><trkpt lat="44.8746655547939" lon="-1.1301447948693188"><ele>17.0</ele><time>2026-04-05T12:43:06Z</time></trkpt><trkpt lat="44.87468339144203" lon="-1.1303499340785201"><ele>17.0</ele><time>2026-04-05T12:43:08Z</time></trkpt><trkpt lat="44.87470022188431" lon="-1.1305063436104086"><ele>17.0</ele><time>2026-04-05T12:43:09Z</time></trkpt><trkpt lat="44.87473749497888" lon="-1.1306745966336103"><ele>18.0</ele><time>2026-04-05T12:43:10Z</time></trkpt><trkpt lat="44.87477444641946" lon="-1.1308786974981706"><ele>19.0</ele><time>2026-04-05T12:43:11Z</time></trkpt><trkpt lat="44.87479610114743" lon="-1.1310719920089507"><ele>20.0</ele><time>2026-04-05T12:43:12Z</time></trkpt><trkpt lat="44.87482303002078" lon="-1.1313057307975003"><ele>20.333333333333336</ele><time>2026-04-05T12:43:13Z</time></trkpt><trkpt lat="44.87485721470335" lon="-1.131576732293918"><ele>20.666666666666668</ele><time>2026-04-05T12:43:14Z</time></trkpt><trkpt lat="44.87489000302203" lon="-1.1317855926971958"><ele>21.0</ele><time>2026-04-05T12:43:14.999Z</time></trkpt><trkpt lat="44.87491626885631" lon="-1.1320270510888377"><ele>21.0</ele><time>2026-04-05T12:43:15.999Z</time></trkpt><trkpt lat="44.874945749392054" lon="-1.1322776796830785"><ele>21.0</ele><time>2026-04-05T12:43:16.999Z</time></trkpt><trkpt lat="44.87497890604901" lon="-1.1325507483096715"><ele>21.0</ele><time>2026-04-05T12:43:17.999Z</time></trkpt><trkpt lat="44.87501667322524" lon="-1.1328312672301974"><ele>21.0</ele><time>2026-04-05T12:43:18.999Z</time></trkpt><trkpt lat="44.8750580649483" lon="-1.133076240993275"><ele>21.0</ele><time>2026-04-05T12:43:19.999Z</time></trkpt><trkpt lat="44.87509592225221" lon="-1.1333463994989406"><ele>21.0</ele><time>2026-04-05T12:43:20.999Z</time></trkpt><trkpt lat="44.875126669318284" lon="-1.1335692371632766"><ele>20.333333333333332</ele><time>2026-04-05T12:43:21.999Z</time></trkpt><trkpt lat="44.875156372022786" lon="-1.1338234403027658"><ele>19.666666666666664</ele><time>2026-04-05T12:43:22.999Z</time></trkpt><trkpt lat="44.87518973884559" lon="-1.1340412158757998"><ele>19.0</ele><time>2026-04-05T12:43:23.999Z</time></trkpt><trkpt lat="44.87521851289566" lon="-1.1342547074730172"><ele>18.8</ele><time>2026-04-05T12:43:24.999Z</time></trkpt><trkpt lat="44.87523988697079" lon="-1.134430767979085"><ele>18.599999999999998</ele><time>2026-04-05T12:43:25.999Z</time></trkpt><trkpt lat="44.87526610875218" lon="-1.1345825809830183"><ele>18.4</ele><time>2026-04-05T12:43:26.999Z</time></trkpt><trkpt lat="44.87528762037086" lon="-1.1347184179285938"><ele>18.2</ele><time>2026-04-05T12:43:27.999Z</time></trkpt><trkpt lat="44.87530494632233" lon="-1.1348376540861111"><ele>18.0</ele><time>2026-04-05T12:43:28.999Z</time></trkpt><trkpt lat="44.87531673272412" lon="-1.1349318359152012"><ele>17.25</ele><time>2026-04-05T12:43:29.999Z</time></trkpt><trkpt lat="44.875209343834555" lon="-1.1350123986190739"><ele>16.5</ele><time>2026-04-05T12:43:32.999Z</time></trkpt><trkpt lat="44.87511173040793" lon="-1.1350371013767886"><ele>15.75</ele><time>2026-04-05T12:43:33.999Z</time></trkpt><trkpt lat="44.8750093446968" lon="-1.135102107622126"><ele>15.0</ele><time>2026-04-05T12:43:34.999Z</time></trkpt><trkpt lat="44.87489617809343" lon="-1.1351729794435121"><ele>15.0</ele><time>2026-04-05T12:43:35.999Z</time></trkpt><trkpt lat="44.87477282711578" lon="-1.135236856110367"><ele>15.0</ele><time>2026-04-05T12:43:36.999Z</time></trkpt><trkpt lat="44.87466438768217" lon="-1.1352733226191662"><ele>15.0</ele><time>2026-04-05T12:43:37.999Z</time></trkpt><trkpt lat="44.87458314517129" lon="-1.135306689571171"><ele>15.0</ele><time>2026-04-05T12:43:38.999Z</time></trkpt><trkpt lat="44.87451311775802" lon="-1.135368615670388"><ele>15.0</ele><time>2026-04-05T12:43:39.999Z</time></trkpt><trkpt lat="44.87444448804609" lon="-1.1354506196574512"><ele>15.0</ele><time>2026-04-05T12:43:40.999Z</time></trkpt><trkpt lat="44.87435896146178" lon="-1.135553184958945"><ele>15.0</ele><time>2026-04-05T12:43:41.999Z</time></trkpt><trkpt lat="44.874256129071874" lon="-1.1356493299980452"><ele>15.0</ele><time>2026-04-05T12:43:42.999Z</time></trkpt><trkpt lat="44.8741314667798" lon="-1.1357688891905977"><ele>15.0</ele><time>2026-04-05T12:43:43.999Z</time></trkpt><trkpt lat="44.874019345969124" lon="-1.1358755064451367"><ele>14.666666666666666</ele><time>2026-04-05T12:43:44.999Z</time></trkpt><trkpt lat="44.873934330238505" lon="-1.1359561974043746"><ele>14.333333333333332</ele><time>2026-04-05T12:43:45.999Z</time></trkpt><trkpt lat="44.87385923327732" lon="-1.1360192734101404"><ele>14.0</ele><time>2026-04-05T12:43:46.999Z</time></trkpt><trkpt lat="44.87379260727548" lon="-1.1360512452457001"><ele>13.666666666666666</ele><time>2026-04-05T12:43:47.999Z</time></trkpt><trkpt lat="44.87368650290541" lon="-1.1360371729887102"><ele>13.333333333333332</ele><time>2026-04-05T12:43:49.999Z</time></trkpt><trkpt lat="44.87361070709691" lon="-1.1360182039683662"><ele>13.0</ele><time>2026-04-05T12:43:52.999Z</time></trkpt><trkpt lat="44.87355809934104" lon="-1.136109756865961"><ele>12.999999999999998</ele><time>2026-04-05T12:43:56.999Z</time></trkpt><trkpt lat="44.873618564544344" lon="-1.1362237100462564"><ele>13.0</ele><time>2026-04-05T12:44:09.998Z</time></trkpt><trkpt lat="44.87364924949511" lon="-1.1363092759711932"><ele>13.0</ele><time>2026-04-05T12:44:10.998Z</time></trkpt><trkpt lat="44.87369183929997" lon="-1.136399323416807"><ele>13.0</ele><time>2026-04-05T12:44:11.998Z</time></trkpt><trkpt lat="44.87373657400066" lon="-1.136496909524082"><ele>12.999999999999998</ele><time>2026-04-05T12:44:12.998Z</time></trkpt><trkpt lat="44.873784969119086" lon="-1.1366029888661007"><ele>13.0</ele><time>2026-04-05T12:44:13.998Z</time></trkpt><trkpt lat="44.8738381681349" lon="-1.1367199622398123"><ele>12.833333333333332</ele><time>2026-04-05T12:44:14.998Z</time></trkpt><trkpt lat="44.873882927442864" lon="-1.1368114035763257"><ele>12.666666666666666</ele><time>2026-04-05T12:44:15.998Z</time></trkpt><trkpt lat="44.87392902950058" lon="-1.1369095425552957"><ele>12.5</ele><time>2026-04-05T12:44:16.998Z</time></trkpt><trkpt lat="44.87396543897009" lon="-1.1369837287889069"><ele>12.333333333333332</ele><time>2026-04-05T12:44:17.998Z</time></trkpt><trkpt lat="44.874006265365544" lon="-1.1370557938569565"><ele>12.166666666666666</ele><time>2026-04-05T12:44:18.998Z</time></trkpt><trkpt lat="44.87409163006223" lon="-1.1371353512103208"><ele>12.0</ele><time>2026-04-05T12:44:20.998Z</time></trkpt><trkpt lat="44.87416047745287" lon="-1.1371916667069453"><ele>12.0</ele><time>2026-04-05T12:44:22.998Z</time></trkpt><trkpt lat="44.87419617597668" lon="-1.1373247894580318"><ele>12.0</ele><time>2026-04-05T12:45:24.999Z</time></trkpt><trkpt lat="44.87422293660085" lon="-1.1374431752525254"><ele>12.0</ele><time>2026-04-05T12:45:26.999Z</time></trkpt><trkpt lat="44.8742606584524" lon="-1.1375756993697865"><ele>12.0</ele><time>2026-04-05T12:45:28.999Z</time></trkpt><trkpt lat="44.87431543759801" lon="-1.1376843970514312"><ele>12.0</ele><time>2026-04-05T12:45:29.999Z</time></trkpt><trkpt lat="44.87438187117012" lon="-1.1377922947242316"><ele>12.333333333333332</ele><time>2026-04-05T12:45:30.999Z</time></trkpt><trkpt lat="44.87444733310068" lon="-1.1379380551933376"><ele>12.666666666666666</ele><time>2026-04-05T12:45:31.999Z</time></trkpt><trkpt lat="44.874553641673145" lon="-1.1381499825086026"><ele>13.0</ele><time>2026-04-05T12:45:32.999Z</time></trkpt><trkpt lat="44.87467915606365" lon="-1.1384123509990016"><ele>13.5</ele><time>2026-04-05T12:45:33.999Z</time></trkpt><trkpt lat="44.874821489564944" lon="-1.1386800934637025"><ele>14.0</ele><time>2026-04-05T12:45:34.999Z</time></trkpt><trkpt lat="44.87493665434975" lon="-1.1389322347780613"><ele>14.0</ele><time>2026-04-05T12:45:35.999Z</time></trkpt><trkpt lat="44.87505539217571" lon="-1.1391781924912272"><ele>14.0</ele><time>2026-04-05T12:45:36.999Z</time></trkpt><trkpt lat="44.8751884925278" lon="-1.1394537598059482"><ele>14.0</ele><time>2026-04-05T12:45:37.999Z</time></trkpt><trkpt lat="44.875313574130594" lon="-1.1397151010469482"><ele>15.333333333333334</ele><time>2026-04-05T12:45:38.999Z</time></trkpt><trkpt lat="44.87541702320023" lon="-1.1399235127400869"><ele>16.666666666666668</ele><time>2026-04-05T12:45:39.999Z</time></trkpt><trkpt lat="44.875508465716216" lon="-1.1401103344209373"><ele>18.0</ele><time>2026-04-05T12:45:40.999Z</time></trkpt><trkpt lat="44.87560326304343" lon="-1.1403087516354575"><ele>18.0</ele><time>2026-04-05T12:45:41.999Z</time></trkpt><trkpt lat="44.87569920142202" lon="-1.1405016108408295"><ele>18.0</ele><time>2026-04-05T12:45:42.999Z</time></trkpt><trkpt lat="44.87577966684718" lon="-1.1406645371274344"><ele>18.0</ele><time>2026-04-05T12:45:43.999Z</time></trkpt><trkpt lat="44.87583793877611" lon="-1.1408083102176214"><ele>18.0</ele><time>2026-04-05T12:45:44.999Z</time></trkpt><trkpt lat="44.87589006755168" lon="-1.1409490967313285"><ele>18.0</ele><time>2026-04-05T12:45:45.999Z</time></trkpt><trkpt lat="44.87595814062433" lon="-1.1410901148028851"><ele>18.0</ele><time>2026-04-05T12:45:46.999Z</time></trkpt><trkpt lat="44.87603535625691" lon="-1.1412518322509815"><ele>18.0</ele><time>2026-04-05T12:45:47.999Z</time></trkpt><trkpt lat="44.87613115367981" lon="-1.141392591957789"><ele>18.0</ele><time>2026-04-05T12:45:48.999Z</time></trkpt><trkpt lat="44.87623992962832" lon="-1.1415364661423708"><ele>18.0</ele><time>2026-04-05T12:45:49.999Z</time></trkpt><trkpt lat="44.87633712812026" lon="-1.1417158958143625"><ele>18.0</ele><time>2026-04-05T12:45:50.999Z</time></trkpt><trkpt lat="44.876415089051655" lon="-1.1419170078559437"><ele>18.0</ele><time>2026-04-05T12:45:51.999Z</time></trkpt><trkpt lat="44.87650464011469" lon="-1.1421132961008722"><ele>18.0</ele><time>2026-04-05T12:45:52.999Z</time></trkpt><trkpt lat="44.87658420392342" lon="-1.142287463505438"><ele>18.0</ele><time>2026-04-05T12:45:53.999Z</time></trkpt><trkpt lat="44.876673261600175" lon="-1.1425043806294006"><ele>18.0</ele><time>2026-04-05T12:45:54.999Z</time></trkpt><trkpt lat="44.87676176075067" lon="-1.1427126087398989"><ele>18.0</ele><time>2026-04-05T12:45:55.999Z</time></trkpt><trkpt lat="44.87685656028549" lon="-1.1429249312638516"><ele>18.0</ele><time>2026-04-05T12:45:56.999Z</time></trkpt><trkpt lat="44.87695298405417" lon="-1.1431281913515359"><ele>18.0</ele><time>2026-04-05T12:45:57.999Z</time></trkpt><trkpt lat="44.8770699960304" lon="-1.143367733340098"><ele>18.0</ele><time>2026-04-05T12:45:58.999Z</time></trkpt><trkpt lat="44.877159598502764" lon="-1.14356075905718"><ele>18.0</ele><time>2026-04-05T12:45:59.999Z</time></trkpt><trkpt lat="44.87723321006893" lon="-1.1437248644669642"><ele>18.0</ele><time>2026-04-05T12:46:00.999Z</time></trkpt><trkpt lat="44.87730184477576" lon="-1.1438845815801717"><ele>18.0</ele><time>2026-04-05T12:46:01.999Z</time></trkpt><trkpt lat="44.87739050580809" lon="-1.1440626388789132"><ele>17.333333333333332</ele><time>2026-04-05T12:46:02.999Z</time></trkpt><trkpt lat="44.877485598394465" lon="-1.1442595732366905"><ele>16.666666666666664</ele><time>2026-04-05T12:46:03.999Z</time></trkpt><trkpt lat="44.877590410074625" lon="-1.1444744180435213"><ele>16.0</ele><time>2026-04-05T12:46:04.999Z</time></trkpt><trkpt lat="44.877675963661986" lon="-1.1446511569279314"><ele>16.25</ele><time>2026-04-05T12:46:05.999Z</time></trkpt><trkpt lat="44.87774942719699" lon="-1.1448026614756228"><ele>16.5</ele><time>2026-04-05T12:46:06.999Z</time></trkpt><trkpt lat="44.877815775821375" lon="-1.1449529054959962"><ele>16.75</ele><time>2026-04-05T12:46:07.999Z</time></trkpt><trkpt lat="44.877886120117" lon="-1.145098745496204"><ele>17.0</ele><time>2026-04-05T12:46:08.999Z</time></trkpt><trkpt lat="44.877961609978684" lon="-1.145236297555915"><ele>17.0</ele><time>2026-04-05T12:46:09.999Z</time></trkpt><trkpt lat="44.87803901037149" lon="-1.1453828854424726"><ele>17.0</ele><time>2026-04-05T12:46:10.998Z</time></trkpt><trkpt lat="44.87810434732974" lon="-1.1455263245744587"><ele>17.0</ele><time>2026-04-05T12:46:11.998Z</time></trkpt><trkpt lat="44.87816363231408" lon="-1.1456715414832825"><ele>17.0</ele><time>2026-04-05T12:46:12.998Z</time></trkpt><trkpt lat="44.87821788890896" lon="-1.1457937796004738"><ele>17.0</ele><time>2026-04-05T12:46:13.998Z</time></trkpt><trkpt lat="44.87828255430655" lon="-1.145910562561834"><ele>17.0</ele><time>2026-04-05T12:46:14.998Z</time></trkpt><trkpt lat="44.87834758719944" lon="-1.1460301671387951"><ele>17.0</ele><time>2026-04-05T12:46:15.998Z</time></trkpt><trkpt lat="44.87839858773947" lon="-1.146153475384861"><ele>17.0</ele><time>2026-04-05T12:46:16.998Z</time></trkpt><trkpt lat="44.878454159815654" lon="-1.1463129487484538"><ele>17.0</ele><time>2026-04-05T12:46:17.998Z</time></trkpt><trkpt lat="44.878515744776195" lon="-1.1464895527530548"><ele>16.5</ele><time>2026-04-05T12:46:18.998Z</time></trkpt><trkpt lat="44.878593202334486" lon="-1.1466541023490406"><ele>16.0</ele><time>2026-04-05T12:46:19.998Z</time></trkpt><trkpt lat="44.87866335766601" lon="-1.146809159777758"><ele>15.5</ele><time>2026-04-05T12:46:20.998Z</time></trkpt><trkpt lat="44.87872045773031" lon="-1.1469570869623178"><ele>15.0</ele><time>2026-04-05T12:46:21.998Z</time></trkpt><trkpt lat="44.87876425530253" lon="-1.1470999520374552"><ele>15.0</ele><time>2026-04-05T12:46:22.998Z</time></trkpt><trkpt lat="44.87880402044525" lon="-1.1472313025287946"><ele>15.0</ele><time>2026-04-05T12:46:23.998Z</time></trkpt><trkpt lat="44.87883965656763" lon="-1.1473576846215954"><ele>15.0</ele><time>2026-04-05T12:46:24.998Z</time></trkpt><trkpt lat="44.87887277251783" lon="-1.1474692151847643"><ele>15.0</ele><time>2026-04-05T12:46:25.998Z</time></trkpt><trkpt lat="44.878917280705124" lon="-1.1475524076440544"><ele>15.0</ele><time>2026-04-05T12:46:26.998Z</time></trkpt><trkpt lat="44.87899691172999" lon="-1.14762449342822"><ele>15.0</ele><time>2026-04-05T12:46:27.998Z</time></trkpt><trkpt lat="44.879112189244736" lon="-1.1477035135936031"><ele>15.0</ele><time>2026-04-05T12:46:28.998Z</time></trkpt><trkpt lat="44.879231227687534" lon="-1.147760174511212"><ele>15.0</ele><time>2026-04-05T12:46:29.998Z</time></trkpt><trkpt lat="44.87933323959949" lon="-1.1477798981981093"><ele>15.0</ele><time>2026-04-05T12:46:30.998Z</time></trkpt><trkpt lat="44.879443869625824" lon="-1.1477801615171452"><ele>16.2</ele><time>2026-04-05T12:46:31.998Z</time></trkpt><trkpt lat="44.879509501762314" lon="-1.1477402737989182"><ele>17.4</ele><time>2026-04-05T12:46:32.998Z</time></trkpt><trkpt lat="44.87955680379055" lon="-1.1476575113361582"><ele>18.6</ele><time>2026-04-05T12:46:33.998Z</time></trkpt><trkpt lat="44.87959823675368" lon="-1.1475545349048786"><ele>19.8</ele><time>2026-04-05T12:46:34.998Z</time></trkpt><trkpt lat="44.87960780912343" lon="-1.1474136602858684"><ele>21.0</ele><time>2026-04-05T12:46:35.998Z</time></trkpt><trkpt lat="44.87965456622088" lon="-1.1472314869804143"><ele>21.0</ele><time>2026-04-05T12:46:36.998Z</time></trkpt><trkpt lat="44.879735889556855" lon="-1.1470945911156867"><ele>21.0</ele><time>2026-04-05T12:46:37.998Z</time></trkpt><trkpt lat="44.879779359256204" lon="-1.1469434105735632"><ele>21.0</ele><time>2026-04-05T12:46:39Z</time></trkpt><trkpt lat="44.87982617908723" lon="-1.1468781267075057"><ele>21.0</ele><time>2026-04-05T12:46:40Z</time></trkpt><trkpt lat="44.87993231790311" lon="-1.146825012940481"><ele>21.0</ele><time>2026-04-05T12:46:41Z</time></trkpt><trkpt lat="44.88002892046641" lon="-1.1467936312759488"><ele>21.0</ele><time>2026-04-05T12:46:42Z</time></trkpt><trkpt lat="44.88016455436903" lon="-1.146812988929727"><ele>21.0</ele><time>2026-04-05T12:46:43Z</time></trkpt><trkpt lat="44.880280686664754" lon="-1.1468682455871628"><ele>21.0</ele><time>2026-04-05T12:46:44Z</time></trkpt><trkpt lat="44.88036500631437" lon="-1.146900976608279"><ele>21.0</ele><time>2026-04-05T12:46:45Z</time></trkpt><trkpt lat="44.880447442104725" lon="-1.1469231425999231"><ele>21.0</ele><time>2026-04-05T12:46:46Z</time></trkpt><trkpt lat="44.88052966065104" lon="-1.1469486937137474"><ele>21.0</ele><time>2026-04-05T12:46:47Z</time></trkpt><trkpt lat="44.880592039216026" lon="-1.1469806215658365"><ele>21.0</ele><time>2026-04-05T12:46:48Z</time></trkpt><trkpt lat="44.88068390528141" lon="-1.1470603227297789"><ele>21.0</ele><time>2026-04-05T12:46:50Z</time></trkpt><trkpt lat="44.8807586321483" lon="-1.1471289495422587"><ele>21.0</ele><time>2026-04-05T12:46:52Z</time></trkpt><trkpt lat="44.8808191734021" lon="-1.147167156094472"><ele>21.0</ele><time>2026-04-05T12:46:54Z</time></trkpt><trkpt lat="44.88091028175795" lon="-1.1472068403244298"><ele>21.0</ele><time>2026-04-05T12:46:56Z</time></trkpt><trkpt lat="44.88099199320203" lon="-1.147218240268738"><ele>21.0</ele><time>2026-04-05T12:46:58Z</time></trkpt><trkpt lat="44.881049004323664" lon="-1.1472816952212206"><ele>21.0</ele><time>2026-04-05T12:47:08Z</time></trkpt><trkpt lat="44.88110033555934" lon="-1.147345644041873"><ele>21.0</ele><time>2026-04-05T12:47:09Z</time></trkpt><trkpt lat="44.88118515663164" lon="-1.1474412105324223"><ele>21.0</ele><time>2026-04-05T12:47:11Z</time></trkpt><trkpt lat="44.88122761510487" lon="-1.1475175840709442"><ele>21.0</ele><time>2026-04-05T12:47:13Z</time></trkpt><trkpt lat="44.88138480631415" lon="-1.1475762314636153"><ele>21.0</ele><time>2026-04-05T12:47:16Z</time></trkpt><trkpt lat="44.881385904886834" lon="-1.1474848799846713"><ele>21.0</ele><time>2026-04-05T12:47:19Z</time></trkpt><trkpt lat="44.881330304549174" lon="-1.1474244562109266"><ele>21.0</ele><time>2026-04-05T12:48:20.998Z</time></trkpt><trkpt lat="44.88125653124781" lon="-1.1474318274105546"><ele>21.0</ele><time>2026-04-05T12:48:24.998Z</time></trkpt><trkpt lat="44.88119142112399" lon="-1.1474362594900682"><ele>21.0</ele><time>2026-04-05T12:48:26.998Z</time></trkpt><trkpt lat="44.881154156694606" lon="-1.1473544212387294"><ele>21.0</ele><time>2026-04-05T12:48:28.998Z</time></trkpt><trkpt lat="44.88109463392393" lon="-1.1472510585250797"><ele>21.0</ele><time>2026-04-05T12:48:31.998Z</time></trkpt><trkpt lat="44.881041995994536" lon="-1.1471896048435994"><ele>21.0</ele><time>2026-04-05T12:48:34.998Z</time></trkpt><trkpt lat="44.880940114845174" lon="-1.147103421917241"><ele>21.0</ele><time>2026-04-05T12:53:38.999Z</time></trkpt><trkpt lat="44.88092502842675" lon="-1.1472078190496147"><ele>21.0</ele><time>2026-04-05T12:53:42.999Z</time></trkpt><trkpt lat="44.88098918828218" lon="-1.1472671782606239"><ele>21.0</ele><time>2026-04-05T12:53:43.999Z</time></trkpt><trkpt lat="44.88106158126544" lon="-1.1472223828373702"><ele>21.0</ele><time>2026-04-05T12:53:46.999Z</time></trkpt><trkpt lat="44.8811345038256" lon="-1.1471522303810728"><ele>21.0</ele><time>2026-04-05T12:53:48.999Z</time></trkpt><trkpt lat="44.88123471441222" lon="-1.1471711104266602"><ele>21.0</ele><time>2026-04-05T12:53:50.999Z</time></trkpt><trkpt lat="44.8813402645065" lon="-1.147148844715888"><ele>21.0</ele><time>2026-04-05T12:53:52.999Z</time></trkpt><trkpt lat="44.881427749064066" lon="-1.1470580415956395"><ele>21.0</ele><time>2026-04-05T12:53:54.999Z</time></trkpt><trkpt lat="44.881491616500035" lon="-1.146941153797984"><ele>21.0</ele><time>2026-04-05T12:53:56.999Z</time></trkpt><trkpt lat="44.881570208822396" lon="-1.1468903379593307"><ele>21.0</ele><time>2026-04-05T12:53:58.999Z</time></trkpt><trkpt lat="44.881642356475474" lon="-1.146927516116455"><ele>21.0</ele><time>2026-04-05T12:53:59.999Z</time></trkpt><trkpt lat="44.88173358709343" lon="-1.1468628283741833"><ele>21.0</ele><time>2026-04-05T12:54:01.999Z</time></trkpt><trkpt lat="44.8818403167192" lon="-1.146860933937195"><ele>21.0</ele><time>2026-04-05T12:54:03.999Z</time></trkpt><trkpt lat="44.88191049721149" lon="-1.1468737870874366"><ele>21.0</ele><time>2026-04-05T12:54:04.999Z</time></trkpt><trkpt lat="44.882017744339095" lon="-1.146894877934412"><ele>21.0</ele><time>2026-04-05T12:54:06.999Z</time></trkpt><trkpt lat="44.882085015720385" lon="-1.1469081608350535"><ele>20.6</ele><time>2026-04-05T12:54:07.999Z</time></trkpt><trkpt lat="44.88218858749067" lon="-1.1469271437205093"><ele>20.200000000000003</ele><time>2026-04-05T12:54:09.999Z</time></trkpt><trkpt lat="44.8822888897155" lon="-1.1469696754654695"><ele>19.799999999999997</ele><time>2026-04-05T12:54:11.999Z</time></trkpt><trkpt lat="44.88236103852822" lon="-1.147000674706723"><ele>19.4</ele><time>2026-04-05T12:54:14.999Z</time></trkpt><trkpt lat="44.88244176681456" lon="-1.1470440427730682"><ele>19.0</ele><time>2026-04-05T12:54:19.998Z</time></trkpt><trkpt lat="44.88252112946767" lon="-1.1470773056532648"><ele>18.4</ele><time>2026-04-05T12:54:20.998Z</time></trkpt><trkpt lat="44.88260703275619" lon="-1.1471420261850531"><ele>17.799999999999997</ele><time>2026-04-05T12:54:21.998Z</time></trkpt><trkpt lat="44.8827099258971" lon="-1.1472301535834046"><ele>17.200000000000003</ele><time>2026-04-05T12:54:22.998Z</time></trkpt><trkpt lat="44.88279077605725" lon="-1.1473026482441022"><ele>16.6</ele><time>2026-04-05T12:54:23.998Z</time></trkpt><trkpt lat="44.882858714978454" lon="-1.147330458493277"><ele>16.0</ele><time>2026-04-05T12:54:24.998Z</time></trkpt><trkpt lat="44.882951738228016" lon="-1.1473130547488517"><ele>16.0</ele><time>2026-04-05T12:54:27.998Z</time></trkpt><trkpt lat="44.88303936924333" lon="-1.147292939643983"><ele>16.0</ele><time>2026-04-05T12:54:28.998Z</time></trkpt><trkpt lat="44.88310900860544" lon="-1.1472769693145743"><ele>16.0</ele><time>2026-04-05T12:54:29.998Z</time></trkpt><trkpt lat="44.88323018790405" lon="-1.1472490357235972"><ele>16.0</ele><time>2026-04-05T12:54:30.998Z</time></trkpt><trkpt lat="44.883311818627504" lon="-1.1472328648970656"><ele>16.0</ele><time>2026-04-05T12:54:31.998Z</time></trkpt><trkpt lat="44.88339916355615" lon="-1.1472491975724928"><ele>15.499999999999998</ele><time>2026-04-05T12:54:32.998Z</time></trkpt><trkpt lat="44.883502366199366" lon="-1.1472741119046708"><ele>15.0</ele><time>2026-04-05T12:54:33.998Z</time></trkpt><trkpt lat="44.88359409727408" lon="-1.1472688074607118"><ele>14.5</ele><time>2026-04-05T12:54:34.998Z</time></trkpt><trkpt lat="44.883676235887044" lon="-1.1472572738859481"><ele>14.0</ele><time>2026-04-05T12:54:35.998Z</time></trkpt><trkpt lat="44.88373891223458" lon="-1.1472465904648566"><ele>13.499999999999998</ele><time>2026-04-05T12:54:36.998Z</time></trkpt><trkpt lat="44.88381249760907" lon="-1.147307067273236"><ele>13.0</ele><time>2026-04-05T12:54:39.998Z</time></trkpt><trkpt lat="44.883837372680226" lon="-1.1473985476527222"><ele>13.0</ele><time>2026-04-05T12:54:40.998Z</time></trkpt><trkpt lat="44.88385031946683" lon="-1.14750607654658"><ele>13.0</ele><time>2026-04-05T12:54:41.998Z</time></trkpt><trkpt lat="44.883871841092706" lon="-1.1476388909737296"><ele>13.0</ele><time>2026-04-05T12:54:42.998Z</time></trkpt><trkpt lat="44.883894401205445" lon="-1.1477668517204882"><ele>13.0</ele><time>2026-04-05T12:54:43.998Z</time></trkpt><trkpt lat="44.88390035595244" lon="-1.1478778020910492"><ele>13.0</ele><time>2026-04-05T12:54:44.998Z</time></trkpt><trkpt lat="44.883967494159926" lon="-1.1479958696508987"><ele>13.0</ele><time>2026-04-05T12:54:45.998Z</time></trkpt><trkpt lat="44.88402637105123" lon="-1.1481176026831303"><ele>13.0</ele><time>2026-04-05T12:54:46.998Z</time></trkpt><trkpt lat="44.88407634084322" lon="-1.1482752207447915"><ele>13.0</ele><time>2026-04-05T12:54:47.998Z</time></trkpt><trkpt lat="44.884119100799865" lon="-1.1484511115676261"><ele>13.0</ele><time>2026-04-05T12:54:48.998Z</time></trkpt><trkpt lat="44.88415253233708" lon="-1.148624557889415"><ele>13.5</ele><time>2026-04-05T12:54:49.998Z</time></trkpt><trkpt lat="44.884189425094085" lon="-1.1488052322599598"><ele>14.0</ele><time>2026-04-05T12:54:50.998Z</time></trkpt><trkpt lat="44.88424740970721" lon="-1.1489502863082848"><ele>14.5</ele><time>2026-04-05T12:54:51.998Z</time></trkpt><trkpt lat="44.884319142316414" lon="-1.149105105446204"><ele>15.0</ele><time>2026-04-05T12:54:52.998Z</time></trkpt><trkpt lat="44.88436739223645" lon="-1.1492692962582474"><ele>14.8</ele><time>2026-04-05T12:54:53.998Z</time></trkpt><trkpt lat="44.88439901581851" lon="-1.1494064526395278"><ele>14.6</ele><time>2026-04-05T12:54:54.998Z</time></trkpt><trkpt lat="44.88444783211167" lon="-1.1495621925054222"><ele>14.399999999999999</ele><time>2026-04-05T12:54:55.998Z</time></trkpt><trkpt lat="44.88448066224497" lon="-1.1496861037927435"><ele>14.2</ele><time>2026-04-05T12:54:56.998Z</time></trkpt><trkpt lat="44.88452246274841" lon="-1.149829953886485"><ele>14.0</ele><time>2026-04-05T12:54:57.998Z</time></trkpt><trkpt lat="44.884559254852284" lon="-1.1499535938505832"><ele>14.000000000000002</ele><time>2026-04-05T12:54:58.998Z</time></trkpt><trkpt lat="44.88458066517346" lon="-1.1500575738851868"><ele>14.0</ele><time>2026-04-05T12:54:59.998Z</time></trkpt><trkpt lat="44.88458979483185" lon="-1.150146854217368"><ele>14.0</ele><time>2026-04-05T12:55:01Z</time></trkpt><trkpt lat="44.88454766433668" lon="-1.1502438230503398"><ele>14.0</ele><time>2026-04-05T12:55:03Z</time></trkpt><trkpt lat="44.884496663159084" lon="-1.1503032706076373"><ele>14.000000000000002</ele><time>2026-04-05T12:55:04Z</time></trkpt><trkpt lat="44.884436620106186" lon="-1.1503910749210666"><ele>14.0</ele><time>2026-04-05T12:55:05Z</time></trkpt><trkpt lat="44.88437150580768" lon="-1.1504679146605297"><ele>14.0</ele><time>2026-04-05T12:55:06Z</time></trkpt><trkpt lat="44.88431469098478" lon="-1.15052605097652"><ele>13.999999999999998</ele><time>2026-04-05T12:55:07Z</time></trkpt><trkpt lat="44.88433603806187" lon="-1.1506754965044974"><ele>13.999999999999998</ele><time>2026-04-05T12:55:09Z</time></trkpt><trkpt lat="44.88435184902541" lon="-1.1507864459494752"><ele>14.0</ele><time>2026-04-05T12:55:10Z</time></trkpt><trkpt lat="44.88434809798852" lon="-1.150933817353014"><ele>14.0</ele><time>2026-04-05T12:55:11Z</time></trkpt><trkpt lat="44.88434264476684" lon="-1.1510648380308872"><ele>14.399999999999999</ele><time>2026-04-05T12:55:12Z</time></trkpt><trkpt lat="44.884369824444725" lon="-1.1511728429638428"><ele>14.799999999999999</ele><time>2026-04-05T12:55:13Z</time></trkpt><trkpt lat="44.88443161718116" lon="-1.1512881467893261"><ele>15.200000000000001</ele><time>2026-04-05T12:55:14Z</time></trkpt><trkpt lat="44.884463710670296" lon="-1.1514530759649761"><ele>15.600000000000001</ele><time>2026-04-05T12:55:15Z</time></trkpt><trkpt lat="44.88450448478034" lon="-1.151646848786925"><ele>16.0</ele><time>2026-04-05T12:55:16Z</time></trkpt><trkpt lat="44.88453967215219" lon="-1.1517954932028298"><ele>17.200000000000003</ele><time>2026-04-05T12:55:17Z</time></trkpt><trkpt lat="44.88458637681501" lon="-1.1519532423691579"><ele>18.400000000000002</ele><time>2026-04-05T12:55:18Z</time></trkpt><trkpt lat="44.88461062651265" lon="-1.1520895929232613"><ele>19.6</ele><time>2026-04-05T12:55:19Z</time></trkpt><trkpt lat="44.88464668697462" lon="-1.1522208951259083"><ele>20.8</ele><time>2026-04-05T12:55:20Z</time></trkpt><trkpt lat="44.88466908479313" lon="-1.152363225974216"><ele>22.0</ele><time>2026-04-05T12:55:21Z</time></trkpt><trkpt lat="44.884669413647764" lon="-1.1524702802303346"><ele>22.400000000000002</ele><time>2026-04-05T12:55:22Z</time></trkpt><trkpt lat="44.88468765253004" lon="-1.1525842924781358"><ele>22.8</ele><time>2026-04-05T12:55:23Z</time></trkpt><trkpt lat="44.88473633086396" lon="-1.1526945996670066"><ele>23.2</ele><time>2026-04-05T12:55:24Z</time></trkpt><trkpt lat="44.88476852369164" lon="-1.1528358574675917"><ele>23.6</ele><time>2026-04-05T12:55:25Z</time></trkpt><trkpt lat="44.88479899760888" lon="-1.1529732491602016"><ele>24.0</ele><time>2026-04-05T12:55:26Z</time></trkpt><trkpt lat="44.88481988919034" lon="-1.15307663266365"><ele>24.0</ele><time>2026-04-05T12:55:27Z</time></trkpt><trkpt lat="44.88484247137934" lon="-1.153200198554442"><ele>24.0</ele><time>2026-04-05T12:55:28.999Z</time></trkpt><trkpt lat="44.88492828465459" lon="-1.1532002460508883"><ele>24.0</ele><time>2026-04-05T12:55:34.999Z</time></trkpt><trkpt lat="44.8850654858046" lon="-1.1532419152001196"><ele>24.0</ele><time>2026-04-05T12:55:36.999Z</time></trkpt><trkpt lat="44.88516437858314" lon="-1.1532712489931558"><ele>24.0</ele><time>2026-04-05T12:55:37.999Z</time></trkpt><trkpt lat="44.885264080617134" lon="-1.1533071689826606"><ele>23.5</ele><time>2026-04-05T12:55:38.999Z</time></trkpt><trkpt lat="44.8853696997767" lon="-1.1533303304069877"><ele>23.0</ele><time>2026-04-05T12:55:39.999Z</time></trkpt><trkpt lat="44.88547503997795" lon="-1.1533788123662905"><ele>22.5</ele><time>2026-04-05T12:55:40.999Z</time></trkpt><trkpt lat="44.885592669985954" lon="-1.1534824088866926"><ele>22.0</ele><time>2026-04-05T12:55:41.999Z</time></trkpt><trkpt lat="44.88568435288303" lon="-1.1535931391762777"><ele>22.0</ele><time>2026-04-05T12:55:42.999Z</time></trkpt><trkpt lat="44.88575572709672" lon="-1.1537014673180253"><ele>22.0</ele><time>2026-04-05T12:55:43.999Z</time></trkpt><trkpt lat="44.885804260496165" lon="-1.1538213409946136"><ele>22.0</ele><time>2026-04-05T12:55:44.999Z</time></trkpt><trkpt lat="44.88584877756279" lon="-1.153964330657404"><ele>22.0</ele><time>2026-04-05T12:55:45.999Z</time></trkpt><trkpt lat="44.88590214745015" lon="-1.1540961395236593"><ele>22.0</ele><time>2026-04-05T12:55:46.999Z</time></trkpt><trkpt lat="44.88595055304675" lon="-1.1541977869112372"><ele>22.833333333333332</ele><time>2026-04-05T12:55:47.999Z</time></trkpt><trkpt lat="44.88600607602603" lon="-1.1542520658334383"><ele>23.666666666666664</ele><time>2026-04-05T12:55:48.999Z</time></trkpt><trkpt lat="44.88607339864625" lon="-1.1542516061889698"><ele>24.5</ele><time>2026-04-05T12:55:49.999Z</time></trkpt><trkpt lat="44.88617672960325" lon="-1.154226703761484"><ele>25.333333333333332</ele><time>2026-04-05T12:55:50.999Z</time></trkpt><trkpt lat="44.88626367613842" lon="-1.154220471205203"><ele>26.166666666666668</ele><time>2026-04-05T12:55:51.999Z</time></trkpt><trkpt lat="44.88635760719248" lon="-1.1542467652964399"><ele>27.0</ele><time>2026-04-05T12:55:52.999Z</time></trkpt><trkpt lat="44.88645068185404" lon="-1.1542584706232049"><ele>27.0</ele><time>2026-04-05T12:55:53.999Z</time></trkpt><trkpt lat="44.88654203362163" lon="-1.154286430063126"><ele>27.0</ele><time>2026-04-05T12:55:54.999Z</time></trkpt><trkpt lat="44.88663088944219" lon="-1.15432836971231"><ele>27.0</ele><time>2026-04-05T12:55:55.999Z</time></trkpt><trkpt lat="44.88670471708457" lon="-1.1543249779740128"><ele>27.0</ele><time>2026-04-05T12:55:56.999Z</time></trkpt><trkpt lat="44.88680434013468" lon="-1.154294139629439"><ele>27.0</ele><time>2026-04-05T12:55:57.999Z</time></trkpt><trkpt lat="44.886888007935106" lon="-1.1542940568686828"><ele>27.0</ele><time>2026-04-05T12:55:58.999Z</time></trkpt><trkpt lat="44.887002456079856" lon="-1.1543160568302238"><ele>26.8</ele><time>2026-04-05T12:55:59.999Z</time></trkpt><trkpt lat="44.88711758000924" lon="-1.1543337663750954"><ele>26.6</ele><time>2026-04-05T12:56:00.999Z</time></trkpt><trkpt lat="44.88721829531695" lon="-1.1543707616208494"><ele>26.400000000000002</ele><time>2026-04-05T12:56:01.999Z</time></trkpt><trkpt lat="44.88732388346467" lon="-1.1544422580863585"><ele>26.200000000000003</ele><time>2026-04-05T12:56:03.999Z</time></trkpt><trkpt lat="44.88739229435767" lon="-1.1545007402598195"><ele>26.0</ele><time>2026-04-05T12:56:04.999Z</time></trkpt><trkpt lat="44.88746819392851" lon="-1.1545591787246208"><ele>26.0</ele><time>2026-04-05T12:56:05.999Z</time></trkpt><trkpt lat="44.88758371850575" lon="-1.1546196401707547"><ele>26.0</ele><time>2026-04-05T12:56:06.999Z</time></trkpt><trkpt lat="44.8876892606475" lon="-1.1547024915919686"><ele>26.0</ele><time>2026-04-05T12:56:07.999Z</time></trkpt><trkpt lat="44.88783761490272" lon="-1.1548030209397853"><ele>26.0</ele><time>2026-04-05T12:56:08.999Z</time></trkpt><trkpt lat="44.88794687044947" lon="-1.154891355797567"><ele>25.4</ele><time>2026-04-05T12:56:09.999Z</time></trkpt><trkpt lat="44.88804321324273" lon="-1.1549622480352186"><ele>24.8</ele><time>2026-04-05T12:56:10.999Z</time></trkpt><trkpt lat="44.88813515620019" lon="-1.1550283510104074"><ele>24.2</ele><time>2026-04-05T12:56:11.999Z</time></trkpt><trkpt lat="44.88823296112706" lon="-1.1550780930464026"><ele>23.599999999999998</ele><time>2026-04-05T12:56:12.999Z</time></trkpt><trkpt lat="44.88833435214261" lon="-1.1551350329441132"><ele>23.0</ele><time>2026-04-05T12:56:13.999Z</time></trkpt><trkpt lat="44.88843637071035" lon="-1.1552103326106227"><ele>23.0</ele><time>2026-04-05T12:56:14.998Z</time></trkpt><trkpt lat="44.8885094725332" lon="-1.15528757605464"><ele>23.0</ele><time>2026-04-05T12:56:15.998Z</time></trkpt><trkpt lat="44.88859655146437" lon="-1.1553826652930033"><ele>23.0</ele><time>2026-04-05T12:56:16.998Z</time></trkpt><trkpt lat="44.88867179549997" lon="-1.1555018422618668"><ele>23.0</ele><time>2026-04-05T12:56:17.998Z</time></trkpt><trkpt lat="44.888746836360994" lon="-1.1556307926503444"><ele>23.0</ele><time>2026-04-05T12:56:18.998Z</time></trkpt><trkpt lat="44.888818027142904" lon="-1.1557857971090961"><ele>23.0</ele><time>2026-04-05T12:56:19.998Z</time></trkpt><trkpt lat="44.88886980676593" lon="-1.1559121584849634"><ele>23.0</ele><time>2026-04-05T12:56:20.998Z</time></trkpt><trkpt lat="44.888925228007515" lon="-1.156063753927228"><ele>23.0</ele><time>2026-04-05T12:56:21.998Z</time></trkpt><trkpt lat="44.88898049110835" lon="-1.1561930243200134"><ele>23.0</ele><time>2026-04-05T12:56:22.998Z</time></trkpt><trkpt lat="44.88904725371424" lon="-1.1563097137154423"><ele>23.0</ele><time>2026-04-05T12:56:23.998Z</time></trkpt><trkpt lat="44.889134298716044" lon="-1.1563943194965896"><ele>23.0</ele><time>2026-04-05T12:56:24.998Z</time></trkpt><trkpt lat="44.889209158250395" lon="-1.1564472133053103"><ele>23.0</ele><time>2026-04-05T12:56:25.998Z</time></trkpt><trkpt lat="44.88929206334104" lon="-1.1564871807337511"><ele>23.0</ele><time>2026-04-05T12:56:26.998Z</time></trkpt><trkpt lat="44.88942476214912" lon="-1.1565323065125719"><ele>23.0</ele><time>2026-04-05T12:56:28.998Z</time></trkpt><trkpt lat="44.88950149016627" lon="-1.1565927050728644"><ele>23.0</ele><time>2026-04-05T12:56:29.998Z</time></trkpt><trkpt lat="44.889599503442426" lon="-1.1566989425926302"><ele>23.2</ele><time>2026-04-05T12:56:30.998Z</time></trkpt><trkpt lat="44.88967346533942" lon="-1.156820445692761"><ele>23.4</ele><time>2026-04-05T12:56:31.998Z</time></trkpt><trkpt lat="44.889751206322025" lon="-1.156960232168438"><ele>23.599999999999998</ele><time>2026-04-05T12:56:32.998Z</time></trkpt><trkpt lat="44.889807038668856" lon="-1.157058411620509"><ele>23.799999999999997</ele><time>2026-04-05T12:56:33.998Z</time></trkpt><trkpt lat="44.88989777887613" lon="-1.1571545273848525"><ele>24.0</ele><time>2026-04-05T12:56:34.998Z</time></trkpt><trkpt lat="44.889989707267176" lon="-1.1572448548476857"><ele>23.5</ele><time>2026-04-05T12:56:35.998Z</time></trkpt><trkpt lat="44.89009715968484" lon="-1.157363736122784"><ele>23.0</ele><time>2026-04-05T12:56:36.998Z</time></trkpt><trkpt lat="44.89019575054151" lon="-1.1574751745061682"><ele>22.5</ele><time>2026-04-05T12:56:37.998Z</time></trkpt><trkpt lat="44.8902777363267" lon="-1.1575643031878762"><ele>22.0</ele><time>2026-04-05T12:56:38.998Z</time></trkpt><trkpt lat="44.890366275268924" lon="-1.157659067398218"><ele>22.0</ele><time>2026-04-05T12:56:39.998Z</time></trkpt><trkpt lat="44.89046079533894" lon="-1.1577396344696296"><ele>22.0</ele><time>2026-04-05T12:56:40.998Z</time></trkpt><trkpt lat="44.890567294625626" lon="-1.1578030160913384"><ele>22.0</ele><time>2026-04-05T12:56:41.998Z</time></trkpt><trkpt lat="44.89067086416722" lon="-1.1578457410174583"><ele>22.0</ele><time>2026-04-05T12:56:42.998Z</time></trkpt><trkpt lat="44.890768579258825" lon="-1.1578858564817085"><ele>22.0</ele><time>2026-04-05T12:56:43.998Z</time></trkpt><trkpt lat="44.8908803522013" lon="-1.1579608561869508"><ele>20.5</ele><time>2026-04-05T12:56:44.998Z</time></trkpt><trkpt lat="44.890992196579134" lon="-1.1580506991538213"><ele>19.0</ele><time>2026-04-05T12:56:45.998Z</time></trkpt><trkpt lat="44.89110296428729" lon="-1.1581719120252998"><ele>17.5</ele><time>2026-04-05T12:56:46.998Z</time></trkpt><trkpt lat="44.891222262772295" lon="-1.1583029743112188"><ele>16.0</ele><time>2026-04-05T12:56:47.998Z</time></trkpt><trkpt lat="44.89132586024862" lon="-1.1584102651403487"><ele>15.5</ele><time>2026-04-05T12:56:48.998Z</time></trkpt><trkpt lat="44.8914121997647" lon="-1.1585227434268919"><ele>15.0</ele><time>2026-04-05T12:56:49.998Z</time></trkpt><trkpt lat="44.891510285909305" lon="-1.1586202859468007"><ele>14.5</ele><time>2026-04-05T12:56:50.998Z</time></trkpt><trkpt lat="44.89161596279716" lon="-1.1587005148553118"><ele>14.0</ele><time>2026-04-05T12:56:51.998Z</time></trkpt><trkpt lat="44.89172861831703" lon="-1.1587881251490066"><ele>14.25</ele><time>2026-04-05T12:56:52.998Z</time></trkpt><trkpt lat="44.89183736415465" lon="-1.158852956682228"><ele>14.5</ele><time>2026-04-05T12:56:53.998Z</time></trkpt><trkpt lat="44.89195121010727" lon="-1.1589055926061063"><ele>14.75</ele><time>2026-04-05T12:56:54.998Z</time></trkpt><trkpt lat="44.89207166219034" lon="-1.1589468626374404"><ele>15.0</ele><time>2026-04-05T12:56:55.998Z</time></trkpt><trkpt lat="44.89219422428311" lon="-1.1589729267553435"><ele>15.0</ele><time>2026-04-05T12:56:56.998Z</time></trkpt><trkpt lat="44.892315778362224" lon="-1.1590040740257832"><ele>15.0</ele><time>2026-04-05T12:56:57.998Z</time></trkpt><trkpt lat="44.892400442556706" lon="-1.159032356361532"><ele>15.0</ele><time>2026-04-05T12:56:58.998Z</time></trkpt><trkpt lat="44.89250129619792" lon="-1.1590732031844362"><ele>15.0</ele><time>2026-04-05T12:56:59.998Z</time></trkpt><trkpt lat="44.89263321020265" lon="-1.1591698821157075"><ele>14.75</ele><time>2026-04-05T12:57:00.998Z</time></trkpt><trkpt lat="44.89272786635188" lon="-1.1592942418915138"><ele>14.5</ele><time>2026-04-05T12:57:01.997Z</time></trkpt><trkpt lat="44.89282505314307" lon="-1.1594255843239993"><ele>14.25</ele><time>2026-04-05T12:57:02.997Z</time></trkpt><trkpt lat="44.892933905668535" lon="-1.1595738371606807"><ele>14.0</ele><time>2026-04-05T12:57:03.997Z</time></trkpt><trkpt lat="44.89303751736486" lon="-1.1597132280722213"><ele>14.0</ele><time>2026-04-05T12:57:04.997Z</time></trkpt><trkpt lat="44.893181320940094" lon="-1.1598473277013057"><ele>14.0</ele><time>2026-04-05T12:57:06Z</time></trkpt><trkpt lat="44.89330575987742" lon="-1.1599925881475963"><ele>14.0</ele><time>2026-04-05T12:57:07Z</time></trkpt><trkpt lat="44.89341043958317" lon="-1.1601326820505713"><ele>14.5</ele><time>2026-04-05T12:57:08Z</time></trkpt><trkpt lat="44.89349803286955" lon="-1.1602570319743886"><ele>15.0</ele><time>2026-04-05T12:57:09Z</time></trkpt><trkpt lat="44.89360938576712" lon="-1.1603693385045835"><ele>15.5</ele><time>2026-04-05T12:57:10Z</time></trkpt><trkpt lat="44.89371728265861" lon="-1.1604884245891618"><ele>16.0</ele><time>2026-04-05T12:57:11Z</time></trkpt><trkpt lat="44.89382924846025" lon="-1.1606371694820032"><ele>15.75</ele><time>2026-04-05T12:57:12Z</time></trkpt><trkpt lat="44.89393971819456" lon="-1.1607907770825083"><ele>15.5</ele><time>2026-04-05T12:57:13Z</time></trkpt><trkpt lat="44.894012198179354" lon="-1.1609508084171105"><ele>15.25</ele><time>2026-04-05T12:57:14Z</time></trkpt><trkpt lat="44.894095976347835" lon="-1.1610783041920554"><ele>15.0</ele><time>2026-04-05T12:57:15Z</time></trkpt><trkpt lat="44.894176522969964" lon="-1.1612049978799601"><ele>15.0</ele><time>2026-04-05T12:57:16Z</time></trkpt><trkpt lat="44.894264872204936" lon="-1.1613311020136472"><ele>15.0</ele><time>2026-04-05T12:57:17Z</time></trkpt><trkpt lat="44.89433061167379" lon="-1.1614125600738971"><ele>15.0</ele><time>2026-04-05T12:57:18Z</time></trkpt><trkpt lat="44.89440990812055" lon="-1.161513857528151"><ele>15.0</ele><time>2026-04-05T12:57:20Z</time></trkpt><trkpt lat="44.894484631426344" lon="-1.1615841658113748"><ele>15.0</ele><time>2026-04-05T12:57:35.999Z</time></trkpt><trkpt lat="44.89459638189448" lon="-1.1615484672906744"><ele>15.0</ele><time>2026-04-05T12:57:37.999Z</time></trkpt><trkpt lat="44.89466468280509" lon="-1.1614961738440104"><ele>15.0</ele><time>2026-04-05T12:57:38.999Z</time></trkpt><trkpt lat="44.894741968046596" lon="-1.1614883570391759"><ele>15.0</ele><time>2026-04-05T12:57:39.999Z</time></trkpt><trkpt lat="44.89488150992049" lon="-1.1615134818033652"><ele>15.0</ele><time>2026-04-05T12:57:41.999Z</time></trkpt><trkpt lat="44.8950012487631" lon="-1.1615206158382094"><ele>15.0</ele><time>2026-04-05T12:57:42.999Z</time></trkpt><trkpt lat="44.89514323083554" lon="-1.1614995232448226"><ele>14.75</ele><time>2026-04-05T12:57:43.999Z</time></trkpt><trkpt lat="44.89530334374153" lon="-1.1614841508316873"><ele>14.5</ele><time>2026-04-05T12:57:44.999Z</time></trkpt><trkpt lat="44.89541179802238" lon="-1.161479808080928"><ele>14.25</ele><time>2026-04-05T12:57:45.999Z</time></trkpt><trkpt lat="44.8955031081374" lon="-1.1614703801492927"><ele>14.0</ele><time>2026-04-05T12:57:46.999Z</time></trkpt><trkpt lat="44.89561679567915" lon="-1.1614539482906068"><ele>14.0</ele><time>2026-04-05T12:57:48.999Z</time></trkpt><trkpt lat="44.895675999131086" lon="-1.161514547087456"><ele>13.999999999999998</ele><time>2026-04-05T12:57:50.999Z</time></trkpt><trkpt lat="44.89569021029192" lon="-1.1616742739763093"><ele>13.999999999999998</ele><time>2026-04-05T12:57:52.999Z</time></trkpt><trkpt lat="44.89564524937519" lon="-1.1618442841712358"><ele>14.0</ele><time>2026-04-05T12:57:54.999Z</time></trkpt><trkpt lat="44.895684976132365" lon="-1.1620232897970584"><ele>14.0</ele><time>2026-04-05T12:57:56.999Z</time></trkpt><trkpt lat="44.895685999993276" lon="-1.1621462969757503"><ele>14.2</ele><time>2026-04-05T12:57:57.999Z</time></trkpt><trkpt lat="44.895691231466486" lon="-1.1622814858938266"><ele>14.399999999999999</ele><time>2026-04-05T12:57:58.999Z</time></trkpt><trkpt lat="44.89571750834141" lon="-1.1624182191663153"><ele>14.6</ele><time>2026-04-05T12:57:59.999Z</time></trkpt><trkpt lat="44.895734204318074" lon="-1.1625345778221026"><ele>14.8</ele><time>2026-04-05T12:58:00.999Z</time></trkpt><trkpt lat="44.89574253465283" lon="-1.1626660991066404"><ele>15.0</ele><time>2026-04-05T12:58:01.999Z</time></trkpt><trkpt lat="44.89576656778576" lon="-1.162823970241447"><ele>15.0</ele><time>2026-04-05T12:58:02.999Z</time></trkpt><trkpt lat="44.89578301146122" lon="-1.1629845764348126"><ele>15.0</ele><time>2026-04-05T12:58:03.999Z</time></trkpt><trkpt lat="44.895778075119445" lon="-1.1630802732294012"><ele>15.0</ele><time>2026-04-05T12:58:04.999Z</time></trkpt><trkpt lat="44.895783521647175" lon="-1.163219671179324"><ele>15.0</ele><time>2026-04-05T12:58:05.999Z</time></trkpt><trkpt lat="44.89580997361167" lon="-1.1634248485671"><ele>15.0</ele><time>2026-04-05T12:58:06.999Z</time></trkpt><trkpt lat="44.89582767366131" lon="-1.1636445906744541"><ele>15.0</ele><time>2026-04-05T12:58:07.999Z</time></trkpt><trkpt lat="44.895845266983976" lon="-1.1638914517474852"><ele>15.0</ele><time>2026-04-05T12:58:08.999Z</time></trkpt><trkpt lat="44.89587009648377" lon="-1.1641716081964402"><ele>15.0</ele><time>2026-04-05T12:58:09.999Z</time></trkpt><trkpt lat="44.89588819784654" lon="-1.164449625875448"><ele>15.0</ele><time>2026-04-05T12:58:10.999Z</time></trkpt><trkpt lat="44.895885131706244" lon="-1.1647445684889364"><ele>15.0</ele><time>2026-04-05T12:58:11.999Z</time></trkpt><trkpt lat="44.895935884548344" lon="-1.164967956892769"><ele>15.0</ele><time>2026-04-05T12:58:12.999Z</time></trkpt><trkpt lat="44.89595321648407" lon="-1.1651723774750646"><ele>14.666666666666668</ele><time>2026-04-05T12:58:13.999Z</time></trkpt><trkpt lat="44.8959764634537" lon="-1.1654069574947257"><ele>14.333333333333334</ele><time>2026-04-05T12:58:14.998Z</time></trkpt><trkpt lat="44.89598988173269" lon="-1.1656174222613895"><ele>14.0</ele><time>2026-04-05T12:58:15.998Z</time></trkpt><trkpt lat="44.89601697813296" lon="-1.1658671165226722"><ele>14.0</ele><time>2026-04-05T12:58:16.998Z</time></trkpt><trkpt lat="44.896028118120135" lon="-1.1660958549827949"><ele>14.0</ele><time>2026-04-05T12:58:17.998Z</time></trkpt><trkpt lat="44.89604259046765" lon="-1.1663324137761713"><ele>14.0</ele><time>2026-04-05T12:58:18.998Z</time></trkpt><trkpt lat="44.896053418424394" lon="-1.1665512005223644"><ele>14.0</ele><time>2026-04-05T12:58:19.998Z</time></trkpt><trkpt lat="44.89607889706704" lon="-1.1667744311254964"><ele>14.0</ele><time>2026-04-05T12:58:20.998Z</time></trkpt><trkpt lat="44.89609193315037" lon="-1.1669947764499413"><ele>14.0</ele><time>2026-04-05T12:58:21.998Z</time></trkpt><trkpt lat="44.896112883514085" lon="-1.1672545093395976"><ele>14.0</ele><time>2026-04-05T12:58:22.998Z</time></trkpt><trkpt lat="44.89612445173153" lon="-1.1674423811549763"><ele>14.0</ele><time>2026-04-05T12:58:23.998Z</time></trkpt><trkpt lat="44.89614453621931" lon="-1.16764463989743"><ele>14.0</ele><time>2026-04-05T12:58:24.998Z</time></trkpt><trkpt lat="44.89614514334331" lon="-1.1678141385293201"><ele>14.0</ele><time>2026-04-05T12:58:25.998Z</time></trkpt><trkpt lat="44.896163648554236" lon="-1.1680164206881969"><ele>14.75</ele><time>2026-04-05T12:58:26.998Z</time></trkpt><trkpt lat="44.89618414067448" lon="-1.1682064604165001"><ele>15.5</ele><time>2026-04-05T12:58:27.998Z</time></trkpt><trkpt lat="44.89619436680242" lon="-1.1683784482171147"><ele>16.25</ele><time>2026-04-05T12:58:28.998Z</time></trkpt><trkpt lat="44.8961993007602" lon="-1.1685203521317908"><ele>17.0</ele><time>2026-04-05T12:58:29.998Z</time></trkpt><trkpt lat="44.89620954730726" lon="-1.1686777163187105"><ele>17.0</ele><time>2026-04-05T12:58:30.998Z</time></trkpt><trkpt lat="44.89622442015191" lon="-1.168852553168557"><ele>17.0</ele><time>2026-04-05T12:58:31.998Z</time></trkpt><trkpt lat="44.89623507613711" lon="-1.169025671611455"><ele>17.0</ele><time>2026-04-05T12:58:32.998Z</time></trkpt><trkpt lat="44.896235157115036" lon="-1.169212878594592"><ele>17.0</ele><time>2026-04-05T12:58:33.998Z</time></trkpt><trkpt lat="44.89624811378411" lon="-1.1693850448831773"><ele>18.8</ele><time>2026-04-05T12:58:34.998Z</time></trkpt><trkpt lat="44.89627115764164" lon="-1.1695221303574008"><ele>20.6</ele><time>2026-04-05T12:58:35.998Z</time></trkpt><trkpt lat="44.89626900414554" lon="-1.169630538537369"><ele>22.400000000000002</ele><time>2026-04-05T12:58:36.998Z</time></trkpt><trkpt lat="44.8962850327083" lon="-1.1698103822231884"><ele>24.2</ele><time>2026-04-05T12:58:38.998Z</time></trkpt><trkpt lat="44.89629022308398" lon="-1.1699191781766152"><ele>26.0</ele><time>2026-04-05T12:58:39.998Z</time></trkpt><trkpt lat="44.89629252789044" lon="-1.170016808530684"><ele>27.499999999999996</ele><time>2026-04-05T12:58:40.998Z</time></trkpt><trkpt lat="44.89632326147935" lon="-1.1701044333109525"><ele>29.0</ele><time>2026-04-05T12:58:41.998Z</time></trkpt><trkpt lat="44.896354806255424" lon="-1.170235387532433"><ele>30.5</ele><time>2026-04-05T12:58:42.998Z</time></trkpt><trkpt lat="44.896377131417246" lon="-1.1703423820799645"><ele>32.0</ele><time>2026-04-05T12:58:43.998Z</time></trkpt><trkpt lat="44.8963261758656" lon="-1.1704401540155505"><ele>33.5</ele><time>2026-04-05T13:16:54.999Z</time></trkpt><trkpt lat="44.896320440007585" lon="-1.1705763544815375"><ele>35.0</ele><time>2026-04-05T13:18:44.999Z</time></trkpt><trkpt lat="44.89631640778762" lon="-1.170665531774499"><ele>36.0</ele><time>2026-04-05T13:18:45.999Z</time></trkpt><trkpt lat="44.896342594607844" lon="-1.1707783472622488"><ele>37.0</ele><time>2026-04-05T13:18:47.999Z</time></trkpt><trkpt lat="44.896406498156594" lon="-1.1708509706486696"><ele>38.0</ele><time>2026-04-05T13:18:56.999Z</time></trkpt><trkpt lat="44.89652789190626" lon="-1.1708040756055869"><ele>39.0</ele><time>2026-04-05T13:18:58.999Z</time></trkpt><trkpt lat="44.89660039328529" lon="-1.1708081679914912"><ele>40.0</ele><time>2026-04-05T13:18:59.999Z</time></trkpt><trkpt lat="44.89668132660517" lon="-1.1708267872148412"><ele>41.0</ele><time>2026-04-05T13:19:00.999Z</time></trkpt><trkpt lat="44.896787451677625" lon="-1.170831310776629"><ele>38.0</ele><time>2026-04-05T13:19:01.999Z</time></trkpt><trkpt lat="44.89692584084981" lon="-1.1708094432947858"><ele>35.0</ele><time>2026-04-05T13:19:02.999Z</time></trkpt><trkpt lat="44.89707614799652" lon="-1.170795114157452"><ele>32.0</ele><time>2026-04-05T13:19:03.999Z</time></trkpt><trkpt lat="44.8972043857416" lon="-1.170796679819275"><ele>29.0</ele><time>2026-04-05T13:19:04.999Z</time></trkpt><trkpt lat="44.89731855899874" lon="-1.1707988526270028"><ele>29.0</ele><time>2026-04-05T13:19:05.999Z</time></trkpt><trkpt lat="44.89744412941514" lon="-1.1707926656541612"><ele>29.0</ele><time>2026-04-05T13:19:06.999Z</time></trkpt><trkpt lat="44.89758546918811" lon="-1.1707784421432876"><ele>29.0</ele><time>2026-04-05T13:19:07.999Z</time></trkpt><trkpt lat="44.89772165036028" lon="-1.1707702559864281"><ele>29.0</ele><time>2026-04-05T13:19:08.998Z</time></trkpt><trkpt lat="44.89783755192166" lon="-1.1707591247970817"><ele>26.5</ele><time>2026-04-05T13:19:09.998Z</time></trkpt><trkpt lat="44.897977379237204" lon="-1.1707460075295082"><ele>24.0</ele><time>2026-04-05T13:19:10.998Z</time></trkpt><trkpt lat="44.89810164768802" lon="-1.1707257407896716"><ele>21.5</ele><time>2026-04-05T13:19:11.998Z</time></trkpt><trkpt lat="44.89823389627722" lon="-1.1707202342650525"><ele>19.0</ele><time>2026-04-05T13:19:12.998Z</time></trkpt><trkpt lat="44.89836521141637" lon="-1.1706996566382135"><ele>18.0</ele><time>2026-04-05T13:19:13.998Z</time></trkpt><trkpt lat="44.89849384109752" lon="-1.1706778719386957"><ele>17.0</ele><time>2026-04-05T13:19:14.998Z</time></trkpt><trkpt lat="44.8986291558197" lon="-1.170659369450626"><ele>16.0</ele><time>2026-04-05T13:19:15.998Z</time></trkpt><trkpt lat="44.89874648041195" lon="-1.170648508129857"><ele>15.0</ele><time>2026-04-05T13:19:16.998Z</time></trkpt><trkpt lat="44.898880959372796" lon="-1.1706303628562418"><ele>15.0</ele><time>2026-04-05T13:19:17.998Z</time></trkpt><trkpt lat="44.898996846389075" lon="-1.1706196398600752"><ele>15.0</ele><time>2026-04-05T13:19:18.998Z</time></trkpt><trkpt lat="44.89911212868912" lon="-1.1706165012634893"><ele>15.0</ele><time>2026-04-05T13:19:19.998Z</time></trkpt><trkpt lat="44.899247490612" lon="-1.1706056428471407"><ele>15.0</ele><time>2026-04-05T13:19:20.998Z</time></trkpt><trkpt lat="44.89939894061944" lon="-1.170591141805784"><ele>15.333333333333332</ele><time>2026-04-05T13:19:21.998Z</time></trkpt><trkpt lat="44.89956563937165" lon="-1.1705787839909036"><ele>15.666666666666666</ele><time>2026-04-05T13:19:22.998Z</time></trkpt><trkpt lat="44.89972240016504" lon="-1.1705640018039016"><ele>16.0</ele><time>2026-04-05T13:19:23.998Z</time></trkpt><trkpt lat="44.899970256306425" lon="-1.1705336501186676"><ele>16.666666666666664</ele><time>2026-04-05T13:19:24.998Z</time></trkpt><trkpt lat="44.90012656106829" lon="-1.1705141374361367"><ele>17.333333333333332</ele><time>2026-04-05T13:19:25.998Z</time></trkpt><trkpt lat="44.90030159883815" lon="-1.1705047674633438"><ele>18.0</ele><time>2026-04-05T13:19:26.998Z</time></trkpt><trkpt lat="44.90049923214571" lon="-1.1704850775659015"><ele>18.0</ele><time>2026-04-05T13:19:27.998Z</time></trkpt><trkpt lat="44.90068384822322" lon="-1.1704727142682263"><ele>18.0</ele><time>2026-04-05T13:19:28.998Z</time></trkpt><trkpt lat="44.900838112206706" lon="-1.1704623734824973"><ele>18.0</ele><time>2026-04-05T13:19:29.998Z</time></trkpt><trkpt lat="44.900958392920366" lon="-1.1704395340795608"><ele>18.0</ele><time>2026-04-05T13:19:30.998Z</time></trkpt><trkpt lat="44.90107235667615" lon="-1.1704407767777942"><ele>18.0</ele><time>2026-04-05T13:19:31.998Z</time></trkpt><trkpt lat="44.90115834042486" lon="-1.1704438713610492"><ele>18.0</ele><time>2026-04-05T13:19:32.998Z</time></trkpt><trkpt lat="44.90123634540545" lon="-1.170472969252859"><ele>18.0</ele><time>2026-04-05T13:19:33.998Z</time></trkpt><trkpt lat="44.90131125597501" lon="-1.1705234680482128"><ele>18.0</ele><time>2026-04-05T13:19:34.998Z</time></trkpt><trkpt lat="44.90136829298111" lon="-1.170599871402817"><ele>18.0</ele><time>2026-04-05T13:19:35.998Z</time></trkpt><trkpt lat="44.90144791190534" lon="-1.170705669624879"><ele>18.0</ele><time>2026-04-05T13:19:36.998Z</time></trkpt><trkpt lat="44.90153810651787" lon="-1.170794229434865"><ele>18.0</ele><time>2026-04-05T13:19:37.998Z</time></trkpt><trkpt lat="44.901623393702295" lon="-1.1708545330633167"><ele>18.0</ele><time>2026-04-05T13:19:38.998Z</time></trkpt><trkpt lat="44.901694948962536" lon="-1.1709200532757782"><ele>18.0</ele><time>2026-04-05T13:19:39.998Z</time></trkpt><trkpt lat="44.90176752661081" lon="-1.170979043335051"><ele>18.0</ele><time>2026-04-05T13:19:40.998Z</time></trkpt><trkpt lat="44.901850371840766" lon="-1.1710584882051847"><ele>18.0</ele><time>2026-04-05T13:19:42.998Z</time></trkpt><trkpt lat="44.90191035622853" lon="-1.1711066840516287"><ele>18.0</ele><time>2026-04-05T13:19:44.998Z</time></trkpt><trkpt lat="44.901997595726016" lon="-1.1711989015426691"><ele>18.0</ele><time>2026-04-05T13:19:46.998Z</time></trkpt><trkpt lat="44.90209215652198" lon="-1.1712725842947838"><ele>18.0</ele><time>2026-04-05T13:19:47.998Z</time></trkpt><trkpt lat="44.90218947956612" lon="-1.1713504859645605"><ele>18.0</ele><time>2026-04-05T13:19:48.998Z</time></trkpt><trkpt lat="44.902277227875935" lon="-1.171403236713891"><ele>18.0</ele><time>2026-04-05T13:19:49.998Z</time></trkpt><trkpt lat="44.902345807359765" lon="-1.1714450413644089"><ele>18.0</ele><time>2026-04-05T13:19:50.998Z</time></trkpt><trkpt lat="44.90242582820128" lon="-1.171511730548409"><ele>18.0</ele><time>2026-04-05T13:19:51.998Z</time></trkpt><trkpt lat="44.902526366491706" lon="-1.1715576666975536"><ele>18.0</ele><time>2026-04-05T13:19:52.998Z</time></trkpt><trkpt lat="44.90253197358507" lon="-1.1717076236698858"><ele>18.0</ele><time>2026-04-05T13:19:55.997Z</time></trkpt><trkpt lat="44.90254205982512" lon="-1.1718746519446404"><ele>17.833333333333332</ele><time>2026-04-05T13:19:57.997Z</time></trkpt><trkpt lat="44.902548115895414" lon="-1.171968377390958"><ele>17.666666666666668</ele><time>2026-04-05T13:19:58.997Z</time></trkpt><trkpt lat="44.90255607990979" lon="-1.1721005636336246"><ele>17.5</ele><time>2026-04-05T13:19:59.997Z</time></trkpt><trkpt lat="44.90257152194421" lon="-1.1722243233515302"><ele>17.333333333333336</ele><time>2026-04-05T13:20:00.997Z</time></trkpt><trkpt lat="44.902583700799774" lon="-1.1723382483812361"><ele>17.166666666666668</ele><time>2026-04-05T13:20:01.997Z</time></trkpt><trkpt lat="44.90258869565503" lon="-1.1724529471538712"><ele>17.0</ele><time>2026-04-05T13:20:02.997Z</time></trkpt><trkpt lat="44.90261046824015" lon="-1.172609617981525"><ele>17.333333333333336</ele><time>2026-04-05T13:20:04.997Z</time></trkpt><trkpt lat="44.902621436522836" lon="-1.1727207130610926"><ele>17.666666666666668</ele><time>2026-04-05T13:20:06.997Z</time></trkpt><trkpt lat="44.902611149029035" lon="-1.1728718938789513"><ele>18.0</ele><time>2026-04-05T13:20:08.997Z</time></trkpt><trkpt lat="44.90263096321151" lon="-1.173012362546633"><ele>18.333333333333332</ele><time>2026-04-05T13:20:10.997Z</time></trkpt><trkpt lat="44.902635434574115" lon="-1.1731031992883376"><ele>18.666666666666664</ele><time>2026-04-05T13:20:12Z</time></trkpt><trkpt lat="44.90262112644772" lon="-1.173196381214676"><ele>19.0</ele><time>2026-04-05T13:20:13Z</time></trkpt><trkpt lat="44.90263071905197" lon="-1.1733109956113996"><ele>19.0</ele><time>2026-04-05T13:20:18Z</time></trkpt><trkpt lat="44.902662693799854" lon="-1.1734692186086517"><ele>19.0</ele><time>2026-04-05T13:20:20Z</time></trkpt><trkpt lat="44.90265081157049" lon="-1.1736123922196557"><ele>19.0</ele><time>2026-04-05T13:20:22Z</time></trkpt><trkpt lat="44.90268028307796" lon="-1.1737933774269562"><ele>19.0</ele><time>2026-04-05T13:20:24Z</time></trkpt><trkpt lat="44.90267865393901" lon="-1.173893746206824"><ele>19.0</ele><time>2026-04-05T13:20:25Z</time></trkpt><trkpt lat="44.902691992748146" lon="-1.1741222224808598"><ele>18.599999999999998</ele><time>2026-04-05T13:20:26Z</time></trkpt><trkpt lat="44.90270928418791" lon="-1.174286987979833"><ele>18.2</ele><time>2026-04-05T13:20:27Z</time></trkpt><trkpt lat="44.902699394189156" lon="-1.174391437155372"><ele>17.799999999999997</ele><time>2026-04-05T13:20:27.999Z</time></trkpt><trkpt lat="44.902706213697556" lon="-1.1745215074716762"><ele>17.4</ele><time>2026-04-05T13:20:28.999Z</time></trkpt><trkpt lat="44.90272339412097" lon="-1.1746756411489214"><ele>17.0</ele><time>2026-04-05T13:20:29.999Z</time></trkpt><trkpt lat="44.902727465765516" lon="-1.174813739217263"><ele>16.6</ele><time>2026-04-05T13:20:30.999Z</time></trkpt><trkpt lat="44.90273421892127" lon="-1.1749783976888954"><ele>16.2</ele><time>2026-04-05T13:20:31.999Z</time></trkpt><trkpt lat="44.90275640001235" lon="-1.1751257253717526"><ele>15.8</ele><time>2026-04-05T13:20:32.999Z</time></trkpt><trkpt lat="44.902773028248816" lon="-1.1752814543692456"><ele>15.4</ele><time>2026-04-05T13:20:33.999Z</time></trkpt><trkpt lat="44.90277972172027" lon="-1.1754365306765635"><ele>15.0</ele><time>2026-04-05T13:20:34.999Z</time></trkpt><trkpt lat="44.902789432758375" lon="-1.1755555360325434"><ele>15.0</ele><time>2026-04-05T13:20:35.999Z</time></trkpt><trkpt lat="44.90279389985055" lon="-1.1756777153630982"><ele>15.0</ele><time>2026-04-05T13:20:36.999Z</time></trkpt><trkpt lat="44.902798027320955" lon="-1.175830936622065"><ele>15.0</ele><time>2026-04-05T13:20:37.999Z</time></trkpt><trkpt lat="44.902799852677354" lon="-1.1759787759474336"><ele>15.0</ele><time>2026-04-05T13:20:38.999Z</time></trkpt><trkpt lat="44.90280896192142" lon="-1.1760943872476046"><ele>15.0</ele><time>2026-04-05T13:20:39.999Z</time></trkpt><trkpt lat="44.902811893110815" lon="-1.1762175929691778"><ele>15.0</ele><time>2026-04-05T13:20:40.999Z</time></trkpt><trkpt lat="44.902816316697375" lon="-1.1763261474239681"><ele>15.0</ele><time>2026-04-05T13:20:41.999Z</time></trkpt><trkpt lat="44.90281438198137" lon="-1.1764237632029744"><ele>15.0</ele><time>2026-04-05T13:20:42.999Z</time></trkpt><trkpt lat="44.902828238702924" lon="-1.1765572149656156"><ele>15.0</ele><time>2026-04-05T13:20:45.999Z</time></trkpt><trkpt lat="44.90282986010904" lon="-1.1766743502833943"><ele>15.0</ele><time>2026-04-05T13:20:46.999Z</time></trkpt><trkpt lat="44.9028419345385" lon="-1.1768082373081357"><ele>15.0</ele><time>2026-04-05T13:20:47.999Z</time></trkpt><trkpt lat="44.902857202095106" lon="-1.176961722284539"><ele>15.0</ele><time>2026-04-05T13:20:48.999Z</time></trkpt><trkpt lat="44.90286022033853" lon="-1.1771240393587148"><ele>15.0</ele><time>2026-04-05T13:20:49.999Z</time></trkpt><trkpt lat="44.90286887725687" lon="-1.1772955720357852"><ele>15.0</ele><time>2026-04-05T13:20:50.999Z</time></trkpt><trkpt lat="44.90287928375932" lon="-1.1774823937469905"><ele>15.0</ele><time>2026-04-05T13:20:51.999Z</time></trkpt><trkpt lat="44.902885660704385" lon="-1.177680252760239"><ele>15.0</ele><time>2026-04-05T13:20:52.999Z</time></trkpt><trkpt lat="44.902893134403676" lon="-1.1778490376889288"><ele>15.0</ele><time>2026-04-05T13:20:53.999Z</time></trkpt><trkpt lat="44.90290597776756" lon="-1.1779811995782172"><ele>15.0</ele><time>2026-04-05T13:20:54.999Z</time></trkpt><trkpt lat="44.90291771563274" lon="-1.1781293826567227"><ele>15.0</ele><time>2026-04-05T13:20:55.999Z</time></trkpt><trkpt lat="44.90292661261022" lon="-1.1782973717005993"><ele>15.0</ele><time>2026-04-05T13:20:56.999Z</time></trkpt><trkpt lat="44.90293407261817" lon="-1.1784736025115616"><ele>15.0</ele><time>2026-04-05T13:20:57.999Z</time></trkpt><trkpt lat="44.902942095105914" lon="-1.1786205503790563"><ele>15.0</ele><time>2026-04-05T13:20:58.999Z</time></trkpt><trkpt lat="44.902950067909806" lon="-1.1787847597308398"><ele>15.0</ele><time>2026-04-05T13:20:59.999Z</time></trkpt><trkpt lat="44.902958315544346" lon="-1.1789136719245796"><ele>15.0</ele><time>2026-04-05T13:21:00.999Z</time></trkpt><trkpt lat="44.90296696412943" lon="-1.1790537346713121"><ele>15.0</ele><time>2026-04-05T13:21:01.999Z</time></trkpt><trkpt lat="44.90297481678215" lon="-1.179172518513382"><ele>15.333333333333334</ele><time>2026-04-05T13:21:02.999Z</time></trkpt><trkpt lat="44.902980618777825" lon="-1.1792698551499505"><ele>15.666666666666668</ele><time>2026-04-05T13:21:03.999Z</time></trkpt><trkpt lat="44.90299002708223" lon="-1.179395359194913"><ele>16.0</ele><time>2026-04-05T13:21:05.999Z</time></trkpt><trkpt lat="44.90301040203599" lon="-1.1794824048967016"><ele>16.333333333333336</ele><time>2026-04-05T13:21:07.999Z</time></trkpt><trkpt lat="44.90306511082277" lon="-1.1795347885274965"><ele>16.666666666666668</ele><time>2026-04-05T13:21:09.999Z</time></trkpt><trkpt lat="44.903155171394566" lon="-1.1794913863199017"><ele>17.0</ele><time>2026-04-05T13:21:11.999Z</time></trkpt><trkpt lat="44.90325517835482" lon="-1.179470615015925"><ele>17.0</ele><time>2026-04-05T13:21:13.999Z</time></trkpt><trkpt lat="44.90335073185148" lon="-1.1794671422545908"><ele>17.0</ele><time>2026-04-05T13:21:14.998Z</time></trkpt><trkpt lat="44.90345677702674" lon="-1.1794557610840246"><ele>17.0</ele><time>2026-04-05T13:21:15.998Z</time></trkpt><trkpt lat="44.90355767455955" lon="-1.179450227363235"><ele>17.0</ele><time>2026-04-05T13:21:16.998Z</time></trkpt><trkpt lat="44.903684072898116" lon="-1.1794329757819781"><ele>17.0</ele><time>2026-04-05T13:21:17.998Z</time></trkpt><trkpt lat="44.903831746404705" lon="-1.1794225163495373"><ele>17.0</ele><time>2026-04-05T13:21:18.998Z</time></trkpt><trkpt lat="44.903988469517685" lon="-1.1794106600523881"><ele>17.0</ele><time>2026-04-05T13:21:19.998Z</time></trkpt><trkpt lat="44.90415436167201" lon="-1.1793892086415767"><ele>17.0</ele><time>2026-04-05T13:21:20.998Z</time></trkpt><trkpt lat="44.90429581947973" lon="-1.1793709929031666"><ele>17.0</ele><time>2026-04-05T13:21:21.998Z</time></trkpt><trkpt lat="44.904418487248286" lon="-1.1793550631904206"><ele>17.0</ele><time>2026-04-05T13:21:22.998Z</time></trkpt><trkpt lat="44.90455233041431" lon="-1.1793368394718133"><ele>17.0</ele><time>2026-04-05T13:21:23.998Z</time></trkpt><trkpt lat="44.90470156899831" lon="-1.1793175999358974"><ele>17.0</ele><time>2026-04-05T13:21:24.998Z</time></trkpt><trkpt lat="44.90484857931859" lon="-1.1793010436237699"><ele>17.0</ele><time>2026-04-05T13:21:25.998Z</time></trkpt><trkpt lat="44.904970003746705" lon="-1.1792898141876762"><ele>17.0</ele><time>2026-04-05T13:21:26.998Z</time></trkpt><trkpt lat="44.90509661786836" lon="-1.1792734465650518"><ele>17.0</ele><time>2026-04-05T13:21:27.998Z</time></trkpt><trkpt lat="44.90522031218303" lon="-1.1792584371363266"><ele>17.0</ele><time>2026-04-05T13:21:28.998Z</time></trkpt><trkpt lat="44.90534056954633" lon="-1.1792441436697787"><ele>16.8</ele><time>2026-04-05T13:21:29.998Z</time></trkpt><trkpt lat="44.905450110000864" lon="-1.1792295115865574"><ele>16.6</ele><time>2026-04-05T13:21:30.998Z</time></trkpt><trkpt lat="44.90555171546105" lon="-1.179213030247968"><ele>16.400000000000002</ele><time>2026-04-05T13:21:31.998Z</time></trkpt><trkpt lat="44.90566814997207" lon="-1.1791922859973711"><ele>16.2</ele><time>2026-04-05T13:21:32.998Z</time></trkpt><trkpt lat="44.90578677901939" lon="-1.1791776964351717"><ele>16.0</ele><time>2026-04-05T13:21:33.998Z</time></trkpt><trkpt lat="44.90592219546235" lon="-1.1791694074160513"><ele>17.0</ele><time>2026-04-05T13:21:34.998Z</time></trkpt><trkpt lat="44.90606453297589" lon="-1.179148589969697"><ele>18.0</ele><time>2026-04-05T13:21:35.998Z</time></trkpt><trkpt lat="44.90620375288059" lon="-1.1791330509854774"><ele>19.0</ele><time>2026-04-05T13:21:36.998Z</time></trkpt><trkpt lat="44.90635156574761" lon="-1.1791172745775074"><ele>20.0</ele><time>2026-04-05T13:21:37.998Z</time></trkpt><trkpt lat="44.906501278728264" lon="-1.1791027013232658"><ele>20.0</ele><time>2026-04-05T13:21:38.998Z</time></trkpt><trkpt lat="44.90665444549451" lon="-1.1790812312240424"><ele>20.0</ele><time>2026-04-05T13:21:39.998Z</time></trkpt><trkpt lat="44.906809503546036" lon="-1.179055842511424"><ele>20.0</ele><time>2026-04-05T13:21:40.998Z</time></trkpt><trkpt lat="44.90696481926853" lon="-1.1790421783899598"><ele>20.666666666666668</ele><time>2026-04-05T13:21:41.998Z</time></trkpt><trkpt lat="44.90712045988215" lon="-1.179031334675654"><ele>21.333333333333332</ele><time>2026-04-05T13:21:42.998Z</time></trkpt><trkpt lat="44.90728888517916" lon="-1.1790072873457296"><ele>22.0</ele><time>2026-04-05T13:21:43.998Z</time></trkpt><trkpt lat="44.907449152333946" lon="-1.1789953144658143"><ele>23.0</ele><time>2026-04-05T13:21:44.998Z</time></trkpt><trkpt lat="44.907613173089274" lon="-1.1789673516202444"><ele>24.0</ele><time>2026-04-05T13:21:45.998Z</time></trkpt><trkpt lat="44.907741775192946" lon="-1.1789502871621764"><ele>25.0</ele><time>2026-04-05T13:21:46.998Z</time></trkpt><trkpt lat="44.90786472046019" lon="-1.178929909032322"><ele>26.0</ele><time>2026-04-05T13:21:47.998Z</time></trkpt><trkpt lat="44.90797864214985" lon="-1.1789199473479985"><ele>26.0</ele><time>2026-04-05T13:21:48.998Z</time></trkpt><trkpt lat="44.908090166157336" lon="-1.1789066564781077"><ele>26.0</ele><time>2026-04-05T13:21:49.998Z</time></trkpt><trkpt lat="44.90819265941715" lon="-1.1788991762878558"><ele>26.0</ele><time>2026-04-05T13:21:50.998Z</time></trkpt><trkpt lat="44.90829389510273" lon="-1.178882820734549"><ele>26.0</ele><time>2026-04-05T13:21:51.998Z</time></trkpt><trkpt lat="44.90839059342051" lon="-1.1788671338995322"><ele>26.0</ele><time>2026-04-05T13:21:52.998Z</time></trkpt><trkpt lat="44.90849396529043" lon="-1.1788584438058458"><ele>25.0</ele><time>2026-04-05T13:21:53.998Z</time></trkpt><trkpt lat="44.90861093538528" lon="-1.1788616520916848"><ele>24.0</ele><time>2026-04-05T13:21:54.998Z</time></trkpt><trkpt lat="44.908728259668514" lon="-1.178865323257712"><ele>23.0</ele><time>2026-04-05T13:21:55.998Z</time></trkpt><trkpt lat="44.908841824894054" lon="-1.1788463219832737"><ele>22.0</ele><time>2026-04-05T13:21:56.998Z</time></trkpt><trkpt lat="44.90896879926568" lon="-1.1788290336160903"><ele>22.0</ele><time>2026-04-05T13:21:57.998Z</time></trkpt><trkpt lat="44.90909446249938" lon="-1.1788109775816051"><ele>22.0</ele><time>2026-04-05T13:21:58.998Z</time></trkpt><trkpt lat="44.90920604909656" lon="-1.1787964542027762"><ele>22.0</ele><time>2026-04-05T13:21:59.998Z</time></trkpt><trkpt lat="44.90931205748646" lon="-1.1787815325457358"><ele>22.0</ele><time>2026-04-05T13:22:00.998Z</time></trkpt><trkpt lat="44.90941558422214" lon="-1.1787681851042249"><ele>22.0</ele><time>2026-04-05T13:22:01.997Z</time></trkpt><trkpt lat="44.90952622941335" lon="-1.1787519853182962"><ele>20.8</ele><time>2026-04-05T13:22:02.997Z</time></trkpt><trkpt lat="44.90963548563733" lon="-1.1787348356805112"><ele>19.6</ele><time>2026-04-05T13:22:03.997Z</time></trkpt><trkpt lat="44.90974050711507" lon="-1.178726030430913"><ele>18.400000000000002</ele><time>2026-04-05T13:22:04.997Z</time></trkpt><trkpt lat="44.909846375311744" lon="-1.178715564453267"><ele>17.200000000000003</ele><time>2026-04-05T13:22:05.997Z</time></trkpt><trkpt lat="44.90996860919449" lon="-1.1786913288111218"><ele>16.0</ele><time>2026-04-05T13:22:06.997Z</time></trkpt><trkpt lat="44.91009974979739" lon="-1.1786723372220105"><ele>15.5</ele><time>2026-04-05T13:22:07.997Z</time></trkpt><trkpt lat="44.910237204749336" lon="-1.1786603270880338"><ele>15.0</ele><time>2026-04-05T13:22:08.998Z</time></trkpt><trkpt lat="44.910375079201884" lon="-1.178644432190813"><ele>14.5</ele><time>2026-04-05T13:22:09.998Z</time></trkpt><trkpt lat="44.910511562848676" lon="-1.1786274831565553"><ele>14.0</ele><time>2026-04-05T13:22:10.998Z</time></trkpt><trkpt lat="44.91065493144148" lon="-1.17861084613274"><ele>14.0</ele><time>2026-04-05T13:22:11.998Z</time></trkpt><trkpt lat="44.91081021163285" lon="-1.1785866809147645"><ele>14.0</ele><time>2026-04-05T13:22:12.998Z</time></trkpt><trkpt lat="44.910985699093395" lon="-1.1785664498858996"><ele>14.0</ele><time>2026-04-05T13:22:13.998Z</time></trkpt><trkpt lat="44.91117833394184" lon="-1.1785457308204397"><ele>14.0</ele><time>2026-04-05T13:22:14.998Z</time></trkpt><trkpt lat="44.91138021179939" lon="-1.1785175337632727"><ele>14.0</ele><time>2026-04-05T13:22:15.998Z</time></trkpt><trkpt lat="44.91162927441574" lon="-1.178490871580157"><ele>14.5</ele><time>2026-04-05T13:22:16.998Z</time></trkpt><trkpt lat="44.911875166320314" lon="-1.1784553838358909"><ele>15.0</ele><time>2026-04-05T13:22:18Z</time></trkpt><trkpt lat="44.91210665343766" lon="-1.1784321654240506"><ele>15.0</ele><time>2026-04-05T13:22:19Z</time></trkpt><trkpt lat="44.912308408468824" lon="-1.1784096655505305"><ele>15.0</ele><time>2026-04-05T13:22:20Z</time></trkpt><trkpt lat="44.91249566301243" lon="-1.1783829539772075"><ele>15.0</ele><time>2026-04-05T13:22:21Z</time></trkpt><trkpt lat="44.9126684465517" lon="-1.178361621551771"><ele>16.333333333333332</ele><time>2026-04-05T13:22:22Z</time></trkpt><trkpt lat="44.91283749909271" lon="-1.1783439876363384"><ele>17.666666666666664</ele><time>2026-04-05T13:22:23Z</time></trkpt><trkpt lat="44.91300089981848" lon="-1.1783257885029248"><ele>19.0</ele><time>2026-04-05T13:22:24Z</time></trkpt><trkpt lat="44.913154466862004" lon="-1.1783024136989837"><ele>19.0</ele><time>2026-04-05T13:22:25Z</time></trkpt><trkpt lat="44.91330239937177" lon="-1.1782782277507222"><ele>19.0</ele><time>2026-04-05T13:22:26Z</time></trkpt><trkpt lat="44.91343958904185" lon="-1.178261724000492"><ele>19.0</ele><time>2026-04-05T13:22:27Z</time></trkpt><trkpt lat="44.913554657321306" lon="-1.1782504507188334"><ele>19.0</ele><time>2026-04-05T13:22:28Z</time></trkpt><trkpt lat="44.9136718847394" lon="-1.1782274114428521"><ele>18.8</ele><time>2026-04-05T13:22:29Z</time></trkpt><trkpt lat="44.91380523034456" lon="-1.178202116158514"><ele>18.599999999999998</ele><time>2026-04-05T13:22:30Z</time></trkpt><trkpt lat="44.913928502641134" lon="-1.1781863110523227"><ele>18.4</ele><time>2026-04-05T13:22:32Z</time></trkpt><trkpt lat="44.913997252528844" lon="-1.1781790803913361"><ele>18.2</ele><time>2026-04-05T13:22:33Z</time></trkpt><trkpt lat="44.91411873627798" lon="-1.178159712245733"><ele>18.0</ele><time>2026-04-05T13:22:35Z</time></trkpt><trkpt lat="44.91421018772117" lon="-1.1781204838702308"><ele>17.8</ele><time>2026-04-05T13:22:37Z</time></trkpt><trkpt lat="44.914275419026936" lon="-1.1780704792304024"><ele>17.6</ele><time>2026-04-05T13:22:39Z</time></trkpt><trkpt lat="44.91437261097965" lon="-1.17797031706032"><ele>17.4</ele><time>2026-04-05T13:22:42Z</time></trkpt><trkpt lat="44.914479394295164" lon="-1.1779480691888746"><ele>17.2</ele><time>2026-04-05T13:22:44Z</time></trkpt><trkpt lat="44.91456489088392" lon="-1.177943823726399"><ele>17.0</ele><time>2026-04-05T13:22:46Z</time></trkpt><trkpt lat="44.914653340127366" lon="-1.1779292550696545"><ele>17.0</ele><time>2026-04-05T13:22:48Z</time></trkpt><trkpt lat="44.91476680097683" lon="-1.1779124971614794"><ele>17.0</ele><time>2026-04-05T13:22:50Z</time></trkpt><trkpt lat="44.914845195912456" lon="-1.1779028075885507"><ele>17.0</ele><time>2026-04-05T13:22:51Z</time></trkpt><trkpt lat="44.914940008414035" lon="-1.1778836333631866"><ele>17.0</ele><time>2026-04-05T13:22:52Z</time></trkpt><trkpt lat="44.91502557427808" lon="-1.1778741879455548"><ele>17.0</ele><time>2026-04-05T13:22:53Z</time></trkpt><trkpt lat="44.9151012621691" lon="-1.1778590549721473"><ele>17.0</ele><time>2026-04-05T13:22:54Z</time></trkpt><trkpt lat="44.91517831968014" lon="-1.1778483171076342"><ele>17.0</ele><time>2026-04-05T13:22:55Z</time></trkpt><trkpt lat="44.915276914797566" lon="-1.1778341442001932"><ele>17.0</ele><time>2026-04-05T13:22:56Z</time></trkpt><trkpt lat="44.91537993559394" lon="-1.1778215194183586"><ele>17.0</ele><time>2026-04-05T13:22:57Z</time></trkpt><trkpt lat="44.91547266739078" lon="-1.1778137822895256"><ele>17.0</ele><time>2026-04-05T13:22:58Z</time></trkpt><trkpt lat="44.91555262241589" lon="-1.1778025989484344"><ele>17.0</ele><time>2026-04-05T13:22:59Z</time></trkpt><trkpt lat="44.91563921360151" lon="-1.1777968322799346"><ele>17.0</ele><time>2026-04-05T13:23:00Z</time></trkpt><trkpt lat="44.91572720616565" lon="-1.1777962471596068"><ele>17.0</ele><time>2026-04-05T13:23:01Z</time></trkpt><trkpt lat="44.91582034982828" lon="-1.177803454465625"><ele>17.0</ele><time>2026-04-05T13:23:02Z</time></trkpt><trkpt lat="44.91592070254873" lon="-1.1778024557683107"><ele>17.0</ele><time>2026-04-05T13:23:03Z</time></trkpt><trkpt lat="44.916026957635374" lon="-1.1777789360398687"><ele>16.666666666666668</ele><time>2026-04-05T13:23:04Z</time></trkpt><trkpt lat="44.91615633543358" lon="-1.1777471468489742"><ele>16.333333333333332</ele><time>2026-04-05T13:23:05Z</time></trkpt><trkpt lat="44.9163315656858" lon="-1.1777048954902616"><ele>16.0</ele><time>2026-04-05T13:23:06Z</time></trkpt><trkpt lat="44.91648802998702" lon="-1.1777002390019076"><ele>16.0</ele><time>2026-04-05T13:23:07Z</time></trkpt><trkpt lat="44.916658614077896" lon="-1.1776896409349271"><ele>16.0</ele><time>2026-04-05T13:23:08Z</time></trkpt><trkpt lat="44.91686029274673" lon="-1.177659026445819"><ele>16.0</ele><time>2026-04-05T13:23:09Z</time></trkpt><trkpt lat="44.917046734742556" lon="-1.1776352714721052"><ele>16.0</ele><time>2026-04-05T13:23:10Z</time></trkpt><trkpt lat="44.917233279855914" lon="-1.1776151503839245"><ele>16.0</ele><time>2026-04-05T13:23:11Z</time></trkpt><trkpt lat="44.91739521056636" lon="-1.1776203582600258"><ele>16.0</ele><time>2026-04-05T13:23:12Z</time></trkpt><trkpt lat="44.91755613729103" lon="-1.1775925462530643"><ele>17.0</ele><time>2026-04-05T13:23:13Z</time></trkpt><trkpt lat="44.91770096379578" lon="-1.1775811979275725"><ele>18.0</ele><time>2026-04-05T13:23:14Z</time></trkpt><trkpt lat="44.91782044956434" lon="-1.1775749765849701"><ele>19.0</ele><time>2026-04-05T13:23:15Z</time></trkpt><trkpt lat="44.917974070933525" lon="-1.177565615547273"><ele>20.0</ele><time>2026-04-05T13:23:16Z</time></trkpt><trkpt lat="44.918137424938315" lon="-1.1775512732056952"><ele>20.0</ele><time>2026-04-05T13:23:17Z</time></trkpt><trkpt lat="44.918262378694386" lon="-1.1775190283562884"><ele>20.0</ele><time>2026-04-05T13:23:17.999Z</time></trkpt><trkpt lat="44.91836799998525" lon="-1.1775224468235808"><ele>20.0</ele><time>2026-04-05T13:23:18.999Z</time></trkpt><trkpt lat="44.91845447037372" lon="-1.177517168288731"><ele>20.0</ele><time>2026-04-05T13:23:19.999Z</time></trkpt><trkpt lat="44.918577179742506" lon="-1.1775034608721655"><ele>20.0</ele><time>2026-04-05T13:23:20.999Z</time></trkpt><trkpt lat="44.918712198233926" lon="-1.1774741730121658"><ele>19.666666666666668</ele><time>2026-04-05T13:23:21.999Z</time></trkpt><trkpt lat="44.91885898870913" lon="-1.1774752834539823"><ele>19.333333333333332</ele><time>2026-04-05T13:23:22.999Z</time></trkpt><trkpt lat="44.919057197118754" lon="-1.17746649978197"><ele>19.0</ele><time>2026-04-05T13:23:23.999Z</time></trkpt><trkpt lat="44.91919983671574" lon="-1.1774698497078615"><ele>18.75</ele><time>2026-04-05T13:23:24.999Z</time></trkpt><trkpt lat="44.91933857462622" lon="-1.1774425869586365"><ele>18.5</ele><time>2026-04-05T13:23:25.999Z</time></trkpt><trkpt lat="44.91949307020896" lon="-1.1774150513371955"><ele>18.25</ele><time>2026-04-05T13:23:26.999Z</time></trkpt><trkpt lat="44.91961737353549" lon="-1.1774124718608678"><ele>18.0</ele><time>2026-04-05T13:23:27.999Z</time></trkpt><trkpt lat="44.91975027336564" lon="-1.1774029125203052"><ele>18.0</ele><time>2026-04-05T13:23:28.999Z</time></trkpt><trkpt lat="44.91987096437156" lon="-1.1773883924155428"><ele>18.0</ele><time>2026-04-05T13:23:29.999Z</time></trkpt><trkpt lat="44.919999409575695" lon="-1.1773748776366946"><ele>18.0</ele><time>2026-04-05T13:23:30.999Z</time></trkpt><trkpt lat="44.92011981521539" lon="-1.1773571388538577"><ele>18.0</ele><time>2026-04-05T13:23:31.999Z</time></trkpt><trkpt lat="44.92022792949996" lon="-1.177341587277805"><ele>17.666666666666668</ele><time>2026-04-05T13:23:32.999Z</time></trkpt><trkpt lat="44.92033847616467" lon="-1.1773322123567227"><ele>17.333333333333332</ele><time>2026-04-05T13:23:33.999Z</time></trkpt><trkpt lat="44.92044555254325" lon="-1.177315329850303"><ele>17.0</ele><time>2026-04-05T13:23:34.999Z</time></trkpt><trkpt lat="44.92052551884757" lon="-1.1773067617269204"><ele>16.666666666666664</ele><time>2026-04-05T13:23:35.999Z</time></trkpt><trkpt lat="44.92059077434477" lon="-1.1772986849396927"><ele>16.333333333333332</ele><time>2026-04-05T13:23:38.999Z</time></trkpt><trkpt lat="44.92066009879851" lon="-1.1773012927126456"><ele>16.0</ele><time>2026-04-05T13:24:21.998Z</time></trkpt><trkpt lat="44.92074349725462" lon="-1.177316797498651"><ele>16.0</ele><time>2026-04-05T13:24:24Z</time></trkpt><trkpt lat="44.92082648001911" lon="-1.177305301726788"><ele>16.0</ele><time>2026-04-05T13:24:25Z</time></trkpt><trkpt lat="44.92095371143911" lon="-1.1772685400581322"><ele>16.0</ele><time>2026-04-05T13:24:26Z</time></trkpt><trkpt lat="44.92111321074759" lon="-1.1772474870370855"><ele>16.0</ele><time>2026-04-05T13:24:27Z</time></trkpt><trkpt lat="44.92122185146463" lon="-1.1772510479932157"><ele>17.166666666666664</ele><time>2026-04-05T13:24:28Z</time></trkpt><trkpt lat="44.92131933940397" lon="-1.1772743638783356"><ele>18.333333333333332</ele><time>2026-04-05T13:24:29Z</time></trkpt><trkpt lat="44.92139561557384" lon="-1.1772703192133769"><ele>19.5</ele><time>2026-04-05T13:24:30Z</time></trkpt><trkpt lat="44.921465437017474" lon="-1.177232869841999"><ele>20.666666666666668</ele><time>2026-04-05T13:24:31Z</time></trkpt><trkpt lat="44.921530866365124" lon="-1.1772431742893381"><ele>21.833333333333336</ele><time>2026-04-05T13:24:32Z</time></trkpt><trkpt lat="44.92162456203632" lon="-1.1772352685314575"><ele>23.0</ele><time>2026-04-05T13:24:33Z</time></trkpt><trkpt lat="44.9216960358503" lon="-1.1772425066169379"><ele>24.0</ele><time>2026-04-05T13:24:34Z</time></trkpt><trkpt lat="44.92177285179838" lon="-1.1772328885602994"><ele>25.0</ele><time>2026-04-05T13:25:46.999Z</time></trkpt><trkpt lat="44.921872460428055" lon="-1.1772095593448106"><ele>25.999999999999996</ele><time>2026-04-05T13:25:48.999Z</time></trkpt><trkpt lat="44.92196947901813" lon="-1.1771961621837177"><ele>27.0</ele><time>2026-04-05T13:25:49.999Z</time></trkpt><trkpt lat="44.92206053936857" lon="-1.1771957260486696"><ele>28.0</ele><time>2026-04-05T13:25:51.999Z</time></trkpt><trkpt lat="44.92213937486241" lon="-1.1771587948040816"><ele>28.000000000000004</ele><time>2026-04-05T13:26:30Z</time></trkpt><trkpt lat="44.92221950684367" lon="-1.1771216084449028"><ele>28.0</ele><time>2026-04-05T13:26:32Z</time></trkpt><trkpt lat="44.922296297733865" lon="-1.177109341925379"><ele>28.0</ele><time>2026-04-05T13:26:33Z</time></trkpt><trkpt lat="44.92237219543093" lon="-1.177104436831871"><ele>28.0</ele><time>2026-04-05T13:26:34Z</time></trkpt><trkpt lat="44.92247030407941" lon="-1.177117609290668"><ele>28.000000000000004</ele><time>2026-04-05T13:26:35Z</time></trkpt><trkpt lat="44.922579919649955" lon="-1.1771027454775462"><ele>28.0</ele><time>2026-04-05T13:26:36Z</time></trkpt><trkpt lat="44.92267617621757" lon="-1.1770878103183036"><ele>26.5</ele><time>2026-04-05T13:26:37Z</time></trkpt><trkpt lat="44.9227818937439" lon="-1.1770700455315297"><ele>25.0</ele><time>2026-04-05T13:26:38Z</time></trkpt><trkpt lat="44.92289061282431" lon="-1.1770538181637393"><ele>23.5</ele><time>2026-04-05T13:26:39Z</time></trkpt><trkpt lat="44.92303199602927" lon="-1.177051918086742"><ele>22.0</ele><time>2026-04-05T13:26:40Z</time></trkpt><trkpt lat="44.923155457516415" lon="-1.1770436027441695"><ele>22.0</ele><time>2026-04-05T13:26:41Z</time></trkpt><trkpt lat="44.92325037488197" lon="-1.1770305397398537"><ele>22.0</ele><time>2026-04-05T13:26:42Z</time></trkpt><trkpt lat="44.92332636629046" lon="-1.177013924371072"><ele>22.0</ele><time>2026-04-05T13:26:43Z</time></trkpt><trkpt lat="44.923392987160184" lon="-1.1770244060288977"><ele>22.0</ele><time>2026-04-05T13:26:44Z</time></trkpt><trkpt lat="44.923492435544645" lon="-1.1770252646049488"><ele>22.0</ele><time>2026-04-05T13:26:46Z</time></trkpt><trkpt lat="44.92357870758084" lon="-1.1770210939255297"><ele>22.0</ele><time>2026-04-05T13:26:47Z</time></trkpt><trkpt lat="44.923683885837924" lon="-1.1770221532998575"><ele>21.0</ele><time>2026-04-05T13:26:48Z</time></trkpt><trkpt lat="44.9238128639292" lon="-1.177002561664097"><ele>20.0</ele><time>2026-04-05T13:26:49Z</time></trkpt><trkpt lat="44.923951272461046" lon="-1.1769661140586773"><ele>19.0</ele><time>2026-04-05T13:26:50Z</time></trkpt><trkpt lat="44.9240840092835" lon="-1.176958527282623"><ele>18.0</ele><time>2026-04-05T13:26:51Z</time></trkpt><trkpt lat="44.924235407248574" lon="-1.1769566344027493"><ele>18.0</ele><time>2026-04-05T13:26:52Z</time></trkpt><trkpt lat="44.924410847752185" lon="-1.1769389163768254"><ele>18.0</ele><time>2026-04-05T13:26:53Z</time></trkpt><trkpt lat="44.9245544286184" lon="-1.1769287483812578"><ele>18.0</ele><time>2026-04-05T13:26:54Z</time></trkpt><trkpt lat="44.92472138270426" lon="-1.1769271349063208"><ele>18.0</ele><time>2026-04-05T13:26:55Z</time></trkpt><trkpt lat="44.92489004450949" lon="-1.1769331104428908"><ele>18.0</ele><time>2026-04-05T13:26:56Z</time></trkpt><trkpt lat="44.92504516344349" lon="-1.1769413323592595"><ele>18.0</ele><time>2026-04-05T13:26:57Z</time></trkpt><trkpt lat="44.925152097028814" lon="-1.1769153110055286"><ele>18.0</ele><time>2026-04-05T13:26:58Z</time></trkpt><trkpt lat="44.92522350948701" lon="-1.1769078705686598"><ele>18.2</ele><time>2026-04-05T13:26:59Z</time></trkpt><trkpt lat="44.92534280223172" lon="-1.1769035358930156"><ele>18.4</ele><time>2026-04-05T13:27:01Z</time></trkpt><trkpt lat="44.925463605983026" lon="-1.1768641771121027"><ele>18.599999999999998</ele><time>2026-04-05T13:27:03Z</time></trkpt><trkpt lat="44.925528769268865" lon="-1.1768876050495438"><ele>18.8</ele><time>2026-04-05T13:27:04Z</time></trkpt><trkpt lat="44.92559108974165" lon="-1.176863766120271"><ele>19.0</ele><time>2026-04-05T13:27:06Z</time></trkpt><trkpt lat="44.9256789735272" lon="-1.1768785868661011"><ele>19.0</ele><time>2026-04-05T13:27:10Z</time></trkpt><trkpt lat="44.925743861244115" lon="-1.1768787666768552"><ele>19.0</ele><time>2026-04-05T13:27:12Z</time></trkpt><trkpt lat="44.92580904885255" lon="-1.1768396907188052"><ele>19.0</ele><time>2026-04-05T13:27:14Z</time></trkpt><trkpt lat="44.925873802638236" lon="-1.1767810431718446"><ele>19.0</ele><time>2026-04-05T13:27:16Z</time></trkpt><trkpt lat="44.92592390766304" lon="-1.1767158335292742"><ele>19.0</ele><time>2026-04-05T13:27:17Z</time></trkpt><trkpt lat="44.92601857785881" lon="-1.176619493435956"><ele>19.0</ele><time>2026-04-05T13:27:19Z</time></trkpt><trkpt lat="44.926137389542056" lon="-1.1765461030864195"><ele>18.0</ele><time>2026-04-05T13:27:20.999Z</time></trkpt><trkpt lat="44.92621951131058" lon="-1.1765102140948174"><ele>17.0</ele><time>2026-04-05T13:27:21.999Z</time></trkpt><trkpt lat="44.926332330041376" lon="-1.176406847457235"><ele>16.0</ele><time>2026-04-05T13:27:22.999Z</time></trkpt><trkpt lat="44.926454404194395" lon="-1.1762723616276582"><ele>15.0</ele><time>2026-04-05T13:27:23.999Z</time></trkpt><trkpt lat="44.92665033529239" lon="-1.176176737783881"><ele>15.0</ele><time>2026-04-05T13:27:24.999Z</time></trkpt><trkpt lat="44.92681005321573" lon="-1.1760702165968673"><ele>15.0</ele><time>2026-04-05T13:27:25.999Z</time></trkpt><trkpt lat="44.926942017912005" lon="-1.1759303317596024"><ele>15.0</ele><time>2026-04-05T13:27:26.999Z</time></trkpt><trkpt lat="44.92705702770665" lon="-1.1757792903829798"><ele>16.0</ele><time>2026-04-05T13:27:27.999Z</time></trkpt><trkpt lat="44.92715798475088" lon="-1.1756154149170648"><ele>17.0</ele><time>2026-04-05T13:27:28.999Z</time></trkpt><trkpt lat="44.927227423160716" lon="-1.1754173518367348"><ele>18.0</ele><time>2026-04-05T13:27:29.999Z</time></trkpt><trkpt lat="44.927300613304105" lon="-1.1751929183129217"><ele>18.0</ele><time>2026-04-05T13:27:30.999Z</time></trkpt><trkpt lat="44.927351338428025" lon="-1.1750392461507846"><ele>18.0</ele><time>2026-04-05T13:27:31.999Z</time></trkpt><trkpt lat="44.92736964319905" lon="-1.174863358451286"><ele>18.0</ele><time>2026-04-05T13:27:32.999Z</time></trkpt><trkpt lat="44.92738462062052" lon="-1.1746644703853781"><ele>18.0</ele><time>2026-04-05T13:27:33.999Z</time></trkpt><trkpt lat="44.927387328448006" lon="-1.174480615781905"><ele>18.0</ele><time>2026-04-05T13:27:34.999Z</time></trkpt><trkpt lat="44.927357206920966" lon="-1.17426978246299"><ele>18.0</ele><time>2026-04-05T13:27:35.999Z</time></trkpt><trkpt lat="44.927328465237515" lon="-1.1740997298844922"><ele>18.0</ele><time>2026-04-05T13:27:36.999Z</time></trkpt><trkpt lat="44.92728068986874" lon="-1.173982318368077"><ele>18.0</ele><time>2026-04-05T13:27:37.999Z</time></trkpt><trkpt lat="44.92721312814699" lon="-1.1738469036671328"><ele>18.0</ele><time>2026-04-05T13:27:38.999Z</time></trkpt><trkpt lat="44.92715683591555" lon="-1.1737307855589758"><ele>18.0</ele><time>2026-04-05T13:27:39.999Z</time></trkpt><trkpt lat="44.927127472002" lon="-1.1736271899079833"><ele>18.0</ele><time>2026-04-05T13:27:40.999Z</time></trkpt><trkpt lat="44.92713508179564" lon="-1.173493340132904"><ele>18.0</ele><time>2026-04-05T13:27:41.999Z</time></trkpt><trkpt lat="44.92713658002084" lon="-1.173316655781381"><ele>18.0</ele><time>2026-04-05T13:27:42.999Z</time></trkpt><trkpt lat="44.92711983141515" lon="-1.1731546836053703"><ele>17.8</ele><time>2026-04-05T13:27:43.999Z</time></trkpt><trkpt lat="44.92711608759533" lon="-1.1729940519740132"><ele>17.6</ele><time>2026-04-05T13:27:44.999Z</time></trkpt><trkpt lat="44.9271239836287" lon="-1.172854852825942"><ele>17.4</ele><time>2026-04-05T13:27:45.999Z</time></trkpt><trkpt lat="44.92714580501041" lon="-1.1727429764345167"><ele>17.2</ele><time>2026-04-05T13:27:46.999Z</time></trkpt><trkpt lat="44.92719866977731" lon="-1.1725907451575381"><ele>17.0</ele><time>2026-04-05T13:28:09.998Z</time></trkpt><trkpt lat="44.92724053022227" lon="-1.1725020636006507"><ele>17.0</ele><time>2026-04-05T13:28:10.998Z</time></trkpt><trkpt lat="44.927281995644854" lon="-1.1724093480912008"><ele>17.0</ele><time>2026-04-05T13:28:11.998Z</time></trkpt><trkpt lat="44.92731181773751" lon="-1.172298633912514"><ele>17.0</ele><time>2026-04-05T13:28:12.998Z</time></trkpt><trkpt lat="44.92731661490633" lon="-1.172161027024973"><ele>17.0</ele><time>2026-04-05T13:28:13.998Z</time></trkpt><trkpt lat="44.92732777362846" lon="-1.1719875772112538"><ele>17.0</ele><time>2026-04-05T13:28:14.998Z</time></trkpt><trkpt lat="44.92734864698215" lon="-1.1717854495560116"><ele>17.0</ele><time>2026-04-05T13:28:15.998Z</time></trkpt><trkpt lat="44.92737472298609" lon="-1.1715897517552143"><ele>17.0</ele><time>2026-04-05T13:28:16.998Z</time></trkpt><trkpt lat="44.92738457008293" lon="-1.1713576819760765"><ele>17.0</ele><time>2026-04-05T13:28:17.998Z</time></trkpt><trkpt lat="44.92737963544563" lon="-1.1711665176751909"><ele>17.0</ele><time>2026-04-05T13:28:18.998Z</time></trkpt><trkpt lat="44.92736952001088" lon="-1.1709606588802153"><ele>17.0</ele><time>2026-04-05T13:28:19.998Z</time></trkpt><trkpt lat="44.92737373341247" lon="-1.170743948483821"><ele>17.0</ele><time>2026-04-05T13:28:20.998Z</time></trkpt><trkpt lat="44.92738072033184" lon="-1.1705172438021656"><ele>17.0</ele><time>2026-04-05T13:28:21.998Z</time></trkpt><trkpt lat="44.92739766124753" lon="-1.1703706417088147"><ele>17.0</ele><time>2026-04-05T13:28:22.998Z</time></trkpt><trkpt lat="44.927397524285" lon="-1.1702483024959116"><ele>17.0</ele><time>2026-04-05T13:28:23.998Z</time></trkpt><trkpt lat="44.9273933754379" lon="-1.1701319027544348"><ele>17.0</ele><time>2026-04-05T13:28:24.998Z</time></trkpt><trkpt lat="44.92741222992835" lon="-1.1699936114252045"><ele>17.0</ele><time>2026-04-05T13:28:25.998Z</time></trkpt><trkpt lat="44.927449829313105" lon="-1.1698656888238177"><ele>17.0</ele><time>2026-04-05T13:28:26.998Z</time></trkpt><trkpt lat="44.92749370561517" lon="-1.1696681698797102"><ele>17.0</ele><time>2026-04-05T13:28:27.998Z</time></trkpt><trkpt lat="44.927548530887016" lon="-1.1694288640984665"><ele>17.0</ele><time>2026-04-05T13:28:28.998Z</time></trkpt><trkpt lat="44.92761448449414" lon="-1.1691476876676308"><ele>17.0</ele><time>2026-04-05T13:28:29.998Z</time></trkpt><trkpt lat="44.927669215696284" lon="-1.1688945332528449"><ele>17.0</ele><time>2026-04-05T13:28:30.998Z</time></trkpt><trkpt lat="44.92769595107361" lon="-1.168623758850631"><ele>17.0</ele><time>2026-04-05T13:28:31.998Z</time></trkpt><trkpt lat="44.927730555145175" lon="-1.1683851665607785"><ele>17.0</ele><time>2026-04-05T13:28:32.998Z</time></trkpt><trkpt lat="44.92776147984794" lon="-1.1681682324437337"><ele>17.0</ele><time>2026-04-05T13:28:34Z</time></trkpt><trkpt lat="44.92778733428733" lon="-1.1679678397743851"><ele>17.333333333333336</ele><time>2026-04-05T13:28:35Z</time></trkpt><trkpt lat="44.92784058530218" lon="-1.1677122399517812"><ele>17.666666666666668</ele><time>2026-04-05T13:28:36Z</time></trkpt><trkpt lat="44.92788273221151" lon="-1.1674786219738267"><ele>18.0</ele><time>2026-04-05T13:28:37Z</time></trkpt><trkpt lat="44.927925554978714" lon="-1.1672590576219861"><ele>17.6</ele><time>2026-04-05T13:28:38Z</time></trkpt><trkpt lat="44.92797210920765" lon="-1.1670584769070218"><ele>17.200000000000003</ele><time>2026-04-05T13:28:39Z</time></trkpt><trkpt lat="44.928007547557776" lon="-1.1669053694600515"><ele>16.8</ele><time>2026-04-05T13:28:40Z</time></trkpt><trkpt lat="44.92804133525607" lon="-1.166780192941068"><ele>16.400000000000002</ele><time>2026-04-05T13:28:41Z</time></trkpt><trkpt lat="44.92807870611026" lon="-1.166701983026936"><ele>16.0</ele><time>2026-04-05T13:28:42Z</time></trkpt><trkpt lat="44.92814030782258" lon="-1.1666060927320625"><ele>15.8</ele><time>2026-04-05T13:28:43Z</time></trkpt><trkpt lat="44.92820753286356" lon="-1.1665212484621568"><ele>15.600000000000001</ele><time>2026-04-05T13:28:44Z</time></trkpt><trkpt lat="44.92829435424191" lon="-1.1664209045263956"><ele>15.4</ele><time>2026-04-05T13:28:45Z</time></trkpt><trkpt lat="44.92835876805849" lon="-1.166342962475589"><ele>15.2</ele><time>2026-04-05T13:28:46Z</time></trkpt><trkpt lat="44.9284215479575" lon="-1.1662449061400226"><ele>15.0</ele><time>2026-04-05T13:28:47Z</time></trkpt><trkpt lat="44.92846583355919" lon="-1.166135099329887"><ele>15.0</ele><time>2026-04-05T13:28:48Z</time></trkpt><trkpt lat="44.92851101146963" lon="-1.1660468883383646"><ele>15.0</ele><time>2026-04-05T13:28:49Z</time></trkpt><trkpt lat="44.928619276421735" lon="-1.165955031041279"><ele>15.0</ele><time>2026-04-05T13:28:51Z</time></trkpt><trkpt lat="44.92869493051121" lon="-1.165951247852819"><ele>15.0</ele><time>2026-04-05T13:28:52Z</time></trkpt><trkpt lat="44.92875882056309" lon="-1.1659572145281167"><ele>15.0</ele><time>2026-04-05T13:28:53Z</time></trkpt><trkpt lat="44.928765646931176" lon="-1.1660604486880957"><ele>15.0</ele><time>2026-04-05T13:28:56Z</time></trkpt><trkpt lat="44.92885210776948" lon="-1.1661035633161172"><ele>15.0</ele><time>2026-04-05T13:29:01Z</time></trkpt><trkpt lat="44.928921924367536" lon="-1.1660812787671069"><ele>15.0</ele><time>2026-04-05T13:29:02Z</time></trkpt><trkpt lat="44.92900881965677" lon="-1.16606320595901"><ele>15.0</ele><time>2026-04-05T13:29:03Z</time></trkpt><trkpt lat="44.92913355397679" lon="-1.1660467639460421"><ele>15.0</ele><time>2026-04-05T13:29:04Z</time></trkpt><trkpt lat="44.929302107978415" lon="-1.1660239339109875"><ele>15.5</ele><time>2026-04-05T13:29:05Z</time></trkpt><trkpt lat="44.92944960540035" lon="-1.166020117918132"><ele>16.0</ele><time>2026-04-05T13:29:06Z</time></trkpt><trkpt lat="44.9295881682587" lon="-1.1660222610528248"><ele>16.5</ele><time>2026-04-05T13:29:07Z</time></trkpt><trkpt lat="44.92969422100376" lon="-1.1660024302996357"><ele>17.0</ele><time>2026-04-05T13:29:08Z</time></trkpt><trkpt lat="44.929765218886565" lon="-1.1659771393238618"><ele>17.0</ele><time>2026-04-05T13:29:09Z</time></trkpt><trkpt lat="44.929828959633625" lon="-1.165990749043577"><ele>17.0</ele><time>2026-04-05T13:29:10Z</time></trkpt><trkpt lat="44.92986796256643" lon="-1.1660924186991468"><ele>17.0</ele><time>2026-04-05T13:29:11Z</time></trkpt><trkpt lat="44.92991939528114" lon="-1.16624077842646"><ele>17.0</ele><time>2026-04-05T13:29:12Z</time></trkpt><trkpt lat="44.929945839944665" lon="-1.1663715237214338"><ele>17.0</ele><time>2026-04-05T13:29:13Z</time></trkpt><trkpt lat="44.93000720020688" lon="-1.1665457430189996"><ele>17.0</ele><time>2026-04-05T13:29:14Z</time></trkpt><trkpt lat="44.93007941506109" lon="-1.1666941815357614"><ele>17.0</ele><time>2026-04-05T13:29:15Z</time></trkpt><trkpt lat="44.930202173423694" lon="-1.166902902984099"><ele>17.0</ele><time>2026-04-05T13:29:16Z</time></trkpt><trkpt lat="44.93034367151165" lon="-1.167149667295261"><ele>16.666666666666668</ele><time>2026-04-05T13:29:17Z</time></trkpt><trkpt lat="44.930474920377385" lon="-1.1674042899755912"><ele>16.333333333333332</ele><time>2026-04-05T13:29:18Z</time></trkpt><trkpt lat="44.93060785927274" lon="-1.167576296532325"><ele>16.0</ele><time>2026-04-05T13:29:19Z</time></trkpt><trkpt lat="44.93071391727622" lon="-1.1677706674318329"><ele>16.0</ele><time>2026-04-05T13:29:20Z</time></trkpt><trkpt lat="44.9308159618002" lon="-1.1679538631603352"><ele>16.0</ele><time>2026-04-05T13:29:21Z</time></trkpt><trkpt lat="44.93090983939262" lon="-1.1681253448555746"><ele>16.0</ele><time>2026-04-05T13:29:21.999Z</time></trkpt><trkpt lat="44.930987102039516" lon="-1.1682780649779774"><ele>16.666666666666664</ele><time>2026-04-05T13:29:22.999Z</time></trkpt><trkpt lat="44.9310832011771" lon="-1.1684633247423508"><ele>17.333333333333332</ele><time>2026-04-05T13:29:23.999Z</time></trkpt><trkpt lat="44.931163414504546" lon="-1.1686315312447382"><ele>18.0</ele><time>2026-04-05T13:29:24.999Z</time></trkpt><trkpt lat="44.93125077144443" lon="-1.1688283384215152"><ele>18.0</ele><time>2026-04-05T13:29:25.999Z</time></trkpt><trkpt lat="44.931339187063784" lon="-1.1690245175641054"><ele>18.0</ele><time>2026-04-05T13:29:26.999Z</time></trkpt><trkpt lat="44.93142452607651" lon="-1.169196865354656"><ele>18.0</ele><time>2026-04-05T13:29:27.999Z</time></trkpt><trkpt lat="44.931495774265684" lon="-1.169350465186869"><ele>18.0</ele><time>2026-04-05T13:29:28.999Z</time></trkpt><trkpt lat="44.93153365732757" lon="-1.1695132632508847"><ele>18.0</ele><time>2026-04-05T13:29:29.999Z</time></trkpt><trkpt lat="44.931581276793295" lon="-1.1697017949421595"><ele>18.0</ele><time>2026-04-05T13:29:30.999Z</time></trkpt><trkpt lat="44.93166201324287" lon="-1.1699582175088314"><ele>18.0</ele><time>2026-04-05T13:29:31.999Z</time></trkpt><trkpt lat="44.93172926189137" lon="-1.1701839594365844"><ele>18.333333333333332</ele><time>2026-04-05T13:29:32.999Z</time></trkpt><trkpt lat="44.931798918941496" lon="-1.1704118001292514"><ele>18.666666666666664</ele><time>2026-04-05T13:29:33.999Z</time></trkpt><trkpt lat="44.931863175557076" lon="-1.1706278664607495"><ele>19.0</ele><time>2026-04-05T13:29:34.999Z</time></trkpt><trkpt lat="44.93192414778488" lon="-1.1708192044943935"><ele>19.0</ele><time>2026-04-05T13:29:35.999Z</time></trkpt><trkpt lat="44.93197444591228" lon="-1.1709915770153168"><ele>19.0</ele><time>2026-04-05T13:29:36.999Z</time></trkpt><trkpt lat="44.93203644650727" lon="-1.1711888182885692"><ele>19.0</ele><time>2026-04-05T13:29:37.999Z</time></trkpt><trkpt lat="44.93210384034056" lon="-1.1713846154021652"><ele>19.0</ele><time>2026-04-05T13:29:38.999Z</time></trkpt><trkpt lat="44.93219427652225" lon="-1.1716108990404823"><ele>18.75</ele><time>2026-04-05T13:29:39.999Z</time></trkpt><trkpt lat="44.93227059741801" lon="-1.1717776962256115"><ele>18.5</ele><time>2026-04-05T13:29:40.999Z</time></trkpt><trkpt lat="44.932341763432305" lon="-1.1719278756843163"><ele>18.25</ele><time>2026-04-05T13:29:41.999Z</time></trkpt><trkpt lat="44.93242927001838" lon="-1.1720888178547317"><ele>18.0</ele><time>2026-04-05T13:29:42.999Z</time></trkpt><trkpt lat="44.93254026243713" lon="-1.1722943663701124"><ele>18.0</ele><time>2026-04-05T13:29:43.999Z</time></trkpt><trkpt lat="44.93267631375294" lon="-1.1725113069424473"><ele>18.0</ele><time>2026-04-05T13:29:44.999Z</time></trkpt><trkpt lat="44.932787325863984" lon="-1.1726892347429139"><ele>18.0</ele><time>2026-04-05T13:29:45.999Z</time></trkpt><trkpt lat="44.932898938810496" lon="-1.1728685871921118"><ele>18.0</ele><time>2026-04-05T13:29:46.999Z</time></trkpt><trkpt lat="44.93302368249203" lon="-1.1730707063312833"><ele>18.0</ele><time>2026-04-05T13:29:47.999Z</time></trkpt><trkpt lat="44.93314579327917" lon="-1.173241359480945"><ele>18.0</ele><time>2026-04-05T13:29:48.999Z</time></trkpt><trkpt lat="44.93324400518403" lon="-1.173397869943213"><ele>18.333333333333332</ele><time>2026-04-05T13:29:49.999Z</time></trkpt><trkpt lat="44.93335168641094" lon="-1.1735382413447228"><ele>18.666666666666664</ele><time>2026-04-05T13:29:50.999Z</time></trkpt><trkpt lat="44.933471362633455" lon="-1.173710258981269"><ele>19.0</ele><time>2026-04-05T13:29:51.999Z</time></trkpt><trkpt lat="44.93359519386731" lon="-1.1738092404084384"><ele>18.75</ele><time>2026-04-05T13:29:52.999Z</time></trkpt><trkpt lat="44.93371563328727" lon="-1.173942354916002"><ele>18.5</ele><time>2026-04-05T13:29:53.999Z</time></trkpt><trkpt lat="44.933807955600415" lon="-1.1740679541009038"><ele>18.25</ele><time>2026-04-05T13:29:54.999Z</time></trkpt><trkpt lat="44.93390497006696" lon="-1.1742017099493174"><ele>18.0</ele><time>2026-04-05T13:29:55.999Z</time></trkpt><trkpt lat="44.93399141508092" lon="-1.1743199695594662"><ele>18.0</ele><time>2026-04-05T13:29:56.999Z</time></trkpt><trkpt lat="44.93407664354523" lon="-1.1744086473227002"><ele>18.0</ele><time>2026-04-05T13:29:57.999Z</time></trkpt><trkpt lat="44.93414828401129" lon="-1.1744862389384698"><ele>18.0</ele><time>2026-04-05T13:29:58.999Z</time></trkpt><trkpt lat="44.93422339852702" lon="-1.174572954687735"><ele>18.0</ele><time>2026-04-05T13:29:59.999Z</time></trkpt><trkpt lat="44.93431236880226" lon="-1.1746678701290696"><ele>18.0</ele><time>2026-04-05T13:30:00.999Z</time></trkpt><trkpt lat="44.93441486559787" lon="-1.1747656742094497"><ele>17.25</ele><time>2026-04-05T13:30:01.999Z</time></trkpt><trkpt lat="44.93452493042289" lon="-1.1748542854637893"><ele>16.5</ele><time>2026-04-05T13:30:02.999Z</time></trkpt><trkpt lat="44.93463340500594" lon="-1.1749544113795911"><ele>15.75</ele><time>2026-04-05T13:30:03.999Z</time></trkpt><trkpt lat="44.93476348819041" lon="-1.175030779568575"><ele>15.0</ele><time>2026-04-05T13:30:04.999Z</time></trkpt><trkpt lat="44.93488989386311" lon="-1.1750716562693349"><ele>15.0</ele><time>2026-04-05T13:30:05.999Z</time></trkpt><trkpt lat="44.934995943829776" lon="-1.175095609821264"><ele>15.0</ele><time>2026-04-05T13:30:06.999Z</time></trkpt><trkpt lat="44.935108824792124" lon="-1.1751192444112495"><ele>15.0</ele><time>2026-04-05T13:30:07.999Z</time></trkpt><trkpt lat="44.935193027019515" lon="-1.1751451335735723"><ele>15.0</ele><time>2026-04-05T13:30:08.998Z</time></trkpt><trkpt lat="44.93527582503146" lon="-1.1752570239116125"><ele>15.0</ele><time>2026-04-05T13:30:10.998Z</time></trkpt><trkpt lat="44.93529043063031" lon="-1.1753497275126148"><ele>15.0</ele><time>2026-04-05T13:30:12.998Z</time></trkpt><trkpt lat="44.93537941373032" lon="-1.175282538305861"><ele>15.0</ele><time>2026-04-05T13:32:23.998Z</time></trkpt><trkpt lat="44.93546808889111" lon="-1.1752314575842542"><ele>15.0</ele><time>2026-04-05T13:32:24.998Z</time></trkpt><trkpt lat="44.9355864807772" lon="-1.1751688627287"><ele>15.0</ele><time>2026-04-05T13:32:25.998Z</time></trkpt><trkpt lat="44.9357066974895" lon="-1.1751315983953359"><ele>15.0</ele><time>2026-04-05T13:32:26.998Z</time></trkpt><trkpt lat="44.93581481985566" lon="-1.1751309380686377"><ele>15.6</ele><time>2026-04-05T13:32:27.998Z</time></trkpt><trkpt lat="44.93591446871001" lon="-1.1751077762277584"><ele>16.2</ele><time>2026-04-05T13:32:28.998Z</time></trkpt><trkpt lat="44.93602206795878" lon="-1.1750733500296318"><ele>16.8</ele><time>2026-04-05T13:32:29.998Z</time></trkpt><trkpt lat="44.936136897602545" lon="-1.1750345383586316"><ele>17.4</ele><time>2026-04-05T13:32:30.998Z</time></trkpt><trkpt lat="44.93625223713373" lon="-1.175000655271082"><ele>18.0</ele><time>2026-04-05T13:32:31.998Z</time></trkpt><trkpt lat="44.93639528132408" lon="-1.174976331898535"><ele>18.0</ele><time>2026-04-05T13:32:32.998Z</time></trkpt><trkpt lat="44.936574759977695" lon="-1.174944286813755"><ele>18.0</ele><time>2026-04-05T13:32:33.998Z</time></trkpt><trkpt lat="44.93677076027382" lon="-1.1749165181215042"><ele>18.0</ele><time>2026-04-05T13:32:34.998Z</time></trkpt><trkpt lat="44.93697071878848" lon="-1.1748511566481419"><ele>16.5</ele><time>2026-04-05T13:32:35.998Z</time></trkpt><trkpt lat="44.937217427553996" lon="-1.1747836219471863"><ele>15.0</ele><time>2026-04-05T13:32:36.998Z</time></trkpt><trkpt lat="44.93743272764895" lon="-1.1747261321157052"><ele>15.0</ele><time>2026-04-05T13:32:37.998Z</time></trkpt><trkpt lat="44.937623993767104" lon="-1.1746865317168624"><ele>15.0</ele><time>2026-04-05T13:32:38.998Z</time></trkpt><trkpt lat="44.937836006945936" lon="-1.1746533348598691"><ele>15.0</ele><time>2026-04-05T13:32:39.998Z</time></trkpt><trkpt lat="44.93808039524991" lon="-1.1745799748415908"><ele>15.0</ele><time>2026-04-05T13:32:40.998Z</time></trkpt><trkpt lat="44.938300950152055" lon="-1.1745313762037486"><ele>15.0</ele><time>2026-04-05T13:32:41.998Z</time></trkpt><trkpt lat="44.93847608391223" lon="-1.1744812986258173"><ele>15.0</ele><time>2026-04-05T13:32:42.998Z</time></trkpt><trkpt lat="44.93862918704898" lon="-1.1744619994619974"><ele>15.2</ele><time>2026-04-05T13:32:43.998Z</time></trkpt><trkpt lat="44.93873653148535" lon="-1.1744617804015398"><ele>15.4</ele><time>2026-04-05T13:32:44.998Z</time></trkpt><trkpt lat="44.93883385338636" lon="-1.1744909846229272"><ele>15.600000000000001</ele><time>2026-04-05T13:32:46Z</time></trkpt><trkpt lat="44.93894555218811" lon="-1.1745570531881488"><ele>15.8</ele><time>2026-04-05T13:32:47Z</time></trkpt><trkpt lat="44.939054694197445" lon="-1.1746311348345526"><ele>16.0</ele><time>2026-04-05T13:32:48Z</time></trkpt><trkpt lat="44.93916047159036" lon="-1.1747135192785267"><ele>16.25</ele><time>2026-04-05T13:32:49Z</time></trkpt><trkpt lat="44.93927684756399" lon="-1.1748278012868454"><ele>16.5</ele><time>2026-04-05T13:32:50Z</time></trkpt><trkpt lat="44.939382291586604" lon="-1.1749716984236545"><ele>16.75</ele><time>2026-04-05T13:32:51Z</time></trkpt><trkpt lat="44.9395008942563" lon="-1.1751115063503086"><ele>17.0</ele><time>2026-04-05T13:32:52Z</time></trkpt><trkpt lat="44.939632222117474" lon="-1.1752871904732858"><ele>17.0</ele><time>2026-04-05T13:32:53Z</time></trkpt><trkpt lat="44.93974175182332" lon="-1.17545730274258"><ele>17.0</ele><time>2026-04-05T13:32:54Z</time></trkpt><trkpt lat="44.939820986401855" lon="-1.1755654426855024"><ele>17.0</ele><time>2026-04-05T13:32:55Z</time></trkpt><trkpt lat="44.93991388263209" lon="-1.1756587883762626"><ele>17.0</ele><time>2026-04-05T13:32:56Z</time></trkpt><trkpt lat="44.94000904968482" lon="-1.1757604454439634"><ele>16.75</ele><time>2026-04-05T13:32:57Z</time></trkpt><trkpt lat="44.94010064461011" lon="-1.1759132045770206"><ele>16.5</ele><time>2026-04-05T13:32:58Z</time></trkpt><trkpt lat="44.94019255371412" lon="-1.176062602670564"><ele>16.25</ele><time>2026-04-05T13:32:59Z</time></trkpt><trkpt lat="44.94031340136665" lon="-1.176197067291845"><ele>16.0</ele><time>2026-04-05T13:33:00Z</time></trkpt><trkpt lat="44.94041563667957" lon="-1.1763581728654788"><ele>16.0</ele><time>2026-04-05T13:33:01Z</time></trkpt><trkpt lat="44.94051233522968" lon="-1.1764896924431298"><ele>16.0</ele><time>2026-04-05T13:33:02Z</time></trkpt><trkpt lat="44.94061637850597" lon="-1.1766034691266496"><ele>16.0</ele><time>2026-04-05T13:33:03Z</time></trkpt><trkpt lat="44.940771593875425" lon="-1.1767641075679427"><ele>15.333333333333332</ele><time>2026-04-05T13:33:04Z</time></trkpt><trkpt lat="44.940914421386225" lon="-1.1769270814262138"><ele>14.666666666666668</ele><time>2026-04-05T13:33:05Z</time></trkpt><trkpt lat="44.941018354810964" lon="-1.1770578403903715"><ele>14.0</ele><time>2026-04-05T13:33:06Z</time></trkpt><trkpt lat="44.941108896988155" lon="-1.1771967181623921"><ele>14.0</ele><time>2026-04-05T13:33:07Z</time></trkpt><trkpt lat="44.94118394584026" lon="-1.1773122696403548"><ele>13.999999999999998</ele><time>2026-04-05T13:33:08Z</time></trkpt><trkpt lat="44.941240385749275" lon="-1.1773960970711883"><ele>13.999999999999998</ele><time>2026-04-05T13:33:09Z</time></trkpt><trkpt lat="44.941362537595076" lon="-1.177403180193193"><ele>14.0</ele><time>2026-04-05T13:33:11Z</time></trkpt><trkpt lat="44.94145680374544" lon="-1.177413780872843"><ele>14.0</ele><time>2026-04-05T13:33:12Z</time></trkpt><trkpt lat="44.941552555276985" lon="-1.1774954131445696"><ele>14.799999999999999</ele><time>2026-04-05T13:33:13Z</time></trkpt><trkpt lat="44.941610268330386" lon="-1.1775648401845051"><ele>15.599999999999998</ele><time>2026-04-05T13:33:14Z</time></trkpt><trkpt lat="44.94172941436356" lon="-1.1775675992461963"><ele>16.4</ele><time>2026-04-05T13:33:16Z</time></trkpt><trkpt lat="44.94180480396969" lon="-1.1775206811987233"><ele>17.2</ele><time>2026-04-05T13:33:17Z</time></trkpt><trkpt lat="44.941901256478566" lon="-1.1774671448263307"><ele>18.0</ele><time>2026-04-05T13:33:18Z</time></trkpt><trkpt lat="44.94199738490197" lon="-1.177394795645935"><ele>17.8</ele><time>2026-04-05T13:33:19Z</time></trkpt><trkpt lat="44.94207536087553" lon="-1.1772968219067603"><ele>17.6</ele><time>2026-04-05T13:33:20Z</time></trkpt><trkpt lat="44.942131200380246" lon="-1.1771939573453982"><ele>17.4</ele><time>2026-04-05T13:33:21Z</time></trkpt><trkpt lat="44.94223601769354" lon="-1.1771694061015954"><ele>17.2</ele><time>2026-04-05T13:33:23Z</time></trkpt><trkpt lat="44.94231595549111" lon="-1.1772279150862102"><ele>17.0</ele><time>2026-04-05T13:33:23.999Z</time></trkpt><trkpt lat="44.94240000493768" lon="-1.1773112424889538"><ele>17.0</ele><time>2026-04-05T13:33:24.999Z</time></trkpt><trkpt lat="44.94247010819557" lon="-1.1773519425075902"><ele>17.0</ele><time>2026-04-05T13:33:25.999Z</time></trkpt><trkpt lat="44.942537943207384" lon="-1.177346182748407"><ele>17.0</ele><time>2026-04-05T13:33:26.999Z</time></trkpt><trkpt lat="44.9426010347428" lon="-1.1774073312043136"><ele>17.0</ele><time>2026-04-05T13:33:28.999Z</time></trkpt><trkpt lat="44.94269500244664" lon="-1.17746681208659"><ele>17.0</ele><time>2026-04-05T13:33:30.999Z</time></trkpt><trkpt lat="44.94276602525968" lon="-1.1774809600585714"><ele>17.0</ele><time>2026-04-05T13:33:32.999Z</time></trkpt><trkpt lat="44.94287385341098" lon="-1.1776047326367665"><ele>18.2</ele><time>2026-04-05T13:33:34.999Z</time></trkpt><trkpt lat="44.94296613207496" lon="-1.1776841389007666"><ele>19.4</ele><time>2026-04-05T13:33:35.999Z</time></trkpt><trkpt lat="44.94307288512469" lon="-1.1777788999389802"><ele>20.599999999999998</ele><time>2026-04-05T13:33:36.999Z</time></trkpt><trkpt lat="44.94315761378477" lon="-1.1778603828434628"><ele>21.799999999999997</ele><time>2026-04-05T13:33:37.999Z</time></trkpt><trkpt lat="44.94322210476746" lon="-1.1779455603548408"><ele>23.0</ele><time>2026-04-05T13:33:38.999Z</time></trkpt><trkpt lat="44.94327398424561" lon="-1.1780024085983418"><ele>23.0</ele><time>2026-04-05T13:33:39.999Z</time></trkpt><trkpt lat="44.943337793235735" lon="-1.1780364997381494"><ele>23.0</ele><time>2026-04-05T13:33:41.999Z</time></trkpt><trkpt lat="44.94340975082847" lon="-1.1780887770313926"><ele>23.0</ele><time>2026-04-05T13:33:57.999Z</time></trkpt><trkpt lat="44.943464584255665" lon="-1.1781441050134156"><ele>23.0</ele><time>2026-04-05T13:33:58.999Z</time></trkpt><trkpt lat="44.94352953871771" lon="-1.1781631050220502"><ele>23.0</ele><time>2026-04-05T13:33:59.999Z</time></trkpt><trkpt lat="44.94361033151111" lon="-1.1781583000083595"><ele>23.0</ele><time>2026-04-05T13:34:00.999Z</time></trkpt><trkpt lat="44.94374231341083" lon="-1.1781642918885513"><ele>23.4</ele><time>2026-04-05T13:34:01.999Z</time></trkpt><trkpt lat="44.943859482124346" lon="-1.1781651492619416"><ele>23.799999999999997</ele><time>2026-04-05T13:34:02.999Z</time></trkpt><trkpt lat="44.94395517927177" lon="-1.1781815648230902"><ele>24.2</ele><time>2026-04-05T13:34:03.999Z</time></trkpt><trkpt lat="44.94402723637125" lon="-1.1781812390456794"><ele>24.6</ele><time>2026-04-05T13:34:04.999Z</time></trkpt><trkpt lat="44.94411733230592" lon="-1.1781719236684318"><ele>25.0</ele><time>2026-04-05T13:34:05.999Z</time></trkpt><trkpt lat="44.944191053776755" lon="-1.1781535123262088"><ele>25.2</ele><time>2026-04-05T13:34:06.999Z</time></trkpt><trkpt lat="44.94427714841577" lon="-1.1781110276486493"><ele>25.4</ele><time>2026-04-05T13:34:07.999Z</time></trkpt><trkpt lat="44.944363785935856" lon="-1.1780582345920625"><ele>25.6</ele><time>2026-04-05T13:34:08.999Z</time></trkpt><trkpt lat="44.94445432641822" lon="-1.1779914689072664"><ele>25.8</ele><time>2026-04-05T13:34:09.999Z</time></trkpt><trkpt lat="44.94454254434047" lon="-1.1779077892480614"><ele>26.0</ele><time>2026-04-05T13:34:10.998Z</time></trkpt><trkpt lat="44.9446288115558" lon="-1.1778130638577045"><ele>26.0</ele><time>2026-04-05T13:34:11.998Z</time></trkpt><trkpt lat="44.94470890612825" lon="-1.1777185878362713"><ele>26.0</ele><time>2026-04-05T13:34:12.998Z</time></trkpt><trkpt lat="44.94476373643111" lon="-1.177658497736402"><ele>26.0</ele><time>2026-04-05T13:34:13.998Z</time></trkpt><trkpt lat="44.94485183836877" lon="-1.1776252948428838"><ele>26.0</ele><time>2026-04-05T13:34:14.998Z</time></trkpt><trkpt lat="44.94492578048867" lon="-1.1774832648781286"><ele>26.0</ele><time>2026-04-05T13:34:16.998Z</time></trkpt><trkpt lat="44.944979233338074" lon="-1.1773295998497086"><ele>25.75</ele><time>2026-04-05T13:34:17.998Z</time></trkpt><trkpt lat="44.94506318789352" lon="-1.1771831635123011"><ele>25.5</ele><time>2026-04-05T13:34:18.998Z</time></trkpt><trkpt lat="44.94517597464429" lon="-1.1770282615853478"><ele>25.25</ele><time>2026-04-05T13:34:19.998Z</time></trkpt><trkpt lat="44.945264905644294" lon="-1.1769085121447045"><ele>25.0</ele><time>2026-04-05T13:34:20.998Z</time></trkpt><trkpt lat="44.945331566571866" lon="-1.1768234185887605"><ele>25.000000000000004</ele><time>2026-04-05T13:34:21.998Z</time></trkpt><trkpt lat="44.94539445493177" lon="-1.1767578048901055"><ele>25.0</ele><time>2026-04-05T13:34:22.998Z</time></trkpt><trkpt lat="44.945448870370484" lon="-1.176707165663753"><ele>25.0</ele><time>2026-04-05T13:34:23.998Z</time></trkpt><trkpt lat="44.94553738049708" lon="-1.1766669086486172"><ele>25.0</ele><time>2026-04-05T13:34:28.998Z</time></trkpt><trkpt lat="44.9456532316174" lon="-1.1766045060284496"><ele>25.000000000000004</ele><time>2026-04-05T13:34:30.998Z</time></trkpt><trkpt lat="44.94572550917837" lon="-1.1765309653765703"><ele>25.0</ele><time>2026-04-05T13:34:31.998Z</time></trkpt><trkpt lat="44.94579743251569" lon="-1.1764581359691473"><ele>24.0</ele><time>2026-04-05T13:34:32.998Z</time></trkpt><trkpt lat="44.94587441254597" lon="-1.1763666731703677"><ele>23.0</ele><time>2026-04-05T13:34:33.998Z</time></trkpt><trkpt lat="44.945976993236286" lon="-1.1762598792265964"><ele>22.0</ele><time>2026-04-05T13:34:34.998Z</time></trkpt><trkpt lat="44.946116925631074" lon="-1.1761270493512346"><ele>21.0</ele><time>2026-04-05T13:34:35.998Z</time></trkpt><trkpt lat="44.946252501746606" lon="-1.1760049759441504"><ele>21.0</ele><time>2026-04-05T13:34:36.998Z</time></trkpt><trkpt lat="44.94639932926598" lon="-1.175876614359582"><ele>21.0</ele><time>2026-04-05T13:34:37.998Z</time></trkpt><trkpt lat="44.94654819254607" lon="-1.1757548274463625"><ele>21.0</ele><time>2026-04-05T13:34:38.998Z</time></trkpt><trkpt lat="44.94667955699434" lon="-1.1756410828707242"><ele>21.0</ele><time>2026-04-05T13:34:39.998Z</time></trkpt><trkpt lat="44.94678468803747" lon="-1.1755454604283135"><ele>21.0</ele><time>2026-04-05T13:34:40.998Z</time></trkpt><trkpt lat="44.94689871428352" lon="-1.175442281757894"><ele>21.0</ele><time>2026-04-05T13:34:41.998Z</time></trkpt><trkpt lat="44.947004228687696" lon="-1.1753483941371756"><ele>21.0</ele><time>2026-04-05T13:34:42.998Z</time></trkpt><trkpt lat="44.947111953027154" lon="-1.1752452523227055"><ele>21.0</ele><time>2026-04-05T13:34:43.998Z</time></trkpt><trkpt lat="44.947230106986396" lon="-1.1751505222886984"><ele>21.0</ele><time>2026-04-05T13:34:44.998Z</time></trkpt><trkpt lat="44.947334566713494" lon="-1.1750633930743988"><ele>21.0</ele><time>2026-04-05T13:34:45.998Z</time></trkpt><trkpt lat="44.947442931378006" lon="-1.1749540947993327"><ele>21.0</ele><time>2026-04-05T13:34:46.998Z</time></trkpt><trkpt lat="44.94755111510932" lon="-1.174854612630497"><ele>20.75</ele><time>2026-04-05T13:34:47.998Z</time></trkpt><trkpt lat="44.94765601370568" lon="-1.174771853072758"><ele>20.5</ele><time>2026-04-05T13:34:48.998Z</time></trkpt><trkpt lat="44.94774125086021" lon="-1.174703582928458"><ele>20.25</ele><time>2026-04-05T13:34:49.998Z</time></trkpt><trkpt lat="44.94783491021051" lon="-1.174641670872302"><ele>20.0</ele><time>2026-04-05T13:34:50.998Z</time></trkpt><trkpt lat="44.947958255779604" lon="-1.1745705985264578"><ele>20.0</ele><time>2026-04-05T13:34:52Z</time></trkpt><trkpt lat="44.94809507620953" lon="-1.1745058581423462"><ele>20.0</ele><time>2026-04-05T13:34:53Z</time></trkpt><trkpt lat="44.948213011598504" lon="-1.1744829485078325"><ele>20.0</ele><time>2026-04-05T13:34:54Z</time></trkpt><trkpt lat="44.94833217671377" lon="-1.1744595057505005"><ele>20.0</ele><time>2026-04-05T13:34:55Z</time></trkpt><trkpt lat="44.948467420347725" lon="-1.1744275819972503"><ele>20.0</ele><time>2026-04-05T13:34:56Z</time></trkpt><trkpt lat="44.94858676118073" lon="-1.1743962456158872"><ele>20.0</ele><time>2026-04-05T13:34:57Z</time></trkpt><trkpt lat="44.948713770499026" lon="-1.1743700501991365"><ele>20.0</ele><time>2026-04-05T13:34:58Z</time></trkpt><trkpt lat="44.94884603427243" lon="-1.1743369972523974"><ele>20.0</ele><time>2026-04-05T13:34:59Z</time></trkpt><trkpt lat="44.94895897519243" lon="-1.174309922990007"><ele>20.0</ele><time>2026-04-05T13:35:00Z</time></trkpt><trkpt lat="44.94908349293152" lon="-1.1742775187989296"><ele>20.0</ele><time>2026-04-05T13:35:01Z</time></trkpt><trkpt lat="44.94917853296887" lon="-1.174246367380894"><ele>20.0</ele><time>2026-04-05T13:35:02Z</time></trkpt><trkpt lat="44.94926696855544" lon="-1.1742164414886138"><ele>20.0</ele><time>2026-04-05T13:35:03Z</time></trkpt><trkpt lat="44.94935935658709" lon="-1.1741854579086413"><ele>20.0</ele><time>2026-04-05T13:35:04Z</time></trkpt><trkpt lat="44.949438973727084" lon="-1.1741553601459211"><ele>19.8</ele><time>2026-04-05T13:35:05Z</time></trkpt><trkpt lat="44.94953146006325" lon="-1.1741474693718053"><ele>19.6</ele><time>2026-04-05T13:35:06Z</time></trkpt><trkpt lat="44.94963574430246" lon="-1.1741231910672556"><ele>19.4</ele><time>2026-04-05T13:35:07Z</time></trkpt><trkpt lat="44.949716134834176" lon="-1.17408584164368"><ele>19.2</ele><time>2026-04-05T13:35:08Z</time></trkpt><trkpt lat="44.949824425560855" lon="-1.1740693952570285"><ele>19.0</ele><time>2026-04-05T13:35:09Z</time></trkpt><trkpt lat="44.949930794861956" lon="-1.174099059487566"><ele>19.0</ele><time>2026-04-05T13:35:10Z</time></trkpt><trkpt lat="44.95003100304621" lon="-1.1741251236493269"><ele>19.0</ele><time>2026-04-05T13:35:11Z</time></trkpt><trkpt lat="44.95013235202515" lon="-1.1740950476464949"><ele>19.0</ele><time>2026-04-05T13:35:12Z</time></trkpt><trkpt lat="44.95027378640715" lon="-1.1740490727471267"><ele>19.0</ele><time>2026-04-05T13:35:13Z</time></trkpt><trkpt lat="44.95041624756127" lon="-1.1740208824228646"><ele>19.25</ele><time>2026-04-05T13:35:14Z</time></trkpt><trkpt lat="44.95057331094369" lon="-1.1739762982389477"><ele>19.5</ele><time>2026-04-05T13:35:15Z</time></trkpt><trkpt lat="44.950694764155685" lon="-1.1739474591193715"><ele>19.75</ele><time>2026-04-05T13:35:16Z</time></trkpt><trkpt lat="44.95081399939014" lon="-1.173913607794649"><ele>20.0</ele><time>2026-04-05T13:35:17Z</time></trkpt><trkpt lat="44.95093606276449" lon="-1.1738709198090398"><ele>20.25</ele><time>2026-04-05T13:35:18Z</time></trkpt><trkpt lat="44.95109138711603" lon="-1.1738243375191908"><ele>20.5</ele><time>2026-04-05T13:35:19Z</time></trkpt><trkpt lat="44.95122125436541" lon="-1.173787625785769"><ele>20.75</ele><time>2026-04-05T13:35:20Z</time></trkpt><trkpt lat="44.95135071769901" lon="-1.1737538504694962"><ele>21.0</ele><time>2026-04-05T13:35:21Z</time></trkpt><trkpt lat="44.951474588108354" lon="-1.1737149681931096"><ele>21.0</ele><time>2026-04-05T13:35:22Z</time></trkpt><trkpt lat="44.95160193648622" lon="-1.173673031342524"><ele>21.0</ele><time>2026-04-05T13:35:23Z</time></trkpt><trkpt lat="44.951725957619665" lon="-1.1736613401215183"><ele>21.0</ele><time>2026-04-05T13:35:24Z</time></trkpt><trkpt lat="44.95185483452076" lon="-1.173645269711747"><ele>21.0</ele><time>2026-04-05T13:35:25Z</time></trkpt><trkpt lat="44.951975263256024" lon="-1.1736075506782198"><ele>21.200000000000003</ele><time>2026-04-05T13:35:25.999Z</time></trkpt><trkpt lat="44.952087337239114" lon="-1.173575584058514"><ele>21.400000000000002</ele><time>2026-04-05T13:35:26.999Z</time></trkpt><trkpt lat="44.95219441884854" lon="-1.173539507450116"><ele>21.6</ele><time>2026-04-05T13:35:27.999Z</time></trkpt><trkpt lat="44.95227706563389" lon="-1.17352436523941"><ele>21.8</ele><time>2026-04-05T13:35:28.999Z</time></trkpt><trkpt lat="44.952392015225676" lon="-1.1735010115047606"><ele>22.0</ele><time>2026-04-05T13:35:29.999Z</time></trkpt><trkpt lat="44.952514722018634" lon="-1.173451012074842"><ele>22.25</ele><time>2026-04-05T13:35:30.999Z</time></trkpt><trkpt lat="44.9526546382315" lon="-1.1733989741625517"><ele>22.5</ele><time>2026-04-05T13:35:32.999Z</time></trkpt><trkpt lat="44.952765926869006" lon="-1.173320943607833"><ele>22.75</ele><time>2026-04-05T13:35:33.999Z</time></trkpt><trkpt lat="44.95286096371173" lon="-1.1732759327934146"><ele>23.0</ele><time>2026-04-05T13:35:34.999Z</time></trkpt><trkpt lat="44.9529448691999" lon="-1.1732447744205192"><ele>23.0</ele><time>2026-04-05T13:35:35.999Z</time></trkpt><trkpt lat="44.95301564953165" lon="-1.1732384726830103"><ele>23.0</ele><time>2026-04-05T13:35:36.999Z</time></trkpt><trkpt lat="44.95308195158632" lon="-1.1732121568738125"><ele>23.0</ele><time>2026-04-05T13:35:37.999Z</time></trkpt><trkpt lat="44.95316578510772" lon="-1.1731455442999703"><ele>23.0</ele><time>2026-04-05T13:35:38.999Z</time></trkpt><trkpt lat="44.95326750301788" lon="-1.1731315711325125"><ele>23.0</ele><time>2026-04-05T13:35:39.999Z</time></trkpt><trkpt lat="44.95339079061624" lon="-1.1731307255021926"><ele>22.799999999999997</ele><time>2026-04-05T13:35:40.999Z</time></trkpt><trkpt lat="44.953507525853304" lon="-1.173108568097697"><ele>22.6</ele><time>2026-04-05T13:35:41.999Z</time></trkpt><trkpt lat="44.95360711185403" lon="-1.1730888355805662"><ele>22.4</ele><time>2026-04-05T13:35:42.999Z</time></trkpt><trkpt lat="44.95371893877521" lon="-1.1730672551479422"><ele>22.200000000000003</ele><time>2026-04-05T13:35:43.999Z</time></trkpt><trkpt lat="44.95382794512191" lon="-1.173045861314431"><ele>22.0</ele><time>2026-04-05T13:35:44.999Z</time></trkpt><trkpt lat="44.953942288585395" lon="-1.1730356788044662"><ele>22.0</ele><time>2026-04-05T13:35:45.999Z</time></trkpt><trkpt lat="44.9540376835079" lon="-1.1729962253540882"><ele>22.0</ele><time>2026-04-05T13:35:46.999Z</time></trkpt><trkpt lat="44.95413406502629" lon="-1.1729537936552263"><ele>22.0</ele><time>2026-04-05T13:35:47.999Z</time></trkpt><trkpt lat="44.954242362066836" lon="-1.1729352718286612"><ele>22.0</ele><time>2026-04-05T13:35:48.999Z</time></trkpt><trkpt lat="44.95436019728058" lon="-1.1729180833007096"><ele>22.0</ele><time>2026-04-05T13:35:49.999Z</time></trkpt><trkpt lat="44.95446241970686" lon="-1.172901884552936"><ele>22.0</ele><time>2026-04-05T13:35:50.999Z</time></trkpt><trkpt lat="44.954562731934494" lon="-1.1728988377879743"><ele>22.0</ele><time>2026-04-05T13:35:51.999Z</time></trkpt><trkpt lat="44.95465246656325" lon="-1.1729270240144856"><ele>22.0</ele><time>2026-04-05T13:35:52.999Z</time></trkpt><trkpt lat="44.9547188737424" lon="-1.1729201754078455"><ele>22.0</ele><time>2026-04-05T13:35:53.999Z</time></trkpt><trkpt lat="44.95480706966207" lon="-1.172870483692023"><ele>22.0</ele><time>2026-04-05T13:35:54.999Z</time></trkpt><trkpt lat="44.95490470064675" lon="-1.172829813056622"><ele>22.0</ele><time>2026-04-05T13:35:55.999Z</time></trkpt><trkpt lat="44.95501745221329" lon="-1.1728134722884724"><ele>22.0</ele><time>2026-04-05T13:35:56.999Z</time></trkpt><trkpt lat="44.955111529893564" lon="-1.172795994008402"><ele>22.0</ele><time>2026-04-05T13:35:57.999Z</time></trkpt><trkpt lat="44.95523106943317" lon="-1.1727532358616948"><ele>22.0</ele><time>2026-04-05T13:35:58.999Z</time></trkpt><trkpt lat="44.9553449432286" lon="-1.1727162088954421"><ele>22.0</ele><time>2026-04-05T13:35:59.999Z</time></trkpt><trkpt lat="44.955450231950344" lon="-1.1726845626788578"><ele>22.0</ele><time>2026-04-05T13:36:00.999Z</time></trkpt><trkpt lat="44.95553722328105" lon="-1.1726545814110643"><ele>22.0</ele><time>2026-04-05T13:36:01.999Z</time></trkpt><trkpt lat="44.95561470284699" lon="-1.1726276981731845"><ele>22.0</ele><time>2026-04-05T13:36:02.999Z</time></trkpt><trkpt lat="44.95567913054478" lon="-1.1725946359481776"><ele>22.0</ele><time>2026-04-05T13:36:03.999Z</time></trkpt><trkpt lat="44.95577525784983" lon="-1.1725792630440173"><ele>22.0</ele><time>2026-04-05T13:36:05.999Z</time></trkpt><trkpt lat="44.95583977385957" lon="-1.1725838562533435"><ele>22.0</ele><time>2026-04-05T13:36:07.999Z</time></trkpt><trkpt lat="44.95590469006925" lon="-1.1725564132302029"><ele>22.400000000000002</ele><time>2026-04-05T13:42:50.998Z</time></trkpt><trkpt lat="44.95592857691314" lon="-1.1724631876369682"><ele>22.8</ele><time>2026-04-05T13:42:52.998Z</time></trkpt><trkpt lat="44.95590428944758" lon="-1.172337625242817"><ele>23.2</ele><time>2026-04-05T13:42:55.998Z</time></trkpt><trkpt lat="44.95594394190201" lon="-1.1722343426646293"><ele>23.6</ele><time>2026-04-05T13:42:57.998Z</time></trkpt><trkpt lat="44.956008517439635" lon="-1.1721014610683758"><ele>24.0</ele><time>2026-04-05T13:42:59.998Z</time></trkpt><trkpt lat="44.9560000274319" lon="-1.1719514574177083"><ele>24.2</ele><time>2026-04-05T13:43:01.998Z</time></trkpt><trkpt lat="44.955988389521416" lon="-1.1718522863329623"><ele>24.4</ele><time>2026-04-05T13:43:02.998Z</time></trkpt><trkpt lat="44.956017439397876" lon="-1.171721081224308"><ele>24.6</ele><time>2026-04-05T13:43:03.998Z</time></trkpt><trkpt lat="44.95606822780483" lon="-1.171555969886928"><ele>24.8</ele><time>2026-04-05T13:43:04.997Z</time></trkpt><trkpt lat="44.95610925619258" lon="-1.1714291040060307"><ele>25.0</ele><time>2026-04-05T13:43:05.997Z</time></trkpt><trkpt lat="44.95613999376804" lon="-1.1713018051391033"><ele>25.4</ele><time>2026-04-05T13:43:07.997Z</time></trkpt><trkpt lat="44.95613088973632" lon="-1.1711922108787487"><ele>25.8</ele><time>2026-04-05T13:43:09.997Z</time></trkpt><trkpt lat="44.956129724888676" lon="-1.17103577160753"><ele>26.200000000000003</ele><time>2026-04-05T13:43:11.997Z</time></trkpt><trkpt lat="44.95613464597565" lon="-1.1709335226836568"><ele>26.6</ele><time>2026-04-05T13:43:12.997Z</time></trkpt><trkpt lat="44.95613008802329" lon="-1.170761421196427"><ele>27.0</ele><time>2026-04-05T13:43:14.997Z</time></trkpt><trkpt lat="44.95614166919507" lon="-1.1705945226104002"><ele>27.6</ele><time>2026-04-05T13:43:16Z</time></trkpt><trkpt lat="44.956167232436606" lon="-1.170403061893327"><ele>28.200000000000003</ele><time>2026-04-05T13:43:17Z</time></trkpt><trkpt lat="44.95619209327826" lon="-1.170243358506939"><ele>28.8</ele><time>2026-04-05T13:43:18Z</time></trkpt><trkpt lat="44.95620145226162" lon="-1.1701414424925898"><ele>29.4</ele><time>2026-04-05T13:43:19Z</time></trkpt><trkpt lat="44.95619182598359" lon="-1.1699986418907793"><ele>30.0</ele><time>2026-04-05T13:43:20Z</time></trkpt><trkpt lat="44.95618470528482" lon="-1.1699102130887507"><ele>30.666666666666668</ele><time>2026-04-05T13:43:21Z</time></trkpt><trkpt lat="44.95616401174312" lon="-1.1697700955698256"><ele>31.333333333333336</ele><time>2026-04-05T13:43:22Z</time></trkpt><trkpt lat="44.95614266814541" lon="-1.1696521371798632"><ele>32.0</ele><time>2026-04-05T13:43:23Z</time></trkpt><trkpt lat="44.9561288900539" lon="-1.1695466989325387"><ele>32.66666666666667</ele><time>2026-04-05T13:43:24Z</time></trkpt><trkpt lat="44.95616339948565" lon="-1.1694315107995858"><ele>33.333333333333336</ele><time>2026-04-05T13:43:26Z</time></trkpt><trkpt lat="44.95616480044149" lon="-1.1693375733127296"><ele>34.0</ele><time>2026-04-05T13:43:28Z</time></trkpt><trkpt lat="44.956104250241005" lon="-1.169183905773545"><ele>34.0</ele><time>2026-04-05T13:43:30Z</time></trkpt><trkpt lat="44.95606961300189" lon="-1.1691057505033216"><ele>34.0</ele><time>2026-04-05T13:43:31Z</time></trkpt><trkpt lat="44.956033457290935" lon="-1.1689913297056984"><ele>34.0</ele><time>2026-04-05T13:43:32.999Z</time></trkpt><trkpt lat="44.95599636614472" lon="-1.1688386313986003"><ele>34.0</ele><time>2026-04-05T13:43:34.999Z</time></trkpt><trkpt lat="44.95597177652715" lon="-1.1687356943922258"><ele>34.0</ele><time>2026-04-05T13:43:35.999Z</time></trkpt><trkpt lat="44.955954252847334" lon="-1.1686411444428573"><ele>34.0</ele><time>2026-04-05T13:43:36.999Z</time></trkpt><trkpt lat="44.95594686839555" lon="-1.1684862268259006"><ele>34.16666666666667</ele><time>2026-04-05T13:43:38.999Z</time></trkpt><trkpt lat="44.95596731493052" lon="-1.1683632980731213"><ele>34.333333333333336</ele><time>2026-04-05T13:43:40.999Z</time></trkpt><trkpt lat="44.95598295752178" lon="-1.1682731745951411"><ele>34.5</ele><time>2026-04-05T13:43:41.999Z</time></trkpt><trkpt lat="44.95600666217703" lon="-1.1681572875034203"><ele>34.666666666666664</ele><time>2026-04-05T13:43:42.999Z</time></trkpt><trkpt lat="44.95603628129236" lon="-1.1680386573195145"><ele>34.83333333333333</ele><time>2026-04-05T13:43:43.999Z</time></trkpt><trkpt lat="44.95606407959369" lon="-1.1679117658087592"><ele>35.0</ele><time>2026-04-05T13:43:44.999Z</time></trkpt><trkpt lat="44.95609417739688" lon="-1.1677629707074688"><ele>35.0</ele><time>2026-04-05T13:43:45.999Z</time></trkpt><trkpt lat="44.956139875391536" lon="-1.1676031986016633"><ele>35.0</ele><time>2026-04-05T13:43:46.999Z</time></trkpt><trkpt lat="44.956187159391476" lon="-1.1674730940175977"><ele>35.0</ele><time>2026-04-05T13:43:47.999Z</time></trkpt><trkpt lat="44.956233114182865" lon="-1.1673746286953952"><ele>35.0</ele><time>2026-04-05T13:43:48.999Z</time></trkpt><trkpt lat="44.95628911649323" lon="-1.1672483121903847"><ele>35.0</ele><time>2026-04-05T13:43:49.999Z</time></trkpt><trkpt lat="44.9563505731046" lon="-1.1671272037217744"><ele>34.166666666666664</ele><time>2026-04-05T13:43:50.999Z</time></trkpt><trkpt lat="44.95640623742147" lon="-1.1670267178183669"><ele>33.33333333333333</ele><time>2026-04-05T13:43:51.999Z</time></trkpt><trkpt lat="44.956459832106596" lon="-1.1669239187128064"><ele>32.5</ele><time>2026-04-05T13:43:52.999Z</time></trkpt><trkpt lat="44.956507984118396" lon="-1.1668298189550175"><ele>31.666666666666664</ele><time>2026-04-05T13:43:53.999Z</time></trkpt><trkpt lat="44.95655628988139" lon="-1.1667389886329524"><ele>30.833333333333332</ele><time>2026-04-05T13:43:54.999Z</time></trkpt><trkpt lat="44.95660570893668" lon="-1.1666474601509964"><ele>30.0</ele><time>2026-04-05T13:43:55.999Z</time></trkpt><trkpt lat="44.95664755665665" lon="-1.166565337172291"><ele>29.833333333333332</ele><time>2026-04-05T13:43:56.999Z</time></trkpt><trkpt lat="44.95668659148278" lon="-1.166487336503017"><ele>29.666666666666664</ele><time>2026-04-05T13:43:57.999Z</time></trkpt><trkpt lat="44.95675762253365" lon="-1.1663509226008297"><ele>29.5</ele><time>2026-04-05T13:43:59.999Z</time></trkpt><trkpt lat="44.956799118414615" lon="-1.166243510809626"><ele>29.333333333333332</ele><time>2026-04-05T13:44:00.999Z</time></trkpt><trkpt lat="44.95682612829264" lon="-1.1661510758141773"><ele>29.166666666666664</ele><time>2026-04-05T13:44:01.999Z</time></trkpt><trkpt lat="44.95690480712966" lon="-1.1661002490817443"><ele>29.0</ele><time>2026-04-05T13:44:04.999Z</time></trkpt><trkpt lat="44.956967080467145" lon="-1.1662411083998618"><ele>29.499999999999996</ele><time>2026-04-05T13:44:06.999Z</time></trkpt><trkpt lat="44.956968655459505" lon="-1.1663455116024601"><ele>30.0</ele><time>2026-04-05T13:44:07.999Z</time></trkpt><trkpt lat="44.956973193858225" lon="-1.1664661511977132"><ele>30.5</ele><time>2026-04-05T13:44:08.999Z</time></trkpt><trkpt lat="44.95698512988212" lon="-1.166558910880928"><ele>31.0</ele><time>2026-04-05T13:44:10.999Z</time></trkpt><trkpt lat="44.95703741200933" lon="-1.166653823155034"><ele>31.499999999999996</ele><time>2026-04-05T13:44:11.999Z</time></trkpt><trkpt lat="44.95699694915299" lon="-1.166742255260915"><ele>32.0</ele><time>2026-04-05T13:44:22.998Z</time></trkpt><trkpt lat="44.95704288434341" lon="-1.1668886063278188"><ele>31.999999999999996</ele><time>2026-04-05T13:44:25.998Z</time></trkpt><trkpt lat="44.95703106599907" lon="-1.1669950955875208"><ele>32.0</ele><time>2026-04-05T13:44:26.998Z</time></trkpt><trkpt lat="44.95700133184714" lon="-1.1671008911726817"><ele>32.0</ele><time>2026-04-05T13:44:27.998Z</time></trkpt><trkpt lat="44.956932418997134" lon="-1.1672242343882622"><ele>32.0</ele><time>2026-04-05T13:44:29.998Z</time></trkpt><trkpt lat="44.95690382272715" lon="-1.1673100883726288"><ele>31.999999999999996</ele><time>2026-04-05T13:44:31.998Z</time></trkpt><trkpt lat="44.95688544214682" lon="-1.1674157091784325"><ele>32.0</ele><time>2026-04-05T13:44:32.998Z</time></trkpt><trkpt lat="44.95688232657191" lon="-1.1675202990904927"><ele>33.83333333333333</ele><time>2026-04-05T13:44:34.998Z</time></trkpt><trkpt lat="44.95685312613894" lon="-1.167668976874555"><ele>35.666666666666664</ele><time>2026-04-05T13:44:36.998Z</time></trkpt><trkpt lat="44.9568993507913" lon="-1.1677363807692684"><ele>37.5</ele><time>2026-04-05T13:44:38.998Z</time></trkpt><trkpt lat="44.95695630984864" lon="-1.167781244989926"><ele>39.333333333333336</ele><time>2026-04-05T13:44:39.998Z</time></trkpt><trkpt lat="44.95701652606852" lon="-1.1678185928043947"><ele>41.16666666666667</ele><time>2026-04-05T13:44:40.998Z</time></trkpt><trkpt lat="44.957103953835826" lon="-1.1678494862146127"><ele>43.0</ele><time>2026-04-05T13:44:42.998Z</time></trkpt><trkpt lat="44.95719978282901" lon="-1.1678650157080743"><ele>43.0</ele><time>2026-04-05T13:44:44.998Z</time></trkpt><trkpt lat="44.957271246737676" lon="-1.1679055989583773"><ele>43.0</ele><time>2026-04-05T13:44:46.998Z</time></trkpt><trkpt lat="44.95734661960891" lon="-1.167932628835034"><ele>43.0</ele><time>2026-04-05T13:44:53.999Z</time></trkpt><trkpt lat="44.957424537148775" lon="-1.1679108055271186"><ele>43.0</ele><time>2026-04-05T13:44:55.999Z</time></trkpt><trkpt lat="44.9574876566182" lon="-1.1679008482308568"><ele>43.0</ele><time>2026-04-05T13:44:56.999Z</time></trkpt><trkpt lat="44.957572833229854" lon="-1.1678892293053516"><ele>43.0</ele><time>2026-04-05T13:44:58.999Z</time></trkpt><trkpt lat="44.957653754571176" lon="-1.1678798343215226"><ele>43.5</ele><time>2026-04-05T13:45:00.999Z</time></trkpt><trkpt lat="44.95774945623321" lon="-1.1678633404377523"><ele>44.0</ele><time>2026-04-05T13:45:02.999Z</time></trkpt><trkpt lat="44.95782898979389" lon="-1.1679045561789412"><ele>44.5</ele><time>2026-04-05T13:45:04.999Z</time></trkpt><trkpt lat="44.95780863913851" lon="-1.1680207995192022"><ele>45.0</ele><time>2026-04-05T13:45:07.998Z</time></trkpt><trkpt lat="44.95778218060778" lon="-1.1681101178872104"><ele>45.5</ele><time>2026-04-05T13:47:33Z</time></trkpt><trkpt lat="44.95778232517336" lon="-1.1682500368360793"><ele>46.0</ele><time>2026-04-05T13:47:35Z</time></trkpt><trkpt lat="44.95780267384221" lon="-1.1683853582374972"><ele>46.833333333333336</ele><time>2026-04-05T13:47:37Z</time></trkpt><trkpt lat="44.95780576368187" lon="-1.168518271083992"><ele>47.66666666666667</ele><time>2026-04-05T13:47:39Z</time></trkpt><trkpt lat="44.95780021935325" lon="-1.1686440969952068"><ele>48.5</ele><time>2026-04-05T13:47:42Z</time></trkpt><trkpt lat="44.95778782948852" lon="-1.1687440567104455"><ele>49.333333333333336</ele><time>2026-04-05T13:47:43Z</time></trkpt><trkpt lat="44.957785565846486" lon="-1.1688362443049596"><ele>50.166666666666664</ele><time>2026-04-05T13:47:44Z</time></trkpt><trkpt lat="44.957863590450195" lon="-1.168877111577839"><ele>51.0</ele><time>2026-04-05T13:47:47Z</time></trkpt><trkpt lat="44.957955669973416" lon="-1.1688528350601601"><ele>51.0</ele><time>2026-04-05T13:47:49Z</time></trkpt><trkpt lat="44.95807095812095" lon="-1.168827557927237"><ele>51.0</ele><time>2026-04-05T13:47:51Z</time></trkpt><trkpt lat="44.958132985225944" lon="-1.1688020123084595"><ele>51.0</ele><time>2026-04-05T13:47:53Z</time></trkpt><trkpt lat="44.95820214176824" lon="-1.168832327736375"><ele>51.0</ele><time>2026-04-05T13:47:57Z</time></trkpt><trkpt lat="44.95832021991943" lon="-1.1688370528384717"><ele>51.0</ele><time>2026-04-05T13:47:59Z</time></trkpt><trkpt lat="44.9583931929212" lon="-1.1687755464142557"><ele>51.0</ele><time>2026-04-05T13:48:01Z</time></trkpt><trkpt lat="44.95848185182951" lon="-1.1688003769337192"><ele>51.0</ele><time>2026-04-05T13:48:03Z</time></trkpt><trkpt lat="44.958545117451195" lon="-1.1687877773874706"><ele>51.0</ele><time>2026-04-05T13:48:04Z</time></trkpt><trkpt lat="44.958645871878566" lon="-1.1688012188451775"><ele>51.0</ele><time>2026-04-05T13:48:06Z</time></trkpt><trkpt lat="44.95873876033714" lon="-1.1688013309663814"><ele>51.0</ele><time>2026-04-05T13:48:08Z</time></trkpt><trkpt lat="44.958839134226075" lon="-1.168795464534464"><ele>51.0</ele><time>2026-04-05T13:48:10Z</time></trkpt><trkpt lat="44.95893065676279" lon="-1.1687769550928624"><ele>51.0</ele><time>2026-04-05T13:48:12Z</time></trkpt><trkpt lat="44.959036251662546" lon="-1.1687741399175189"><ele>51.0</ele><time>2026-04-05T13:48:14Z</time></trkpt><trkpt lat="44.95912891614652" lon="-1.1687680907201894"><ele>51.0</ele><time>2026-04-05T13:48:16Z</time></trkpt><trkpt lat="44.95922463557272" lon="-1.1687243254264952"><ele>51.0</ele><time>2026-04-05T13:48:18Z</time></trkpt><trkpt lat="44.95932100249607" lon="-1.168701317507195"><ele>51.0</ele><time>2026-04-05T13:48:20Z</time></trkpt><trkpt lat="44.95938710207922" lon="-1.168682233071376"><ele>50.0</ele><time>2026-04-05T13:48:21.999Z</time></trkpt><trkpt lat="44.95948314768715" lon="-1.1686910685729854"><ele>49.0</ele><time>2026-04-05T13:48:23.999Z</time></trkpt><trkpt lat="44.95957476884543" lon="-1.1686863809001875"><ele>48.0</ele><time>2026-04-05T13:48:25.999Z</time></trkpt><trkpt lat="44.95964807187713" lon="-1.1686789820590262"><ele>47.0</ele><time>2026-04-05T13:48:27.999Z</time></trkpt><trkpt lat="44.959737555635364" lon="-1.1686684946663197"><ele>46.0</ele><time>2026-04-05T13:48:29.999Z</time></trkpt><trkpt lat="44.95982686441109" lon="-1.1686609732902007"><ele>45.0</ele><time>2026-04-05T13:48:32.999Z</time></trkpt><trkpt lat="44.95991922441535" lon="-1.1686876265431287"><ele>45.0</ele><time>2026-04-05T13:48:34.999Z</time></trkpt><trkpt lat="44.95992378504073" lon="-1.1687797419854156"><ele>45.0</ele><time>2026-04-05T13:48:36.999Z</time></trkpt><trkpt lat="44.95993947457702" lon="-1.1688911307194565"><ele>45.0</ele><time>2026-04-05T13:48:39.999Z</time></trkpt><trkpt lat="44.95998998305772" lon="-1.1689954561723421"><ele>45.0</ele><time>2026-04-05T13:48:43.999Z</time></trkpt><trkpt lat="44.9599794853337" lon="-1.1690859298090301"><ele>45.0</ele><time>2026-04-05T13:48:45.999Z</time></trkpt><trkpt lat="44.95997245559502" lon="-1.1691785171128537"><ele>45.0</ele><time>2026-04-05T13:48:49.999Z</time></trkpt><trkpt lat="44.96005742902311" lon="-1.16917969838356"><ele>42.6</ele><time>2026-04-05T13:48:51.999Z</time></trkpt><trkpt lat="44.96017694150761" lon="-1.1691201037805488"><ele>40.2</ele><time>2026-04-05T13:48:53.999Z</time></trkpt><trkpt lat="44.96025301415537" lon="-1.1690950716316835"><ele>37.8</ele><time>2026-04-05T13:48:55.999Z</time></trkpt><trkpt lat="44.960317529775836" lon="-1.1690072683457402"><ele>35.4</ele><time>2026-04-05T13:48:59.999Z</time></trkpt><trkpt lat="44.960402959450434" lon="-1.1689900688903552"><ele>33.0</ele><time>2026-04-05T13:49:04.999Z</time></trkpt><trkpt lat="44.9604872870237" lon="-1.1689863597263048"><ele>33.0</ele><time>2026-04-05T13:49:07.999Z</time></trkpt><trkpt lat="44.96055458881448" lon="-1.1689078023653388"><ele>33.0</ele><time>2026-04-05T13:49:10.998Z</time></trkpt><trkpt lat="44.96055735885771" lon="-1.1688172944175954"><ele>33.0</ele><time>2026-04-05T13:49:12.998Z</time></trkpt><trkpt lat="44.96050533562154" lon="-1.1686611140572405"><ele>33.0</ele><time>2026-04-05T13:49:14.998Z</time></trkpt><trkpt lat="44.960486038327495" lon="-1.1685601117229154"><ele>33.0</ele><time>2026-04-05T13:49:16.998Z</time></trkpt><trkpt lat="44.96047288760093" lon="-1.168454177745777"><ele>33.0</ele><time>2026-04-05T13:49:18.998Z</time></trkpt><trkpt lat="44.96046749944819" lon="-1.1683169263114839"><ele>33.5</ele><time>2026-04-05T13:49:32Z</time></trkpt><trkpt lat="44.96043230064375" lon="-1.1681794476442666"><ele>34.0</ele><time>2026-04-05T13:49:34Z</time></trkpt><trkpt lat="44.960439683291334" lon="-1.1680368348981085"><ele>34.5</ele><time>2026-04-05T13:49:37Z</time></trkpt><trkpt lat="44.96044298954077" lon="-1.1679443721739646"><ele>35.0</ele><time>2026-04-05T13:49:39Z</time></trkpt><trkpt lat="44.960506745533706" lon="-1.1678849812989487"><ele>35.5</ele><time>2026-04-05T13:49:41Z</time></trkpt><trkpt lat="44.960573997706284" lon="-1.1678016202407946"><ele>36.0</ele><time>2026-04-05T13:49:43Z</time></trkpt><trkpt lat="44.960554793843826" lon="-1.1676920259285386"><ele>36.0</ele><time>2026-04-05T13:49:45Z</time></trkpt><trkpt lat="44.96052301289539" lon="-1.1675734393246864"><ele>36.0</ele><time>2026-04-05T13:49:47Z</time></trkpt><trkpt lat="44.96047828766979" lon="-1.167503786822826"><ele>36.0</ele><time>2026-04-05T13:49:48Z</time></trkpt><trkpt lat="44.96043141561932" lon="-1.1674040703661033"><ele>36.0</ele><time>2026-04-05T13:49:49Z</time></trkpt><trkpt lat="44.96041355231034" lon="-1.1672521124723312"><ele>36.0</ele><time>2026-04-05T13:49:51Z</time></trkpt><trkpt lat="44.960459466527595" lon="-1.1671035550867097"><ele>36.166666666666664</ele><time>2026-04-05T13:49:53Z</time></trkpt><trkpt lat="44.96046454886631" lon="-1.1669530850723153"><ele>36.333333333333336</ele><time>2026-04-05T13:49:55Z</time></trkpt><trkpt lat="44.96045114673116" lon="-1.1668489689051498"><ele>36.5</ele><time>2026-04-05T13:49:56Z</time></trkpt><trkpt lat="44.96048654240161" lon="-1.1667575058667015"><ele>36.66666666666667</ele><time>2026-04-05T13:49:59Z</time></trkpt><trkpt lat="44.9604974376346" lon="-1.1666647929356617"><ele>36.833333333333336</ele><time>2026-04-05T13:50:01Z</time></trkpt><trkpt lat="44.96055664178853" lon="-1.1665977826541432"><ele>37.0</ele><time>2026-04-05T13:50:08Z</time></trkpt><trkpt lat="44.96061914274008" lon="-1.1665394067748933"><ele>36.800000000000004</ele><time>2026-04-05T13:50:11Z</time></trkpt><trkpt lat="44.96066742158807" lon="-1.166468139969572"><ele>36.6</ele><time>2026-04-05T13:50:13Z</time></trkpt><trkpt lat="44.96073179084035" lon="-1.1664111629985165"><ele>36.400000000000006</ele><time>2026-04-05T13:50:15Z</time></trkpt><trkpt lat="44.960849897627284" lon="-1.1663822317258998"><ele>36.2</ele><time>2026-04-05T13:50:17Z</time></trkpt><trkpt lat="44.96096423507834" lon="-1.1663748378800558"><ele>36.0</ele><time>2026-04-05T13:50:19Z</time></trkpt><trkpt lat="44.96105590918738" lon="-1.1664127403657312"><ele>36.5</ele><time>2026-04-05T13:50:21Z</time></trkpt><trkpt lat="44.96111863472429" lon="-1.1663205157177254"><ele>37.0</ele><time>2026-04-05T13:50:22.999Z</time></trkpt><trkpt lat="44.961191542948356" lon="-1.166333220823042"><ele>37.5</ele><time>2026-04-05T13:50:26.999Z</time></trkpt><trkpt lat="44.9612693600554" lon="-1.1663866739823712"><ele>38.0</ele><time>2026-04-05T13:50:29.999Z</time></trkpt><trkpt lat="44.96134671420307" lon="-1.1664355735193495"><ele>38.5</ele><time>2026-04-05T13:50:31.999Z</time></trkpt><trkpt lat="44.961412674939915" lon="-1.1664032125359105"><ele>39.0</ele><time>2026-04-05T13:50:34.999Z</time></trkpt><trkpt lat="44.961478903103455" lon="-1.1663692526657057"><ele>39.0</ele><time>2026-04-05T13:50:36.999Z</time></trkpt><trkpt lat="44.96155205865056" lon="-1.1663458542890395"><ele>39.0</ele><time>2026-04-05T13:50:38.999Z</time></trkpt><trkpt lat="44.961516318053796" lon="-1.1662163411388458"><ele>39.0</ele><time>2026-04-05T13:50:40.999Z</time></trkpt><trkpt lat="44.961543484604086" lon="-1.1661026994076276"><ele>39.0</ele><time>2026-04-05T13:50:42.999Z</time></trkpt><trkpt lat="44.96160775329751" lon="-1.1660464024450026"><ele>39.0</ele><time>2026-04-05T13:50:44.999Z</time></trkpt><trkpt lat="44.96165525286963" lon="-1.1659717108327157"><ele>39.0</ele><time>2026-04-05T13:50:45.999Z</time></trkpt><trkpt lat="44.96167954999085" lon="-1.1658364906271432"><ele>39.166666666666664</ele><time>2026-04-05T13:50:47.999Z</time></trkpt><trkpt lat="44.961762088783296" lon="-1.1657317094775976"><ele>39.333333333333336</ele><time>2026-04-05T13:50:49.999Z</time></trkpt><trkpt lat="44.961801731997205" lon="-1.165813524655552"><ele>39.5</ele><time>2026-04-05T13:50:50.999Z</time></trkpt><trkpt lat="44.96185915902551" lon="-1.1658657133126558"><ele>39.66666666666667</ele><time>2026-04-05T13:50:52.999Z</time></trkpt><trkpt lat="44.961936133743315" lon="-1.1658966071764023"><ele>39.833333333333336</ele><time>2026-04-05T13:50:54.999Z</time></trkpt><trkpt lat="44.96202824204436" lon="-1.1658449029113938"><ele>40.0</ele><time>2026-04-05T13:50:56.999Z</time></trkpt><trkpt lat="44.962080334344094" lon="-1.1657499618847176"><ele>40.0</ele><time>2026-04-05T13:50:58.999Z</time></trkpt><trkpt lat="44.96214356570119" lon="-1.1657730740128358"><ele>40.0</ele><time>2026-04-05T13:51:00.999Z</time></trkpt><trkpt lat="44.96223342677479" lon="-1.1658028748888407"><ele>40.0</ele><time>2026-04-05T13:51:02.999Z</time></trkpt><trkpt lat="44.96231360160826" lon="-1.1658795381445084"><ele>40.0</ele><time>2026-04-05T13:51:04.999Z</time></trkpt><trkpt lat="44.96236950445787" lon="-1.1657903072256088"><ele>40.0</ele><time>2026-04-05T13:51:06.999Z</time></trkpt><trkpt lat="44.96244884012118" lon="-1.165729427878871"><ele>40.0</ele><time>2026-04-05T13:51:08.998Z</time></trkpt><trkpt lat="44.96252779548154" lon="-1.1658257689619183"><ele>39.333333333333336</ele><time>2026-04-05T13:51:10.998Z</time></trkpt><trkpt lat="44.96256468593648" lon="-1.1659268980241966"><ele>38.66666666666667</ele><time>2026-04-05T13:51:12.998Z</time></trkpt><trkpt lat="44.96255757047422" lon="-1.1660314981078201"><ele>38.0</ele><time>2026-04-05T13:51:14.998Z</time></trkpt><trkpt lat="44.962580443832174" lon="-1.1661328462182392"><ele>37.333333333333336</ele><time>2026-04-05T13:51:17.998Z</time></trkpt><trkpt lat="44.962676039314815" lon="-1.166203265538371"><ele>36.666666666666664</ele><time>2026-04-05T13:51:19.998Z</time></trkpt><trkpt lat="44.96273139790903" lon="-1.1663087735835316"><ele>36.0</ele><time>2026-04-05T13:51:21.998Z</time></trkpt><trkpt lat="44.96278478478467" lon="-1.166423986940196"><ele>36.8</ele><time>2026-04-05T13:51:23.998Z</time></trkpt><trkpt lat="44.96282559638192" lon="-1.1665608874942128"><ele>37.6</ele><time>2026-04-05T13:51:25.998Z</time></trkpt><trkpt lat="44.96292196187561" lon="-1.1665852722314112"><ele>38.4</ele><time>2026-04-05T13:51:27.998Z</time></trkpt><trkpt lat="44.962991376350374" lon="-1.1666386938684017"><ele>39.2</ele><time>2026-04-05T13:51:29.998Z</time></trkpt><trkpt lat="44.963027398814596" lon="-1.1667679661789248"><ele>40.0</ele><time>2026-04-05T13:51:32.998Z</time></trkpt><trkpt lat="44.963105635256134" lon="-1.1668333655349143"><ele>40.0</ele><time>2026-04-05T13:51:34.998Z</time></trkpt><trkpt lat="44.96320272638072" lon="-1.1668038776749243"><ele>40.0</ele><time>2026-04-05T13:51:37Z</time></trkpt><trkpt lat="44.963343580531635" lon="-1.1668440183112196"><ele>40.0</ele><time>2026-04-05T13:51:39Z</time></trkpt><trkpt lat="44.96340930314703" lon="-1.1667969301788688"><ele>40.0</ele><time>2026-04-05T13:51:41Z</time></trkpt><trkpt lat="44.96345167771801" lon="-1.1667029451143573"><ele>40.0</ele><time>2026-04-05T13:51:43Z</time></trkpt><trkpt lat="44.963541227292126" lon="-1.1667402640083402"><ele>38.333333333333336</ele><time>2026-04-05T13:51:45Z</time></trkpt><trkpt lat="44.96360319477841" lon="-1.1666920479742724"><ele>36.66666666666667</ele><time>2026-04-05T13:51:47Z</time></trkpt><trkpt lat="44.963658841928094" lon="-1.1666055654160454"><ele>35.0</ele><time>2026-04-05T13:51:48Z</time></trkpt><trkpt lat="44.963702321380445" lon="-1.1665309771918027"><ele>33.333333333333336</ele><time>2026-04-05T13:51:49Z</time></trkpt><trkpt lat="44.96375819445104" lon="-1.1665897236255256"><ele>31.666666666666668</ele><time>2026-04-05T13:51:51Z</time></trkpt><trkpt lat="44.96385341578124" lon="-1.1665141017596155"><ele>30.0</ele><time>2026-04-05T13:51:53Z</time></trkpt><trkpt lat="44.96391323091141" lon="-1.1664278949380027"><ele>29.333333333333332</ele><time>2026-04-05T13:51:55Z</time></trkpt><trkpt lat="44.963989350414174" lon="-1.1664605652950137"><ele>28.666666666666664</ele><time>2026-04-05T13:51:59Z</time></trkpt><trkpt lat="44.963993041858636" lon="-1.1663437493183009"><ele>28.0</ele><time>2026-04-05T13:52:02Z</time></trkpt><trkpt lat="44.96403691951575" lon="-1.166252320571444"><ele>27.333333333333332</ele><time>2026-04-05T13:52:04Z</time></trkpt><trkpt lat="44.96402556142277" lon="-1.1661437545983684"><ele>26.666666666666664</ele><time>2026-04-05T13:52:09Z</time></trkpt><trkpt lat="44.964069612854935" lon="-1.166075739141083"><ele>26.0</ele><time>2026-04-05T13:52:13Z</time></trkpt><trkpt lat="44.96414318905945" lon="-1.1660644592888594"><ele>26.333333333333332</ele><time>2026-04-05T13:52:17Z</time></trkpt><trkpt lat="44.964217336010186" lon="-1.1660534386819907"><ele>26.666666666666664</ele><time>2026-04-05T13:52:19Z</time></trkpt><trkpt lat="44.964275863494876" lon="-1.1661021254202277"><ele>27.0</ele><time>2026-04-05T13:52:21.999Z</time></trkpt><trkpt lat="44.96430707864904" lon="-1.1661827471106814"><ele>27.333333333333336</ele><time>2026-04-05T14:07:39.998Z</time></trkpt><trkpt lat="44.96433629236615" lon="-1.1663539805067407"><ele>27.666666666666668</ele><time>2026-04-05T14:07:41.998Z</time></trkpt><trkpt lat="44.96428057071283" lon="-1.1664806921562343"><ele>28.0</ele><time>2026-04-05T14:07:43.998Z</time></trkpt><trkpt lat="44.964266878580844" lon="-1.1665853712724596"><ele>28.166666666666668</ele><time>2026-04-05T14:07:44.999Z</time></trkpt><trkpt lat="44.96426579762688" lon="-1.1666897089908093"><ele>28.333333333333336</ele><time>2026-04-05T14:07:45.999Z</time></trkpt><trkpt lat="44.9642599931487" lon="-1.1668054662779257"><ele>28.5</ele><time>2026-04-05T14:07:46.999Z</time></trkpt><trkpt lat="44.96424020177209" lon="-1.1669157657633664"><ele>28.666666666666664</ele><time>2026-04-05T14:07:47.999Z</time></trkpt><trkpt lat="44.9641872174224" lon="-1.1670663239841657"><ele>28.833333333333332</ele><time>2026-04-05T14:07:49.999Z</time></trkpt><trkpt lat="44.964151127794146" lon="-1.1671520300980442"><ele>29.0</ele><time>2026-04-05T14:07:50.999Z</time></trkpt><trkpt lat="44.964114440368476" lon="-1.1672401893247344"><ele>29.166666666666664</ele><time>2026-04-05T14:07:51.999Z</time></trkpt><trkpt lat="44.96407218170484" lon="-1.1673106110469975"><ele>29.333333333333332</ele><time>2026-04-05T14:07:52.999Z</time></trkpt><trkpt lat="44.96403007907343" lon="-1.167406227637805"><ele>29.5</ele><time>2026-04-05T14:07:53.999Z</time></trkpt><trkpt lat="44.96398809206343" lon="-1.1675657699120154"><ele>29.666666666666664</ele><time>2026-04-05T14:07:55.999Z</time></trkpt><trkpt lat="44.96395316868005" lon="-1.1676605943641987"><ele>29.833333333333332</ele><time>2026-04-05T14:07:56.999Z</time></trkpt><trkpt lat="44.96393437388537" lon="-1.1677507575768402"><ele>30.0</ele><time>2026-04-05T14:07:57.999Z</time></trkpt><trkpt lat="44.964003222381024" lon="-1.167907970726807"><ele>31.166666666666668</ele><time>2026-04-05T14:07:59.999Z</time></trkpt><trkpt lat="44.96403209805104" lon="-1.1680245194255683"><ele>32.333333333333336</ele><time>2026-04-05T14:08:00.999Z</time></trkpt><trkpt lat="44.964052450206985" lon="-1.1681224664158354"><ele>33.5</ele><time>2026-04-05T14:08:01.999Z</time></trkpt><trkpt lat="44.964102980924125" lon="-1.1682286268163635"><ele>34.66666666666667</ele><time>2026-04-05T14:08:03.999Z</time></trkpt><trkpt lat="44.964169973242896" lon="-1.1682379834089738"><ele>35.833333333333336</ele><time>2026-04-05T14:08:06.998Z</time></trkpt><trkpt lat="44.96414699548317" lon="-1.1683623588759784"><ele>37.0</ele><time>2026-04-05T14:08:08.998Z</time></trkpt><trkpt lat="44.96409428780873" lon="-1.1684644567131544"><ele>37.0</ele><time>2026-04-05T14:08:11.998Z</time></trkpt><trkpt lat="44.964104024515564" lon="-1.1685908703848589"><ele>37.0</ele><time>2026-04-05T14:08:13.998Z</time></trkpt><trkpt lat="44.9641826621089" lon="-1.1685468406023944"><ele>37.0</ele><time>2026-04-05T14:08:16.998Z</time></trkpt><trkpt lat="44.96426307853985" lon="-1.1685602154885986"><ele>37.0</ele><time>2026-04-05T14:08:20.998Z</time></trkpt><trkpt lat="44.96437100520451" lon="-1.168605669559517"><ele>37.0</ele><time>2026-04-05T14:08:23Z</time></trkpt><trkpt lat="44.96445808913584" lon="-1.168589494728968"><ele>37.6</ele><time>2026-04-05T14:08:25Z</time></trkpt><trkpt lat="44.96456732088848" lon="-1.168564325680186"><ele>38.2</ele><time>2026-04-05T14:08:27Z</time></trkpt><trkpt lat="44.96466000439067" lon="-1.1685043214468014"><ele>38.8</ele><time>2026-04-05T14:08:29Z</time></trkpt><trkpt lat="44.964758914144916" lon="-1.168491148907233"><ele>39.4</ele><time>2026-04-05T14:08:31Z</time></trkpt><trkpt lat="44.964831072789785" lon="-1.1685852936204226"><ele>40.0</ele><time>2026-04-05T14:08:34Z</time></trkpt><trkpt lat="44.964898682959465" lon="-1.1686070750827497"><ele>40.0</ele><time>2026-04-05T14:08:37Z</time></trkpt><trkpt lat="44.96501451460971" lon="-1.1685720378751758"><ele>40.0</ele><time>2026-04-05T14:08:39Z</time></trkpt><trkpt lat="44.96510714545952" lon="-1.1684864254418224"><ele>40.0</ele><time>2026-04-05T14:08:41Z</time></trkpt><trkpt lat="44.96519036781104" lon="-1.168487897989589"><ele>40.0</ele><time>2026-04-05T14:08:43Z</time></trkpt><trkpt lat="44.96528731517623" lon="-1.1684887914205186"><ele>40.0</ele><time>2026-04-05T14:08:45Z</time></trkpt><trkpt lat="44.965381716637104" lon="-1.1685151400337568"><ele>39.66666666666667</ele><time>2026-04-05T14:08:47Z</time></trkpt><trkpt lat="44.965453016776465" lon="-1.1685088202342588"><ele>39.333333333333336</ele><time>2026-04-05T14:08:49Z</time></trkpt><trkpt lat="44.96551832592367" lon="-1.1684864440218843"><ele>39.0</ele><time>2026-04-05T14:08:50Z</time></trkpt><trkpt lat="44.96558249356904" lon="-1.1685536018730476"><ele>38.666666666666664</ele><time>2026-04-05T14:08:52Z</time></trkpt><trkpt lat="44.965670120746594" lon="-1.1686512309258688"><ele>38.33333333333333</ele><time>2026-04-05T14:08:54Z</time></trkpt><trkpt lat="44.96573915558885" lon="-1.1686906220276796"><ele>38.0</ele><time>2026-04-05T14:08:56Z</time></trkpt><trkpt lat="44.96583073664361" lon="-1.16868233879501"><ele>38.0</ele><time>2026-04-05T14:08:58Z</time></trkpt><trkpt lat="44.965895378509124" lon="-1.1685813726698593"><ele>38.0</ele><time>2026-04-05T14:09:00Z</time></trkpt><trkpt lat="44.96596987457706" lon="-1.168563703575163"><ele>38.0</ele><time>2026-04-05T14:09:03Z</time></trkpt><trkpt lat="44.9660749766169" lon="-1.1684894392037686"><ele>38.0</ele><time>2026-04-05T14:09:05Z</time></trkpt><trkpt lat="44.96613615876177" lon="-1.1684607155656666"><ele>38.0</ele><time>2026-04-05T14:09:06Z</time></trkpt><trkpt lat="44.96622291015736" lon="-1.1683739070842094"><ele>38.0</ele><time>2026-04-05T14:09:09Z</time></trkpt><trkpt lat="44.96627532636087" lon="-1.1683126650585811"><ele>38.0</ele><time>2026-04-05T14:09:10Z</time></trkpt><trkpt lat="44.966356945804726" lon="-1.168339048973116"><ele>38.0</ele><time>2026-04-05T14:09:12Z</time></trkpt><trkpt lat="44.966450749910564" lon="-1.1683969000990075"><ele>38.0</ele><time>2026-04-05T14:09:14Z</time></trkpt><trkpt lat="44.96652606467564" lon="-1.168359896390019"><ele>38.0</ele><time>2026-04-05T14:09:18Z</time></trkpt><trkpt lat="44.96661563835259" lon="-1.1683531536549672"><ele>38.0</ele><time>2026-04-05T14:09:21.999Z</time></trkpt><trkpt lat="44.966690747445355" lon="-1.1683068499115865"><ele>38.666666666666664</ele><time>2026-04-05T14:09:23.999Z</time></trkpt><trkpt lat="44.966763128412865" lon="-1.1683454511153453"><ele>39.33333333333333</ele><time>2026-04-05T14:09:25.999Z</time></trkpt><trkpt lat="44.966831533171174" lon="-1.168419751300832"><ele>40.0</ele><time>2026-04-05T14:09:27.999Z</time></trkpt><trkpt lat="44.96689993265056" lon="-1.1684303140652286"><ele>40.666666666666664</ele><time>2026-04-05T14:09:29.999Z</time></trkpt><trkpt lat="44.966919726483674" lon="-1.1685515278463134"><ele>41.333333333333336</ele><time>2026-04-05T14:09:31.999Z</time></trkpt><trkpt lat="44.96700009932059" lon="-1.1686163025483098"><ele>42.0</ele><time>2026-04-05T14:09:33.999Z</time></trkpt><trkpt lat="44.96706312885048" lon="-1.1686630259879383"><ele>42.0</ele><time>2026-04-05T14:09:35.999Z</time></trkpt><trkpt lat="44.967135445086235" lon="-1.1686455762300045"><ele>42.0</ele><time>2026-04-05T14:09:37.999Z</time></trkpt><trkpt lat="44.96719047357348" lon="-1.1686006277938985"><ele>42.0</ele><time>2026-04-05T14:09:39.999Z</time></trkpt><trkpt lat="44.96724307099086" lon="-1.168495640897825"><ele>42.0</ele><time>2026-04-05T14:09:41.999Z</time></trkpt><trkpt lat="44.96718821244482" lon="-1.1684023181077525"><ele>42.0</ele><time>2026-04-05T14:09:44.999Z</time></trkpt><trkpt lat="44.967265198557335" lon="-1.1683000775826"><ele>42.0</ele><time>2026-04-05T14:09:51.999Z</time></trkpt><trkpt lat="44.96734203970156" lon="-1.1682821441119555"><ele>42.0</ele><time>2026-04-05T14:09:53.999Z</time></trkpt><trkpt lat="44.9674411061045" lon="-1.1683189512744752"><ele>42.0</ele><time>2026-04-05T14:09:56.999Z</time></trkpt><trkpt lat="44.9674737583198" lon="-1.168439448791603"><ele>42.0</ele><time>2026-04-05T14:09:58.999Z</time></trkpt><trkpt lat="44.9675444941632" lon="-1.1684618091425474"><ele>42.0</ele><time>2026-04-05T14:10:01.999Z</time></trkpt><trkpt lat="44.96765156420713" lon="-1.1684773852145303"><ele>42.0</ele><time>2026-04-05T14:10:04.999Z</time></trkpt><trkpt lat="44.96772974360358" lon="-1.1684842797251591"><ele>41.5</ele><time>2026-04-05T14:10:06.999Z</time></trkpt><trkpt lat="44.967808231043456" lon="-1.1685259138791428"><ele>41.0</ele><time>2026-04-05T14:10:09.998Z</time></trkpt><trkpt lat="44.96785564522047" lon="-1.1686023909132925"><ele>40.5</ele><time>2026-04-05T14:10:11.998Z</time></trkpt><trkpt lat="44.96792520517086" lon="-1.168562214005662"><ele>40.0</ele><time>2026-04-05T14:10:13.998Z</time></trkpt><trkpt lat="44.967956978137465" lon="-1.168467350153738"><ele>39.5</ele><time>2026-04-05T14:10:16.998Z</time></trkpt><trkpt lat="44.9679722483258" lon="-1.1683293653514555"><ele>39.0</ele><time>2026-04-05T14:10:18.998Z</time></trkpt><trkpt lat="44.968012446052875" lon="-1.1682466549668316"><ele>37.2</ele><time>2026-04-05T14:10:19.998Z</time></trkpt><trkpt lat="44.96806355151397" lon="-1.1681930513107934"><ele>35.4</ele><time>2026-04-05T14:10:20.998Z</time></trkpt><trkpt lat="44.96812425954886" lon="-1.1680848993661581"><ele>33.6</ele><time>2026-04-05T14:10:22.998Z</time></trkpt><trkpt lat="44.96821344732301" lon="-1.168007008506204"><ele>31.8</ele><time>2026-04-05T14:10:24.998Z</time></trkpt><trkpt lat="44.96830273107279" lon="-1.1680176281465013"><ele>30.0</ele><time>2026-04-05T14:10:26.998Z</time></trkpt><trkpt lat="44.96843361252922" lon="-1.1680388186207167"><ele>30.0</ele><time>2026-04-05T14:10:29Z</time></trkpt><trkpt lat="44.96852869956393" lon="-1.1681096438232677"><ele>30.0</ele><time>2026-04-05T14:10:31Z</time></trkpt><trkpt lat="44.96857526282471" lon="-1.168170270722054"><ele>30.0</ele><time>2026-04-05T14:10:32Z</time></trkpt><trkpt lat="44.96865368445549" lon="-1.1682266353903434"><ele>30.0</ele><time>2026-04-05T14:10:34Z</time></trkpt><trkpt lat="44.968735821913036" lon="-1.1682912497603053"><ele>30.0</ele><time>2026-04-05T14:10:37Z</time></trkpt><trkpt lat="44.96882886916865" lon="-1.1683344386288677"><ele>29.6</ele><time>2026-04-05T14:10:40Z</time></trkpt><trkpt lat="44.96892372852055" lon="-1.1683754251297422"><ele>29.2</ele><time>2026-04-05T14:10:42Z</time></trkpt><trkpt lat="44.96902795203641" lon="-1.168389782871048"><ele>28.799999999999997</ele><time>2026-04-05T14:10:44Z</time></trkpt><trkpt lat="44.9691213593136" lon="-1.1684294933249952"><ele>28.4</ele><time>2026-04-05T14:10:47Z</time></trkpt><trkpt lat="44.969193267699886" lon="-1.1685334346721803"><ele>28.0</ele><time>2026-04-05T14:10:49Z</time></trkpt><trkpt lat="44.969269867981865" lon="-1.1685652745738924"><ele>28.0</ele><time>2026-04-05T14:10:51Z</time></trkpt><trkpt lat="44.96935946263773" lon="-1.1684980942852043"><ele>27.999999999999996</ele><time>2026-04-05T14:10:53Z</time></trkpt><trkpt lat="44.969430266741696" lon="-1.1684213778289823"><ele>27.999999999999996</ele><time>2026-04-05T14:10:56Z</time></trkpt><trkpt lat="44.96950571881721" lon="-1.1684457920458093"><ele>28.0</ele><time>2026-04-05T14:10:59Z</time></trkpt><trkpt lat="44.96951780558449" lon="-1.168309916200183"><ele>28.0</ele><time>2026-04-05T14:11:02Z</time></trkpt><trkpt lat="44.96958533086612" lon="-1.1681480181530342"><ele>28.166666666666668</ele><time>2026-04-05T14:11:04Z</time></trkpt><trkpt lat="44.96963474870524" lon="-1.1680663717245234"><ele>28.333333333333336</ele><time>2026-04-05T14:11:06Z</time></trkpt><trkpt lat="44.969694297173135" lon="-1.1679739449460422"><ele>28.5</ele><time>2026-04-05T14:11:08Z</time></trkpt><trkpt lat="44.96975152599711" lon="-1.1680567469280454"><ele>28.666666666666664</ele><time>2026-04-05T14:11:11Z</time></trkpt><trkpt lat="44.969818880460934" lon="-1.168093539722577"><ele>28.833333333333332</ele><time>2026-04-05T14:11:14Z</time></trkpt><trkpt lat="44.96988721836196" lon="-1.168133228811364"><ele>29.0</ele><time>2026-04-05T14:11:16Z</time></trkpt><trkpt lat="44.96994790331777" lon="-1.1680702245542736"><ele>28.4</ele><time>2026-04-05T14:11:18Z</time></trkpt><trkpt lat="44.970036086184805" lon="-1.168002468822296"><ele>27.799999999999997</ele><time>2026-04-05T14:11:20Z</time></trkpt><trkpt lat="44.97010223909999" lon="-1.167975619713844"><ele>27.200000000000003</ele><time>2026-04-05T14:11:21Z</time></trkpt><trkpt lat="44.97013948395809" lon="-1.1680624750779043"><ele>26.6</ele><time>2026-04-05T14:11:22.999Z</time></trkpt><trkpt lat="44.97019246386507" lon="-1.1681717521688109"><ele>26.0</ele><time>2026-04-05T14:11:24.999Z</time></trkpt><trkpt lat="44.97027966803154" lon="-1.1682819738374075"><ele>25.666666666666664</ele><time>2026-04-05T14:11:26.999Z</time></trkpt><trkpt lat="44.970348411247265" lon="-1.1683431597153384"><ele>25.333333333333332</ele><time>2026-04-05T14:11:28.999Z</time></trkpt><trkpt lat="44.970410985740344" lon="-1.1683702975098678"><ele>25.0</ele><time>2026-04-05T14:11:30.999Z</time></trkpt><trkpt lat="44.97046244212531" lon="-1.1684252236562502"><ele>24.666666666666664</ele><time>2026-04-05T14:15:46.999Z</time></trkpt><trkpt lat="44.97052210834508" lon="-1.1685574051887857"><ele>24.333333333333332</ele><time>2026-04-05T14:15:49.999Z</time></trkpt><trkpt lat="44.97058285042913" lon="-1.1687113794071564"><ele>24.0</ele><time>2026-04-05T14:15:51.999Z</time></trkpt><trkpt lat="44.97061848050682" lon="-1.1688127896057698"><ele>24.0</ele><time>2026-04-05T14:15:52.999Z</time></trkpt><trkpt lat="44.97066183368081" lon="-1.168909164340917"><ele>24.0</ele><time>2026-04-05T14:15:53.999Z</time></trkpt><trkpt lat="44.9707153160124" lon="-1.1690062695647323"><ele>24.0</ele><time>2026-04-05T14:15:54.999Z</time></trkpt><trkpt lat="44.97076440669506" lon="-1.1690998955252911"><ele>24.0</ele><time>2026-04-05T14:15:55.999Z</time></trkpt><trkpt lat="44.97081366790623" lon="-1.169179513722615"><ele>24.0</ele><time>2026-04-05T14:15:56.999Z</time></trkpt><trkpt lat="44.970856484484905" lon="-1.1692656539067732"><ele>24.0</ele><time>2026-04-05T14:15:57.999Z</time></trkpt><trkpt lat="44.9708874901225" lon="-1.1693921027805307"><ele>23.833333333333332</ele><time>2026-04-05T14:15:58.999Z</time></trkpt><trkpt lat="44.970896301287794" lon="-1.1694991556680263"><ele>23.666666666666668</ele><time>2026-04-05T14:15:59.999Z</time></trkpt><trkpt lat="44.97089745686519" lon="-1.16962977205615"><ele>23.5</ele><time>2026-04-05T14:16:00.999Z</time></trkpt><trkpt lat="44.97088883055801" lon="-1.169781824799783"><ele>23.333333333333336</ele><time>2026-04-05T14:16:01.999Z</time></trkpt><trkpt lat="44.970887864859" lon="-1.1699085841957104"><ele>23.166666666666668</ele><time>2026-04-05T14:16:02.999Z</time></trkpt><trkpt lat="44.970883521110665" lon="-1.1700233422823774"><ele>23.0</ele><time>2026-04-05T14:16:03.999Z</time></trkpt><trkpt lat="44.97087338001474" lon="-1.1701577834909012"><ele>22.833333333333336</ele><time>2026-04-05T14:16:04.999Z</time></trkpt><trkpt lat="44.970876667972924" lon="-1.170248790858468"><ele>22.666666666666668</ele><time>2026-04-05T14:16:05.999Z</time></trkpt><trkpt lat="44.970888975839706" lon="-1.1703953639324802"><ele>22.5</ele><time>2026-04-05T14:16:07.999Z</time></trkpt><trkpt lat="44.970920701709424" lon="-1.1705352738579533"><ele>22.333333333333332</ele><time>2026-04-05T14:16:09.999Z</time></trkpt><trkpt lat="44.970981069143726" lon="-1.1705925406568127"><ele>22.166666666666664</ele><time>2026-04-05T14:16:10.999Z</time></trkpt><trkpt lat="44.9710461631191" lon="-1.1706663827432393"><ele>22.0</ele><time>2026-04-05T14:16:11.999Z</time></trkpt><trkpt lat="44.971099942781564" lon="-1.1707286382024138"><ele>22.0</ele><time>2026-04-05T14:16:12.998Z</time></trkpt><trkpt lat="44.97117160293713" lon="-1.1707945515456366"><ele>22.0</ele><time>2026-04-05T14:16:13.998Z</time></trkpt><trkpt lat="44.97124757097617" lon="-1.170917879205529"><ele>22.0</ele><time>2026-04-05T14:16:14.998Z</time></trkpt><trkpt lat="44.9713026180323" lon="-1.1710207956908953"><ele>22.0</ele><time>2026-04-05T14:16:15.998Z</time></trkpt><trkpt lat="44.97134613487802" lon="-1.1711230837591073"><ele>22.0</ele><time>2026-04-05T14:16:16.998Z</time></trkpt><trkpt lat="44.97138287172387" lon="-1.1711975085244362"><ele>22.0</ele><time>2026-04-05T14:16:17.998Z</time></trkpt><trkpt lat="44.971467551303654" lon="-1.1713478057312139"><ele>22.0</ele><time>2026-04-05T14:16:19.998Z</time></trkpt><trkpt lat="44.97154129374901" lon="-1.1714158416584772"><ele>22.0</ele><time>2026-04-05T14:16:20.998Z</time></trkpt><trkpt lat="44.971620995984736" lon="-1.1714957391212169"><ele>22.0</ele><time>2026-04-05T14:16:21.998Z</time></trkpt><trkpt lat="44.97169763977053" lon="-1.171596742603776"><ele>22.0</ele><time>2026-04-05T14:16:22.998Z</time></trkpt><trkpt lat="44.971773300366095" lon="-1.1716915867027478"><ele>22.0</ele><time>2026-04-05T14:16:23.998Z</time></trkpt><trkpt lat="44.97184104866855" lon="-1.1717987209328897"><ele>22.200000000000003</ele><time>2026-04-05T14:16:24.998Z</time></trkpt><trkpt lat="44.971924336202775" lon="-1.1718631764934095"><ele>22.4</ele><time>2026-04-05T14:16:25.998Z</time></trkpt><trkpt lat="44.97200834004009" lon="-1.1719616559781234"><ele>22.6</ele><time>2026-04-05T14:16:26.998Z</time></trkpt><trkpt lat="44.9720680013937" lon="-1.172062319509537"><ele>22.799999999999997</ele><time>2026-04-05T14:16:27.998Z</time></trkpt><trkpt lat="44.972136345391604" lon="-1.1721379417821"><ele>23.0</ele><time>2026-04-05T14:16:28.998Z</time></trkpt><trkpt lat="44.97221146042522" lon="-1.1722255433131485"><ele>23.0</ele><time>2026-04-05T14:16:29.998Z</time></trkpt><trkpt lat="44.97225177235853" lon="-1.1723090621524066"><ele>23.0</ele><time>2026-04-05T14:16:30.998Z</time></trkpt><trkpt lat="44.972290395360304" lon="-1.1723884823923567"><ele>23.0</ele><time>2026-04-05T14:16:31.998Z</time></trkpt><trkpt lat="44.97232174569108" lon="-1.1724743463050495"><ele>23.0</ele><time>2026-04-05T14:16:33.998Z</time></trkpt><trkpt lat="44.97231237536354" lon="-1.1725838245232498"><ele>23.0</ele><time>2026-04-05T14:16:40.998Z</time></trkpt><trkpt lat="44.972243289397916" lon="-1.172739380053656"><ele>23.0</ele><time>2026-04-05T14:16:42.998Z</time></trkpt><trkpt lat="44.97219798231899" lon="-1.1728274859812375"><ele>22.833333333333336</ele><time>2026-04-05T14:16:44.998Z</time></trkpt><trkpt lat="44.972183131727604" lon="-1.1729206208064502"><ele>22.666666666666668</ele><time>2026-04-05T14:16:47Z</time></trkpt><trkpt lat="44.97222502954976" lon="-1.1729870538626057"><ele>22.5</ele><time>2026-04-05T14:16:49Z</time></trkpt><trkpt lat="44.972275539139616" lon="-1.1730998952918381"><ele>22.333333333333332</ele><time>2026-04-05T14:16:51Z</time></trkpt><trkpt lat="44.97226782143849" lon="-1.173259404759069"><ele>22.166666666666664</ele><time>2026-04-05T14:16:53Z</time></trkpt><trkpt lat="44.972256357044735" lon="-1.173358748318256"><ele>22.0</ele><time>2026-04-05T14:16:54Z</time></trkpt><trkpt lat="44.97223648074892" lon="-1.1734441977654602"><ele>22.0</ele><time>2026-04-05T14:16:55Z</time></trkpt><trkpt lat="44.97219584138726" lon="-1.1735181405946267"><ele>22.0</ele><time>2026-04-05T14:16:57Z</time></trkpt><trkpt lat="44.972173777385905" lon="-1.1736043636045195"><ele>22.0</ele><time>2026-04-05T14:16:59Z</time></trkpt><trkpt lat="44.972151166985384" lon="-1.173713983351525"><ele>22.0</ele><time>2026-04-05T14:17:04Z</time></trkpt><trkpt lat="44.97214098636783" lon="-1.1738126868518715"><ele>22.0</ele><time>2026-04-05T14:17:05Z</time></trkpt><trkpt lat="44.97215947155522" lon="-1.1739284631836735"><ele>22.0</ele><time>2026-04-05T14:17:06Z</time></trkpt><trkpt lat="44.97217424282032" lon="-1.1740689899808554"><ele>22.0</ele><time>2026-04-05T14:17:07Z</time></trkpt><trkpt lat="44.97219105950574" lon="-1.1742227221377357"><ele>22.0</ele><time>2026-04-05T14:17:08Z</time></trkpt><trkpt lat="44.97222441551967" lon="-1.1743507903760173"><ele>22.0</ele><time>2026-04-05T14:17:09Z</time></trkpt><trkpt lat="44.97223651427587" lon="-1.1744539813720343"><ele>22.0</ele><time>2026-04-05T14:17:10Z</time></trkpt><trkpt lat="44.97223505415133" lon="-1.174571348859367"><ele>22.0</ele><time>2026-04-05T14:17:11Z</time></trkpt><trkpt lat="44.97222194754954" lon="-1.1746588027202345"><ele>22.0</ele><time>2026-04-05T14:17:12Z</time></trkpt><trkpt lat="44.97220924351205" lon="-1.174749420431871"><ele>22.0</ele><time>2026-04-05T14:17:13Z</time></trkpt><trkpt lat="44.972134517345964" lon="-1.1748327138938837"><ele>22.0</ele><time>2026-04-05T14:17:15Z</time></trkpt><trkpt lat="44.972162298094055" lon="-1.1749969407999539"><ele>22.0</ele><time>2026-04-05T14:17:17Z</time></trkpt><trkpt lat="44.97218685357033" lon="-1.1751049461494902"><ele>22.0</ele><time>2026-04-05T14:17:18Z</time></trkpt><trkpt lat="44.972174507261826" lon="-1.1752598223883255"><ele>22.0</ele><time>2026-04-05T14:17:20Z</time></trkpt><trkpt lat="44.97222461833009" lon="-1.1753343683872186"><ele>22.400000000000002</ele><time>2026-04-05T14:17:23Z</time></trkpt><trkpt lat="44.972203640625054" lon="-1.1754318129381278"><ele>22.8</ele><time>2026-04-05T14:17:25.999Z</time></trkpt><trkpt lat="44.97210757621241" lon="-1.1755074937882106"><ele>23.2</ele><time>2026-04-05T14:17:27.999Z</time></trkpt><trkpt lat="44.97205654285955" lon="-1.175607810558294"><ele>23.6</ele><time>2026-04-05T14:17:30.999Z</time></trkpt><trkpt lat="44.97199920682849" lon="-1.1757299156117327"><ele>24.0</ele><time>2026-04-05T14:17:32.999Z</time></trkpt><trkpt lat="44.97191868951851" lon="-1.1758348573352442"><ele>26.2</ele><time>2026-04-05T14:17:34.999Z</time></trkpt><trkpt lat="44.971836519744116" lon="-1.1759203127908722"><ele>28.4</ele><time>2026-04-05T14:17:36.999Z</time></trkpt><trkpt lat="44.97176217387311" lon="-1.1760502847595833"><ele>30.6</ele><time>2026-04-05T14:17:38.999Z</time></trkpt><trkpt lat="44.97172074303428" lon="-1.1761516895984396"><ele>32.8</ele><time>2026-04-05T14:17:40.999Z</time></trkpt><trkpt lat="44.97177952227482" lon="-1.176239880582593"><ele>35.0</ele><time>2026-04-05T14:20:28.998Z</time></trkpt><trkpt lat="44.97176034084029" lon="-1.1763485457754383"><ele>35.0</ele><time>2026-04-05T14:20:30.998Z</time></trkpt><trkpt lat="44.971692559006804" lon="-1.1763696216968909"><ele>35.0</ele><time>2026-04-05T14:20:33.998Z</time></trkpt><trkpt lat="44.97161151118571" lon="-1.176425139408614"><ele>35.0</ele><time>2026-04-05T14:20:35.998Z</time></trkpt><trkpt lat="44.971543585581216" lon="-1.176512509208763"><ele>35.0</ele><time>2026-04-05T14:20:38.998Z</time></trkpt><trkpt lat="44.971539016823414" lon="-1.1766790681353752"><ele>35.0</ele><time>2026-04-05T14:20:41.998Z</time></trkpt><trkpt lat="44.97154963189572" lon="-1.1767986182434647"><ele>34.5</ele><time>2026-04-05T14:20:43.998Z</time></trkpt><trkpt lat="44.9715559084362" lon="-1.1769204232643005"><ele>34.0</ele><time>2026-04-05T14:20:45.998Z</time></trkpt><trkpt lat="44.971569295557124" lon="-1.1770777317957375"><ele>33.5</ele><time>2026-04-05T14:20:47.998Z</time></trkpt><trkpt lat="44.971567917730546" lon="-1.1771736144557825"><ele>33.0</ele><time>2026-04-05T14:20:49.998Z</time></trkpt><trkpt lat="44.97162608580235" lon="-1.1772756673024896"><ele>32.5</ele><time>2026-04-05T14:20:51.998Z</time></trkpt><trkpt lat="44.971689613279125" lon="-1.1773197668762103"><ele>32.0</ele><time>2026-04-05T14:20:52.998Z</time></trkpt><trkpt lat="44.97175069915734" lon="-1.1773955557411"><ele>31.999999999999996</ele><time>2026-04-05T14:20:54.998Z</time></trkpt><trkpt lat="44.97176487895562" lon="-1.1775306605712457"><ele>32.0</ele><time>2026-04-05T14:20:57Z</time></trkpt><trkpt lat="44.97182302913915" lon="-1.177590227446011"><ele>32.0</ele><time>2026-04-05T14:20:59Z</time></trkpt><trkpt lat="44.971891279232466" lon="-1.1777343705804482"><ele>32.0</ele><time>2026-04-05T14:21:01Z</time></trkpt><trkpt lat="44.971902962157266" lon="-1.1778339401748152"><ele>31.999999999999996</ele><time>2026-04-05T14:21:02Z</time></trkpt><trkpt lat="44.97192226182428" lon="-1.1779204064426156"><ele>32.0</ele><time>2026-04-05T14:21:03Z</time></trkpt><trkpt lat="44.97193548886497" lon="-1.1780204973072574"><ele>32.0</ele><time>2026-04-05T14:21:04Z</time></trkpt><trkpt lat="44.97199582244959" lon="-1.1780778912140069"><ele>32.0</ele><time>2026-04-05T14:21:06Z</time></trkpt><trkpt lat="44.97208779388441" lon="-1.1781950121628515"><ele>32.0</ele><time>2026-04-05T14:21:08Z</time></trkpt><trkpt lat="44.972219472677125" lon="-1.1782815966341793"><ele>32.0</ele><time>2026-04-05T14:21:10Z</time></trkpt><trkpt lat="44.972271905700424" lon="-1.1783741448027547"><ele>32.0</ele><time>2026-04-05T14:21:11Z</time></trkpt><trkpt lat="44.972282287946484" lon="-1.1785513692392693"><ele>31.6</ele><time>2026-04-05T14:21:13Z</time></trkpt><trkpt lat="44.97230099498641" lon="-1.1786483117978037"><ele>31.200000000000003</ele><time>2026-04-05T14:21:14Z</time></trkpt><trkpt lat="44.972295630402755" lon="-1.1787589238767937"><ele>30.8</ele><time>2026-04-05T14:21:15Z</time></trkpt><trkpt lat="44.972235017408714" lon="-1.1788895376198338"><ele>30.4</ele><time>2026-04-05T14:21:17Z</time></trkpt><trkpt lat="44.972197339862475" lon="-1.1790519667605563"><ele>30.0</ele><time>2026-04-05T14:21:19Z</time></trkpt><trkpt lat="44.97213852355679" lon="-1.1791677410196202"><ele>29.8</ele><time>2026-04-05T14:21:21Z</time></trkpt><trkpt lat="44.97211623613984" lon="-1.1793488657412017"><ele>29.6</ele><time>2026-04-05T14:21:23Z</time></trkpt><trkpt lat="44.97213766153463" lon="-1.1794744381890014"><ele>29.4</ele><time>2026-04-05T14:21:24Z</time></trkpt><trkpt lat="44.972190353559334" lon="-1.1795978465624326"><ele>29.2</ele><time>2026-04-05T14:21:25Z</time></trkpt><trkpt lat="44.97218273889993" lon="-1.1797082973062138"><ele>29.0</ele><time>2026-04-05T14:21:26Z</time></trkpt><trkpt lat="44.97219232007942" lon="-1.1798414303963032"><ele>28.499999999999996</ele><time>2026-04-05T14:21:27Z</time></trkpt><trkpt lat="44.972192861171386" lon="-1.1799462080179357"><ele>28.0</ele><time>2026-04-05T14:21:28Z</time></trkpt><trkpt lat="44.97220791094542" lon="-1.1800447089274686"><ele>27.5</ele><time>2026-04-05T14:21:29Z</time></trkpt><trkpt lat="44.972224499183646" lon="-1.1801367369821705"><ele>27.0</ele><time>2026-04-05T14:21:30Z</time></trkpt><trkpt lat="44.97225758487649" lon="-1.180247428035799"><ele>26.499999999999996</ele><time>2026-04-05T14:21:31.999Z</time></trkpt><trkpt lat="44.97229733282566" lon="-1.180332932625018"><ele>26.0</ele><time>2026-04-05T14:21:32.999Z</time></trkpt><trkpt lat="44.97235532499706" lon="-1.1804603156786675"><ele>25.999999999999996</ele><time>2026-04-05T14:21:34.999Z</time></trkpt><trkpt lat="44.97234977143336" lon="-1.1805531312999131"><ele>26.0</ele><time>2026-04-05T14:21:35.999Z</time></trkpt><trkpt lat="44.972324999618785" lon="-1.180645167127612"><ele>26.0</ele><time>2026-04-05T14:21:36.999Z</time></trkpt><trkpt lat="44.97229592643417" lon="-1.180743134165544"><ele>26.0</ele><time>2026-04-05T14:21:37.999Z</time></trkpt><trkpt lat="44.9722969208535" lon="-1.1809103378905395"><ele>25.999999999999996</ele><time>2026-04-05T14:21:39.999Z</time></trkpt><trkpt lat="44.972312000656466" lon="-1.1810244277691426"><ele>26.0</ele><time>2026-04-05T14:21:40.999Z</time></trkpt><trkpt lat="44.97229855854479" lon="-1.1811458394046526"><ele>25.4</ele><time>2026-04-05T14:21:42.999Z</time></trkpt><trkpt lat="44.97230131683172" lon="-1.181306504095116"><ele>24.8</ele><time>2026-04-05T14:21:44.999Z</time></trkpt><trkpt lat="44.97228698202213" lon="-1.1814343005434345"><ele>24.2</ele><time>2026-04-05T14:21:46.999Z</time></trkpt><trkpt lat="44.972215341648926" lon="-1.1815470797984768"><ele>23.599999999999998</ele><time>2026-04-05T14:21:48.999Z</time></trkpt><trkpt lat="44.97213310955092" lon="-1.1816045956560057"><ele>23.0</ele><time>2026-04-05T14:21:50.999Z</time></trkpt><trkpt lat="44.97206880322893" lon="-1.1816775787168048"><ele>22.4</ele><time>2026-04-05T14:21:51.999Z</time></trkpt><trkpt lat="44.972023148924194" lon="-1.1817870266775676"><ele>21.799999999999997</ele><time>2026-04-05T14:21:52.999Z</time></trkpt><trkpt lat="44.97198421972296" lon="-1.181904747958236"><ele>21.2</ele><time>2026-04-05T14:21:53.999Z</time></trkpt><trkpt lat="44.97190912992965" lon="-1.1819693412642691"><ele>20.6</ele><time>2026-04-05T14:21:55.999Z</time></trkpt><trkpt lat="44.971822867371394" lon="-1.181883422165338"><ele>20.0</ele><time>2026-04-05T14:21:57.999Z</time></trkpt><trkpt lat="44.9717548386419" lon="-1.1818166341996554"><ele>20.8</ele><time>2026-04-05T14:21:58.999Z</time></trkpt><trkpt lat="44.9716549155001" lon="-1.181755039038918"><ele>21.6</ele><time>2026-04-05T14:21:59.999Z</time></trkpt><trkpt lat="44.97157573139674" lon="-1.181685651930372"><ele>22.4</ele><time>2026-04-05T14:22:00.999Z</time></trkpt><trkpt lat="44.97145930060984" lon="-1.1817338745707666"><ele>23.2</ele><time>2026-04-05T14:22:02.999Z</time></trkpt><trkpt lat="44.97137215440366" lon="-1.181780956921742"><ele>24.0</ele><time>2026-04-05T14:22:03.999Z</time></trkpt><trkpt lat="44.97125019727932" lon="-1.1818359057167724"><ele>24.0</ele><time>2026-04-05T14:22:04.999Z</time></trkpt><trkpt lat="44.97117578673167" lon="-1.1818427231367263"><ele>24.0</ele><time>2026-04-05T14:22:05.999Z</time></trkpt><trkpt lat="44.97104416358204" lon="-1.1817594573861538"><ele>24.0</ele><time>2026-04-05T14:22:07.999Z</time></trkpt><trkpt lat="44.97098427424152" lon="-1.1817941585286773"><ele>24.0</ele><time>2026-04-05T14:22:08.999Z</time></trkpt><trkpt lat="44.97092210306709" lon="-1.181860322265533"><ele>24.0</ele><time>2026-04-05T14:22:09.999Z</time></trkpt><trkpt lat="44.970854143517194" lon="-1.1818772503560644"><ele>24.0</ele><time>2026-04-05T14:22:10.999Z</time></trkpt><trkpt lat="44.970850909634486" lon="-1.1819873236158773"><ele>24.0</ele><time>2026-04-05T14:22:12.999Z</time></trkpt><trkpt lat="44.970892165881665" lon="-1.182108701208156"><ele>24.0</ele><time>2026-04-05T14:22:14.999Z</time></trkpt><trkpt lat="44.97090663153153" lon="-1.182216244972535"><ele>24.0</ele><time>2026-04-05T14:22:16.999Z</time></trkpt><trkpt lat="44.97080487872373" lon="-1.182203751580968"><ele>24.0</ele><time>2026-04-05T14:22:19.998Z</time></trkpt><trkpt lat="44.97072501526602" lon="-1.1821927856808248"><ele>24.0</ele><time>2026-04-05T14:22:20.998Z</time></trkpt><trkpt lat="44.97066338270387" lon="-1.1823284276105772"><ele>26.6</ele><time>2026-04-05T14:22:22.998Z</time></trkpt><trkpt lat="44.970604679342415" lon="-1.1823936819880059"><ele>29.2</ele><time>2026-04-05T14:22:23.998Z</time></trkpt><trkpt lat="44.97047984900301" lon="-1.1823926906065838"><ele>31.800000000000004</ele><time>2026-04-05T14:22:25.998Z</time></trkpt><trkpt lat="44.97041599280657" lon="-1.1825450048240955"><ele>34.4</ele><time>2026-04-05T14:22:27.998Z</time></trkpt><trkpt lat="44.970363369918864" lon="-1.1826089987500874"><ele>37.0</ele><time>2026-04-05T14:22:28.998Z</time></trkpt><trkpt lat="44.97029260033224" lon="-1.1827605422456267"><ele>37.0</ele><time>2026-04-05T14:22:30.998Z</time></trkpt><trkpt lat="44.970287807979815" lon="-1.1829055289408932"><ele>37.0</ele><time>2026-04-05T14:22:32.998Z</time></trkpt><trkpt lat="44.970195454369254" lon="-1.1830433731534202"><ele>37.0</ele><time>2026-04-05T14:22:34.998Z</time></trkpt><trkpt lat="44.97016036947577" lon="-1.1831263119897042"><ele>37.0</ele><time>2026-04-05T14:22:35.998Z</time></trkpt><trkpt lat="44.97008300147397" lon="-1.183167278851395"><ele>37.0</ele><time>2026-04-05T14:22:36.998Z</time></trkpt><trkpt lat="44.97004043817558" lon="-1.1832477407279396"><ele>36.5</ele><time>2026-04-05T14:22:37.998Z</time></trkpt><trkpt lat="44.97001901616919" lon="-1.1833708635772466"><ele>36.0</ele><time>2026-04-05T14:22:38.998Z</time></trkpt><trkpt lat="44.96996636135311" lon="-1.1835007608798986"><ele>35.5</ele><time>2026-04-05T14:22:40.998Z</time></trkpt><trkpt lat="44.96994753803982" lon="-1.183642070563666"><ele>35.0</ele><time>2026-04-05T14:22:42.998Z</time></trkpt><trkpt lat="44.97000430206067" lon="-1.1837029476364909"><ele>34.5</ele><time>2026-04-05T14:22:44.998Z</time></trkpt><trkpt lat="44.97004247711173" lon="-1.183789957809882"><ele>34.0</ele><time>2026-04-05T14:25:22Z</time></trkpt><trkpt lat="44.9700334498351" lon="-1.1839626113207344"><ele>32.8</ele><time>2026-04-05T14:25:24Z</time></trkpt><trkpt lat="44.97003052040137" lon="-1.1841081361573245"><ele>31.599999999999998</ele><time>2026-04-05T14:25:26Z</time></trkpt><trkpt lat="44.97005921780709" lon="-1.184216171697494"><ele>30.4</ele><time>2026-04-05T14:25:28Z</time></trkpt><trkpt lat="44.970076137456076" lon="-1.184361764017081"><ele>29.2</ele><time>2026-04-05T14:25:30Z</time></trkpt><trkpt lat="44.97006793434559" lon="-1.1844850367648692"><ele>28.0</ele><time>2026-04-05T14:25:31.999Z</time></trkpt><trkpt lat="44.97009180216281" lon="-1.1846461695558412"><ele>28.000000000000004</ele><time>2026-04-05T14:25:33.999Z</time></trkpt><trkpt lat="44.97009359546966" lon="-1.1847404843731226"><ele>28.0</ele><time>2026-04-05T14:25:35.999Z</time></trkpt><trkpt lat="44.97009159533391" lon="-1.1848734944242147"><ele>28.0</ele><time>2026-04-05T14:25:37.999Z</time></trkpt><trkpt lat="44.970077479628" lon="-1.1849765107697452"><ele>28.0</ele><time>2026-04-05T14:25:38.999Z</time></trkpt><trkpt lat="44.97006901883543" lon="-1.1850662672837762"><ele>28.000000000000004</ele><time>2026-04-05T14:25:39.999Z</time></trkpt><trkpt lat="44.97007985347729" lon="-1.185154374877671"><ele>28.0</ele><time>2026-04-05T14:25:40.999Z</time></trkpt><trkpt lat="44.97015388579905" lon="-1.18522952236442"><ele>26.500000000000004</ele><time>2026-04-05T14:25:42.999Z</time></trkpt><trkpt lat="44.97017180155959" lon="-1.1853452024103228"><ele>25.0</ele><time>2026-04-05T14:25:44.999Z</time></trkpt><trkpt lat="44.97017029309813" lon="-1.1854580930644778"><ele>23.5</ele><time>2026-04-05T14:25:46.999Z</time></trkpt><trkpt lat="44.970203777308846" lon="-1.1855759354741022"><ele>22.0</ele><time>2026-04-05T14:25:48.999Z</time></trkpt><trkpt lat="44.97027073612231" lon="-1.1856715480100244"><ele>20.5</ele><time>2026-04-05T14:25:50.999Z</time></trkpt><trkpt lat="44.970310092883366" lon="-1.1857498346732247"><ele>19.0</ele><time>2026-04-05T14:25:52.999Z</time></trkpt><trkpt lat="44.970311463507436" lon="-1.185926045281492"><ele>18.75</ele><time>2026-04-05T14:25:56.999Z</time></trkpt><trkpt lat="44.97033908080141" lon="-1.1860759360571629"><ele>18.5</ele><time>2026-04-05T14:25:58.999Z</time></trkpt><trkpt lat="44.970414518264455" lon="-1.1862026883753467"><ele>18.25</ele><time>2026-04-05T14:26:00.999Z</time></trkpt><trkpt lat="44.97047275207347" lon="-1.1863366090487253"><ele>18.0</ele><time>2026-04-05T14:26:02.999Z</time></trkpt><trkpt lat="44.97047230259541" lon="-1.1865256722774387"><ele>18.0</ele><time>2026-04-05T14:26:04.999Z</time></trkpt><trkpt lat="44.97050029403541" lon="-1.1866100341987678"><ele>18.0</ele><time>2026-04-05T14:26:05.999Z</time></trkpt><trkpt lat="44.97049920094772" lon="-1.186713713321205"><ele>18.0</ele><time>2026-04-05T14:26:06.999Z</time></trkpt><trkpt lat="44.970499330790666" lon="-1.1868556159438517"><ele>18.0</ele><time>2026-04-05T14:26:07.999Z</time></trkpt><trkpt lat="44.970510427445824" lon="-1.186968763298546"><ele>18.0</ele><time>2026-04-05T14:26:08.999Z</time></trkpt><trkpt lat="44.97051228005523" lon="-1.187120852244879"><ele>18.0</ele><time>2026-04-05T14:26:10.999Z</time></trkpt><trkpt lat="44.97051862683628" lon="-1.1872390040918048"><ele>17.4</ele><time>2026-04-05T14:26:11.999Z</time></trkpt><trkpt lat="44.97052498780193" lon="-1.187428980671858"><ele>16.8</ele><time>2026-04-05T14:26:13.999Z</time></trkpt><trkpt lat="44.97053261225763" lon="-1.1875418286571893"><ele>16.2</ele><time>2026-04-05T14:26:14.999Z</time></trkpt><trkpt lat="44.97053767575024" lon="-1.1876734116640566"><ele>15.6</ele><time>2026-04-05T14:26:15.999Z</time></trkpt><trkpt lat="44.970541437497076" lon="-1.1877695500719243"><ele>15.0</ele><time>2026-04-05T14:26:16.999Z</time></trkpt><trkpt lat="44.970478603498755" lon="-1.187918105453389"><ele>15.0</ele><time>2026-04-05T14:26:18.999Z</time></trkpt><trkpt lat="44.970400971417206" lon="-1.1879819852789375"><ele>15.0</ele><time>2026-04-05T14:26:19.998Z</time></trkpt><trkpt lat="44.970284628611765" lon="-1.1880783476258727"><ele>15.0</ele><time>2026-04-05T14:26:20.998Z</time></trkpt><trkpt lat="44.97015637615724" lon="-1.1881698936640641"><ele>15.0</ele><time>2026-04-05T14:26:21.998Z</time></trkpt><trkpt lat="44.970061668209226" lon="-1.18825392780903"><ele>14.0</ele><time>2026-04-05T14:26:22.998Z</time></trkpt><trkpt lat="44.96998147694931" lon="-1.1883391051922594"><ele>13.0</ele><time>2026-04-05T14:26:23.998Z</time></trkpt><trkpt lat="44.969910576420844" lon="-1.1884434160369202"><ele>12.0</ele><time>2026-04-05T14:26:24.998Z</time></trkpt><trkpt lat="44.96985146499038" lon="-1.1885117371697342"><ele>11.0</ele><time>2026-04-05T14:26:25.998Z</time></trkpt><trkpt lat="44.96982619769531" lon="-1.1885985415735574"><ele>10.0</ele><time>2026-04-05T14:26:26.998Z</time></trkpt><trkpt lat="44.969811617175736" lon="-1.1887598641547177"><ele>10.0</ele><time>2026-04-05T14:26:27.998Z</time></trkpt><trkpt lat="44.96976076770204" lon="-1.1888957820640094"><ele>10.0</ele><time>2026-04-05T14:26:28.998Z</time></trkpt><trkpt lat="44.969675194953105" lon="-1.1890075362001236"><ele>10.0</ele><time>2026-04-05T14:26:29.998Z</time></trkpt><trkpt lat="44.969569022980906" lon="-1.1891481814303337"><ele>10.0</ele><time>2026-04-05T14:26:30.998Z</time></trkpt><trkpt lat="44.9694874735138" lon="-1.1892980619585356"><ele>10.0</ele><time>2026-04-05T14:26:31.998Z</time></trkpt><trkpt lat="44.96941176329895" lon="-1.189420086899346"><ele>10.0</ele><time>2026-04-05T14:26:32.998Z</time></trkpt><trkpt lat="44.96932554221016" lon="-1.1895037183723605"><ele>10.0</ele><time>2026-04-05T14:26:33.998Z</time></trkpt><trkpt lat="44.96928171317261" lon="-1.1895876347899377"><ele>10.0</ele><time>2026-04-05T14:26:34.998Z</time></trkpt><trkpt lat="44.969247822212765" lon="-1.1897149015479287"><ele>10.0</ele><time>2026-04-05T14:26:35.998Z</time></trkpt><trkpt lat="44.96919753331561" lon="-1.1898444987530534"><ele>9.833333333333334</ele><time>2026-04-05T14:26:36.998Z</time></trkpt><trkpt lat="44.969141499274976" lon="-1.1899263837369625"><ele>9.666666666666668</ele><time>2026-04-05T14:26:37.998Z</time></trkpt><trkpt lat="44.969076405321616" lon="-1.189968993142101"><ele>9.5</ele><time>2026-04-05T14:26:38.998Z</time></trkpt><trkpt lat="44.96899003079364" lon="-1.1899881380964292"><ele>9.333333333333334</ele><time>2026-04-05T14:26:40.998Z</time></trkpt><trkpt lat="44.968937380745714" lon="-1.1900420035500616"><ele>9.166666666666666</ele><time>2026-04-05T14:26:42.998Z</time></trkpt><trkpt lat="44.96892432984076" lon="-1.1901610530993478"><ele>9.0</ele><time>2026-04-05T14:26:50.998Z</time></trkpt><trkpt lat="44.96893760343006" lon="-1.1902867928031857"><ele>9.0</ele><time>2026-04-05T14:26:52.998Z</time></trkpt><trkpt lat="44.9689764491213" lon="-1.1904099926023475"><ele>9.0</ele><time>2026-04-05T14:26:54.998Z</time></trkpt><trkpt lat="44.96898106100736" lon="-1.1905081339668502"><ele>9.0</ele><time>2026-04-05T14:26:55.998Z</time></trkpt><trkpt lat="44.96899044996504" lon="-1.190609897006422"><ele>9.0</ele><time>2026-04-05T14:26:56.998Z</time></trkpt><trkpt lat="44.969038100255204" lon="-1.1907301725026822"><ele>9.0</ele><time>2026-04-05T14:26:58.998Z</time></trkpt><trkpt lat="44.969157641373144" lon="-1.1907307071295437"><ele>9.833333333333334</ele><time>2026-04-05T14:27:00.998Z</time></trkpt><trkpt lat="44.96926226137916" lon="-1.1907265171956694"><ele>10.666666666666668</ele><time>2026-04-05T14:27:02.998Z</time></trkpt><trkpt lat="44.96930815400234" lon="-1.1907875998786843"><ele>11.5</ele><time>2026-04-05T14:27:03.998Z</time></trkpt><trkpt lat="44.96931870391954" lon="-1.1908946428890748"><ele>12.333333333333334</ele><time>2026-04-05T14:27:04.998Z</time></trkpt><trkpt lat="44.969326189177" lon="-1.190989452981573"><ele>13.166666666666668</ele><time>2026-04-05T14:27:05.998Z</time></trkpt><trkpt lat="44.969405966827956" lon="-1.1910449802195926"><ele>14.0</ele><time>2026-04-05T14:27:09.997Z</time></trkpt><trkpt lat="44.969479633058725" lon="-1.1911229445486877"><ele>14.000000000000002</ele><time>2026-04-05T14:27:11.997Z</time></trkpt><trkpt lat="44.96956223886561" lon="-1.191124889890729"><ele>14.0</ele><time>2026-04-05T14:27:12.997Z</time></trkpt><trkpt lat="44.969642301258155" lon="-1.1910753632705346"><ele>14.0</ele><time>2026-04-05T14:27:15Z</time></trkpt><trkpt lat="44.96973605547018" lon="-1.191145538584973"><ele>14.0</ele><time>2026-04-05T14:27:17Z</time></trkpt><trkpt lat="44.969780174252065" lon="-1.1912325162106072"><ele>14.000000000000002</ele><time>2026-04-05T14:27:18Z</time></trkpt><trkpt lat="44.96980652370111" lon="-1.1913190462934065"><ele>14.0</ele><time>2026-04-05T14:27:19Z</time></trkpt><trkpt lat="44.96984045587189" lon="-1.1914767388633496"><ele>14.000000000000002</ele><time>2026-04-05T14:27:21Z</time></trkpt><trkpt lat="44.9699146671928" lon="-1.1914815529103502"><ele>14.0</ele><time>2026-04-05T14:27:23Z</time></trkpt><trkpt lat="44.9699592635028" lon="-1.1915546056927373"><ele>14.0</ele><time>2026-04-05T14:27:24Z</time></trkpt><trkpt lat="44.9699987658411" lon="-1.1916452846770615"><ele>14.0</ele><time>2026-04-05T14:27:25Z</time></trkpt><trkpt lat="44.97006210138208" lon="-1.1917305342016695"><ele>14.000000000000002</ele><time>2026-04-05T14:27:27Z</time></trkpt><trkpt lat="44.97005526086216" lon="-1.191855776660233"><ele>14.0</ele><time>2026-04-05T14:27:29Z</time></trkpt><trkpt lat="44.9700289071843" lon="-1.1919479088710394"><ele>15.166666666666668</ele><time>2026-04-05T14:27:30Z</time></trkpt><trkpt lat="44.970017741544424" lon="-1.1920523032020902"><ele>16.333333333333336</ele><time>2026-04-05T14:27:32Z</time></trkpt><trkpt lat="44.970024376534525" lon="-1.1922234229946311"><ele>17.5</ele><time>2026-04-05T14:27:34Z</time></trkpt><trkpt lat="44.97003401028646" lon="-1.1923526670580802"><ele>18.666666666666668</ele><time>2026-04-05T14:27:35.999Z</time></trkpt><trkpt lat="44.970074888008966" lon="-1.192439210384116"><ele>19.833333333333332</ele><time>2026-04-05T14:27:36.999Z</time></trkpt><trkpt lat="44.97010756958355" lon="-1.1925257920914671"><ele>21.0</ele><time>2026-04-05T14:27:37.999Z</time></trkpt><trkpt lat="44.970181579568745" lon="-1.1925604111101684"><ele>21.5</ele><time>2026-04-05T14:27:39.999Z</time></trkpt><trkpt lat="44.970227376418336" lon="-1.1926464941559978"><ele>22.0</ele><time>2026-04-05T14:27:48.999Z</time></trkpt><trkpt lat="44.97026881427836" lon="-1.192746110876379"><ele>22.5</ele><time>2026-04-05T14:27:50.999Z</time></trkpt><trkpt lat="44.970355751861405" lon="-1.1928381718847663"><ele>23.0</ele><time>2026-04-05T14:27:52.999Z</time></trkpt><trkpt lat="44.970402569595905" lon="-1.192916096050628"><ele>23.5</ele><time>2026-04-05T14:27:53.999Z</time></trkpt><trkpt lat="44.97044227463594" lon="-1.1929924726187977"><ele>24.0</ele><time>2026-04-05T14:27:54.999Z</time></trkpt><trkpt lat="44.97047844258905" lon="-1.193080624127155"><ele>24.2</ele><time>2026-04-05T14:27:55.999Z</time></trkpt><trkpt lat="44.97053760844573" lon="-1.1932090763594547"><ele>24.4</ele><time>2026-04-05T14:27:57.999Z</time></trkpt><trkpt lat="44.97057444285958" lon="-1.193369984571858"><ele>24.6</ele><time>2026-04-05T14:27:59.999Z</time></trkpt><trkpt lat="44.97056979085365" lon="-1.1935342785143137"><ele>24.8</ele><time>2026-04-05T14:28:01.999Z</time></trkpt><trkpt lat="44.97057160725985" lon="-1.1936239766783092"><ele>25.0</ele><time>2026-04-05T14:28:02.999Z</time></trkpt><trkpt lat="44.970607976197435" lon="-1.1937508911669736"><ele>25.0</ele><time>2026-04-05T14:28:04.999Z</time></trkpt><trkpt lat="44.97065076191458" lon="-1.1938674185836053"><ele>25.0</ele><time>2026-04-05T14:28:05.999Z</time></trkpt><trkpt lat="44.970728062529794" lon="-1.1939701230117774"><ele>25.0</ele><time>2026-04-05T14:28:07.999Z</time></trkpt><trkpt lat="44.97082031513063" lon="-1.1940143021676444"><ele>25.0</ele><time>2026-04-05T14:28:10.999Z</time></trkpt><trkpt lat="44.97091656120311" lon="-1.1940863125935284"><ele>25.0</ele><time>2026-04-05T14:28:11.999Z</time></trkpt><trkpt lat="44.97099133379087" lon="-1.194119415174249"><ele>24.714285714285715</ele><time>2026-04-05T14:28:12.999Z</time></trkpt><trkpt lat="44.97106228906127" lon="-1.1941456668365404"><ele>24.42857142857143</ele><time>2026-04-05T14:28:13.999Z</time></trkpt><trkpt lat="44.97110203254167" lon="-1.1942226087290146"><ele>24.142857142857146</ele><time>2026-04-05T14:28:14.999Z</time></trkpt><trkpt lat="44.97114960737465" lon="-1.1943298200143173"><ele>23.857142857142858</ele><time>2026-04-05T14:28:15.999Z</time></trkpt><trkpt lat="44.97121616473247" lon="-1.1943576190881942"><ele>23.57142857142857</ele><time>2026-04-05T14:28:16.999Z</time></trkpt><trkpt lat="44.9712875797942" lon="-1.1943749103345025"><ele>23.28571428571429</ele><time>2026-04-05T14:28:17.999Z</time></trkpt><trkpt lat="44.97135503724602" lon="-1.1943560686153925"><ele>23.0</ele><time>2026-04-05T14:28:18.999Z</time></trkpt><trkpt lat="44.97140828590732" lon="-1.1942909533594117"><ele>23.0</ele><time>2026-04-05T14:28:19.999Z</time></trkpt><trkpt lat="44.97147218490803" lon="-1.1942879849062102"><ele>23.0</ele><time>2026-04-05T14:28:20.998Z</time></trkpt><trkpt lat="44.97151919618345" lon="-1.1943545470588925"><ele>23.0</ele><time>2026-04-05T14:28:21.998Z</time></trkpt><trkpt lat="44.971597328838406" lon="-1.1943191013460015"><ele>23.0</ele><time>2026-04-05T14:28:23.998Z</time></trkpt><trkpt lat="44.9717152631796" lon="-1.1943655563166484"><ele>23.0</ele><time>2026-04-05T14:28:25.998Z</time></trkpt><trkpt lat="44.97176849171752" lon="-1.1944142808654226"><ele>23.0</ele><time>2026-04-05T14:28:26.998Z</time></trkpt><trkpt lat="44.9718059280043" lon="-1.1945924594546922"><ele>23.0</ele><time>2026-04-05T14:28:28.998Z</time></trkpt><trkpt lat="44.97177753605368" lon="-1.1946914297537214"><ele>23.0</ele><time>2026-04-05T14:28:29.998Z</time></trkpt><trkpt lat="44.971716348680125" lon="-1.1947502143447684"><ele>23.0</ele><time>2026-04-05T14:28:30.998Z</time></trkpt><trkpt lat="44.97172573373898" lon="-1.194949911215723"><ele>23.0</ele><time>2026-04-05T14:28:32.998Z</time></trkpt><trkpt lat="44.97164816855205" lon="-1.1950294713269012"><ele>23.0</ele><time>2026-04-05T14:28:34.998Z</time></trkpt><trkpt lat="44.971612163216186" lon="-1.1951523375446789"><ele>23.0</ele><time>2026-04-05T14:28:36.998Z</time></trkpt><trkpt lat="44.97167463762875" lon="-1.1951877729441343"><ele>23.0</ele><time>2026-04-05T14:28:37.998Z</time></trkpt><trkpt lat="44.97172383984432" lon="-1.195280840420807"><ele>23.0</ele><time>2026-04-05T14:28:38.998Z</time></trkpt><trkpt lat="44.971769949009136" lon="-1.1953820928238825"><ele>23.0</ele><time>2026-04-05T14:28:39.998Z</time></trkpt><trkpt lat="44.97187083475916" lon="-1.1954691462952534"><ele>23.0</ele><time>2026-04-05T14:28:41.998Z</time></trkpt><trkpt lat="44.97188880841605" lon="-1.1956263793269661"><ele>22.166666666666668</ele><time>2026-04-05T14:28:43.998Z</time></trkpt><trkpt lat="44.97188927739378" lon="-1.1957166004830513"><ele>21.333333333333336</ele><time>2026-04-05T14:28:44.998Z</time></trkpt><trkpt lat="44.9719487046103" lon="-1.1958037175793543"><ele>20.5</ele><time>2026-04-05T14:28:45.998Z</time></trkpt><trkpt lat="44.97202117356893" lon="-1.1958615084230477"><ele>19.666666666666668</ele><time>2026-04-05T14:28:46.998Z</time></trkpt><trkpt lat="44.97208559071025" lon="-1.1959114595514397"><ele>18.833333333333332</ele><time>2026-04-05T14:28:47.998Z</time></trkpt><trkpt lat="44.97210745604117" lon="-1.1959955427116296"><ele>18.0</ele><time>2026-04-05T14:28:48.998Z</time></trkpt><trkpt lat="44.972077508319195" lon="-1.1961605590411482"><ele>18.000000000000004</ele><time>2026-04-05T14:28:50.998Z</time></trkpt><trkpt lat="44.97210264811385" lon="-1.1962615405468127"><ele>18.0</ele><time>2026-04-05T14:28:51.998Z</time></trkpt><trkpt lat="44.97213358303849" lon="-1.196352607850106"><ele>18.0</ele><time>2026-04-05T14:28:52.998Z</time></trkpt><trkpt lat="44.972171111973175" lon="-1.1964469521741652"><ele>18.0</ele><time>2026-04-05T14:28:53.998Z</time></trkpt><trkpt lat="44.972220977190815" lon="-1.1965031091330884"><ele>18.0</ele><time>2026-04-05T14:28:54.998Z</time></trkpt><trkpt lat="44.97227029155285" lon="-1.1965644881269817"><ele>18.000000000000004</ele><time>2026-04-05T14:28:55.998Z</time></trkpt><trkpt lat="44.972336250418934" lon="-1.1966032920336782"><ele>18.0</ele><time>2026-04-05T14:28:56.998Z</time></trkpt><trkpt lat="44.97241322766627" lon="-1.1966571848735659"><ele>17.333333333333332</ele><time>2026-04-05T14:28:57.998Z</time></trkpt><trkpt lat="44.97242530189466" lon="-1.1967799072376315"><ele>16.666666666666668</ele><time>2026-04-05T14:28:59.998Z</time></trkpt><trkpt lat="44.972422039363764" lon="-1.1969078473107495"><ele>16.0</ele><time>2026-04-05T14:29:00.998Z</time></trkpt><trkpt lat="44.97239352417488" lon="-1.1970469693439845"><ele>15.333333333333334</ele><time>2026-04-05T14:29:01.998Z</time></trkpt><trkpt lat="44.9723434143467" lon="-1.1971509333830288"><ele>14.666666666666668</ele><time>2026-04-05T14:29:02.998Z</time></trkpt><trkpt lat="44.97230469708612" lon="-1.1972316931378706"><ele>14.0</ele><time>2026-04-05T14:29:03.998Z</time></trkpt><trkpt lat="44.97229680047949" lon="-1.1973882461147205"><ele>13.833333333333334</ele><time>2026-04-05T14:29:05.998Z</time></trkpt><trkpt lat="44.97231960095275" lon="-1.197486676798699"><ele>13.666666666666668</ele><time>2026-04-05T14:29:06.998Z</time></trkpt><trkpt lat="44.97234907637818" lon="-1.197580774797208"><ele>13.5</ele><time>2026-04-05T14:29:07.997Z</time></trkpt><trkpt lat="44.97233897809366" lon="-1.197706513043767"><ele>13.333333333333332</ele><time>2026-04-05T14:29:09.997Z</time></trkpt><trkpt lat="44.97233239777513" lon="-1.197796412138616"><ele>13.166666666666666</ele><time>2026-04-05T14:29:10.997Z</time></trkpt><trkpt lat="44.97241422505267" lon="-1.1978392223556344"><ele>13.0</ele><time>2026-04-05T14:29:12.997Z</time></trkpt><trkpt lat="44.972534744745865" lon="-1.1979399037078904"><ele>12.999999999999998</ele><time>2026-04-05T14:29:14.997Z</time></trkpt><trkpt lat="44.97259937016212" lon="-1.1980101153141536"><ele>13.0</ele><time>2026-04-05T14:29:15.997Z</time></trkpt><trkpt lat="44.97265862715795" lon="-1.198051763215357"><ele>13.0</ele><time>2026-04-05T14:29:16.997Z</time></trkpt><trkpt lat="44.97269640173757" lon="-1.198125703657467"><ele>13.0</ele><time>2026-04-05T14:29:17.997Z</time></trkpt><trkpt lat="44.97272932544175" lon="-1.1982572010549775"><ele>12.999999999999998</ele><time>2026-04-05T14:29:18.997Z</time></trkpt><trkpt lat="44.9727702993659" lon="-1.1983962258435077"><ele>13.0</ele><time>2026-04-05T14:29:21Z</time></trkpt><trkpt lat="44.97272084159076" lon="-1.1985712011040552"><ele>12.666666666666666</ele><time>2026-04-05T14:29:23Z</time></trkpt><trkpt lat="44.97278782767509" lon="-1.1986611886018819"><ele>12.333333333333332</ele><time>2026-04-05T14:29:25Z</time></trkpt><trkpt lat="44.97280385495783" lon="-1.198813325407475"><ele>12.0</ele><time>2026-04-05T14:29:26Z</time></trkpt><trkpt lat="44.97279206216215" lon="-1.1989597635770717"><ele>11.666666666666666</ele><time>2026-04-05T14:29:27Z</time></trkpt><trkpt lat="44.972770282342196" lon="-1.199048864908021"><ele>11.333333333333332</ele><time>2026-04-05T14:29:28Z</time></trkpt><trkpt lat="44.97275743250448" lon="-1.199145272610102"><ele>11.0</ele><time>2026-04-05T14:29:29Z</time></trkpt><trkpt lat="44.97274323923508" lon="-1.1992776309443998"><ele>11.0</ele><time>2026-04-05T14:29:30Z</time></trkpt><trkpt lat="44.97273519006427" lon="-1.199391435733223"><ele>11.0</ele><time>2026-04-05T14:29:31Z</time></trkpt><trkpt lat="44.97270891045009" lon="-1.199478521607995"><ele>11.0</ele><time>2026-04-05T14:29:32Z</time></trkpt><trkpt lat="44.97277521773973" lon="-1.1995503938587537"><ele>11.0</ele><time>2026-04-05T14:29:34Z</time></trkpt><trkpt lat="44.972857511356665" lon="-1.1995673760897754"><ele>11.0</ele><time>2026-04-05T14:29:35Z</time></trkpt><trkpt lat="44.97295645888234" lon="-1.1995522169172474"><ele>11.0</ele><time>2026-04-05T14:29:36Z</time></trkpt><trkpt lat="44.973042805523214" lon="-1.1995423590704952"><ele>11.0</ele><time>2026-04-05T14:29:36.999Z</time></trkpt><trkpt lat="44.97319463809352" lon="-1.1995120492581237"><ele>11.0</ele><time>2026-04-05T14:29:38.999Z</time></trkpt><trkpt lat="44.97330596715589" lon="-1.19949261895216"><ele>11.0</ele><time>2026-04-05T14:29:39.999Z</time></trkpt><trkpt lat="44.97338031340506" lon="-1.19947885276744"><ele>11.0</ele><time>2026-04-05T14:29:40.999Z</time></trkpt><trkpt lat="44.97350344848545" lon="-1.199391592669078"><ele>12.166666666666666</ele><time>2026-04-05T14:29:42.999Z</time></trkpt><trkpt lat="44.973602221821025" lon="-1.1993900322550244"><ele>13.333333333333332</ele><time>2026-04-05T14:29:43.999Z</time></trkpt><trkpt lat="44.97367222253049" lon="-1.1994009124468157"><ele>14.5</ele><time>2026-04-05T14:29:44.999Z</time></trkpt><trkpt lat="44.973757203400616" lon="-1.1994615422352688"><ele>15.666666666666666</ele><time>2026-04-05T14:29:45.999Z</time></trkpt><trkpt lat="44.97384675412186" lon="-1.1995255254882027"><ele>16.833333333333332</ele><time>2026-04-05T14:29:46.999Z</time></trkpt><trkpt lat="44.97390995858157" lon="-1.1995647411082062"><ele>18.0</ele><time>2026-04-05T14:29:47.999Z</time></trkpt><trkpt lat="44.97399802424026" lon="-1.1996685064411712"><ele>18.0</ele><time>2026-04-05T14:29:50.999Z</time></trkpt><trkpt lat="44.974064713659246" lon="-1.1997110720474924"><ele>18.0</ele><time>2026-04-05T14:29:51.999Z</time></trkpt><trkpt lat="44.974170700748715" lon="-1.199735056582427"><ele>18.0</ele><time>2026-04-05T14:29:52.999Z</time></trkpt><trkpt lat="44.974269911806516" lon="-1.1997422305155752"><ele>18.0</ele><time>2026-04-05T14:29:54.999Z</time></trkpt><trkpt lat="44.974313540385836" lon="-1.1996257932025498"><ele>18.0</ele><time>2026-04-05T14:29:57.999Z</time></trkpt><trkpt lat="44.97435908991234" lon="-1.1995474669808606"><ele>18.0</ele><time>2026-04-05T14:29:58.999Z</time></trkpt><trkpt lat="44.97442205318756" lon="-1.1995864817613504"><ele>18.6</ele><time>2026-04-05T14:30:01.999Z</time></trkpt><trkpt lat="44.97447347921048" lon="-1.1997030313363588"><ele>19.200000000000003</ele><time>2026-04-05T14:30:03.999Z</time></trkpt><trkpt lat="44.974556309788554" lon="-1.1997340663818743"><ele>19.8</ele><time>2026-04-05T14:30:05.999Z</time></trkpt><trkpt lat="44.974664268858454" lon="-1.1996562928131544"><ele>20.400000000000002</ele><time>2026-04-05T14:30:07.999Z</time></trkpt><trkpt lat="44.97476576468662" lon="-1.1996716616954382"><ele>21.0</ele><time>2026-04-05T14:30:09.999Z</time></trkpt><trkpt lat="44.97484105786306" lon="-1.1996514549158506"><ele>21.0</ele><time>2026-04-05T14:30:10.999Z</time></trkpt><trkpt lat="44.974922387667725" lon="-1.1996364389725456"><ele>21.0</ele><time>2026-04-05T14:30:11.999Z</time></trkpt><trkpt lat="44.97499933151486" lon="-1.1996192657585087"><ele>21.0</ele><time>2026-04-05T14:30:12.999Z</time></trkpt><trkpt lat="44.97507701294885" lon="-1.1996167919853566"><ele>21.0</ele><time>2026-04-05T14:30:13.999Z</time></trkpt><trkpt lat="44.975200579395484" lon="-1.1996182745770516"><ele>21.0</ele><time>2026-04-05T14:30:15.999Z</time></trkpt><trkpt lat="44.975316041785206" lon="-1.1996139284288267"><ele>20.400000000000002</ele><time>2026-04-05T14:30:17.999Z</time></trkpt><trkpt lat="44.97539537837133" lon="-1.1995850501351626"><ele>19.8</ele><time>2026-04-05T14:30:19.999Z</time></trkpt><trkpt lat="44.97547465735162" lon="-1.199609954532014"><ele>19.200000000000003</ele><time>2026-04-05T14:30:21.999Z</time></trkpt><trkpt lat="44.975577759491784" lon="-1.199621335541736"><ele>18.6</ele><time>2026-04-05T14:30:23.998Z</time></trkpt><trkpt lat="44.97567650042458" lon="-1.1996128458442459"><ele>18.0</ele><time>2026-04-05T14:30:25.998Z</time></trkpt><trkpt lat="44.97578463065905" lon="-1.199597164858848"><ele>17.2</ele><time>2026-04-05T14:30:27.998Z</time></trkpt><trkpt lat="44.97591738530242" lon="-1.199593759246495"><ele>16.4</ele><time>2026-04-05T14:30:29.999Z</time></trkpt><trkpt lat="44.975983799397035" lon="-1.199613512152335"><ele>15.599999999999998</ele><time>2026-04-05T14:30:31.999Z</time></trkpt><trkpt lat="44.97605679124721" lon="-1.199516492718622"><ele>14.799999999999999</ele><time>2026-04-05T14:30:33.999Z</time></trkpt><trkpt lat="44.976133194186886" lon="-1.1995266147878354"><ele>14.0</ele><time>2026-04-05T14:30:35.999Z</time></trkpt><trkpt lat="44.97618590149447" lon="-1.1994147303631835"><ele>14.000000000000002</ele><time>2026-04-05T14:30:37.999Z</time></trkpt><trkpt lat="44.97624676095624" lon="-1.1994428518932958"><ele>14.0</ele><time>2026-04-05T14:30:39.999Z</time></trkpt><trkpt lat="44.97632460156612" lon="-1.1993737826265598"><ele>14.0</ele><time>2026-04-05T14:30:41.999Z</time></trkpt><trkpt lat="44.976376797614925" lon="-1.1993206308485218"><ele>14.0</ele><time>2026-04-05T14:30:42.999Z</time></trkpt><trkpt lat="44.97644643971668" lon="-1.1992592816257863"><ele>14.000000000000002</ele><time>2026-04-05T14:30:43.999Z</time></trkpt><trkpt lat="44.97652856283324" lon="-1.1992189172092063"><ele>14.0</ele><time>2026-04-05T14:30:44.999Z</time></trkpt><trkpt lat="44.976597429226985" lon="-1.199189175166743"><ele>14.000000000000002</ele><time>2026-04-05T14:30:45.999Z</time></trkpt><trkpt lat="44.97667054745151" lon="-1.1991700115555002"><ele>14.0</ele><time>2026-04-05T14:30:46.999Z</time></trkpt><trkpt lat="44.97674133199673" lon="-1.1991469699793607"><ele>14.0</ele><time>2026-04-05T14:30:47.999Z</time></trkpt><trkpt lat="44.976839075446435" lon="-1.1991151270159368"><ele>14.0</ele><time>2026-04-05T14:30:49.999Z</time></trkpt><trkpt lat="44.97692352328224" lon="-1.1990657483980747"><ele>14.000000000000002</ele><time>2026-04-05T14:30:52.999Z</time></trkpt><trkpt lat="44.97696723160482" lon="-1.1989406572377326"><ele>14.0</ele><time>2026-04-05T14:30:54.999Z</time></trkpt><trkpt lat="44.97689003871006" lon="-1.1989257247149208"><ele>14.000000000000002</ele><time>2026-04-05T14:30:58.999Z</time></trkpt><trkpt lat="44.97687739277266" lon="-1.1990147091854844"><ele>14.0</ele><time>2026-04-05T14:31:00.999Z</time></trkpt><trkpt lat="44.97684473086063" lon="-1.1990968777410342"><ele>14.0</ele><time>2026-04-05T14:31:03.999Z</time></trkpt><trkpt lat="44.97671928036783" lon="-1.1991417430990927"><ele>14.0</ele><time>2026-04-05T14:31:05.999Z</time></trkpt><trkpt lat="44.97664184744308" lon="-1.1991799451132035"><ele>14.000000000000002</ele><time>2026-04-05T14:31:06.999Z</time></trkpt><trkpt lat="44.976570111209995" lon="-1.1991781043264977"><ele>14.0</ele><time>2026-04-05T14:31:07.999Z</time></trkpt><trkpt lat="44.9764885739647" lon="-1.199204180713728"><ele>14.0</ele><time>2026-04-05T14:31:08.999Z</time></trkpt><trkpt lat="44.976424697259475" lon="-1.1992689522452058"><ele>13.999999999999998</ele><time>2026-04-05T14:31:09.999Z</time></trkpt><trkpt lat="44.97633832446242" lon="-1.1993477917561919"><ele>13.999999999999998</ele><time>2026-04-05T14:31:11.998Z</time></trkpt><trkpt lat="44.976322367665325" lon="-1.1994443892814641"><ele>14.0</ele><time>2026-04-05T14:31:42Z</time></trkpt><trkpt lat="44.976437221905634" lon="-1.1993634231286612"><ele>14.0</ele><time>2026-04-05T14:31:45Z</time></trkpt><trkpt lat="44.9765064154652" lon="-1.1992933027045753"><ele>14.0</ele><time>2026-04-05T14:31:46Z</time></trkpt><trkpt lat="44.976582589128554" lon="-1.1992323949600083"><ele>13.999999999999998</ele><time>2026-04-05T14:31:47Z</time></trkpt><trkpt lat="44.97666405895289" lon="-1.1991684974439312"><ele>13.999999999999998</ele><time>2026-04-05T14:31:48Z</time></trkpt><trkpt lat="44.97675204928999" lon="-1.1991399084962089"><ele>14.0</ele><time>2026-04-05T14:31:49Z</time></trkpt><trkpt lat="44.97685984300072" lon="-1.1991019147473674"><ele>14.0</ele><time>2026-04-05T14:31:51Z</time></trkpt><trkpt lat="44.976832496723524" lon="-1.1990033444843489"><ele>14.000000000000002</ele><time>2026-04-05T14:32:52.999Z</time></trkpt><trkpt lat="44.97675212686457" lon="-1.199023855840434"><ele>14.0</ele><time>2026-04-05T14:32:56.999Z</time></trkpt><trkpt lat="44.976694355020776" lon="-1.199112922052657"><ele>14.0</ele><time>2026-04-05T14:32:58.999Z</time></trkpt><trkpt lat="44.976611813825954" lon="-1.1992283977201257"><ele>14.0</ele><time>2026-04-05T14:33:01.999Z</time></trkpt><trkpt lat="44.9765455615925" lon="-1.1992619558367623"><ele>14.000000000000002</ele><time>2026-04-05T14:33:02.999Z</time></trkpt><trkpt lat="44.97648282628181" lon="-1.1992977167797811"><ele>14.0</ele><time>2026-04-05T14:33:03.999Z</time></trkpt><trkpt lat="44.976415643116184" lon="-1.1993682579408365"><ele>14.0</ele><time>2026-04-05T14:33:04.999Z</time></trkpt><trkpt lat="44.97632674645163" lon="-1.1994580047953864"><ele>13.999999999999998</ele><time>2026-04-05T14:33:05.999Z</time></trkpt><trkpt lat="44.97623232158471" lon="-1.1995258394698467"><ele>13.999999999999998</ele><time>2026-04-05T14:33:06.999Z</time></trkpt><trkpt lat="44.976156947801805" lon="-1.1995577486353857"><ele>14.0</ele><time>2026-04-05T14:33:07.999Z</time></trkpt><trkpt lat="44.97604023811503" lon="-1.199649385821805"><ele>14.0</ele><time>2026-04-05T14:33:08.999Z</time></trkpt><trkpt lat="44.9759628467403" lon="-1.1997256971909"><ele>14.000000000000002</ele><time>2026-04-05T14:33:09.999Z</time></trkpt><trkpt lat="44.9759017153237" lon="-1.199748046405415"><ele>14.0</ele><time>2026-04-05T14:33:10.999Z</time></trkpt><trkpt lat="44.97583606036327" lon="-1.199742270614321"><ele>14.0</ele><time>2026-04-05T14:33:11.998Z</time></trkpt><trkpt lat="44.97571432600431" lon="-1.1997082625066064"><ele>14.0</ele><time>2026-04-05T14:33:13.998Z</time></trkpt><trkpt lat="44.97563372401242" lon="-1.1996608493468421"><ele>14.000000000000002</ele><time>2026-04-05T14:33:14.998Z</time></trkpt><trkpt lat="44.9755470388078" lon="-1.199607478551117"><ele>14.0</ele><time>2026-04-05T14:33:15.998Z</time></trkpt><trkpt lat="44.975470983275954" lon="-1.1995895492353645"><ele>14.666666666666668</ele><time>2026-04-05T14:33:16.998Z</time></trkpt><trkpt lat="44.97540745674155" lon="-1.1995854582332832"><ele>15.333333333333334</ele><time>2026-04-05T14:33:17.998Z</time></trkpt><trkpt lat="44.97529362223197" lon="-1.1995843506809645"><ele>16.0</ele><time>2026-04-05T14:33:19.998Z</time></trkpt><trkpt lat="44.97521707236594" lon="-1.1996136105422108"><ele>16.666666666666668</ele><time>2026-04-05T14:33:20.998Z</time></trkpt><trkpt lat="44.975132722327636" lon="-1.1996283872985616"><ele>17.333333333333332</ele><time>2026-04-05T14:33:21.998Z</time></trkpt><trkpt lat="44.97505346757373" lon="-1.1996210050879994"><ele>18.0</ele><time>2026-04-05T14:33:22.998Z</time></trkpt><trkpt lat="44.9749696378032" lon="-1.199620718056683"><ele>18.6</ele><time>2026-04-05T14:33:24.998Z</time></trkpt><trkpt lat="44.97488438792757" lon="-1.1996318230103427"><ele>19.200000000000003</ele><time>2026-04-05T14:33:27.998Z</time></trkpt><trkpt lat="44.97477613063224" lon="-1.1996609357531627"><ele>19.8</ele><time>2026-04-05T14:33:30.998Z</time></trkpt><trkpt lat="44.97469389789205" lon="-1.1996630757881617"><ele>20.400000000000002</ele><time>2026-04-05T14:33:32Z</time></trkpt><trkpt lat="44.97462150624197" lon="-1.1996788482171297"><ele>21.0</ele><time>2026-04-05T14:33:33Z</time></trkpt><trkpt lat="44.974525200752694" lon="-1.1997069987545845"><ele>21.0</ele><time>2026-04-05T14:33:35Z</time></trkpt><trkpt lat="44.97447295925095" lon="-1.1996385728290375"><ele>21.0</ele><time>2026-04-05T14:33:37Z</time></trkpt><trkpt lat="44.974410781534836" lon="-1.1995230521564173"><ele>21.0</ele><time>2026-04-05T14:33:39Z</time></trkpt><trkpt lat="44.974350170472164" lon="-1.1995947001799736"><ele>21.0</ele><time>2026-04-05T14:33:42Z</time></trkpt><trkpt lat="44.97426535621472" lon="-1.1997274561158286"><ele>21.0</ele><time>2026-04-05T14:33:44Z</time></trkpt><trkpt lat="44.97419063894779" lon="-1.1997193802286834"><ele>20.400000000000002</ele><time>2026-04-05T14:33:46Z</time></trkpt><trkpt lat="44.97409667175266" lon="-1.1996790322250659"><ele>19.8</ele><time>2026-04-05T14:33:47Z</time></trkpt><trkpt lat="44.97401545926248" lon="-1.199651464611766"><ele>19.200000000000003</ele><time>2026-04-05T14:33:48Z</time></trkpt><trkpt lat="44.97395054138349" lon="-1.199601369278725"><ele>18.6</ele><time>2026-04-05T14:33:49Z</time></trkpt><trkpt lat="44.97389677096628" lon="-1.1995119172867585"><ele>18.0</ele><time>2026-04-05T14:33:51Z</time></trkpt><trkpt lat="44.9737819444816" lon="-1.1994861743226688"><ele>18.0</ele><time>2026-04-05T14:33:53Z</time></trkpt><trkpt lat="44.97372180191787" lon="-1.1994458270976947"><ele>18.0</ele><time>2026-04-05T14:33:54Z</time></trkpt><trkpt lat="44.973650398018876" lon="-1.1994169498874276"><ele>18.0</ele><time>2026-04-05T14:33:55Z</time></trkpt><trkpt lat="44.973584625497224" lon="-1.1993892383480607"><ele>18.0</ele><time>2026-04-05T14:33:56Z</time></trkpt><trkpt lat="44.97346701541609" lon="-1.1994160117047226"><ele>18.0</ele><time>2026-04-05T14:33:58Z</time></trkpt><trkpt lat="44.973363441662286" lon="-1.1994512383372955"><ele>18.0</ele><time>2026-04-05T14:33:59Z</time></trkpt><trkpt lat="44.97329078602718" lon="-1.1994878045271573"><ele>16.833333333333332</ele><time>2026-04-05T14:34:00Z</time></trkpt><trkpt lat="44.97321950855182" lon="-1.1995279573037934"><ele>15.666666666666666</ele><time>2026-04-05T14:34:01Z</time></trkpt><trkpt lat="44.973127688966414" lon="-1.1995185792497698"><ele>14.5</ele><time>2026-04-05T14:34:02Z</time></trkpt><trkpt lat="44.97305930710983" lon="-1.1995266125711226"><ele>13.333333333333332</ele><time>2026-04-05T14:34:03Z</time></trkpt><trkpt lat="44.97298911103166" lon="-1.1995291281197444"><ele>12.166666666666666</ele><time>2026-04-05T14:34:04Z</time></trkpt><trkpt lat="44.972906008712194" lon="-1.199555339714039"><ele>11.0</ele><time>2026-04-05T14:34:05Z</time></trkpt><trkpt lat="44.972841117420856" lon="-1.1995456246294063"><ele>11.0</ele><time>2026-04-05T14:34:06Z</time></trkpt><trkpt lat="44.97277386221536" lon="-1.1995352981194523"><ele>11.0</ele><time>2026-04-05T14:34:07Z</time></trkpt><trkpt lat="44.97272253350936" lon="-1.1994645257372527"><ele>11.0</ele><time>2026-04-05T14:34:09Z</time></trkpt><trkpt lat="44.97273161355518" lon="-1.1993559401269311"><ele>11.0</ele><time>2026-04-05T14:34:11Z</time></trkpt><trkpt lat="44.97275352564962" lon="-1.1992572610614096"><ele>11.0</ele><time>2026-04-05T14:34:12Z</time></trkpt><trkpt lat="44.972772972500735" lon="-1.1991419630505886"><ele>11.0</ele><time>2026-04-05T14:34:13Z</time></trkpt><trkpt lat="44.97277709378446" lon="-1.1990089206476313"><ele>11.0</ele><time>2026-04-05T14:34:14Z</time></trkpt><trkpt lat="44.9727954108441" lon="-1.1988827416972327"><ele>11.0</ele><time>2026-04-05T14:34:15Z</time></trkpt><trkpt lat="44.9728088194975" lon="-1.198717274927781"><ele>11.0</ele><time>2026-04-05T14:34:17Z</time></trkpt><trkpt lat="44.97280414909471" lon="-1.198625312647744"><ele>11.0</ele><time>2026-04-05T14:34:18Z</time></trkpt><trkpt lat="44.97273814333557" lon="-1.198508981354895"><ele>11.0</ele><time>2026-04-05T14:34:20Z</time></trkpt><trkpt lat="44.97276416159803" lon="-1.19836665146412"><ele>11.0</ele><time>2026-04-05T14:34:22Z</time></trkpt><trkpt lat="44.97275147434118" lon="-1.1982607929936768"><ele>11.0</ele><time>2026-04-05T14:34:24Z</time></trkpt><trkpt lat="44.97268565610411" lon="-1.1981304662795418"><ele>11.0</ele><time>2026-04-05T14:34:25.999Z</time></trkpt><trkpt lat="44.972658494025495" lon="-1.1980353053881767"><ele>11.0</ele><time>2026-04-05T14:34:26.999Z</time></trkpt><trkpt lat="44.97258187849313" lon="-1.1979602068859099"><ele>11.0</ele><time>2026-04-05T14:34:28.999Z</time></trkpt><trkpt lat="44.97251696524494" lon="-1.1979413557367056"><ele>11.0</ele><time>2026-04-05T14:34:30.999Z</time></trkpt><trkpt lat="44.9724532734586" lon="-1.1978496909524565"><ele>11.0</ele><time>2026-04-05T14:34:32.999Z</time></trkpt><trkpt lat="44.97239675688093" lon="-1.1978049121546062"><ele>11.0</ele><time>2026-04-05T14:34:33.999Z</time></trkpt><trkpt lat="44.972333793922346" lon="-1.1977523867654158"><ele>11.0</ele><time>2026-04-05T14:34:34.999Z</time></trkpt><trkpt lat="44.97233615487168" lon="-1.1976555965906628"><ele>11.0</ele><time>2026-04-05T14:34:36.999Z</time></trkpt><trkpt lat="44.97236010470587" lon="-1.1975586698322893"><ele>11.0</ele><time>2026-04-05T14:34:37.999Z</time></trkpt><trkpt lat="44.97232736860237" lon="-1.1974532324321296"><ele>11.0</ele><time>2026-04-05T14:34:39.999Z</time></trkpt><trkpt lat="44.97230954167876" lon="-1.1973427181670826"><ele>11.0</ele><time>2026-04-05T14:34:40.999Z</time></trkpt><trkpt lat="44.972313980979145" lon="-1.1972364153229103"><ele>11.5</ele><time>2026-04-05T14:34:41.999Z</time></trkpt><trkpt lat="44.97239418989165" lon="-1.1970781652152052"><ele>12.0</ele><time>2026-04-05T14:34:43.999Z</time></trkpt><trkpt lat="44.972423969654734" lon="-1.1969473939654287"><ele>12.5</ele><time>2026-04-05T14:34:44.999Z</time></trkpt><trkpt lat="44.972450711184074" lon="-1.1968616514576924"><ele>13.0</ele><time>2026-04-05T14:34:45.999Z</time></trkpt><trkpt lat="44.97244712938915" lon="-1.196755762556099"><ele>13.500000000000002</ele><time>2026-04-05T14:34:46.999Z</time></trkpt><trkpt lat="44.97243005178649" lon="-1.1966652868141132"><ele>14.0</ele><time>2026-04-05T14:34:47.999Z</time></trkpt><trkpt lat="44.97232703033576" lon="-1.196591396038569"><ele>14.0</ele><time>2026-04-05T14:34:49.999Z</time></trkpt><trkpt lat="44.97224166904796" lon="-1.196540123806789"><ele>13.999999999999998</ele><time>2026-04-05T14:34:50.999Z</time></trkpt><trkpt lat="44.97217249729743" lon="-1.1964386705280312"><ele>13.999999999999998</ele><time>2026-04-05T14:34:52.999Z</time></trkpt><trkpt lat="44.972123540914225" lon="-1.1963253021168585"><ele>14.0</ele><time>2026-04-05T14:34:53.999Z</time></trkpt><trkpt lat="44.972105052035324" lon="-1.1961825414534777"><ele>14.0</ele><time>2026-04-05T14:34:55.999Z</time></trkpt><trkpt lat="44.97208918873737" lon="-1.1960731861765659"><ele>14.799999999999999</ele><time>2026-04-05T14:34:56.999Z</time></trkpt><trkpt lat="44.97210094761888" lon="-1.1959349730386826"><ele>15.599999999999998</ele><time>2026-04-05T14:34:58.999Z</time></trkpt><trkpt lat="44.972022496428345" lon="-1.195859909951434"><ele>16.4</ele><time>2026-04-05T14:35:00.999Z</time></trkpt><trkpt lat="44.97196197144625" lon="-1.195789620465074"><ele>17.2</ele><time>2026-04-05T14:35:01.999Z</time></trkpt><trkpt lat="44.971909112418444" lon="-1.1957328130977576"><ele>18.0</ele><time>2026-04-05T14:35:02.999Z</time></trkpt><trkpt lat="44.971899814025136" lon="-1.1955599903910687"><ele>19.0</ele><time>2026-04-05T14:35:04.999Z</time></trkpt><trkpt lat="44.971841818884066" lon="-1.1954106492531358"><ele>20.0</ele><time>2026-04-05T14:35:06.999Z</time></trkpt><trkpt lat="44.97176185779904" lon="-1.1953529994341765"><ele>21.0</ele><time>2026-04-05T14:35:07.999Z</time></trkpt><trkpt lat="44.97169402969711" lon="-1.1952654169341823"><ele>22.0</ele><time>2026-04-05T14:35:08.999Z</time></trkpt><trkpt lat="44.97165392840831" lon="-1.1951474303107499"><ele>23.0</ele><time>2026-04-05T14:35:09.999Z</time></trkpt><trkpt lat="44.9716447617745" lon="-1.1950338592004597"><ele>23.0</ele><time>2026-04-05T14:35:11.999Z</time></trkpt><trkpt lat="44.971724752833396" lon="-1.1949396543101618"><ele>23.0</ele><time>2026-04-05T14:35:13.998Z</time></trkpt><trkpt lat="44.97174494797395" lon="-1.1948338332418427"><ele>23.0</ele><time>2026-04-05T14:35:15.998Z</time></trkpt><trkpt lat="44.971746753695385" lon="-1.194733111589873"><ele>23.0</ele><time>2026-04-05T14:35:16.998Z</time></trkpt><trkpt lat="44.97177803522656" lon="-1.1946147846270785"><ele>23.0</ele><time>2026-04-05T14:35:18.998Z</time></trkpt><trkpt lat="44.97179587105435" lon="-1.194509137974154"><ele>23.0</ele><time>2026-04-05T14:35:20.998Z</time></trkpt><trkpt lat="44.97177359816868" lon="-1.1944228610237344"><ele>23.0</ele><time>2026-04-05T14:35:21.998Z</time></trkpt><trkpt lat="44.97166460325943" lon="-1.1943678825644823"><ele>23.0</ele><time>2026-04-05T14:35:23.998Z</time></trkpt><trkpt lat="44.971596398386794" lon="-1.1943356040283164"><ele>23.0</ele><time>2026-04-05T14:35:24.998Z</time></trkpt><trkpt lat="44.97150112307686" lon="-1.1943662693082782"><ele>23.0</ele><time>2026-04-05T14:35:26.998Z</time></trkpt><trkpt lat="44.97138420444227" lon="-1.194303118779535"><ele>23.0</ele><time>2026-04-05T14:35:28.998Z</time></trkpt><trkpt lat="44.9713204888872" lon="-1.1942895870553822"><ele>23.0</ele><time>2026-04-05T14:35:29.998Z</time></trkpt><trkpt lat="44.97126743034715" lon="-1.1943519151042918"><ele>23.0</ele><time>2026-04-05T14:35:31.998Z</time></trkpt><trkpt lat="44.97119154172252" lon="-1.1943394023209823"><ele>23.0</ele><time>2026-04-05T14:35:32.998Z</time></trkpt><trkpt lat="44.971131337160834" lon="-1.1942849377406628"><ele>23.0</ele><time>2026-04-05T14:35:33.998Z</time></trkpt><trkpt lat="44.97104347221364" lon="-1.1941645382740476"><ele>23.0</ele><time>2026-04-05T14:35:35.998Z</time></trkpt><trkpt lat="44.97100528259386" lon="-1.1940891026323543"><ele>23.0</ele><time>2026-04-05T14:35:36.998Z</time></trkpt><trkpt lat="44.9709306597968" lon="-1.1940541259093431"><ele>23.333333333333336</ele><time>2026-04-05T14:35:39Z</time></trkpt><trkpt lat="44.97085702730588" lon="-1.1940253834625378"><ele>23.666666666666668</ele><time>2026-04-05T14:35:40Z</time></trkpt><trkpt lat="44.97077556003947" lon="-1.1939547498237209"><ele>24.0</ele><time>2026-04-05T14:35:41Z</time></trkpt><trkpt lat="44.9707142534209" lon="-1.1939104615080491"><ele>24.333333333333336</ele><time>2026-04-05T14:35:42Z</time></trkpt><trkpt lat="44.97065318959947" lon="-1.1938601452068396"><ele>24.666666666666668</ele><time>2026-04-05T14:35:43Z</time></trkpt><trkpt lat="44.9706222390895" lon="-1.1937311812803744"><ele>25.0</ele><time>2026-04-05T14:35:45Z</time></trkpt><trkpt lat="44.970607884605855" lon="-1.1936222137669432"><ele>25.000000000000004</ele><time>2026-04-05T14:35:46Z</time></trkpt><trkpt lat="44.970598046734665" lon="-1.1935331051993712"><ele>25.0</ele><time>2026-04-05T14:35:47Z</time></trkpt><trkpt lat="44.97059108288752" lon="-1.1933630094452554"><ele>25.0</ele><time>2026-04-05T14:35:49Z</time></trkpt><trkpt lat="44.970555351384085" lon="-1.1932354771399059"><ele>25.0</ele><time>2026-04-05T14:35:51Z</time></trkpt><trkpt lat="44.97052243762088" lon="-1.1931438152660931"><ele>25.000000000000004</ele><time>2026-04-05T14:35:52Z</time></trkpt><trkpt lat="44.97048771896831" lon="-1.1930437976466997"><ele>25.0</ele><time>2026-04-05T14:35:53Z</time></trkpt><trkpt lat="44.97040433131423" lon="-1.1929285436721222"><ele>24.8</ele><time>2026-04-05T14:35:55Z</time></trkpt><trkpt lat="44.97032409304696" lon="-1.1927889373514933"><ele>24.6</ele><time>2026-04-05T14:35:57Z</time></trkpt><trkpt lat="44.970279317136864" lon="-1.192722350275282"><ele>24.4</ele><time>2026-04-05T14:35:58Z</time></trkpt><trkpt lat="44.97022156398028" lon="-1.1926420293398419"><ele>24.2</ele><time>2026-04-05T14:36:00Z</time></trkpt><trkpt lat="44.970152057139465" lon="-1.1925667571795193"><ele>24.0</ele><time>2026-04-05T14:36:04Z</time></trkpt><trkpt lat="44.970089129162126" lon="-1.192449179383077"><ele>24.0</ele><time>2026-04-05T14:36:06Z</time></trkpt><trkpt lat="44.970060987545814" lon="-1.1923665362436493"><ele>24.0</ele><time>2026-04-05T14:36:07Z</time></trkpt><trkpt lat="44.970036605432284" lon="-1.1922414548444744"><ele>24.0</ele><time>2026-04-05T14:36:09Z</time></trkpt><trkpt lat="44.970071878901294" lon="-1.1920733650943929"><ele>24.0</ele><time>2026-04-05T14:36:11Z</time></trkpt><trkpt lat="44.97004984826302" lon="-1.1919494518323832"><ele>24.0</ele><time>2026-04-05T14:36:13Z</time></trkpt><trkpt lat="44.97012124278752" lon="-1.1918057683823724"><ele>23.5</ele><time>2026-04-05T14:36:15Z</time></trkpt><trkpt lat="44.97008212977724" lon="-1.1917067987373524"><ele>23.0</ele><time>2026-04-05T14:36:17Z</time></trkpt><trkpt lat="44.97000011764389" lon="-1.1916307848532304"><ele>22.5</ele><time>2026-04-05T14:36:19Z</time></trkpt><trkpt lat="44.969942297786545" lon="-1.1915339770639912"><ele>22.0</ele><time>2026-04-05T14:39:41.998Z</time></trkpt><trkpt lat="44.96986596841255" lon="-1.1916292019444672"><ele>21.5</ele><time>2026-04-05T14:39:44.998Z</time></trkpt><trkpt lat="44.96992417198359" lon="-1.1915866218081517"><ele>21.0</ele><time>2026-04-05T14:39:50Z</time></trkpt><trkpt lat="44.96984563276812" lon="-1.1917025141833426"><ele>21.0</ele><time>2026-04-05T14:40:02Z</time></trkpt><trkpt lat="44.96979430126472" lon="-1.191782952512372"><ele>21.0</ele><time>2026-04-05T14:40:03Z</time></trkpt><trkpt lat="44.96972474316443" lon="-1.1918944968486453"><ele>21.0</ele><time>2026-04-05T14:40:04Z</time></trkpt><trkpt lat="44.969644077958186" lon="-1.192031451716871"><ele>21.0</ele><time>2026-04-05T14:40:05Z</time></trkpt><trkpt lat="44.96955795434905" lon="-1.1921776988132524"><ele>21.0</ele><time>2026-04-05T14:40:06Z</time></trkpt><trkpt lat="44.969466621471305" lon="-1.192313109118605"><ele>22.0</ele><time>2026-04-05T14:40:07Z</time></trkpt><trkpt lat="44.969374448468066" lon="-1.1924423685103558"><ele>23.0</ele><time>2026-04-05T14:40:08Z</time></trkpt><trkpt lat="44.9692939853067" lon="-1.1925657020375906"><ele>24.0</ele><time>2026-04-05T14:40:09Z</time></trkpt><trkpt lat="44.969217962159476" lon="-1.192659944883158"><ele>25.0</ele><time>2026-04-05T14:40:10Z</time></trkpt><trkpt lat="44.969140282146135" lon="-1.1927767559945879"><ele>24.75</ele><time>2026-04-05T14:40:11Z</time></trkpt><trkpt lat="44.96904328720854" lon="-1.1929122346754868"><ele>24.5</ele><time>2026-04-05T14:40:12Z</time></trkpt><trkpt lat="44.96895099966167" lon="-1.1930457334425622"><ele>24.25</ele><time>2026-04-05T14:40:13Z</time></trkpt><trkpt lat="44.96886323099142" lon="-1.1931439344796746"><ele>24.0</ele><time>2026-04-05T14:40:14Z</time></trkpt><trkpt lat="44.96878267995591" lon="-1.1932747984163334"><ele>24.0</ele><time>2026-04-05T14:40:15Z</time></trkpt><trkpt lat="44.96870817746933" lon="-1.1934035496063802"><ele>24.0</ele><time>2026-04-05T14:40:16Z</time></trkpt><trkpt lat="44.96864765485964" lon="-1.1935192675747566"><ele>24.0</ele><time>2026-04-05T14:40:17Z</time></trkpt><trkpt lat="44.96858202499454" lon="-1.193629991456416"><ele>24.0</ele><time>2026-04-05T14:40:18Z</time></trkpt><trkpt lat="44.968497924956495" lon="-1.1937447251330786"><ele>24.0</ele><time>2026-04-05T14:40:19Z</time></trkpt><trkpt lat="44.9684035327124" lon="-1.193888236003897"><ele>23.0</ele><time>2026-04-05T14:40:20Z</time></trkpt><trkpt lat="44.96830730358824" lon="-1.194049502481812"><ele>22.0</ele><time>2026-04-05T14:40:21Z</time></trkpt><trkpt lat="44.9682123536265" lon="-1.1941889862375303"><ele>21.0</ele><time>2026-04-05T14:40:22Z</time></trkpt><trkpt lat="44.968093026542455" lon="-1.1943167399647083"><ele>20.0</ele><time>2026-04-05T14:40:23Z</time></trkpt><trkpt lat="44.968003717552406" lon="-1.1944975252696426"><ele>20.0</ele><time>2026-04-05T14:40:24Z</time></trkpt><trkpt lat="44.96792009641091" lon="-1.194631858871755"><ele>20.0</ele><time>2026-04-05T14:40:25Z</time></trkpt><trkpt lat="44.967839639374915" lon="-1.194751902674585"><ele>20.0</ele><time>2026-04-05T14:40:26Z</time></trkpt><trkpt lat="44.967780695077614" lon="-1.1948451882252582"><ele>20.0</ele><time>2026-04-05T14:40:27Z</time></trkpt><trkpt lat="44.967705329752185" lon="-1.1949651122536242"><ele>20.0</ele><time>2026-04-05T14:40:28Z</time></trkpt><trkpt lat="44.96762205152556" lon="-1.1950818617493695"><ele>20.6</ele><time>2026-04-05T14:40:28.999Z</time></trkpt><trkpt lat="44.96753082052053" lon="-1.1952110020623068"><ele>21.2</ele><time>2026-04-05T14:40:29.999Z</time></trkpt><trkpt lat="44.96748309292753" lon="-1.1953127279213844"><ele>21.799999999999997</ele><time>2026-04-05T14:40:30.999Z</time></trkpt><trkpt lat="44.96744347759519" lon="-1.1953925858317322"><ele>22.4</ele><time>2026-04-05T14:40:31.999Z</time></trkpt><trkpt lat="44.967376848160484" lon="-1.195509168992469"><ele>23.0</ele><time>2026-04-05T14:40:32.999Z</time></trkpt><trkpt lat="44.967307429048105" lon="-1.1956393160952277"><ele>23.4</ele><time>2026-04-05T14:40:33.999Z</time></trkpt><trkpt lat="44.96725572095727" lon="-1.1957345884526986"><ele>23.799999999999997</ele><time>2026-04-05T14:40:34.999Z</time></trkpt><trkpt lat="44.967185306458745" lon="-1.195841092209883"><ele>24.2</ele><time>2026-04-05T14:40:35.999Z</time></trkpt><trkpt lat="44.96709609515131" lon="-1.1959472245645755"><ele>24.6</ele><time>2026-04-05T14:40:36.999Z</time></trkpt><trkpt lat="44.967017985860245" lon="-1.196055503892438"><ele>25.0</ele><time>2026-04-05T14:40:37.999Z</time></trkpt><trkpt lat="44.966944687772795" lon="-1.1961420043502728"><ele>25.0</ele><time>2026-04-05T14:40:38.999Z</time></trkpt><trkpt lat="44.96687191099494" lon="-1.1962263424630792"><ele>25.0</ele><time>2026-04-05T14:40:39.999Z</time></trkpt><trkpt lat="44.96679420085279" lon="-1.196315392187959"><ele>25.0</ele><time>2026-04-05T14:40:40.999Z</time></trkpt><trkpt lat="44.96672413394078" lon="-1.1964123748648305"><ele>25.0</ele><time>2026-04-05T14:40:41.999Z</time></trkpt><trkpt lat="44.96663867568342" lon="-1.1965324775691477"><ele>25.0</ele><time>2026-04-05T14:40:42.999Z</time></trkpt><trkpt lat="44.96655033659998" lon="-1.196683988445332"><ele>24.8</ele><time>2026-04-05T14:40:43.999Z</time></trkpt><trkpt lat="44.966472642188236" lon="-1.196819382414113"><ele>24.6</ele><time>2026-04-05T14:40:44.999Z</time></trkpt><trkpt lat="44.96641146568766" lon="-1.1969176018386558"><ele>24.4</ele><time>2026-04-05T14:40:45.999Z</time></trkpt><trkpt lat="44.96635774925931" lon="-1.1970221593293808"><ele>24.2</ele><time>2026-04-05T14:40:46.999Z</time></trkpt><trkpt lat="44.96629739803528" lon="-1.1971452821778807"><ele>24.0</ele><time>2026-04-05T14:40:47.999Z</time></trkpt><trkpt lat="44.96621187096517" lon="-1.1972854302079623"><ele>23.25</ele><time>2026-04-05T14:40:48.999Z</time></trkpt><trkpt lat="44.96611485446524" lon="-1.1974154716670733"><ele>22.5</ele><time>2026-04-05T14:40:49.999Z</time></trkpt><trkpt lat="44.96600416852548" lon="-1.1975384680745302"><ele>21.75</ele><time>2026-04-05T14:40:50.999Z</time></trkpt><trkpt lat="44.96591217597006" lon="-1.197644203995195"><ele>21.0</ele><time>2026-04-05T14:40:51.999Z</time></trkpt><trkpt lat="44.965815317535004" lon="-1.1977389747884144"><ele>21.0</ele><time>2026-04-05T14:40:52.999Z</time></trkpt><trkpt lat="44.96573592995176" lon="-1.1978738008102021"><ele>21.0</ele><time>2026-04-05T14:40:53.999Z</time></trkpt><trkpt lat="44.96564989457983" lon="-1.1980341352696497"><ele>21.0</ele><time>2026-04-05T14:40:54.999Z</time></trkpt><trkpt lat="44.96553995918182" lon="-1.198157082066961"><ele>21.0</ele><time>2026-04-05T14:40:55.999Z</time></trkpt><trkpt lat="44.965456942525186" lon="-1.1982575635887143"><ele>20.75</ele><time>2026-04-05T14:40:56.999Z</time></trkpt><trkpt lat="44.965369839569924" lon="-1.198379115394214"><ele>20.5</ele><time>2026-04-05T14:40:57.999Z</time></trkpt><trkpt lat="44.96527216098442" lon="-1.1985098766080788"><ele>20.25</ele><time>2026-04-05T14:40:58.999Z</time></trkpt><trkpt lat="44.96518647442551" lon="-1.1986530951803658"><ele>20.0</ele><time>2026-04-05T14:40:59.999Z</time></trkpt><trkpt lat="44.9650957759424" lon="-1.19879837637132"><ele>19.25</ele><time>2026-04-05T14:41:00.999Z</time></trkpt><trkpt lat="44.96500646807877" lon="-1.198934172653345"><ele>18.5</ele><time>2026-04-05T14:41:01.999Z</time></trkpt><trkpt lat="44.964916480153704" lon="-1.19907492897568"><ele>17.75</ele><time>2026-04-05T14:41:02.999Z</time></trkpt><trkpt lat="44.96483305470573" lon="-1.1991981235361304"><ele>17.0</ele><time>2026-04-05T14:41:03.999Z</time></trkpt><trkpt lat="44.96474715378419" lon="-1.199328926065827"><ele>16.5</ele><time>2026-04-05T14:41:04.999Z</time></trkpt><trkpt lat="44.964660291491754" lon="-1.1994591950313118"><ele>16.0</ele><time>2026-04-05T14:41:05.999Z</time></trkpt><trkpt lat="44.96457427815727" lon="-1.1995850826822179"><ele>15.5</ele><time>2026-04-05T14:41:06.999Z</time></trkpt><trkpt lat="44.964490151292196" lon="-1.1996985382524734"><ele>15.0</ele><time>2026-04-05T14:41:07.999Z</time></trkpt><trkpt lat="44.96440250805864" lon="-1.199843424740571"><ele>15.0</ele><time>2026-04-05T14:41:08.999Z</time></trkpt><trkpt lat="44.964318205656625" lon="-1.1999613605977002"><ele>15.0</ele><time>2026-04-05T14:41:09.999Z</time></trkpt><trkpt lat="44.964243289089914" lon="-1.2000655036226233"><ele>15.0</ele><time>2026-04-05T14:41:10.999Z</time></trkpt><trkpt lat="44.96415693137597" lon="-1.2001703522297176"><ele>15.0</ele><time>2026-04-05T14:41:11.999Z</time></trkpt><trkpt lat="44.964070180904834" lon="-1.2002618078786729"><ele>15.0</ele><time>2026-04-05T14:41:12.999Z</time></trkpt><trkpt lat="44.96399143976551" lon="-1.2003373279465221"><ele>15.166666666666666</ele><time>2026-04-05T14:41:13.999Z</time></trkpt><trkpt lat="44.963941198457256" lon="-1.2004089946698098"><ele>15.333333333333332</ele><time>2026-04-05T14:41:14.999Z</time></trkpt><trkpt lat="44.963913834428375" lon="-1.2005086005403427"><ele>15.5</ele><time>2026-04-05T14:41:16.998Z</time></trkpt><trkpt lat="44.96384507197081" lon="-1.2005767461087764"><ele>15.666666666666666</ele><time>2026-04-05T14:41:19.998Z</time></trkpt><trkpt lat="44.963779632432185" lon="-1.2006153346003874"><ele>15.833333333333332</ele><time>2026-04-05T14:41:22.998Z</time></trkpt><trkpt lat="44.963686611164874" lon="-1.2006733561085112"><ele>16.0</ele><time>2026-04-05T14:41:24.998Z</time></trkpt><trkpt lat="44.963607901808714" lon="-1.2007311320144196"><ele>16.2</ele><time>2026-04-05T14:41:25.998Z</time></trkpt><trkpt lat="44.96352139632607" lon="-1.200786646786683"><ele>16.400000000000002</ele><time>2026-04-05T14:41:26.998Z</time></trkpt><trkpt lat="44.963425213854656" lon="-1.2008459103941203"><ele>16.6</ele><time>2026-04-05T14:41:27.998Z</time></trkpt><trkpt lat="44.96333677077628" lon="-1.2009035811472009"><ele>16.8</ele><time>2026-04-05T14:41:28.998Z</time></trkpt><trkpt lat="44.963271865558795" lon="-1.200944404062825"><ele>17.0</ele><time>2026-04-05T14:41:29.998Z</time></trkpt><trkpt lat="44.96318775983928" lon="-1.2009839004389875"><ele>16.2</ele><time>2026-04-05T14:41:30.998Z</time></trkpt><trkpt lat="44.96311546448448" lon="-1.2010172636240188"><ele>15.399999999999999</ele><time>2026-04-05T14:41:31.998Z</time></trkpt><trkpt lat="44.96305694218491" lon="-1.2010549625955613"><ele>14.600000000000001</ele><time>2026-04-05T14:41:32.998Z</time></trkpt><trkpt lat="44.96292451127936" lon="-1.2010992441169255"><ele>13.8</ele><time>2026-04-05T14:41:34.998Z</time></trkpt><trkpt lat="44.96284931029301" lon="-1.2011064504172795"><ele>13.0</ele><time>2026-04-05T14:41:35.998Z</time></trkpt><trkpt lat="44.962740813495685" lon="-1.2011110861731995"><ele>13.0</ele><time>2026-04-05T14:41:36.998Z</time></trkpt><trkpt lat="44.962652474189106" lon="-1.2011042479378042"><ele>13.0</ele><time>2026-04-05T14:41:37.998Z</time></trkpt><trkpt lat="44.962576176780914" lon="-1.201106918347633"><ele>13.0</ele><time>2026-04-05T14:41:38.998Z</time></trkpt><trkpt lat="44.96243762209777" lon="-1.2010970882836614"><ele>13.0</ele><time>2026-04-05T14:41:40.998Z</time></trkpt><trkpt lat="44.962339687079165" lon="-1.2010846063233294"><ele>13.0</ele><time>2026-04-05T14:41:41.998Z</time></trkpt><trkpt lat="44.96224117868597" lon="-1.201071031050157"><ele>12.4</ele><time>2026-04-05T14:41:42.998Z</time></trkpt><trkpt lat="44.962151617035985" lon="-1.201052607683462"><ele>11.8</ele><time>2026-04-05T14:41:43.998Z</time></trkpt><trkpt lat="44.96208027953419" lon="-1.2010518115436941"><ele>11.2</ele><time>2026-04-05T14:41:44.998Z</time></trkpt><trkpt lat="44.96194529531086" lon="-1.2009995203281871"><ele>10.6</ele><time>2026-04-05T14:41:46.998Z</time></trkpt><trkpt lat="44.96185973342086" lon="-1.2009402625121903"><ele>10.0</ele><time>2026-04-05T14:41:47.998Z</time></trkpt><trkpt lat="44.96178569028492" lon="-1.2008816552565784"><ele>10.0</ele><time>2026-04-05T14:41:48.998Z</time></trkpt><trkpt lat="44.96170574375014" lon="-1.200737604542268"><ele>10.0</ele><time>2026-04-05T14:41:50.998Z</time></trkpt><trkpt lat="44.96167519048677" lon="-1.2006304258367917"><ele>10.0</ele><time>2026-04-05T14:41:51.998Z</time></trkpt><trkpt lat="44.9616533590258" lon="-1.2004715503711285"><ele>10.0</ele><time>2026-04-05T14:41:52.998Z</time></trkpt><trkpt lat="44.96164028615522" lon="-1.2002937711889583"><ele>10.25</ele><time>2026-04-05T14:41:53.998Z</time></trkpt><trkpt lat="44.96161513371332" lon="-1.2001071070167328"><ele>10.5</ele><time>2026-04-05T14:41:55Z</time></trkpt><trkpt lat="44.961588499455935" lon="-1.1999062449412135"><ele>10.75</ele><time>2026-04-05T14:41:56Z</time></trkpt><trkpt lat="44.96155792784764" lon="-1.1996747911819685"><ele>11.0</ele><time>2026-04-05T14:41:57Z</time></trkpt><trkpt lat="44.96153967066692" lon="-1.199458734249064"><ele>12.0</ele><time>2026-04-05T14:41:58Z</time></trkpt><trkpt lat="44.96152314680121" lon="-1.1992791914384047"><ele>13.0</ele><time>2026-04-05T14:41:59Z</time></trkpt><trkpt lat="44.96153080178475" lon="-1.199079777264732"><ele>14.0</ele><time>2026-04-05T14:42:00Z</time></trkpt><trkpt lat="44.96150728254138" lon="-1.1988264276957645"><ele>15.666666666666668</ele><time>2026-04-05T14:42:01Z</time></trkpt><trkpt lat="44.96146938686214" lon="-1.1985819370790831"><ele>17.333333333333332</ele><time>2026-04-05T14:42:02Z</time></trkpt><trkpt lat="44.96143721331371" lon="-1.1983232787689706"><ele>19.0</ele><time>2026-04-05T14:42:03Z</time></trkpt><trkpt lat="44.961418491225956" lon="-1.1981093172339488"><ele>20.25</ele><time>2026-04-05T14:42:04Z</time></trkpt><trkpt lat="44.961414424091735" lon="-1.1978932354957175"><ele>21.5</ele><time>2026-04-05T14:42:05Z</time></trkpt><trkpt lat="44.961414167230295" lon="-1.1976776584923772"><ele>22.75</ele><time>2026-04-05T14:42:06Z</time></trkpt><trkpt lat="44.96140521015633" lon="-1.1975020383670771"><ele>24.0</ele><time>2026-04-05T14:42:07Z</time></trkpt><trkpt lat="44.96139948051773" lon="-1.1973159486524283"><ele>24.5</ele><time>2026-04-05T14:42:08Z</time></trkpt><trkpt lat="44.961414628589715" lon="-1.1971225394197071"><ele>25.0</ele><time>2026-04-05T14:42:09Z</time></trkpt><trkpt lat="44.96142837785422" lon="-1.1969468299152988"><ele>25.5</ele><time>2026-04-05T14:42:10Z</time></trkpt><trkpt lat="44.96141249832975" lon="-1.1968182197782102"><ele>26.0</ele><time>2026-04-05T14:42:11Z</time></trkpt><trkpt lat="44.961385514670525" lon="-1.1966689428168769"><ele>25.75</ele><time>2026-04-05T14:42:12Z</time></trkpt><trkpt lat="44.96138138897296" lon="-1.196479031992593"><ele>25.5</ele><time>2026-04-05T14:42:13Z</time></trkpt><trkpt lat="44.961386808451195" lon="-1.1963021809683805"><ele>25.25</ele><time>2026-04-05T14:42:14Z</time></trkpt><trkpt lat="44.96137652538877" lon="-1.196151748606101"><ele>25.0</ele><time>2026-04-05T14:42:15Z</time></trkpt><trkpt lat="44.96135870619627" lon="-1.1960138280765902"><ele>25.0</ele><time>2026-04-05T14:42:16Z</time></trkpt><trkpt lat="44.96131939586675" lon="-1.1958550518236923"><ele>25.0</ele><time>2026-04-05T14:42:17Z</time></trkpt><trkpt lat="44.961291070374145" lon="-1.1957042682366519"><ele>25.0</ele><time>2026-04-05T14:42:18Z</time></trkpt><trkpt lat="44.96127575532162" lon="-1.1955604471201133"><ele>25.0</ele><time>2026-04-05T14:42:19Z</time></trkpt><trkpt lat="44.961277163241604" lon="-1.195413505579618"><ele>25.0</ele><time>2026-04-05T14:42:20Z</time></trkpt><trkpt lat="44.96129040818058" lon="-1.1952607243036575"><ele>24.2</ele><time>2026-04-05T14:42:21Z</time></trkpt><trkpt lat="44.961316432896574" lon="-1.1951150436662406"><ele>23.4</ele><time>2026-04-05T14:42:22Z</time></trkpt><trkpt lat="44.96134713323477" lon="-1.1949763106127262"><ele>22.6</ele><time>2026-04-05T14:42:23Z</time></trkpt><trkpt lat="44.96136795066588" lon="-1.194891758459527"><ele>21.8</ele><time>2026-04-05T14:42:24Z</time></trkpt><trkpt lat="44.96143497456789" lon="-1.194756886609958"><ele>21.0</ele><time>2026-04-05T14:42:26Z</time></trkpt><trkpt lat="44.961466755747324" lon="-1.1946680526609998"><ele>20.0</ele><time>2026-04-05T14:42:27Z</time></trkpt><trkpt lat="44.961486498409364" lon="-1.1945164672422475"><ele>19.0</ele><time>2026-04-05T14:42:28Z</time></trkpt><trkpt lat="44.96147918696309" lon="-1.1943723505541315"><ele>18.0</ele><time>2026-04-05T14:42:29Z</time></trkpt><trkpt lat="44.961453331478424" lon="-1.1941653707372952"><ele>17.0</ele><time>2026-04-05T14:42:29.999Z</time></trkpt><trkpt lat="44.96142780843083" lon="-1.1938941135744976"><ele>16.333333333333336</ele><time>2026-04-05T14:42:30.999Z</time></trkpt><trkpt lat="44.961421238171056" lon="-1.193598500622393"><ele>15.666666666666668</ele><time>2026-04-05T14:42:31.999Z</time></trkpt><trkpt lat="44.96140600131405" lon="-1.1932902957934721"><ele>15.0</ele><time>2026-04-05T14:42:32.999Z</time></trkpt><trkpt lat="44.96141221690676" lon="-1.1930506390422657"><ele>15.0</ele><time>2026-04-05T14:42:33.999Z</time></trkpt><trkpt lat="44.96141541690726" lon="-1.1928126307183018"><ele>15.0</ele><time>2026-04-05T14:42:34.999Z</time></trkpt><trkpt lat="44.96140464621432" lon="-1.1926139304372387"><ele>15.0</ele><time>2026-04-05T14:42:35.999Z</time></trkpt><trkpt lat="44.96137304518098" lon="-1.1923786103808738"><ele>15.666666666666668</ele><time>2026-04-05T14:42:36.999Z</time></trkpt><trkpt lat="44.96135445793419" lon="-1.1921124228849709"><ele>16.333333333333336</ele><time>2026-04-05T14:42:37.999Z</time></trkpt><trkpt lat="44.96134340367712" lon="-1.191850284640959"><ele>17.0</ele><time>2026-04-05T14:42:38.999Z</time></trkpt><trkpt lat="44.96134404458253" lon="-1.1916203195264807"><ele>18.333333333333336</ele><time>2026-04-05T14:42:39.999Z</time></trkpt><trkpt lat="44.9613675083006" lon="-1.191349564617675"><ele>19.666666666666668</ele><time>2026-04-05T14:42:40.999Z</time></trkpt><trkpt lat="44.961371108313294" lon="-1.1910502561348346"><ele>21.0</ele><time>2026-04-05T14:42:41.999Z</time></trkpt><trkpt lat="44.96135691854553" lon="-1.1907742338170628"><ele>21.0</ele><time>2026-04-05T14:42:42.999Z</time></trkpt><trkpt lat="44.96134420714488" lon="-1.1906029569102654"><ele>21.0</ele><time>2026-04-05T14:42:43.999Z</time></trkpt><trkpt lat="44.96133261245965" lon="-1.190445859202938"><ele>21.0</ele><time>2026-04-05T14:42:44.999Z</time></trkpt><trkpt lat="44.96132104078794" lon="-1.1902872334670747"><ele>21.0</ele><time>2026-04-05T14:42:45.999Z</time></trkpt><trkpt lat="44.96129979072648" lon="-1.190060476486915"><ele>21.0</ele><time>2026-04-05T14:42:46.999Z</time></trkpt><trkpt lat="44.96126694392451" lon="-1.1898479727861748"><ele>21.0</ele><time>2026-04-05T14:42:47.999Z</time></trkpt><trkpt lat="44.96124041677588" lon="-1.1896256095924937"><ele>21.0</ele><time>2026-04-05T14:42:48.999Z</time></trkpt><trkpt lat="44.96121274356619" lon="-1.189378334630357"><ele>21.0</ele><time>2026-04-05T14:42:49.999Z</time></trkpt><trkpt lat="44.961188457585" lon="-1.1891252333229696"><ele>21.0</ele><time>2026-04-05T14:42:50.999Z</time></trkpt><trkpt lat="44.96116601112161" lon="-1.1888827386784417"><ele>21.0</ele><time>2026-04-05T14:42:51.999Z</time></trkpt><trkpt lat="44.961145513097705" lon="-1.1886711238641878"><ele>21.5</ele><time>2026-04-05T14:42:52.999Z</time></trkpt><trkpt lat="44.96110908738523" lon="-1.1884715532932508"><ele>22.0</ele><time>2026-04-05T14:42:53.999Z</time></trkpt><trkpt lat="44.961060714833046" lon="-1.188267899022771"><ele>22.5</ele><time>2026-04-05T14:42:54.999Z</time></trkpt><trkpt lat="44.96101696867196" lon="-1.1880629827549998"><ele>23.0</ele><time>2026-04-05T14:42:55.999Z</time></trkpt><trkpt lat="44.9609679816511" lon="-1.1878293273454044"><ele>23.0</ele><time>2026-04-05T14:42:56.999Z</time></trkpt><trkpt lat="44.960903296618106" lon="-1.1876278536701226"><ele>23.0</ele><time>2026-04-05T14:42:57.999Z</time></trkpt><trkpt lat="44.96083239191998" lon="-1.187508442862411"><ele>23.0</ele><time>2026-04-05T14:42:58.999Z</time></trkpt><trkpt lat="44.96073288989174" lon="-1.1873853076236065"><ele>23.0</ele><time>2026-04-05T14:42:59.999Z</time></trkpt><trkpt lat="44.96062252013871" lon="-1.1873020076061809"><ele>23.0</ele><time>2026-04-05T14:43:00.999Z</time></trkpt><trkpt lat="44.960523422061534" lon="-1.1872325757911701"><ele>23.0</ele><time>2026-04-05T14:43:01.999Z</time></trkpt><trkpt lat="44.960394981602946" lon="-1.1871440584614221"><ele>23.0</ele><time>2026-04-05T14:43:02.999Z</time></trkpt><trkpt lat="44.96027038146801" lon="-1.1870066172311944"><ele>23.0</ele><time>2026-04-05T14:43:03.999Z</time></trkpt><trkpt lat="44.960162887845804" lon="-1.1868543569201189"><ele>23.0</ele><time>2026-04-05T14:43:04.999Z</time></trkpt><trkpt lat="44.96004522887383" lon="-1.1867312375286754"><ele>23.0</ele><time>2026-04-05T14:43:05.999Z</time></trkpt><trkpt lat="44.95993165143896" lon="-1.1865927413994093"><ele>23.0</ele><time>2026-04-05T14:43:06.999Z</time></trkpt><trkpt lat="44.95984122353953" lon="-1.1864681522250917"><ele>23.0</ele><time>2026-04-05T14:43:07.999Z</time></trkpt><trkpt lat="44.959782550990326" lon="-1.186349513816703"><ele>23.75</ele><time>2026-04-05T14:43:08.999Z</time></trkpt><trkpt lat="44.959734410628876" lon="-1.1862125542343074"><ele>24.5</ele><time>2026-04-05T14:43:09.999Z</time></trkpt><trkpt lat="44.959694537072984" lon="-1.186046346579248"><ele>25.25</ele><time>2026-04-05T14:43:10.999Z</time></trkpt><trkpt lat="44.959639945756976" lon="-1.1858401811651929"><ele>26.0</ele><time>2026-04-05T14:43:11.999Z</time></trkpt><trkpt lat="44.95960148434854" lon="-1.185638834346423"><ele>26.0</ele><time>2026-04-05T14:43:12.999Z</time></trkpt><trkpt lat="44.95955500628189" lon="-1.1854870599149754"><ele>26.0</ele><time>2026-04-05T14:43:13.999Z</time></trkpt><trkpt lat="44.95949203624141" lon="-1.185383833874081"><ele>26.0</ele><time>2026-04-05T14:43:14.999Z</time></trkpt><trkpt lat="44.959435669800115" lon="-1.1853205548888381"><ele>26.0</ele><time>2026-04-05T14:43:15.999Z</time></trkpt><trkpt lat="44.9593475913299" lon="-1.1852533302816164"><ele>26.0</ele><time>2026-04-05T14:43:16.998Z</time></trkpt><trkpt lat="44.95921870484643" lon="-1.1851688108977636"><ele>25.333333333333332</ele><time>2026-04-05T14:43:17.998Z</time></trkpt><trkpt lat="44.95902720658401" lon="-1.1850637661918955"><ele>24.666666666666664</ele><time>2026-04-05T14:43:18.998Z</time></trkpt><trkpt lat="44.95883366937329" lon="-1.1849565454705655"><ele>24.0</ele><time>2026-04-05T14:43:19.998Z</time></trkpt><trkpt lat="44.95869116792499" lon="-1.1848748862107636"><ele>23.75</ele><time>2026-04-05T14:43:20.998Z</time></trkpt><trkpt lat="44.95858334397353" lon="-1.1847782254257015"><ele>23.5</ele><time>2026-04-05T14:43:21.998Z</time></trkpt><trkpt lat="44.958426792536834" lon="-1.1846748259071354"><ele>23.25</ele><time>2026-04-05T14:43:22.998Z</time></trkpt><trkpt lat="44.95833426775285" lon="-1.1845637210929088"><ele>23.0</ele><time>2026-04-05T14:43:23.998Z</time></trkpt><trkpt lat="44.958247403210365" lon="-1.1844790861454968"><ele>22.666666666666668</ele><time>2026-04-05T14:43:24.998Z</time></trkpt><trkpt lat="44.95810396581968" lon="-1.1843883244310176"><ele>22.333333333333332</ele><time>2026-04-05T14:43:25.998Z</time></trkpt><trkpt lat="44.9579220364321" lon="-1.1842961933882392"><ele>22.0</ele><time>2026-04-05T14:43:26.998Z</time></trkpt><trkpt lat="44.95775705652403" lon="-1.1842449529247587"><ele>22.0</ele><time>2026-04-05T14:43:27.998Z</time></trkpt><trkpt lat="44.957592067437" lon="-1.1842225761160337"><ele>22.0</ele><time>2026-04-05T14:43:28.998Z</time></trkpt><trkpt lat="44.957420333715845" lon="-1.1842187871837813"><ele>22.0</ele><time>2026-04-05T14:43:29.998Z</time></trkpt><trkpt lat="44.9572538194963" lon="-1.1842310738173822"><ele>22.400000000000002</ele><time>2026-04-05T14:43:30.998Z</time></trkpt><trkpt lat="44.95712703462186" lon="-1.1842325425360327"><ele>22.8</ele><time>2026-04-05T14:43:31.998Z</time></trkpt><trkpt lat="44.95704364039638" lon="-1.1842139792152953"><ele>23.2</ele><time>2026-04-05T14:43:32.998Z</time></trkpt><trkpt lat="44.95697273989293" lon="-1.1841798020017256"><ele>23.6</ele><time>2026-04-05T14:43:33.998Z</time></trkpt><trkpt lat="44.95682417297928" lon="-1.1842029550805333"><ele>24.0</ele><time>2026-04-05T14:43:35.998Z</time></trkpt><trkpt lat="44.956686328157666" lon="-1.1842779399862846"><ele>22.25</ele><time>2026-04-05T14:43:36.998Z</time></trkpt><trkpt lat="44.956547513478775" lon="-1.184343364505062"><ele>20.5</ele><time>2026-04-05T14:43:37.998Z</time></trkpt><trkpt lat="44.95640338035455" lon="-1.184355694315108"><ele>18.75</ele><time>2026-04-05T14:43:38.998Z</time></trkpt><trkpt lat="44.956258511315326" lon="-1.1843279526435162"><ele>17.0</ele><time>2026-04-05T14:43:39.998Z</time></trkpt><trkpt lat="44.95613271205744" lon="-1.184281391572305"><ele>17.0</ele><time>2026-04-05T14:43:40.998Z</time></trkpt><trkpt lat="44.95601722732727" lon="-1.184213721405698"><ele>17.0</ele><time>2026-04-05T14:43:41.998Z</time></trkpt><trkpt lat="44.95592035553141" lon="-1.1841177152485571"><ele>17.0</ele><time>2026-04-05T14:43:42.998Z</time></trkpt><trkpt lat="44.9558459844913" lon="-1.183987379263388"><ele>17.0</ele><time>2026-04-05T14:43:43.998Z</time></trkpt><trkpt lat="44.955778405478554" lon="-1.183814525209928"><ele>16.5</ele><time>2026-04-05T14:43:44.998Z</time></trkpt><trkpt lat="44.955713570047216" lon="-1.1836108414911646"><ele>16.0</ele><time>2026-04-05T14:43:45.998Z</time></trkpt><trkpt lat="44.95565868903174" lon="-1.1834099744150173"><ele>15.5</ele><time>2026-04-05T14:43:46.998Z</time></trkpt><trkpt lat="44.95559552288168" lon="-1.1832798239088205"><ele>15.0</ele><time>2026-04-05T14:43:47.998Z</time></trkpt><trkpt lat="44.955548085747324" lon="-1.1831826721350087"><ele>15.8</ele><time>2026-04-05T14:43:48.998Z</time></trkpt><trkpt lat="44.9555158019887" lon="-1.1830716734747964"><ele>16.6</ele><time>2026-04-05T14:43:49.998Z</time></trkpt><trkpt lat="44.95548763519538" lon="-1.1829841896701363"><ele>17.4</ele><time>2026-04-05T14:43:50.998Z</time></trkpt><trkpt lat="44.95541158815354" lon="-1.1828546562090931"><ele>18.2</ele><time>2026-04-05T14:43:51.998Z</time></trkpt><trkpt lat="44.95532838840414" lon="-1.1827721033760688"><ele>19.0</ele><time>2026-04-05T14:43:52.998Z</time></trkpt><trkpt lat="44.95524793281084" lon="-1.1826356875438697"><ele>19.0</ele><time>2026-04-05T14:43:53.998Z</time></trkpt><trkpt lat="44.95518033952504" lon="-1.1824999983378612"><ele>19.0</ele><time>2026-04-05T14:43:54.998Z</time></trkpt><trkpt lat="44.95513672499406" lon="-1.1823894230134706"><ele>19.0</ele><time>2026-04-05T14:43:55.998Z</time></trkpt><trkpt lat="44.95511060005392" lon="-1.1822883778548163"><ele>19.0</ele><time>2026-04-05T14:43:56.998Z</time></trkpt><trkpt lat="44.955085021421304" lon="-1.182189776459215"><ele>19.0</ele><time>2026-04-05T14:43:57.998Z</time></trkpt><trkpt lat="44.95505100829467" lon="-1.1820845527026853"><ele>19.0</ele><time>2026-04-05T14:43:58.998Z</time></trkpt><trkpt lat="44.95509519707954" lon="-1.1820176685633514"><ele>19.166666666666664</ele><time>2026-04-05T14:44:02Z</time></trkpt><trkpt lat="44.955140405466686" lon="-1.181884382507944"><ele>19.333333333333332</ele><time>2026-04-05T14:44:05Z</time></trkpt><trkpt lat="44.95517362589365" lon="-1.1817855430736897"><ele>19.5</ele><time>2026-04-05T14:44:07Z</time></trkpt><trkpt lat="44.955227859261676" lon="-1.181695206028044"><ele>19.666666666666668</ele><time>2026-04-05T14:44:09Z</time></trkpt><trkpt lat="44.95531432872548" lon="-1.1816008688433506"><ele>19.833333333333336</ele><time>2026-04-05T14:44:11Z</time></trkpt><trkpt lat="44.95537069738932" lon="-1.1815516877269376"><ele>20.0</ele><time>2026-04-05T14:44:12Z</time></trkpt><trkpt lat="44.95544018585992" lon="-1.1814966967206761"><ele>20.5</ele><time>2026-04-05T14:44:13Z</time></trkpt><trkpt lat="44.95552408069208" lon="-1.1814206955402482"><ele>21.0</ele><time>2026-04-05T14:44:14Z</time></trkpt><trkpt lat="44.95562890982737" lon="-1.1813101629767175"><ele>21.5</ele><time>2026-04-05T14:44:15Z</time></trkpt><trkpt lat="44.955741814488206" lon="-1.181186018624945"><ele>22.0</ele><time>2026-04-05T14:44:16Z</time></trkpt><trkpt lat="44.95586049313894" lon="-1.1810370806655448"><ele>23.666666666666664</ele><time>2026-04-05T14:44:17Z</time></trkpt><trkpt lat="44.95598566804266" lon="-1.18087352577656"><ele>25.333333333333332</ele><time>2026-04-05T14:44:18Z</time></trkpt><trkpt lat="44.95610788389963" lon="-1.1806982330291589"><ele>27.0</ele><time>2026-04-05T14:44:19Z</time></trkpt><trkpt lat="44.95623440639079" lon="-1.1805096403846598"><ele>27.0</ele><time>2026-04-05T14:44:20Z</time></trkpt><trkpt lat="44.956305236936615" lon="-1.1803692134483164"><ele>27.0</ele><time>2026-04-05T14:44:21Z</time></trkpt><trkpt lat="44.95634219157958" lon="-1.1801861017985664"><ele>27.0</ele><time>2026-04-05T14:44:22Z</time></trkpt><trkpt lat="44.95639044638616" lon="-1.1799645719100622"><ele>27.0</ele><time>2026-04-05T14:44:23Z</time></trkpt><trkpt lat="44.95645564111077" lon="-1.179742853496484"><ele>26.333333333333336</ele><time>2026-04-05T14:44:24Z</time></trkpt><trkpt lat="44.956503014720816" lon="-1.1795332566572017"><ele>25.666666666666668</ele><time>2026-04-05T14:44:25Z</time></trkpt><trkpt lat="44.95657300454154" lon="-1.1792671710913512"><ele>25.0</ele><time>2026-04-05T14:44:26Z</time></trkpt><trkpt lat="44.95664590392752" lon="-1.179044420853697"><ele>25.666666666666668</ele><time>2026-04-05T14:44:27Z</time></trkpt><trkpt lat="44.956708644745305" lon="-1.1788751024490056"><ele>26.333333333333336</ele><time>2026-04-05T14:44:28Z</time></trkpt><trkpt lat="44.95675998859591" lon="-1.17864468594549"><ele>27.0</ele><time>2026-04-05T14:44:29Z</time></trkpt><trkpt lat="44.956820042281954" lon="-1.1784072648541015"><ele>26.5</ele><time>2026-04-05T14:44:30Z</time></trkpt><trkpt lat="44.956869356024136" lon="-1.178183037826134"><ele>26.0</ele><time>2026-04-05T14:44:31Z</time></trkpt><trkpt lat="44.956913838297595" lon="-1.1779910855698135"><ele>25.5</ele><time>2026-04-05T14:44:32Z</time></trkpt><trkpt lat="44.95691750788103" lon="-1.177822362113656"><ele>25.0</ele><time>2026-04-05T14:44:33Z</time></trkpt><trkpt lat="44.95692262565077" lon="-1.1776849992646559"><ele>25.0</ele><time>2026-04-05T14:44:33.999Z</time></trkpt><trkpt lat="44.95693152959629" lon="-1.177512873998275"><ele>25.0</ele><time>2026-04-05T14:44:34.999Z</time></trkpt><trkpt lat="44.956950205457694" lon="-1.1773219296032884"><ele>25.0</ele><time>2026-04-05T14:44:35.999Z</time></trkpt><trkpt lat="44.956993927832414" lon="-1.1770927942088776"><ele>25.0</ele><time>2026-04-05T14:44:36.999Z</time></trkpt><trkpt lat="44.95703265997486" lon="-1.1768896237762347"><ele>25.0</ele><time>2026-04-05T14:44:37.999Z</time></trkpt><trkpt lat="44.9570430093539" lon="-1.1766639917130381"><ele>25.0</ele><time>2026-04-05T14:44:38.999Z</time></trkpt><trkpt lat="44.95704150701641" lon="-1.176486798755127"><ele>25.0</ele><time>2026-04-05T14:44:39.999Z</time></trkpt><trkpt lat="44.957057523336225" lon="-1.1762926651597239"><ele>25.0</ele><time>2026-04-05T14:44:40.999Z</time></trkpt><trkpt lat="44.95709538952153" lon="-1.1760521328088789"><ele>25.0</ele><time>2026-04-05T14:44:41.999Z</time></trkpt><trkpt lat="44.95714074838188" lon="-1.1757890027072364"><ele>25.0</ele><time>2026-04-05T14:44:42.999Z</time></trkpt><trkpt lat="44.957167153148994" lon="-1.1755598871948492"><ele>25.0</ele><time>2026-04-05T14:44:43.999Z</time></trkpt><trkpt lat="44.9571771453455" lon="-1.1753575105641363"><ele>25.6</ele><time>2026-04-05T14:44:44.999Z</time></trkpt><trkpt lat="44.9571630969728" lon="-1.1752000561899532"><ele>26.2</ele><time>2026-04-05T14:44:45.999Z</time></trkpt><trkpt lat="44.957141954922314" lon="-1.1750583793830742"><ele>26.799999999999997</ele><time>2026-04-05T14:44:46.999Z</time></trkpt><trkpt lat="44.95711036810154" lon="-1.1749695571995884"><ele>27.4</ele><time>2026-04-05T14:44:47.999Z</time></trkpt><trkpt lat="44.957061358770865" lon="-1.1748538630730525"><ele>28.0</ele><time>2026-04-05T14:44:49.999Z</time></trkpt><trkpt lat="44.95696236169575" lon="-1.1747897705665875"><ele>27.25</ele><time>2026-04-05T14:44:51.999Z</time></trkpt><trkpt lat="44.95685240202677" lon="-1.1746780357718634"><ele>26.5</ele><time>2026-04-05T14:44:53.999Z</time></trkpt><trkpt lat="44.95675086555788" lon="-1.1745898221913726"><ele>25.75</ele><time>2026-04-05T14:44:54.999Z</time></trkpt><trkpt lat="44.956661225374795" lon="-1.174491811833665"><ele>25.0</ele><time>2026-04-05T14:44:55.999Z</time></trkpt><trkpt lat="44.956604792764026" lon="-1.1743621179782664"><ele>25.0</ele><time>2026-04-05T14:44:56.999Z</time></trkpt><trkpt lat="44.95655367686608" lon="-1.1741996424444925"><ele>25.0</ele><time>2026-04-05T14:44:57.999Z</time></trkpt><trkpt lat="44.95650308725982" lon="-1.174003686180444"><ele>25.0</ele><time>2026-04-05T14:44:58.999Z</time></trkpt><trkpt lat="44.956467847912464" lon="-1.1738270840640685"><ele>25.0</ele><time>2026-04-05T14:44:59.999Z</time></trkpt><trkpt lat="44.95640584630954" lon="-1.1736783545644314"><ele>25.0</ele><time>2026-04-05T14:45:00.999Z</time></trkpt><trkpt lat="44.95634496257536" lon="-1.1735231254444032"><ele>25.0</ele><time>2026-04-05T14:45:01.999Z</time></trkpt><trkpt lat="44.95626051635655" lon="-1.173335647254912"><ele>25.0</ele><time>2026-04-05T14:45:02.999Z</time></trkpt><trkpt lat="44.95615064242938" lon="-1.1731606555574414"><ele>25.0</ele><time>2026-04-05T14:45:03.999Z</time></trkpt><trkpt lat="44.95605222486714" lon="-1.1729844984631086"><ele>24.75</ele><time>2026-04-05T14:45:04.999Z</time></trkpt><trkpt lat="44.95598427176291" lon="-1.172836579595558"><ele>24.5</ele><time>2026-04-05T14:45:05.999Z</time></trkpt><trkpt lat="44.955913764456966" lon="-1.1727024512427873"><ele>24.25</ele><time>2026-04-05T14:45:06.999Z</time></trkpt><trkpt lat="44.95585145311704" lon="-1.1725208302138197"><ele>24.0</ele><time>2026-04-05T14:45:07.999Z</time></trkpt><trkpt lat="44.9558019851907" lon="-1.172299118529894"><ele>24.0</ele><time>2026-04-05T14:45:08.999Z</time></trkpt><trkpt lat="44.95579997797751" lon="-1.1720863578679328"><ele>24.0</ele><time>2026-04-05T14:45:09.999Z</time></trkpt><trkpt lat="44.95580158649364" lon="-1.1718671606101878"><ele>24.0</ele><time>2026-04-05T14:45:10.999Z</time></trkpt><trkpt lat="44.9558287860531" lon="-1.1716673757175529"><ele>25.0</ele><time>2026-04-05T14:45:11.999Z</time></trkpt><trkpt lat="44.95588397615028" lon="-1.1714706337812848"><ele>26.0</ele><time>2026-04-05T14:45:12.999Z</time></trkpt><trkpt lat="44.955952321878215" lon="-1.1712406055673812"><ele>27.0</ele><time>2026-04-05T14:45:13.999Z</time></trkpt><trkpt lat="44.956010247008834" lon="-1.171002968145231"><ele>27.0</ele><time>2026-04-05T14:45:14.999Z</time></trkpt><trkpt lat="44.95605700540218" lon="-1.1707742730693746"><ele>27.0</ele><time>2026-04-05T14:45:15.999Z</time></trkpt><trkpt lat="44.95611688323806" lon="-1.1705948588777069"><ele>27.0</ele><time>2026-04-05T14:45:16.999Z</time></trkpt><trkpt lat="44.95615652825284" lon="-1.170407630938315"><ele>27.0</ele><time>2026-04-05T14:45:17.999Z</time></trkpt><trkpt lat="44.95616843837512" lon="-1.1701965035557576"><ele>27.75</ele><time>2026-04-05T14:45:18.999Z</time></trkpt><trkpt lat="44.9561856159599" lon="-1.1699777454949103"><ele>28.5</ele><time>2026-04-05T14:45:19.999Z</time></trkpt><trkpt lat="44.9561668120202" lon="-1.1698906299858756"><ele>29.25</ele><time>2026-04-05T14:45:20.998Z</time></trkpt><trkpt lat="44.956148970371984" lon="-1.1697231939697057"><ele>30.0</ele><time>2026-04-05T14:45:21.998Z</time></trkpt><trkpt lat="44.95610810757251" lon="-1.1695381542382728"><ele>31.0</ele><time>2026-04-05T14:45:22.998Z</time></trkpt><trkpt lat="44.9560681672679" lon="-1.1693473210383447"><ele>32.0</ele><time>2026-04-05T14:45:23.998Z</time></trkpt><trkpt lat="44.9560101329249" lon="-1.1691614670800237"><ele>33.0</ele><time>2026-04-05T14:45:24.998Z</time></trkpt><trkpt lat="44.95593879593377" lon="-1.1690040917927462"><ele>34.0</ele><time>2026-04-05T14:45:25.998Z</time></trkpt><trkpt lat="44.95587900197058" lon="-1.1688134341528773"><ele>34.333333333333336</ele><time>2026-04-05T14:45:26.998Z</time></trkpt><trkpt lat="44.955855890051" lon="-1.168610379852008"><ele>34.666666666666664</ele><time>2026-04-05T14:45:27.998Z</time></trkpt><trkpt lat="44.955863371492114" lon="-1.168381052259465"><ele>35.0</ele><time>2026-04-05T14:45:28.998Z</time></trkpt><trkpt lat="44.95588247188309" lon="-1.1681825781491337"><ele>35.0</ele><time>2026-04-05T14:45:29.998Z</time></trkpt><trkpt lat="44.955918970984335" lon="-1.1680517222456133"><ele>35.0</ele><time>2026-04-05T14:45:30.998Z</time></trkpt><trkpt lat="44.955972909943995" lon="-1.1678574938436372"><ele>35.0</ele><time>2026-04-05T14:45:31.998Z</time></trkpt><trkpt lat="44.956031393958135" lon="-1.1676351106578184"><ele>35.0</ele><time>2026-04-05T14:45:32.998Z</time></trkpt><trkpt lat="44.95608470342896" lon="-1.1674623941302846"><ele>33.75</ele><time>2026-04-05T14:45:33.998Z</time></trkpt><trkpt lat="44.95614384127635" lon="-1.1673242669258057"><ele>32.5</ele><time>2026-04-05T14:45:34.998Z</time></trkpt><trkpt lat="44.95620308844597" lon="-1.1671911886365893"><ele>31.25</ele><time>2026-04-05T14:45:35.998Z</time></trkpt><trkpt lat="44.95626337458008" lon="-1.1670479501697735"><ele>30.0</ele><time>2026-04-05T14:45:36.998Z</time></trkpt><trkpt lat="44.956326485523896" lon="-1.1668934482064686"><ele>30.0</ele><time>2026-04-05T14:45:37.998Z</time></trkpt><trkpt lat="44.95639722100967" lon="-1.166781077406461"><ele>30.0</ele><time>2026-04-05T14:45:38.998Z</time></trkpt><trkpt lat="44.95646578525776" lon="-1.1666397664876758"><ele>30.0</ele><time>2026-04-05T14:45:39.998Z</time></trkpt><trkpt lat="44.956523895458176" lon="-1.1664436353528036"><ele>30.0</ele><time>2026-04-05T14:45:40.998Z</time></trkpt><trkpt lat="44.95659160300733" lon="-1.1662346115119193"><ele>29.75</ele><time>2026-04-05T14:45:41.998Z</time></trkpt><trkpt lat="44.956633018190516" lon="-1.1660723296087323"><ele>29.5</ele><time>2026-04-05T14:45:42.998Z</time></trkpt><trkpt lat="44.956654278065024" lon="-1.1658842414794317"><ele>29.25</ele><time>2026-04-05T14:45:43.998Z</time></trkpt><trkpt lat="44.95665220044394" lon="-1.165723002617586"><ele>29.0</ele><time>2026-04-05T14:45:44.998Z</time></trkpt><trkpt lat="44.95665338654407" lon="-1.1655948988515445"><ele>28.333333333333332</ele><time>2026-04-05T14:45:45.998Z</time></trkpt><trkpt lat="44.95666752470607" lon="-1.1654888001031145"><ele>27.666666666666664</ele><time>2026-04-05T14:45:46.998Z</time></trkpt><trkpt lat="44.956682181738316" lon="-1.1653919931497836"><ele>27.0</ele><time>2026-04-05T14:45:47.998Z</time></trkpt><trkpt lat="44.95670028140659" lon="-1.1652860653540509"><ele>26.333333333333336</ele><time>2026-04-05T14:45:48.998Z</time></trkpt><trkpt lat="44.95670651586079" lon="-1.165178308096482"><ele>25.666666666666668</ele><time>2026-04-05T14:45:49.998Z</time></trkpt><trkpt lat="44.95671289019884" lon="-1.1650331728639685"><ele>25.0</ele><time>2026-04-05T14:45:50.998Z</time></trkpt><trkpt lat="44.956753467076105" lon="-1.1648665062779755"><ele>24.500000000000004</ele><time>2026-04-05T14:45:51.998Z</time></trkpt><trkpt lat="44.95679946460527" lon="-1.1647604871433803"><ele>24.0</ele><time>2026-04-05T14:45:52.998Z</time></trkpt><trkpt lat="44.95685701371953" lon="-1.1646293427012173"><ele>23.5</ele><time>2026-04-05T14:45:53.998Z</time></trkpt><trkpt lat="44.956927198848234" lon="-1.1645451959035"><ele>23.0</ele><time>2026-04-05T14:45:54.998Z</time></trkpt><trkpt lat="44.95700109222337" lon="-1.164499143294366"><ele>22.5</ele><time>2026-04-05T14:45:55.998Z</time></trkpt><trkpt lat="44.95707505996773" lon="-1.1645067136946097"><ele>22.0</ele><time>2026-04-05T14:45:56.998Z</time></trkpt><trkpt lat="44.95717121920543" lon="-1.1644818475745478"><ele>22.0</ele><time>2026-04-05T14:45:57.998Z</time></trkpt><trkpt lat="44.957319708078764" lon="-1.1644469816321878"><ele>22.0</ele><time>2026-04-05T14:45:58.998Z</time></trkpt><trkpt lat="44.95749739398994" lon="-1.16441551532296"><ele>22.0</ele><time>2026-04-05T14:45:59.998Z</time></trkpt><trkpt lat="44.957685614419965" lon="-1.1643786013531252"><ele>22.5</ele><time>2026-04-05T14:46:00.998Z</time></trkpt><trkpt lat="44.95784080941769" lon="-1.1643114709818456"><ele>23.0</ele><time>2026-04-05T14:46:01.998Z</time></trkpt><trkpt lat="44.957945203068014" lon="-1.164261526232926"><ele>23.5</ele><time>2026-04-05T14:46:02.998Z</time></trkpt><trkpt lat="44.95801727207707" lon="-1.1641809878446479"><ele>24.0</ele><time>2026-04-05T14:46:03.998Z</time></trkpt><trkpt lat="44.95808795321223" lon="-1.1640312782597437"><ele>23.75</ele><time>2026-04-05T14:46:04.998Z</time></trkpt><trkpt lat="44.958151924547245" lon="-1.1639197114138398"><ele>23.5</ele><time>2026-04-05T14:46:06Z</time></trkpt><trkpt lat="44.95822813842924" lon="-1.1637136608476362"><ele>23.25</ele><time>2026-04-05T14:46:07Z</time></trkpt><trkpt lat="44.95831573966743" lon="-1.163532503970564"><ele>23.0</ele><time>2026-04-05T14:46:08Z</time></trkpt><trkpt lat="44.95838920056018" lon="-1.1633861987723941"><ele>22.75</ele><time>2026-04-05T14:46:09Z</time></trkpt><trkpt lat="44.958438633680586" lon="-1.163193405067672"><ele>22.5</ele><time>2026-04-05T14:46:10Z</time></trkpt><trkpt lat="44.95848189247129" lon="-1.1629760313539237"><ele>22.25</ele><time>2026-04-05T14:46:11Z</time></trkpt><trkpt lat="44.95854601284071" lon="-1.1628222698070787"><ele>22.0</ele><time>2026-04-05T14:46:12Z</time></trkpt><trkpt lat="44.95859933459064" lon="-1.1626961821830504"><ele>22.0</ele><time>2026-04-05T14:46:13Z</time></trkpt><trkpt lat="44.95867401611918" lon="-1.1625086962235027"><ele>22.0</ele><time>2026-04-05T14:46:14Z</time></trkpt><trkpt lat="44.958731589813276" lon="-1.1623652017690884"><ele>22.0</ele><time>2026-04-05T14:46:15Z</time></trkpt><trkpt lat="44.95880225915433" lon="-1.1622012712405316"><ele>22.0</ele><time>2026-04-05T14:46:16Z</time></trkpt><trkpt lat="44.95889031894197" lon="-1.1619651864426832"><ele>22.0</ele><time>2026-04-05T14:46:17Z</time></trkpt><trkpt lat="44.95894757259208" lon="-1.1617672867735822"><ele>22.0</ele><time>2026-04-05T14:46:18Z</time></trkpt><trkpt lat="44.95901476647505" lon="-1.1616048969595674"><ele>22.0</ele><time>2026-04-05T14:46:19Z</time></trkpt><trkpt lat="44.95909315996594" lon="-1.161447512635059"><ele>22.0</ele><time>2026-04-05T14:46:20Z</time></trkpt><trkpt lat="44.95916990833617" lon="-1.1612921765761874"><ele>22.0</ele><time>2026-04-05T14:46:21Z</time></trkpt><trkpt lat="44.95924505191687" lon="-1.1611177903560796"><ele>22.0</ele><time>2026-04-05T14:46:22Z</time></trkpt><trkpt lat="44.95932098977667" lon="-1.1609605872977933"><ele>22.0</ele><time>2026-04-05T14:46:23Z</time></trkpt><trkpt lat="44.95940075236655" lon="-1.1607914083131987"><ele>22.0</ele><time>2026-04-05T14:46:24Z</time></trkpt><trkpt lat="44.959468561753596" lon="-1.1605960086849179"><ele>22.0</ele><time>2026-04-05T14:46:25Z</time></trkpt><trkpt lat="44.95951860873587" lon="-1.1603576271046252"><ele>22.0</ele><time>2026-04-05T14:46:26Z</time></trkpt><trkpt lat="44.95956197952898" lon="-1.1601067231597564"><ele>22.0</ele><time>2026-04-05T14:46:27Z</time></trkpt><trkpt lat="44.95960102132624" lon="-1.159971359132598"><ele>22.0</ele><time>2026-04-05T14:46:28Z</time></trkpt><trkpt lat="44.959629542439814" lon="-1.1598242719505227"><ele>22.0</ele><time>2026-04-05T14:46:29Z</time></trkpt><trkpt lat="44.95966287809616" lon="-1.1596217894953702"><ele>22.0</ele><time>2026-04-05T14:46:30Z</time></trkpt><trkpt lat="44.959685700886055" lon="-1.1594117679335942"><ele>22.0</ele><time>2026-04-05T14:46:31Z</time></trkpt><trkpt lat="44.959720180612095" lon="-1.1592072556121387"><ele>22.0</ele><time>2026-04-05T14:46:32Z</time></trkpt><trkpt lat="44.95974670306975" lon="-1.159037676953312"><ele>22.0</ele><time>2026-04-05T14:46:33Z</time></trkpt><trkpt lat="44.95975925826964" lon="-1.1588411952012896"><ele>22.0</ele><time>2026-04-05T14:46:33.999Z</time></trkpt><trkpt lat="44.959752571138814" lon="-1.1586237842242921"><ele>22.0</ele><time>2026-04-05T14:46:34.999Z</time></trkpt><trkpt lat="44.9597535467124" lon="-1.1583799917823074"><ele>21.5</ele><time>2026-04-05T14:46:35.999Z</time></trkpt><trkpt lat="44.95971435658357" lon="-1.1581393147634536"><ele>21.0</ele><time>2026-04-05T14:46:36.999Z</time></trkpt><trkpt lat="44.95968079560129" lon="-1.1579214331267043"><ele>20.5</ele><time>2026-04-05T14:46:37.999Z</time></trkpt><trkpt lat="44.95966543606926" lon="-1.157775226600339"><ele>20.0</ele><time>2026-04-05T14:46:38.999Z</time></trkpt><trkpt lat="44.95964777678346" lon="-1.1576380086797344"><ele>20.0</ele><time>2026-04-05T14:46:39.999Z</time></trkpt><trkpt lat="44.95963767362528" lon="-1.1575456384040708"><ele>20.0</ele><time>2026-04-05T14:46:40.999Z</time></trkpt><trkpt lat="44.95962633220712" lon="-1.1574407423593183"><ele>20.0</ele><time>2026-04-05T14:46:41.999Z</time></trkpt><trkpt lat="44.95960218894201" lon="-1.1572390633784724"><ele>20.0</ele><time>2026-04-05T14:46:42.999Z</time></trkpt><trkpt lat="44.959570927642616" lon="-1.1570365626903376"><ele>20.0</ele><time>2026-04-05T14:46:43.999Z</time></trkpt><trkpt lat="44.95954748885772" lon="-1.15680010315722"><ele>20.0</ele><time>2026-04-05T14:46:44.999Z</time></trkpt><trkpt lat="44.95952123232714" lon="-1.1565600649001142"><ele>20.0</ele><time>2026-04-05T14:46:45.999Z</time></trkpt><trkpt lat="44.959499707475494" lon="-1.1563276012011157"><ele>20.0</ele><time>2026-04-05T14:46:46.999Z</time></trkpt><trkpt lat="44.95947157168027" lon="-1.1560752639980059"><ele>20.333333333333336</ele><time>2026-04-05T14:46:47.999Z</time></trkpt><trkpt lat="44.95943256714134" lon="-1.1558600477625731"><ele>20.666666666666668</ele><time>2026-04-05T14:46:48.999Z</time></trkpt><trkpt lat="44.95939674671211" lon="-1.155630586697992"><ele>21.0</ele><time>2026-04-05T14:46:49.999Z</time></trkpt><trkpt lat="44.95937806148389" lon="-1.1554518523276562"><ele>21.8</ele><time>2026-04-05T14:46:50.999Z</time></trkpt><trkpt lat="44.959344023020186" lon="-1.155289037257249"><ele>22.6</ele><time>2026-04-05T14:46:51.999Z</time></trkpt><trkpt lat="44.95931289382193" lon="-1.1551451054018513"><ele>23.4</ele><time>2026-04-05T14:46:52.999Z</time></trkpt><trkpt lat="44.959275135734345" lon="-1.1550040259578276"><ele>24.2</ele><time>2026-04-05T14:46:53.999Z</time></trkpt><trkpt lat="44.95923111549775" lon="-1.1548588253009657"><ele>25.0</ele><time>2026-04-05T14:46:54.999Z</time></trkpt><trkpt lat="44.959207341784115" lon="-1.154721912625172"><ele>24.5</ele><time>2026-04-05T14:46:55.999Z</time></trkpt><trkpt lat="44.95919429040679" lon="-1.1545344076099655"><ele>24.0</ele><time>2026-04-05T14:46:56.999Z</time></trkpt><trkpt lat="44.9592157026007" lon="-1.1543557091819623"><ele>23.5</ele><time>2026-04-05T14:46:57.999Z</time></trkpt><trkpt lat="44.95921949604418" lon="-1.1541938609878784"><ele>23.0</ele><time>2026-04-05T14:46:58.999Z</time></trkpt><trkpt lat="44.95923292051506" lon="-1.1540449926752154"><ele>23.166666666666668</ele><time>2026-04-05T14:46:59.999Z</time></trkpt><trkpt lat="44.959255221698236" lon="-1.1539540171890337"><ele>23.333333333333336</ele><time>2026-04-05T14:47:00.999Z</time></trkpt><trkpt lat="44.95927759778066" lon="-1.1538471476256331"><ele>23.5</ele><time>2026-04-05T14:47:01.999Z</time></trkpt><trkpt lat="44.95930251570192" lon="-1.153759001119677"><ele>23.666666666666668</ele><time>2026-04-05T14:47:02.999Z</time></trkpt><trkpt lat="44.959301788353706" lon="-1.153646491951825"><ele>23.833333333333332</ele><time>2026-04-05T14:47:03.999Z</time></trkpt><trkpt lat="44.95925788815329" lon="-1.15354282343747"><ele>24.0</ele><time>2026-04-05T14:47:04.999Z</time></trkpt><trkpt lat="44.959213081852425" lon="-1.1534427615630558"><ele>23.25</ele><time>2026-04-05T14:47:05.999Z</time></trkpt><trkpt lat="44.9591974969147" lon="-1.1532736806016968"><ele>22.5</ele><time>2026-04-05T14:47:06.999Z</time></trkpt><trkpt lat="44.9591800573054" lon="-1.1531031162735557"><ele>21.75</ele><time>2026-04-05T14:47:07.999Z</time></trkpt><trkpt lat="44.95917323933015" lon="-1.152931869048468"><ele>21.0</ele><time>2026-04-05T14:47:08.999Z</time></trkpt><trkpt lat="44.959168321123975" lon="-1.1527392370115441"><ele>21.0</ele><time>2026-04-05T14:47:09.999Z</time></trkpt><trkpt lat="44.95915944844118" lon="-1.1524999901258572"><ele>21.0</ele><time>2026-04-05T14:47:10.999Z</time></trkpt><trkpt lat="44.95912751147586" lon="-1.1522976122054076"><ele>21.0</ele><time>2026-04-05T14:47:11.999Z</time></trkpt><trkpt lat="44.95910207364053" lon="-1.1521562400134027"><ele>21.0</ele><time>2026-04-05T14:47:12.999Z</time></trkpt><trkpt lat="44.959100544964244" lon="-1.152013756938367"><ele>21.0</ele><time>2026-04-05T14:47:13.999Z</time></trkpt><trkpt lat="44.9590944893409" lon="-1.151780653633347"><ele>21.0</ele><time>2026-04-05T14:47:14.999Z</time></trkpt><trkpt lat="44.959096900531975" lon="-1.1515324994175011"><ele>21.0</ele><time>2026-04-05T14:47:15.999Z</time></trkpt><trkpt lat="44.95908257667593" lon="-1.1512638821992753"><ele>21.0</ele><time>2026-04-05T14:47:16.999Z</time></trkpt><trkpt lat="44.959069988844554" lon="-1.1509952133153767"><ele>21.0</ele><time>2026-04-05T14:47:17.999Z</time></trkpt><trkpt lat="44.95907039432536" lon="-1.1507226280780556"><ele>21.0</ele><time>2026-04-05T14:47:18.999Z</time></trkpt><trkpt lat="44.95905363416192" lon="-1.1505071366292008"><ele>21.0</ele><time>2026-04-05T14:47:19.999Z</time></trkpt><trkpt lat="44.95904107016895" lon="-1.1502881612712479"><ele>21.0</ele><time>2026-04-05T14:47:20.998Z</time></trkpt><trkpt lat="44.95902274224782" lon="-1.1500878022419228"><ele>21.0</ele><time>2026-04-05T14:47:21.998Z</time></trkpt><trkpt lat="44.95898696299667" lon="-1.1498450647930352"><ele>21.0</ele><time>2026-04-05T14:47:22.998Z</time></trkpt><trkpt lat="44.958972255173684" lon="-1.1495934032762385"><ele>21.0</ele><time>2026-04-05T14:47:23.998Z</time></trkpt><trkpt lat="44.95896567184017" lon="-1.1493010678585085"><ele>21.0</ele><time>2026-04-05T14:47:24.998Z</time></trkpt><trkpt lat="44.95894320285352" lon="-1.148990283636765"><ele>21.0</ele><time>2026-04-05T14:47:25.998Z</time></trkpt><trkpt lat="44.958924179528196" lon="-1.1486909963876901"><ele>21.0</ele><time>2026-04-05T14:47:26.998Z</time></trkpt><trkpt lat="44.95890018968364" lon="-1.1483587267941164"><ele>21.0</ele><time>2026-04-05T14:47:27.998Z</time></trkpt><trkpt lat="44.95888119504163" lon="-1.148024818311453"><ele>21.0</ele><time>2026-04-05T14:47:28.998Z</time></trkpt><trkpt lat="44.95886911758686" lon="-1.147731101715945"><ele>21.0</ele><time>2026-04-05T14:47:29.998Z</time></trkpt><trkpt lat="44.958851635222885" lon="-1.1474863178224086"><ele>21.0</ele><time>2026-04-05T14:47:30.998Z</time></trkpt><trkpt lat="44.9588372526494" lon="-1.1472508868351183"><ele>21.333333333333332</ele><time>2026-04-05T14:47:31.998Z</time></trkpt><trkpt lat="44.95881165358982" lon="-1.1469788714664462"><ele>21.666666666666664</ele><time>2026-04-05T14:47:32.998Z</time></trkpt><trkpt lat="44.9587895644442" lon="-1.1467008446687434"><ele>22.0</ele><time>2026-04-05T14:47:33.998Z</time></trkpt><trkpt lat="44.95878268871899" lon="-1.1464409924375425"><ele>22.333333333333332</ele><time>2026-04-05T14:47:34.998Z</time></trkpt><trkpt lat="44.95878607305059" lon="-1.1462057129690302"><ele>22.666666666666668</ele><time>2026-04-05T14:47:35.998Z</time></trkpt><trkpt lat="44.95877224304577" lon="-1.145962758198525"><ele>23.0</ele><time>2026-04-05T14:47:36.998Z</time></trkpt><trkpt lat="44.95874252953358" lon="-1.1456894524778705"><ele>23.25</ele><time>2026-04-05T14:47:37.998Z</time></trkpt><trkpt lat="44.95871720809487" lon="-1.145453495068704"><ele>23.5</ele><time>2026-04-05T14:47:38.998Z</time></trkpt><trkpt lat="44.958698743359164" lon="-1.1452773982857747"><ele>23.75</ele><time>2026-04-05T14:47:39.998Z</time></trkpt><trkpt lat="44.95867830810403" lon="-1.1451354053115588"><ele>24.0</ele><time>2026-04-05T14:47:40.998Z</time></trkpt><trkpt lat="44.95865130960403" lon="-1.144975358170876"><ele>23.833333333333332</ele><time>2026-04-05T14:47:41.998Z</time></trkpt><trkpt lat="44.958666123341374" lon="-1.1448528493698713"><ele>23.666666666666668</ele><time>2026-04-05T14:47:42.998Z</time></trkpt><trkpt lat="44.95869548704611" lon="-1.1447380487888104"><ele>23.5</ele><time>2026-04-05T14:47:43.998Z</time></trkpt><trkpt lat="44.95873669883316" lon="-1.1446334613520817"><ele>23.333333333333336</ele><time>2026-04-05T14:47:44.998Z</time></trkpt><trkpt lat="44.95878668204375" lon="-1.1445348337045211"><ele>23.166666666666668</ele><time>2026-04-05T14:47:46.998Z</time></trkpt><trkpt lat="44.958800619628455" lon="-1.1444303127957798"><ele>23.0</ele><time>2026-04-05T14:47:48.998Z</time></trkpt><trkpt lat="44.95880083740585" lon="-1.144274957244333"><ele>23.0</ele><time>2026-04-05T14:47:50.998Z</time></trkpt><trkpt lat="44.958755317146114" lon="-1.1441554616483949"><ele>23.0</ele><time>2026-04-05T14:47:52.998Z</time></trkpt><trkpt lat="44.95873162555363" lon="-1.1440314122567958"><ele>23.0</ele><time>2026-04-05T14:48:03.998Z</time></trkpt><trkpt lat="44.95872641026544" lon="-1.1438985359802845"><ele>23.0</ele><time>2026-04-05T14:48:04.998Z</time></trkpt><trkpt lat="44.95871057147579" lon="-1.1437754109606104"><ele>23.0</ele><time>2026-04-05T14:48:05.998Z</time></trkpt><trkpt lat="44.958644253212896" lon="-1.1436594313257051"><ele>22.666666666666668</ele><time>2026-04-05T14:48:07.997Z</time></trkpt><trkpt lat="44.95862301084736" lon="-1.1435748948787672"><ele>22.333333333333336</ele><time>2026-04-05T14:48:08.997Z</time></trkpt><trkpt lat="44.95862139109632" lon="-1.1434318644270485"><ele>22.0</ele><time>2026-04-05T14:48:09.997Z</time></trkpt><trkpt lat="44.95860995534326" lon="-1.1432965570836822"><ele>21.666666666666668</ele><time>2026-04-05T14:48:10.997Z</time></trkpt><trkpt lat="44.95861453063726" lon="-1.1432037914387285"><ele>21.333333333333332</ele><time>2026-04-05T14:48:12Z</time></trkpt><trkpt lat="44.95862583413897" lon="-1.1430948997137755"><ele>21.0</ele><time>2026-04-05T14:48:14Z</time></trkpt><trkpt lat="44.95861209819312" lon="-1.1429990184130874"><ele>21.0</ele><time>2026-04-05T14:48:17Z</time></trkpt><trkpt lat="44.95854809209657" lon="-1.142891320755891"><ele>21.0</ele><time>2026-04-05T14:49:45.998Z</time></trkpt><trkpt lat="44.9584747736583" lon="-1.1428518815734645"><ele>21.0</ele><time>2026-04-05T14:49:47.998Z</time></trkpt><trkpt lat="44.958376342009615" lon="-1.142829333296283"><ele>21.0</ele><time>2026-04-05T14:49:49.998Z</time></trkpt><trkpt lat="44.95830068042477" lon="-1.1428411007849297"><ele>21.0</ele><time>2026-04-05T14:49:51.998Z</time></trkpt><trkpt lat="44.95820206103752" lon="-1.1428436155931545"><ele>21.200000000000003</ele><time>2026-04-05T14:49:53.998Z</time></trkpt><trkpt lat="44.95810581519819" lon="-1.142862924410572"><ele>21.400000000000002</ele><time>2026-04-05T14:49:55.998Z</time></trkpt><trkpt lat="44.95803655996106" lon="-1.142865455707125"><ele>21.6</ele><time>2026-04-05T14:49:56.998Z</time></trkpt><trkpt lat="44.95794888627462" lon="-1.1428582413596635"><ele>21.8</ele><time>2026-04-05T14:49:57.998Z</time></trkpt><trkpt lat="44.957819951446325" lon="-1.1428517576636479"><ele>22.0</ele><time>2026-04-05T14:49:58.998Z</time></trkpt><trkpt lat="44.95763888494472" lon="-1.142856985425809"><ele>22.0</ele><time>2026-04-05T14:49:59.998Z</time></trkpt><trkpt lat="44.95747372104432" lon="-1.1428367581914445"><ele>22.0</ele><time>2026-04-05T14:50:00.998Z</time></trkpt><trkpt lat="44.95733822637895" lon="-1.1428501420424946"><ele>22.0</ele><time>2026-04-05T14:50:01.998Z</time></trkpt><trkpt lat="44.957222004311795" lon="-1.142843418741081"><ele>22.0</ele><time>2026-04-05T14:50:02.998Z</time></trkpt><trkpt lat="44.957117700268014" lon="-1.1428420202123684"><ele>22.0</ele><time>2026-04-05T14:50:03.998Z</time></trkpt><trkpt lat="44.95701972302055" lon="-1.1428414347670903"><ele>22.0</ele><time>2026-04-05T14:50:04.998Z</time></trkpt><trkpt lat="44.95692778798719" lon="-1.1428406386206564"><ele>22.0</ele><time>2026-04-05T14:50:05.998Z</time></trkpt><trkpt lat="44.95684526015466" lon="-1.1428358581545437"><ele>22.0</ele><time>2026-04-05T14:50:06.998Z</time></trkpt><trkpt lat="44.956767526700226" lon="-1.1428284332965477"><ele>22.0</ele><time>2026-04-05T14:50:07.998Z</time></trkpt><trkpt lat="44.95670210259072" lon="-1.1427972652496396"><ele>22.0</ele><time>2026-04-05T14:50:08.998Z</time></trkpt><trkpt lat="44.956632318189136" lon="-1.142739428919967"><ele>22.0</ele><time>2026-04-05T14:50:09.997Z</time></trkpt><trkpt lat="44.95656065501715" lon="-1.1426696756679473"><ele>22.0</ele><time>2026-04-05T14:50:10.997Z</time></trkpt><trkpt lat="44.95649797332956" lon="-1.1426060892410892"><ele>22.0</ele><time>2026-04-05T14:50:11.997Z</time></trkpt><trkpt lat="44.956438216050465" lon="-1.1425465025495525"><ele>22.0</ele><time>2026-04-05T14:50:12.997Z</time></trkpt><trkpt lat="44.95636073909461" lon="-1.142455807484088"><ele>22.0</ele><time>2026-04-05T14:50:14.997Z</time></trkpt><trkpt lat="44.956290341426026" lon="-1.142390974212025"><ele>22.0</ele><time>2026-04-05T14:50:16.997Z</time></trkpt><trkpt lat="44.95623279791" lon="-1.1423313161627844"><ele>22.0</ele><time>2026-04-05T14:50:20Z</time></trkpt><trkpt lat="44.95621564595923" lon="-1.142244122038822"><ele>22.0</ele><time>2026-04-05T14:50:21Z</time></trkpt><trkpt lat="44.956164411491656" lon="-1.1421895552855388"><ele>22.0</ele><time>2026-04-05T14:50:23Z</time></trkpt><trkpt lat="44.95611417097494" lon="-1.1421236593883441"><ele>22.0</ele><time>2026-04-05T14:50:25Z</time></trkpt><trkpt lat="44.95605139357767" lon="-1.1420580188428926"><ele>22.0</ele><time>2026-04-05T14:50:28Z</time></trkpt><trkpt lat="44.955952929963" lon="-1.1419524164576884"><ele>22.0</ele><time>2026-04-05T14:50:30Z</time></trkpt><trkpt lat="44.9558692887295" lon="-1.1418624939238424"><ele>22.5</ele><time>2026-04-05T14:50:31Z</time></trkpt><trkpt lat="44.95580236565239" lon="-1.1417730347520036"><ele>23.0</ele><time>2026-04-05T14:50:32Z</time></trkpt><trkpt lat="44.9557127110788" lon="-1.14167069171913"><ele>23.5</ele><time>2026-04-05T14:50:33Z</time></trkpt><trkpt lat="44.95560985174579" lon="-1.1415705054674556"><ele>24.0</ele><time>2026-04-05T14:50:34Z</time></trkpt><trkpt lat="44.955503373881186" lon="-1.141460011795995"><ele>24.0</ele><time>2026-04-05T14:50:35Z</time></trkpt><trkpt lat="44.95543010361387" lon="-1.1413552696934097"><ele>24.0</ele><time>2026-04-05T14:50:36Z</time></trkpt><trkpt lat="44.95534480304766" lon="-1.1412591752477486"><ele>24.0</ele><time>2026-04-05T14:50:36.999Z</time></trkpt><trkpt lat="44.95527372498753" lon="-1.1411765352140042"><ele>24.0</ele><time>2026-04-05T14:50:37.999Z</time></trkpt><trkpt lat="44.955203523776646" lon="-1.1411048418906053"><ele>24.0</ele><time>2026-04-05T14:50:38.999Z</time></trkpt><trkpt lat="44.955140232290596" lon="-1.1410488649772637"><ele>24.0</ele><time>2026-04-05T14:50:39.999Z</time></trkpt><trkpt lat="44.9550806357504" lon="-1.1409842239142325"><ele>24.0</ele><time>2026-04-05T14:50:40.999Z</time></trkpt><trkpt lat="44.95496791182117" lon="-1.1408609474478941"><ele>24.0</ele><time>2026-04-05T14:50:42.999Z</time></trkpt><trkpt lat="44.954900240364275" lon="-1.1407989298617751"><ele>24.0</ele><time>2026-04-05T14:50:43.999Z</time></trkpt><trkpt lat="44.95483830417089" lon="-1.1407425192655913"><ele>24.0</ele><time>2026-04-05T14:50:44.999Z</time></trkpt><trkpt lat="44.95478011115798" lon="-1.1406773908341692"><ele>24.0</ele><time>2026-04-05T14:50:45.999Z</time></trkpt><trkpt lat="44.9546747290311" lon="-1.1405797930607873"><ele>23.833333333333332</ele><time>2026-04-05T14:50:47.999Z</time></trkpt><trkpt lat="44.954608934894125" lon="-1.1405079952055843"><ele>23.666666666666668</ele><time>2026-04-05T14:50:48.999Z</time></trkpt><trkpt lat="44.954547039261186" lon="-1.1404480246015072"><ele>23.5</ele><time>2026-04-05T14:50:49.999Z</time></trkpt><trkpt lat="44.95448620320161" lon="-1.1403841995109383"><ele>23.333333333333336</ele><time>2026-04-05T14:50:50.999Z</time></trkpt><trkpt lat="44.9544237813312" lon="-1.1403113512846763"><ele>23.166666666666668</ele><time>2026-04-05T14:50:51.999Z</time></trkpt><trkpt lat="44.95435940774405" lon="-1.1402559052247547"><ele>23.0</ele><time>2026-04-05T14:50:52.999Z</time></trkpt><trkpt lat="44.95429007342704" lon="-1.140204263210692"><ele>23.0</ele><time>2026-04-05T14:50:53.999Z</time></trkpt><trkpt lat="44.95422883814212" lon="-1.1401558691615818"><ele>23.0</ele><time>2026-04-05T14:50:54.999Z</time></trkpt><trkpt lat="44.95415342022074" lon="-1.1400854631729707"><ele>23.0</ele><time>2026-04-05T14:50:55.999Z</time></trkpt><trkpt lat="44.95408662782415" lon="-1.1400190576252809"><ele>23.0</ele><time>2026-04-05T14:50:56.999Z</time></trkpt><trkpt lat="44.9540138551786" lon="-1.1399632659088277"><ele>23.0</ele><time>2026-04-05T14:50:57.999Z</time></trkpt><trkpt lat="44.95395117067571" lon="-1.139908444959063"><ele>23.0</ele><time>2026-04-05T14:50:58.999Z</time></trkpt><trkpt lat="44.953891613295454" lon="-1.1398641522239816"><ele>22.599999999999998</ele><time>2026-04-05T14:50:59.999Z</time></trkpt><trkpt lat="44.95379905739204" lon="-1.1397930649458365"><ele>22.2</ele><time>2026-04-05T14:51:01.999Z</time></trkpt><trkpt lat="44.95375046558092" lon="-1.1396889368232186"><ele>21.8</ele><time>2026-04-05T14:51:12.999Z</time></trkpt><trkpt lat="44.953783072405024" lon="-1.1395494548179055"><ele>21.4</ele><time>2026-04-05T14:51:14.999Z</time></trkpt><trkpt lat="44.95388457663013" lon="-1.1395347781789804"><ele>21.0</ele><time>2026-04-05T14:51:16.999Z</time></trkpt><trkpt lat="44.953960390872616" lon="-1.13953908766294"><ele>21.0</ele><time>2026-04-05T14:51:17.999Z</time></trkpt><trkpt lat="44.95403823747146" lon="-1.1395523292894494"><ele>21.0</ele><time>2026-04-05T14:51:18.999Z</time></trkpt><trkpt lat="44.95412848647176" lon="-1.1395627187784687"><ele>21.0</ele><time>2026-04-05T14:51:19.999Z</time></trkpt><trkpt lat="44.95421641697211" lon="-1.1395455404064851"><ele>21.0</ele><time>2026-04-05T14:51:20.999Z</time></trkpt><trkpt lat="44.954280333089244" lon="-1.1395366352508502"><ele>21.0</ele><time>2026-04-05T14:51:21.999Z</time></trkpt><trkpt lat="44.95444161521028" lon="-1.1395068480821304"><ele>21.75</ele><time>2026-04-05T14:51:23.998Z</time></trkpt><trkpt lat="44.95454458301429" lon="-1.1394691785881501"><ele>22.5</ele><time>2026-04-05T14:51:24.998Z</time></trkpt><trkpt lat="44.95469149800527" lon="-1.1394289763515053"><ele>23.25</ele><time>2026-04-05T14:51:25.998Z</time></trkpt><trkpt lat="44.954851222676474" lon="-1.1394116220951243"><ele>24.0</ele><time>2026-04-05T14:51:26.998Z</time></trkpt><trkpt lat="44.954967414089374" lon="-1.1393888516882333"><ele>24.0</ele><time>2026-04-05T14:51:27.998Z</time></trkpt><trkpt lat="44.955022585508615" lon="-1.139324157225905"><ele>24.0</ele><time>2026-04-05T14:51:28.998Z</time></trkpt><trkpt lat="44.95508419493631" lon="-1.1392153167437118"><ele>24.0</ele><time>2026-04-05T14:51:29.998Z</time></trkpt><trkpt lat="44.95517638179093" lon="-1.1390440530027786"><ele>24.0</ele><time>2026-04-05T14:51:30.998Z</time></trkpt><trkpt lat="44.95527943797816" lon="-1.1388825446874236"><ele>24.0</ele><time>2026-04-05T14:51:31.998Z</time></trkpt><trkpt lat="44.955361759936984" lon="-1.1387558360335273"><ele>24.0</ele><time>2026-04-05T14:51:32.998Z</time></trkpt><trkpt lat="44.955483408777006" lon="-1.138580304350855"><ele>24.0</ele><time>2026-04-05T14:51:33.998Z</time></trkpt><trkpt lat="44.95555447759355" lon="-1.1384447944342635"><ele>24.0</ele><time>2026-04-05T14:51:34.998Z</time></trkpt><trkpt lat="44.95561385031821" lon="-1.1383214293585995"><ele>23.6</ele><time>2026-04-05T14:51:35.998Z</time></trkpt><trkpt lat="44.95567250948167" lon="-1.1382089672238058"><ele>23.2</ele><time>2026-04-05T14:51:36.998Z</time></trkpt><trkpt lat="44.95579731970656" lon="-1.1380817180107055"><ele>22.8</ele><time>2026-04-05T14:51:38.998Z</time></trkpt><trkpt lat="44.95589217163678" lon="-1.1380731875396408"><ele>22.400000000000002</ele><time>2026-04-05T14:51:40.998Z</time></trkpt><trkpt lat="44.955882378860636" lon="-1.1379306635514124"><ele>22.0</ele><time>2026-04-05T14:51:45.998Z</time></trkpt><trkpt lat="44.9557922581809" lon="-1.1378332876979322"><ele>21.8</ele><time>2026-04-05T14:51:46.998Z</time></trkpt><trkpt lat="44.955704094288556" lon="-1.1377526838571461"><ele>21.6</ele><time>2026-04-05T14:51:47.998Z</time></trkpt><trkpt lat="44.95563723777162" lon="-1.1376875959493409"><ele>21.400000000000002</ele><time>2026-04-05T14:51:48.998Z</time></trkpt><trkpt lat="44.95560145977109" lon="-1.1376076645495765"><ele>21.200000000000003</ele><time>2026-04-05T14:51:49.998Z</time></trkpt><trkpt lat="44.95556612776931" lon="-1.1374397556997622"><ele>21.0</ele><time>2026-04-05T14:51:51.998Z</time></trkpt><trkpt lat="44.95553367072955" lon="-1.13732469061876"><ele>21.75</ele><time>2026-04-05T14:51:52.998Z</time></trkpt><trkpt lat="44.95551791973757" lon="-1.1372300721055937"><ele>22.5</ele><time>2026-04-05T14:51:53.998Z</time></trkpt><trkpt lat="44.955484325838036" lon="-1.137018366712154"><ele>23.25</ele><time>2026-04-05T14:51:54.998Z</time></trkpt><trkpt lat="44.95546092378022" lon="-1.1368356344233652"><ele>24.0</ele><time>2026-04-05T14:51:55.998Z</time></trkpt><trkpt lat="44.95544096785072" lon="-1.1366632672555355"><ele>23.799999999999997</ele><time>2026-04-05T14:51:56.998Z</time></trkpt><trkpt lat="44.95541960875203" lon="-1.1365245918504654"><ele>23.599999999999998</ele><time>2026-04-05T14:51:57.998Z</time></trkpt><trkpt lat="44.95540882845998" lon="-1.1364193572070038"><ele>23.4</ele><time>2026-04-05T14:51:58.998Z</time></trkpt><trkpt lat="44.955327476604865" lon="-1.1362158189637241"><ele>23.2</ele><time>2026-04-05T14:52:00.998Z</time></trkpt><trkpt lat="44.95527825649407" lon="-1.1361424834614675"><ele>23.0</ele><time>2026-04-05T14:52:01.998Z</time></trkpt><trkpt lat="44.95521366152933" lon="-1.1360734643757502"><ele>23.0</ele><time>2026-04-05T14:52:02.998Z</time></trkpt><trkpt lat="44.95512827231886" lon="-1.1359927251953341"><ele>23.0</ele><time>2026-04-05T14:52:03.998Z</time></trkpt><trkpt lat="44.95506293701683" lon="-1.1359444949829363"><ele>23.0</ele><time>2026-04-05T14:52:04.998Z</time></trkpt><trkpt lat="44.95498505187366" lon="-1.1358691609601617"><ele>23.0</ele><time>2026-04-05T14:52:05.998Z</time></trkpt><trkpt lat="44.95493946803878" lon="-1.1358014806491057"><ele>23.0</ele><time>2026-04-05T14:52:06.998Z</time></trkpt><trkpt lat="44.95488568570266" lon="-1.1357093114773584"><ele>23.0</ele><time>2026-04-05T14:52:07.998Z</time></trkpt><trkpt lat="44.95482377394711" lon="-1.1356536400374275"><ele>22.833333333333336</ele><time>2026-04-05T14:52:08.998Z</time></trkpt><trkpt lat="44.95475670702527" lon="-1.1356020328056973"><ele>22.666666666666668</ele><time>2026-04-05T14:52:09.998Z</time></trkpt><trkpt lat="44.95468504427993" lon="-1.135581603347899"><ele>22.5</ele><time>2026-04-05T14:52:10.997Z</time></trkpt><trkpt lat="44.95458282192066" lon="-1.1356346527094314"><ele>22.333333333333332</ele><time>2026-04-05T14:52:12.997Z</time></trkpt><trkpt lat="44.95452237359378" lon="-1.1357030118782259"><ele>22.166666666666664</ele><time>2026-04-05T14:52:13.997Z</time></trkpt><trkpt lat="44.95445544656672" lon="-1.1357857222940364"><ele>22.0</ele><time>2026-04-05T14:52:14.997Z</time></trkpt><trkpt lat="44.95439315472432" lon="-1.1358753945316433"><ele>22.0</ele><time>2026-04-05T14:52:15.997Z</time></trkpt><trkpt lat="44.95431624872817" lon="-1.1359737831934937"><ele>22.0</ele><time>2026-04-05T14:52:16.997Z</time></trkpt><trkpt lat="44.95423687235266" lon="-1.1360291413932768"><ele>22.0</ele><time>2026-04-05T14:52:17.997Z</time></trkpt><trkpt lat="44.9541374309611" lon="-1.136095554979082"><ele>22.0</ele><time>2026-04-05T14:52:18.997Z</time></trkpt><trkpt lat="44.95403645743057" lon="-1.1361504596854755"><ele>22.0</ele><time>2026-04-05T14:52:19.997Z</time></trkpt><trkpt lat="44.95393816855814" lon="-1.136204751831231"><ele>21.8</ele><time>2026-04-05T14:52:20.997Z</time></trkpt><trkpt lat="44.953806486281735" lon="-1.136216369760083"><ele>21.6</ele><time>2026-04-05T14:52:21.997Z</time></trkpt><trkpt lat="44.95369989645445" lon="-1.1362161546843188"><ele>21.400000000000002</ele><time>2026-04-05T14:52:23Z</time></trkpt><trkpt lat="44.95360544229882" lon="-1.1362080184444787"><ele>21.200000000000003</ele><time>2026-04-05T14:52:24Z</time></trkpt><trkpt lat="44.95352482507164" lon="-1.1362468964132875"><ele>21.0</ele><time>2026-04-05T14:52:25Z</time></trkpt><trkpt lat="44.953461274851215" lon="-1.136343774044857"><ele>21.0</ele><time>2026-04-05T14:52:26Z</time></trkpt><trkpt lat="44.953399865093175" lon="-1.136459122708557"><ele>21.0</ele><time>2026-04-05T14:52:27Z</time></trkpt><trkpt lat="44.95332941113652" lon="-1.136600853584018"><ele>21.0</ele><time>2026-04-05T14:52:28Z</time></trkpt><trkpt lat="44.95327050640849" lon="-1.136713405598694"><ele>21.0</ele><time>2026-04-05T14:52:29Z</time></trkpt><trkpt lat="44.9532194046295" lon="-1.136802403411029"><ele>21.0</ele><time>2026-04-05T14:52:31Z</time></trkpt><trkpt lat="44.95313797080731" lon="-1.1368849877591287"><ele>21.0</ele><time>2026-04-05T14:52:33Z</time></trkpt><trkpt lat="44.95311934112214" lon="-1.136981323776304"><ele>21.0</ele><time>2026-04-05T14:52:34Z</time></trkpt><trkpt lat="44.95311986851583" lon="-1.1370756824513986"><ele>21.0</ele><time>2026-04-05T14:52:35Z</time></trkpt><trkpt lat="44.95314245304245" lon="-1.1372067667510015"><ele>21.0</ele><time>2026-04-05T14:52:36Z</time></trkpt><trkpt lat="44.95315212335214" lon="-1.137313561182552"><ele>21.0</ele><time>2026-04-05T14:52:37Z</time></trkpt><trkpt lat="44.95316537539382" lon="-1.1374400461770309"><ele>21.0</ele><time>2026-04-05T14:52:37.999Z</time></trkpt><trkpt lat="44.953172608240166" lon="-1.1375541259268098"><ele>21.0</ele><time>2026-04-05T14:52:38.999Z</time></trkpt><trkpt lat="44.95316882245477" lon="-1.1376743906762712"><ele>21.0</ele><time>2026-04-05T14:52:39.999Z</time></trkpt><trkpt lat="44.953158755481745" lon="-1.1378039730961007"><ele>21.0</ele><time>2026-04-05T14:52:40.999Z</time></trkpt><trkpt lat="44.953139750822835" lon="-1.1379392893162523"><ele>21.0</ele><time>2026-04-05T14:52:41.999Z</time></trkpt><trkpt lat="44.953129215985214" lon="-1.1380411062251308"><ele>21.0</ele><time>2026-04-05T14:52:42.999Z</time></trkpt><trkpt lat="44.95311990188615" lon="-1.1382016989814352"><ele>20.666666666666668</ele><time>2026-04-05T14:52:44.999Z</time></trkpt><trkpt lat="44.953118450094884" lon="-1.1383345294371194"><ele>20.333333333333332</ele><time>2026-04-05T14:52:45.999Z</time></trkpt><trkpt lat="44.953132974304104" lon="-1.138450667903184"><ele>20.0</ele><time>2026-04-05T14:52:46.999Z</time></trkpt><trkpt lat="44.953145017386476" lon="-1.1385763876276247"><ele>19.666666666666664</ele><time>2026-04-05T14:52:47.999Z</time></trkpt><trkpt lat="44.95313223382787" lon="-1.1386795346115666"><ele>19.333333333333332</ele><time>2026-04-05T14:52:48.999Z</time></trkpt><trkpt lat="44.95312224373329" lon="-1.1387991947338483"><ele>19.0</ele><time>2026-04-05T14:52:49.999Z</time></trkpt><trkpt lat="44.953104031884166" lon="-1.1389249560402401"><ele>19.0</ele><time>2026-04-05T14:52:50.999Z</time></trkpt><trkpt lat="44.95307084382219" lon="-1.1390516057697666"><ele>19.0</ele><time>2026-04-05T14:52:51.999Z</time></trkpt><trkpt lat="44.9530208506398" lon="-1.1391843962932422"><ele>19.0</ele><time>2026-04-05T14:52:53.999Z</time></trkpt><trkpt lat="44.95295701780758" lon="-1.1391655685088558"><ele>19.0</ele><time>2026-04-05T14:52:55.999Z</time></trkpt><trkpt lat="44.95289054700097" lon="-1.139122526809784"><ele>19.0</ele><time>2026-04-05T14:52:56.999Z</time></trkpt><trkpt lat="44.95281748491438" lon="-1.1390618406055297"><ele>19.0</ele><time>2026-04-05T14:52:57.999Z</time></trkpt><trkpt lat="44.95271590501399" lon="-1.1389815468801794"><ele>19.0</ele><time>2026-04-05T14:52:58.999Z</time></trkpt><trkpt lat="44.952598603003935" lon="-1.1388931490670782"><ele>19.0</ele><time>2026-04-05T14:52:59.999Z</time></trkpt><trkpt lat="44.95247446291106" lon="-1.1388189471637675"><ele>19.0</ele><time>2026-04-05T14:53:00.999Z</time></trkpt><trkpt lat="44.952335750802796" lon="-1.1387376014642245"><ele>19.0</ele><time>2026-04-05T14:53:01.999Z</time></trkpt><trkpt lat="44.95220322251412" lon="-1.1386458077500772"><ele>19.25</ele><time>2026-04-05T14:53:02.999Z</time></trkpt><trkpt lat="44.952086258876726" lon="-1.1385472669940644"><ele>19.5</ele><time>2026-04-05T14:53:04Z</time></trkpt><trkpt lat="44.95197380759401" lon="-1.1384659202496892"><ele>19.75</ele><time>2026-04-05T14:53:05Z</time></trkpt><trkpt lat="44.95185268981562" lon="-1.1383972486161116"><ele>20.0</ele><time>2026-04-05T14:53:06Z</time></trkpt><trkpt lat="44.9517405397002" lon="-1.138334569850677"><ele>20.4</ele><time>2026-04-05T14:53:07Z</time></trkpt><trkpt lat="44.95162901356492" lon="-1.1382816062797887"><ele>20.8</ele><time>2026-04-05T14:53:08Z</time></trkpt><trkpt lat="44.951526796783305" lon="-1.1382108581158332"><ele>21.200000000000003</ele><time>2026-04-05T14:53:09Z</time></trkpt><trkpt lat="44.95143554844711" lon="-1.1381694550609127"><ele>21.6</ele><time>2026-04-05T14:53:10Z</time></trkpt><trkpt lat="44.951336970832564" lon="-1.1381179487057103"><ele>22.0</ele><time>2026-04-05T14:53:11Z</time></trkpt><trkpt lat="44.95122832609133" lon="-1.138053339694091"><ele>22.0</ele><time>2026-04-05T14:53:12Z</time></trkpt><trkpt lat="44.9511382697065" lon="-1.1379955499052705"><ele>22.0</ele><time>2026-04-05T14:53:13Z</time></trkpt><trkpt lat="44.95104158199057" lon="-1.1379338087897157"><ele>22.0</ele><time>2026-04-05T14:53:14Z</time></trkpt><trkpt lat="44.95091589235321" lon="-1.1378487775897794"><ele>22.0</ele><time>2026-04-05T14:53:15Z</time></trkpt><trkpt lat="44.95081354448977" lon="-1.137782996415522"><ele>22.5</ele><time>2026-04-05T14:53:16Z</time></trkpt><trkpt lat="44.950712313927625" lon="-1.1377217337361922"><ele>23.0</ele><time>2026-04-05T14:53:17Z</time></trkpt><trkpt lat="44.950581950804995" lon="-1.1376438010458074"><ele>23.5</ele><time>2026-04-05T14:53:18Z</time></trkpt><trkpt lat="44.95047408914221" lon="-1.137572996014148"><ele>24.0</ele><time>2026-04-05T14:53:19Z</time></trkpt><trkpt lat="44.9503659782993" lon="-1.137503105644288"><ele>24.0</ele><time>2026-04-05T14:53:20Z</time></trkpt><trkpt lat="44.95025525871095" lon="-1.137443996890209"><ele>24.0</ele><time>2026-04-05T14:53:21Z</time></trkpt><trkpt lat="44.95013325568956" lon="-1.137376206030314"><ele>24.0</ele><time>2026-04-05T14:53:22Z</time></trkpt><trkpt lat="44.95003108880218" lon="-1.1373163957687464"><ele>24.0</ele><time>2026-04-05T14:53:23Z</time></trkpt><trkpt lat="44.94991106161618" lon="-1.137271834275706"><ele>24.75</ele><time>2026-04-05T14:53:24Z</time></trkpt><trkpt lat="44.94981005444779" lon="-1.1371932873612802"><ele>25.5</ele><time>2026-04-05T14:53:24.999Z</time></trkpt><trkpt lat="44.949710082306645" lon="-1.1371406386224605"><ele>26.25</ele><time>2026-04-05T14:53:25.999Z</time></trkpt><trkpt lat="44.94959849638276" lon="-1.1370722443300791"><ele>27.0</ele><time>2026-04-05T14:53:26.999Z</time></trkpt><trkpt lat="44.9494474905595" lon="-1.1369884274478963"><ele>27.0</ele><time>2026-04-05T14:53:27.999Z</time></trkpt><trkpt lat="44.94931257992324" lon="-1.1369183572293833"><ele>27.0</ele><time>2026-04-05T14:53:28.999Z</time></trkpt><trkpt lat="44.949207788195196" lon="-1.1368469841911137"><ele>27.0</ele><time>2026-04-05T14:53:29.999Z</time></trkpt><trkpt lat="44.949091374424114" lon="-1.1367754136225332"><ele>27.0</ele><time>2026-04-05T14:53:30.999Z</time></trkpt><trkpt lat="44.948992047618646" lon="-1.1367065856952863"><ele>27.0</ele><time>2026-04-05T14:53:31.999Z</time></trkpt><trkpt lat="44.948824693240994" lon="-1.136647504068956"><ele>27.0</ele><time>2026-04-05T14:53:32.999Z</time></trkpt><trkpt lat="44.948690915611" lon="-1.1365972778401698"><ele>27.0</ele><time>2026-04-05T14:53:33.999Z</time></trkpt><trkpt lat="44.94854030688761" lon="-1.1365355085425681"><ele>27.0</ele><time>2026-04-05T14:53:34.999Z</time></trkpt><trkpt lat="44.94841834169129" lon="-1.136493800673428"><ele>27.0</ele><time>2026-04-05T14:53:35.999Z</time></trkpt><trkpt lat="44.948311705104764" lon="-1.1364500842594336"><ele>27.0</ele><time>2026-04-05T14:53:36.999Z</time></trkpt><trkpt lat="44.948202033174326" lon="-1.1364000840911"><ele>27.0</ele><time>2026-04-05T14:53:37.999Z</time></trkpt><trkpt lat="44.94810700524885" lon="-1.1363582267056516"><ele>26.333333333333332</ele><time>2026-04-05T14:53:38.999Z</time></trkpt><trkpt lat="44.94801417752567" lon="-1.1363249026145135"><ele>25.666666666666668</ele><time>2026-04-05T14:53:39.999Z</time></trkpt><trkpt lat="44.94791659266502" lon="-1.1362881783263463"><ele>25.0</ele><time>2026-04-05T14:53:40.999Z</time></trkpt><trkpt lat="44.94784924884805" lon="-1.1362583018552328"><ele>24.333333333333336</ele><time>2026-04-05T14:53:41.999Z</time></trkpt><trkpt lat="44.94776859600399" lon="-1.1362288029869771"><ele>23.666666666666668</ele><time>2026-04-05T14:53:42.999Z</time></trkpt><trkpt lat="44.947704656675796" lon="-1.1362173975570167"><ele>23.0</ele><time>2026-04-05T14:53:43.999Z</time></trkpt><trkpt lat="44.947590563355995" lon="-1.1362425212436906"><ele>22.833333333333336</ele><time>2026-04-05T14:53:45.999Z</time></trkpt><trkpt lat="44.947511566639655" lon="-1.1362801264411706"><ele>22.666666666666668</ele><time>2026-04-05T14:53:46.999Z</time></trkpt><trkpt lat="44.947447640981295" lon="-1.1362895565828175"><ele>22.5</ele><time>2026-04-05T14:53:48.999Z</time></trkpt><trkpt lat="44.947384940129865" lon="-1.136241598716881"><ele>22.333333333333332</ele><time>2026-04-05T14:53:51.999Z</time></trkpt><trkpt lat="44.94737911461765" lon="-1.136152973633924"><ele>22.166666666666664</ele><time>2026-04-05T14:53:53.999Z</time></trkpt><trkpt lat="44.947353681942886" lon="-1.136061704884715"><ele>22.0</ele><time>2026-04-05T14:53:55.999Z</time></trkpt><trkpt lat="44.947230220475305" lon="-1.1360175251235862"><ele>22.0</ele><time>2026-04-05T14:53:57.999Z</time></trkpt><trkpt lat="44.94712484459287" lon="-1.1359751300903762"><ele>22.0</ele><time>2026-04-05T14:53:58.999Z</time></trkpt><trkpt lat="44.94703481577174" lon="-1.1359311418440161"><ele>22.0</ele><time>2026-04-05T14:53:59.999Z</time></trkpt><trkpt lat="44.946913460622554" lon="-1.135884343392403"><ele>22.0</ele><time>2026-04-05T14:54:00.999Z</time></trkpt><trkpt lat="44.94682671124647" lon="-1.135853209618744"><ele>22.0</ele><time>2026-04-05T14:54:01.999Z</time></trkpt><trkpt lat="44.94674674476" lon="-1.1358251625806854"><ele>22.75</ele><time>2026-04-05T14:54:02.999Z</time></trkpt><trkpt lat="44.94663104282583" lon="-1.135773440095792"><ele>23.5</ele><time>2026-04-05T14:54:03.999Z</time></trkpt><trkpt lat="44.946522783238414" lon="-1.1357229540403746"><ele>24.25</ele><time>2026-04-05T14:54:04.999Z</time></trkpt><trkpt lat="44.9463962137" lon="-1.1356807991234947"><ele>25.0</ele><time>2026-04-05T14:54:05.999Z</time></trkpt><trkpt lat="44.94626668137518" lon="-1.135620049460218"><ele>25.0</ele><time>2026-04-05T14:54:06.999Z</time></trkpt><trkpt lat="44.94613324980381" lon="-1.135573891380097"><ele>25.0</ele><time>2026-04-05T14:54:07.999Z</time></trkpt><trkpt lat="44.946019838647885" lon="-1.1355397438217403"><ele>25.0</ele><time>2026-04-05T14:54:08.999Z</time></trkpt><trkpt lat="44.94594403782206" lon="-1.135514955746902"><ele>25.0</ele><time>2026-04-05T14:54:09.999Z</time></trkpt><trkpt lat="44.9458362599534" lon="-1.135485382684119"><ele>25.0</ele><time>2026-04-05T14:54:10.998Z</time></trkpt><trkpt lat="44.94570143713856" lon="-1.135471219941508"><ele>25.0</ele><time>2026-04-05T14:54:11.998Z</time></trkpt><trkpt lat="44.945588194224214" lon="-1.135441871128082"><ele>25.0</ele><time>2026-04-05T14:54:12.998Z</time></trkpt><trkpt lat="44.9454561604269" lon="-1.1354236355210525"><ele>25.0</ele><time>2026-04-05T14:54:13.998Z</time></trkpt><trkpt lat="44.9453403807231" lon="-1.1354213961985142"><ele>25.0</ele><time>2026-04-05T14:54:14.998Z</time></trkpt><trkpt lat="44.94520523522419" lon="-1.1354262352826523"><ele>25.0</ele><time>2026-04-05T14:54:15.998Z</time></trkpt><trkpt lat="44.94509484750363" lon="-1.1354281156967454"><ele>25.0</ele><time>2026-04-05T14:54:16.998Z</time></trkpt><trkpt lat="44.94497486653419" lon="-1.1354440682015186"><ele>25.0</ele><time>2026-04-05T14:54:17.998Z</time></trkpt><trkpt lat="44.94485497831427" lon="-1.1354529022689717"><ele>25.0</ele><time>2026-04-05T14:54:18.998Z</time></trkpt><trkpt lat="44.944727106076684" lon="-1.1354683405510648"><ele>25.0</ele><time>2026-04-05T14:54:19.998Z</time></trkpt><trkpt lat="44.94459495064653" lon="-1.135481808882256"><ele>25.0</ele><time>2026-04-05T14:54:20.998Z</time></trkpt><trkpt lat="44.94447255170735" lon="-1.1354922065325397"><ele>25.0</ele><time>2026-04-05T14:54:21.998Z</time></trkpt><trkpt lat="44.944358578984804" lon="-1.1355015079883808"><ele>25.0</ele><time>2026-04-05T14:54:22.998Z</time></trkpt><trkpt lat="44.944246743839976" lon="-1.1355342717986878"><ele>25.0</ele><time>2026-04-05T14:54:23.998Z</time></trkpt><trkpt lat="44.944156608944674" lon="-1.135560600892551"><ele>25.0</ele><time>2026-04-05T14:54:24.998Z</time></trkpt><trkpt lat="44.94406483011313" lon="-1.1355900064921671"><ele>25.0</ele><time>2026-04-05T14:54:25.998Z</time></trkpt><trkpt lat="44.94396368408927" lon="-1.135631018382998"><ele>25.0</ele><time>2026-04-05T14:54:26.998Z</time></trkpt><trkpt lat="44.943839768843766" lon="-1.1356734114498097"><ele>25.0</ele><time>2026-04-05T14:54:27.998Z</time></trkpt><trkpt lat="44.94371462254263" lon="-1.1357191256028425"><ele>25.25</ele><time>2026-04-05T14:54:29Z</time></trkpt><trkpt lat="44.943583028072105" lon="-1.1357504788389703"><ele>25.5</ele><time>2026-04-05T14:54:30Z</time></trkpt><trkpt lat="44.94345502538212" lon="-1.1357955246502662"><ele>25.75</ele><time>2026-04-05T14:54:31Z</time></trkpt><trkpt lat="44.94335409895157" lon="-1.135822316913867"><ele>26.0</ele><time>2026-04-05T14:54:32Z</time></trkpt><trkpt lat="44.94326864124429" lon="-1.1358505865754671"><ele>25.6</ele><time>2026-04-05T14:54:33Z</time></trkpt><trkpt lat="44.94316071252384" lon="-1.135885934060033"><ele>25.200000000000003</ele><time>2026-04-05T14:54:34Z</time></trkpt><trkpt lat="44.94307135993153" lon="-1.1359238023203213"><ele>24.799999999999997</ele><time>2026-04-05T14:54:35Z</time></trkpt><trkpt lat="44.942959420461506" lon="-1.1359582878364645"><ele>24.4</ele><time>2026-04-05T14:54:36Z</time></trkpt><trkpt lat="44.942854509968434" lon="-1.135984316184885"><ele>24.0</ele><time>2026-04-05T14:54:37Z</time></trkpt><trkpt lat="44.94275054721278" lon="-1.1360172793043988"><ele>24.0</ele><time>2026-04-05T14:54:38Z</time></trkpt><trkpt lat="44.94264402476034" lon="-1.136056336118051"><ele>24.0</ele><time>2026-04-05T14:54:39Z</time></trkpt><trkpt lat="44.94253929513981" lon="-1.136078205514252"><ele>24.0</ele><time>2026-04-05T14:54:40Z</time></trkpt><trkpt lat="44.9424327978799" lon="-1.1361143321844072"><ele>24.0</ele><time>2026-04-05T14:54:41Z</time></trkpt><trkpt lat="44.94232600954935" lon="-1.1361504201535215"><ele>24.0</ele><time>2026-04-05T14:54:42Z</time></trkpt><trkpt lat="44.94221918447342" lon="-1.1361923852903812"><ele>24.25</ele><time>2026-04-05T14:54:43Z</time></trkpt><trkpt lat="44.94210641698589" lon="-1.1362277569039978"><ele>24.5</ele><time>2026-04-05T14:54:44Z</time></trkpt><trkpt lat="44.941968213412494" lon="-1.1362809421102715"><ele>24.75</ele><time>2026-04-05T14:54:45Z</time></trkpt><trkpt lat="44.941845656914985" lon="-1.136317854523633"><ele>25.0</ele><time>2026-04-05T14:54:46Z</time></trkpt><trkpt lat="44.94169991479096" lon="-1.1363526217698752"><ele>25.0</ele><time>2026-04-05T14:54:47Z</time></trkpt><trkpt lat="44.94155085314638" lon="-1.136405182747087"><ele>25.0</ele><time>2026-04-05T14:54:48Z</time></trkpt><trkpt lat="44.94140076737227" lon="-1.136459767781497"><ele>25.0</ele><time>2026-04-05T14:54:49Z</time></trkpt><trkpt lat="44.94132493503977" lon="-1.1364832685755628"><ele>25.0</ele><time>2026-04-05T14:54:50Z</time></trkpt><trkpt lat="44.941215387378094" lon="-1.1365195703822468"><ele>25.0</ele><time>2026-04-05T14:54:51Z</time></trkpt><trkpt lat="44.941097064764776" lon="-1.1365464420742135"><ele>25.0</ele><time>2026-04-05T14:54:52Z</time></trkpt><trkpt lat="44.94098655763366" lon="-1.1365644086519058"><ele>25.0</ele><time>2026-04-05T14:54:53Z</time></trkpt><trkpt lat="44.940853178271134" lon="-1.1365837605791391"><ele>25.0</ele><time>2026-04-05T14:54:54Z</time></trkpt><trkpt lat="44.94073588315251" lon="-1.1366050938614864"><ele>24.75</ele><time>2026-04-05T14:54:55Z</time></trkpt><trkpt lat="44.940616273259444" lon="-1.136619424454614"><ele>24.5</ele><time>2026-04-05T14:54:56Z</time></trkpt><trkpt lat="44.94049530681056" lon="-1.1366221187521612"><ele>24.25</ele><time>2026-04-05T14:54:57Z</time></trkpt><trkpt lat="44.94036164324752" lon="-1.1366137140533872"><ele>24.0</ele><time>2026-04-05T14:54:58Z</time></trkpt><trkpt lat="44.94025179524655" lon="-1.1365951919741635"><ele>24.0</ele><time>2026-04-05T14:54:59Z</time></trkpt><trkpt lat="44.94014765876889" lon="-1.1365805323331126"><ele>24.0</ele><time>2026-04-05T14:55:00Z</time></trkpt><trkpt lat="44.94003491210212" lon="-1.1365670579417182"><ele>24.0</ele><time>2026-04-05T14:55:01Z</time></trkpt><trkpt lat="44.939900817177424" lon="-1.136540162891417"><ele>24.0</ele><time>2026-04-05T14:55:02Z</time></trkpt><trkpt lat="44.93977226423022" lon="-1.1364953270299691"><ele>24.0</ele><time>2026-04-05T14:55:03Z</time></trkpt><trkpt lat="44.939652130492505" lon="-1.136443301688492"><ele>24.0</ele><time>2026-04-05T14:55:04Z</time></trkpt><trkpt lat="44.93951727746293" lon="-1.136373183202707"><ele>24.0</ele><time>2026-04-05T14:55:05Z</time></trkpt><trkpt lat="44.93939141314247" lon="-1.1363135750586806"><ele>24.0</ele><time>2026-04-05T14:55:06Z</time></trkpt><trkpt lat="44.939268276603165" lon="-1.1362557124913422"><ele>24.25</ele><time>2026-04-05T14:55:07Z</time></trkpt><trkpt lat="44.939161947417254" lon="-1.136191084272269"><ele>24.5</ele><time>2026-04-05T14:55:08Z</time></trkpt><trkpt lat="44.93905979087628" lon="-1.1361131798385495"><ele>24.75</ele><time>2026-04-05T14:55:09Z</time></trkpt><trkpt lat="44.93894127138544" lon="-1.1360237349746456"><ele>25.0</ele><time>2026-04-05T14:55:10Z</time></trkpt><trkpt lat="44.93881747192218" lon="-1.1359301237646442"><ele>25.0</ele><time>2026-04-05T14:55:11Z</time></trkpt><trkpt lat="44.9387100957842" lon="-1.1358609337354422"><ele>25.0</ele><time>2026-04-05T14:55:12Z</time></trkpt><trkpt lat="44.938591622417796" lon="-1.1358099445815806"><ele>25.0</ele><time>2026-04-05T14:55:13Z</time></trkpt><trkpt lat="44.93845653052221" lon="-1.1357607106403629"><ele>25.0</ele><time>2026-04-05T14:55:14Z</time></trkpt><trkpt lat="44.93832323900478" lon="-1.1357056779269694"><ele>25.25</ele><time>2026-04-05T14:55:15Z</time></trkpt><trkpt lat="44.938207619339224" lon="-1.135663790868732"><ele>25.5</ele><time>2026-04-05T14:55:16Z</time></trkpt><trkpt lat="44.938077655316135" lon="-1.1356325377287317"><ele>25.75</ele><time>2026-04-05T14:55:17Z</time></trkpt><trkpt lat="44.93794361107528" lon="-1.1355992277046043"><ele>26.0</ele><time>2026-04-05T14:55:18Z</time></trkpt><trkpt lat="44.93780060865739" lon="-1.1355646291416197"><ele>26.0</ele><time>2026-04-05T14:55:19Z</time></trkpt><trkpt lat="44.93764772217631" lon="-1.135539924627166"><ele>26.0</ele><time>2026-04-05T14:55:20Z</time></trkpt><trkpt lat="44.93753191935986" lon="-1.1355354481918913"><ele>26.0</ele><time>2026-04-05T14:55:21Z</time></trkpt><trkpt lat="44.93742457383774" lon="-1.1355401053035858"><ele>26.0</ele><time>2026-04-05T14:55:22Z</time></trkpt><trkpt lat="44.93732793767083" lon="-1.135539559393233"><ele>25.666666666666664</ele><time>2026-04-05T14:55:23Z</time></trkpt><trkpt lat="44.937246321119055" lon="-1.1355369976109382"><ele>25.333333333333332</ele><time>2026-04-05T14:55:24Z</time></trkpt><trkpt lat="44.93716641618235" lon="-1.135544244435108"><ele>25.0</ele><time>2026-04-05T14:55:25Z</time></trkpt><trkpt lat="44.937075518537505" lon="-1.1355613200372585"><ele>24.666666666666664</ele><time>2026-04-05T14:55:25.999Z</time></trkpt><trkpt lat="44.936984376982295" lon="-1.1355826566671334"><ele>24.333333333333332</ele><time>2026-04-05T14:55:26.999Z</time></trkpt><trkpt lat="44.9368985542175" lon="-1.1355985767204855"><ele>24.0</ele><time>2026-04-05T14:55:27.999Z</time></trkpt><trkpt lat="44.93679587322155" lon="-1.135626073746437"><ele>24.0</ele><time>2026-04-05T14:55:28.999Z</time></trkpt><trkpt lat="44.93670019982261" lon="-1.135646608232915"><ele>24.0</ele><time>2026-04-05T14:55:29.999Z</time></trkpt><trkpt lat="44.93659920366041" lon="-1.1356713452041614"><ele>24.0</ele><time>2026-04-05T14:55:30.999Z</time></trkpt><trkpt lat="44.93648540569408" lon="-1.1357108787012582"><ele>24.0</ele><time>2026-04-05T14:55:31.999Z</time></trkpt><trkpt lat="44.936372665080825" lon="-1.13575856386899"><ele>24.0</ele><time>2026-04-05T14:55:32.999Z</time></trkpt><trkpt lat="44.93627580997362" lon="-1.1358003996553085"><ele>23.833333333333332</ele><time>2026-04-05T14:55:33.999Z</time></trkpt><trkpt lat="44.93619149623331" lon="-1.1358442517632124"><ele>23.666666666666668</ele><time>2026-04-05T14:55:34.999Z</time></trkpt><trkpt lat="44.936116615205705" lon="-1.1358772596351154"><ele>23.5</ele><time>2026-04-05T14:55:35.999Z</time></trkpt><trkpt lat="44.93604303590217" lon="-1.1359178902737481"><ele>23.333333333333336</ele><time>2026-04-05T14:55:37.999Z</time></trkpt><trkpt lat="44.93598595562987" lon="-1.1359709022433753"><ele>23.166666666666668</ele><time>2026-04-05T14:55:39.999Z</time></trkpt><trkpt lat="44.935925810789136" lon="-1.1359285687313094"><ele>23.0</ele><time>2026-04-05T14:55:43.999Z</time></trkpt><trkpt lat="44.93592680017003" lon="-1.1357785156160527"><ele>23.25</ele><time>2026-04-05T14:55:49.999Z</time></trkpt><trkpt lat="44.93593861400161" lon="-1.1356261558466259"><ele>23.5</ele><time>2026-04-05T14:55:50.999Z</time></trkpt><trkpt lat="44.93595446456619" lon="-1.1354403646929188"><ele>23.75</ele><time>2026-04-05T14:55:51.999Z</time></trkpt><trkpt lat="44.93597942273437" lon="-1.1352339476886626"><ele>24.0</ele><time>2026-04-05T14:55:52.999Z</time></trkpt><trkpt lat="44.9360040608559" lon="-1.135004016951897"><ele>24.25</ele><time>2026-04-05T14:55:53.999Z</time></trkpt><trkpt lat="44.93603915968985" lon="-1.134763881066941"><ele>24.5</ele><time>2026-04-05T14:55:54.999Z</time></trkpt><trkpt lat="44.93606738444576" lon="-1.1345644752785893"><ele>24.75</ele><time>2026-04-05T14:55:55.999Z</time></trkpt><trkpt lat="44.936092321413675" lon="-1.1343854444537154"><ele>25.0</ele><time>2026-04-05T14:55:56.999Z</time></trkpt><trkpt lat="44.93612207222916" lon="-1.1342123443838454"><ele>25.0</ele><time>2026-04-05T14:55:57.999Z</time></trkpt><trkpt lat="44.936166576694355" lon="-1.1340603816378687"><ele>25.0</ele><time>2026-04-05T14:55:58.999Z</time></trkpt><trkpt lat="44.9362181222485" lon="-1.1339025600321508"><ele>25.0</ele><time>2026-04-05T14:55:59.999Z</time></trkpt><trkpt lat="44.93627237410123" lon="-1.1337644726206364"><ele>25.0</ele><time>2026-04-05T14:56:00.999Z</time></trkpt><trkpt lat="44.936338300712514" lon="-1.1336449668402826"><ele>24.833333333333336</ele><time>2026-04-05T14:56:01.999Z</time></trkpt><trkpt lat="44.936416298261726" lon="-1.1334915803741203"><ele>24.666666666666668</ele><time>2026-04-05T14:56:02.999Z</time></trkpt><trkpt lat="44.93647099585951" lon="-1.1333695430378694"><ele>24.5</ele><time>2026-04-05T14:56:03.999Z</time></trkpt><trkpt lat="44.93650348857125" lon="-1.133285962547811"><ele>24.333333333333336</ele><time>2026-04-05T14:56:04.999Z</time></trkpt><trkpt lat="44.93651493709347" lon="-1.133194697915368"><ele>24.166666666666668</ele><time>2026-04-05T14:56:06.999Z</time></trkpt><trkpt lat="44.93648058261756" lon="-1.1331156843303887"><ele>24.0</ele><time>2026-04-05T14:56:08.999Z</time></trkpt><trkpt lat="44.93644055887223" lon="-1.1330355098989464"><ele>23.4</ele><time>2026-04-05T14:56:09.999Z</time></trkpt><trkpt lat="44.93637912538107" lon="-1.1329611579336365"><ele>22.799999999999997</ele><time>2026-04-05T14:56:10.999Z</time></trkpt><trkpt lat="44.93630970200673" lon="-1.1328609878816454"><ele>22.200000000000003</ele><time>2026-04-05T14:56:11.999Z</time></trkpt><trkpt lat="44.936222653375474" lon="-1.132729050829604"><ele>21.6</ele><time>2026-04-05T14:56:12.998Z</time></trkpt><trkpt lat="44.936167528847754" lon="-1.132608021514931"><ele>21.0</ele><time>2026-04-05T14:56:13.998Z</time></trkpt><trkpt lat="44.936105316051425" lon="-1.1324688038455113"><ele>20.2</ele><time>2026-04-05T14:56:14.998Z</time></trkpt><trkpt lat="44.93605175301486" lon="-1.1323460752685897"><ele>19.400000000000002</ele><time>2026-04-05T14:56:15.998Z</time></trkpt><trkpt lat="44.93601302977568" lon="-1.1322442106013664"><ele>18.6</ele><time>2026-04-05T14:56:16.998Z</time></trkpt><trkpt lat="44.93598342968242" lon="-1.1321026741882443"><ele>17.8</ele><time>2026-04-05T14:56:17.998Z</time></trkpt><trkpt lat="44.9359485474135" lon="-1.1319642504651495"><ele>17.0</ele><time>2026-04-05T14:56:18.998Z</time></trkpt><trkpt lat="44.935916592689665" lon="-1.131860227720158"><ele>17.5</ele><time>2026-04-05T14:56:19.998Z</time></trkpt><trkpt lat="44.935855874962726" lon="-1.1316518930425594"><ele>18.0</ele><time>2026-04-05T14:56:20.998Z</time></trkpt><trkpt lat="44.93579625186543" lon="-1.1315132633786311"><ele>18.5</ele><time>2026-04-05T14:56:21.998Z</time></trkpt><trkpt lat="44.93572213522218" lon="-1.131382696981256"><ele>19.0</ele><time>2026-04-05T14:56:22.998Z</time></trkpt><trkpt lat="44.93565793137103" lon="-1.1312575404588823"><ele>19.0</ele><time>2026-04-05T14:56:23.998Z</time></trkpt><trkpt lat="44.93560034246745" lon="-1.131132745634049"><ele>19.0</ele><time>2026-04-05T14:56:24.998Z</time></trkpt><trkpt lat="44.93555608142371" lon="-1.1310229787564223"><ele>19.0</ele><time>2026-04-05T14:56:25.998Z</time></trkpt><trkpt lat="44.93551740661609" lon="-1.130936604190458"><ele>19.0</ele><time>2026-04-05T14:56:26.998Z</time></trkpt><trkpt lat="44.93545651480664" lon="-1.130853412558865"><ele>19.0</ele><time>2026-04-05T14:56:27.998Z</time></trkpt><trkpt lat="44.93539845466737" lon="-1.1307839336008947"><ele>19.0</ele><time>2026-04-05T14:56:28.998Z</time></trkpt><trkpt lat="44.93532064874126" lon="-1.1307252284238742"><ele>18.8</ele><time>2026-04-05T14:56:29.998Z</time></trkpt><trkpt lat="44.935239898280564" lon="-1.1306568378522401"><ele>18.599999999999998</ele><time>2026-04-05T14:56:30.998Z</time></trkpt><trkpt lat="44.93516695735529" lon="-1.130604536309056"><ele>18.4</ele><time>2026-04-05T14:56:31.998Z</time></trkpt><trkpt lat="44.935058275300335" lon="-1.1305977285256863"><ele>18.2</ele><time>2026-04-05T14:56:32.998Z</time></trkpt><trkpt lat="44.93492176878948" lon="-1.1306127158155648"><ele>18.0</ele><time>2026-04-05T14:56:34Z</time></trkpt><trkpt lat="44.934812435973626" lon="-1.1306106286884843"><ele>19.333333333333332</ele><time>2026-04-05T14:56:35Z</time></trkpt><trkpt lat="44.93473519204064" lon="-1.1305960459371756"><ele>20.666666666666664</ele><time>2026-04-05T14:56:36Z</time></trkpt><trkpt lat="44.934669523704684" lon="-1.1305862601972319"><ele>22.0</ele><time>2026-04-05T14:56:37Z</time></trkpt><trkpt lat="44.93460097426055" lon="-1.1305955256520916"><ele>23.333333333333332</ele><time>2026-04-05T14:56:39Z</time></trkpt><trkpt lat="44.934527384592094" lon="-1.1306113399977602"><ele>24.666666666666664</ele><time>2026-04-05T14:56:41Z</time></trkpt><trkpt lat="44.93445625907054" lon="-1.1306231455318538"><ele>26.0</ele><time>2026-04-05T14:56:43Z</time></trkpt><trkpt lat="44.93432544075139" lon="-1.1306469392712708"><ele>26.0</ele><time>2026-04-05T14:56:45Z</time></trkpt><trkpt lat="44.934200167924196" lon="-1.130662220652033"><ele>26.0</ele><time>2026-04-05T14:56:47Z</time></trkpt><trkpt lat="44.9341364274131" lon="-1.1306530199574762"><ele>26.0</ele><time>2026-04-05T14:56:48Z</time></trkpt><trkpt lat="44.93401546587945" lon="-1.1306731411003141"><ele>26.0</ele><time>2026-04-05T14:56:50Z</time></trkpt><trkpt lat="44.93387949923986" lon="-1.1307363014497374"><ele>26.0</ele><time>2026-04-05T14:56:52Z</time></trkpt><trkpt lat="44.933741319833025" lon="-1.130746817288905"><ele>26.0</ele><time>2026-04-05T14:56:54Z</time></trkpt><trkpt lat="44.93365808638377" lon="-1.1307197080198956"><ele>26.0</ele><time>2026-04-05T14:56:55Z</time></trkpt><trkpt lat="44.93355326716752" lon="-1.1306876978269034"><ele>26.0</ele><time>2026-04-05T14:56:56Z</time></trkpt><trkpt lat="44.93347408136083" lon="-1.1306612048490012"><ele>26.0</ele><time>2026-04-05T14:56:57Z</time></trkpt><trkpt lat="44.933405581420985" lon="-1.1306499907311187"><ele>26.5</ele><time>2026-04-05T14:56:58Z</time></trkpt><trkpt lat="44.93327678819991" lon="-1.130671180161705"><ele>27.0</ele><time>2026-04-05T14:56:59Z</time></trkpt><trkpt lat="44.933165397796735" lon="-1.13070424214914"><ele>27.5</ele><time>2026-04-05T14:57:00Z</time></trkpt><trkpt lat="44.93304524028263" lon="-1.1307391764564272"><ele>28.0</ele><time>2026-04-05T14:57:01Z</time></trkpt><trkpt lat="44.93292326602516" lon="-1.1307810990486993"><ele>27.599999999999998</ele><time>2026-04-05T14:57:02Z</time></trkpt><trkpt lat="44.93281137360401" lon="-1.1308420628040012"><ele>27.199999999999996</ele><time>2026-04-05T14:57:04Z</time></trkpt><trkpt lat="44.93273491024953" lon="-1.1309163487688665"><ele>26.8</ele><time>2026-04-05T14:57:05Z</time></trkpt><trkpt lat="44.932649807750536" lon="-1.131018901924076"><ele>26.4</ele><time>2026-04-05T14:57:06Z</time></trkpt><trkpt lat="44.93256944807849" lon="-1.1311021883490404"><ele>26.0</ele><time>2026-04-05T14:57:07Z</time></trkpt><trkpt lat="44.93247647595935" lon="-1.131165454628314"><ele>26.0</ele><time>2026-04-05T14:57:08Z</time></trkpt><trkpt lat="44.932356948851485" lon="-1.1312121326647808"><ele>26.0</ele><time>2026-04-05T14:57:09Z</time></trkpt><trkpt lat="44.93226184108759" lon="-1.1312354933408364"><ele>26.0</ele><time>2026-04-05T14:57:10Z</time></trkpt><trkpt lat="44.932181933280305" lon="-1.1312763632892306"><ele>26.0</ele><time>2026-04-05T14:57:11Z</time></trkpt><trkpt lat="44.93210151434662" lon="-1.1313471485381454"><ele>26.0</ele><time>2026-04-05T14:57:12Z</time></trkpt><trkpt lat="44.932007418259204" lon="-1.1314436243765154"><ele>26.0</ele><time>2026-04-05T14:57:13Z</time></trkpt><trkpt lat="44.931897656193684" lon="-1.1315502749901063"><ele>26.0</ele><time>2026-04-05T14:57:14Z</time></trkpt><trkpt lat="44.931775410990355" lon="-1.1316653358634612"><ele>26.0</ele><time>2026-04-05T14:57:15Z</time></trkpt><trkpt lat="44.93162250776128" lon="-1.1317819672326124"><ele>24.75</ele><time>2026-04-05T14:57:16Z</time></trkpt><trkpt lat="44.93148255549745" lon="-1.1318697521114474"><ele>23.5</ele><time>2026-04-05T14:57:17Z</time></trkpt><trkpt lat="44.93137995335364" lon="-1.1319297078002002"><ele>22.25</ele><time>2026-04-05T14:57:18Z</time></trkpt><trkpt lat="44.93129537966261" lon="-1.1319298566186486"><ele>21.0</ele><time>2026-04-05T14:57:19Z</time></trkpt><trkpt lat="44.93118282800954" lon="-1.1319129759811617"><ele>21.0</ele><time>2026-04-05T14:57:20Z</time></trkpt><trkpt lat="44.93111170411057" lon="-1.1319263222014129"><ele>21.0</ele><time>2026-04-05T14:57:21Z</time></trkpt><trkpt lat="44.931046410736066" lon="-1.1320070640090532"><ele>21.0</ele><time>2026-04-05T14:57:22Z</time></trkpt><trkpt lat="44.93097370275071" lon="-1.1319702546088586"><ele>21.0</ele><time>2026-04-05T14:57:24Z</time></trkpt><trkpt lat="44.9309263780374" lon="-1.1318881189006182"><ele>21.0</ele><time>2026-04-05T14:57:25Z</time></trkpt><trkpt lat="44.93084457583006" lon="-1.1318728968835186"><ele>21.0</ele><time>2026-04-05T14:57:33.999Z</time></trkpt><trkpt lat="44.93078820908821" lon="-1.131952000524601"><ele>21.25</ele><time>2026-04-05T14:57:34.999Z</time></trkpt><trkpt lat="44.9307136112006" lon="-1.132040850224423"><ele>21.5</ele><time>2026-04-05T14:57:35.999Z</time></trkpt><trkpt lat="44.930612704817015" lon="-1.132100998199975"><ele>21.75</ele><time>2026-04-05T14:57:36.999Z</time></trkpt><trkpt lat="44.93048352836193" lon="-1.132143796579001"><ele>22.0</ele><time>2026-04-05T14:57:37.999Z</time></trkpt><trkpt lat="44.93035398164664" lon="-1.1321923589413556"><ele>22.0</ele><time>2026-04-05T14:57:38.999Z</time></trkpt><trkpt lat="44.9302518844541" lon="-1.1322747628122727"><ele>22.0</ele><time>2026-04-05T14:57:39.999Z</time></trkpt><trkpt lat="44.93016011908626" lon="-1.132365237239748"><ele>22.0</ele><time>2026-04-05T14:57:40.999Z</time></trkpt><trkpt lat="44.93009235827954" lon="-1.1324179393485034"><ele>22.0</ele><time>2026-04-05T14:57:41.999Z</time></trkpt><trkpt lat="44.92998015558802" lon="-1.1324494571116486"><ele>22.0</ele><time>2026-04-05T14:57:43.999Z</time></trkpt><trkpt lat="44.929898642172944" lon="-1.1324366728194564"><ele>22.0</ele><time>2026-04-05T14:57:44.999Z</time></trkpt><trkpt lat="44.92982060162155" lon="-1.1324112446977441"><ele>22.0</ele><time>2026-04-05T14:57:45.999Z</time></trkpt><trkpt lat="44.9297229025816" lon="-1.132343555383222"><ele>22.0</ele><time>2026-04-05T14:57:46.999Z</time></trkpt><trkpt lat="44.929606637964454" lon="-1.132230259625463"><ele>22.0</ele><time>2026-04-05T14:57:47.999Z</time></trkpt><trkpt lat="44.92951901127944" lon="-1.132133622624967"><ele>22.0</ele><time>2026-04-05T14:57:48.999Z</time></trkpt><trkpt lat="44.92942437143234" lon="-1.131970783633946"><ele>22.0</ele><time>2026-04-05T14:57:49.999Z</time></trkpt><trkpt lat="44.929309073818025" lon="-1.1317973968314698"><ele>22.0</ele><time>2026-04-05T14:57:50.999Z</time></trkpt><trkpt lat="44.929214022946276" lon="-1.131638652984271"><ele>22.0</ele><time>2026-04-05T14:57:51.999Z</time></trkpt><trkpt lat="44.92913395707693" lon="-1.1314585540688775"><ele>22.0</ele><time>2026-04-05T14:57:52.999Z</time></trkpt><trkpt lat="44.92904524731602" lon="-1.1312028963741991"><ele>22.0</ele><time>2026-04-05T14:57:53.999Z</time></trkpt><trkpt lat="44.92895380670212" lon="-1.1310148759740828"><ele>22.0</ele><time>2026-04-05T14:57:54.999Z</time></trkpt><trkpt lat="44.92890591512007" lon="-1.1308332758745212"><ele>21.0</ele><time>2026-04-05T14:57:55.999Z</time></trkpt><trkpt lat="44.928846552148116" lon="-1.130661427849704"><ele>20.0</ele><time>2026-04-05T14:57:56.999Z</time></trkpt><trkpt lat="44.928761751273356" lon="-1.1304972387741719"><ele>19.0</ele><time>2026-04-05T14:57:57.999Z</time></trkpt><trkpt lat="44.92866705128503" lon="-1.1303711084278079"><ele>18.0</ele><time>2026-04-05T14:57:58.999Z</time></trkpt><trkpt lat="44.92855958784157" lon="-1.1302532180143516"><ele>18.0</ele><time>2026-04-05T14:57:59.999Z</time></trkpt><trkpt lat="44.928432777358005" lon="-1.130129398961189"><ele>18.0</ele><time>2026-04-05T14:58:00.999Z</time></trkpt><trkpt lat="44.928327714305816" lon="-1.1300095628005598"><ele>18.0</ele><time>2026-04-05T14:58:01.999Z</time></trkpt><trkpt lat="44.92823225400601" lon="-1.1298725708797077"><ele>18.0</ele><time>2026-04-05T14:58:02.999Z</time></trkpt><trkpt lat="44.928138368947934" lon="-1.129724003026651"><ele>18.6</ele><time>2026-04-05T14:58:03.999Z</time></trkpt><trkpt lat="44.92805684488031" lon="-1.1295986796104058"><ele>19.200000000000003</ele><time>2026-04-05T14:58:04.999Z</time></trkpt><trkpt lat="44.92799639292393" lon="-1.1295088517814862"><ele>19.8</ele><time>2026-04-05T14:58:05.999Z</time></trkpt><trkpt lat="44.92795459377382" lon="-1.1294371596967352"><ele>20.400000000000002</ele><time>2026-04-05T14:58:06.999Z</time></trkpt><trkpt lat="44.92788998521545" lon="-1.1293240363034511"><ele>21.0</ele><time>2026-04-05T14:58:08.999Z</time></trkpt><trkpt lat="44.92783199223735" lon="-1.1292085771965952"><ele>21.0</ele><time>2026-04-05T14:58:10.999Z</time></trkpt><trkpt lat="44.92777890479259" lon="-1.1291042132394644"><ele>21.0</ele><time>2026-04-05T14:58:12.999Z</time></trkpt><trkpt lat="44.92771923801034" lon="-1.1290430435164385"><ele>21.0</ele><time>2026-04-05T14:58:13.998Z</time></trkpt><trkpt lat="44.92766014872241" lon="-1.1290062052288798"><ele>21.0</ele><time>2026-04-05T14:58:14.998Z</time></trkpt><trkpt lat="44.92760528069758" lon="-1.1289569511596471"><ele>21.0</ele><time>2026-04-05T14:58:15.998Z</time></trkpt><trkpt lat="44.92754901369477" lon="-1.1288746941348953"><ele>21.0</ele><time>2026-04-05T14:58:16.998Z</time></trkpt><trkpt lat="44.9274781057064" lon="-1.1287735803142638"><ele>21.5</ele><time>2026-04-05T14:58:17.998Z</time></trkpt><trkpt lat="44.92738594814681" lon="-1.1286624192417114"><ele>22.0</ele><time>2026-04-05T14:58:18.998Z</time></trkpt><trkpt lat="44.927281955860536" lon="-1.128544769852532"><ele>22.5</ele><time>2026-04-05T14:58:19.998Z</time></trkpt><trkpt lat="44.927169201412276" lon="-1.1284398704812124"><ele>23.0</ele><time>2026-04-05T14:58:20.998Z</time></trkpt><trkpt lat="44.92704237719115" lon="-1.1283229149537943"><ele>22.599999999999998</ele><time>2026-04-05T14:58:21.998Z</time></trkpt><trkpt lat="44.92694144959897" lon="-1.1282217440653228"><ele>22.2</ele><time>2026-04-05T14:58:22.998Z</time></trkpt><trkpt lat="44.92687361123372" lon="-1.1281244911766937"><ele>21.8</ele><time>2026-04-05T14:58:23.998Z</time></trkpt><trkpt lat="44.92680382481168" lon="-1.1280034587622312"><ele>21.4</ele><time>2026-04-05T14:58:24.998Z</time></trkpt><trkpt lat="44.9267273148716" lon="-1.1279209171596123"><ele>21.0</ele><time>2026-04-05T14:58:25.998Z</time></trkpt><trkpt lat="44.92662887087988" lon="-1.1278780640132182"><ele>20.75</ele><time>2026-04-05T14:58:26.998Z</time></trkpt><trkpt lat="44.92652857415231" lon="-1.1278659411721934"><ele>20.5</ele><time>2026-04-05T14:58:27.998Z</time></trkpt><trkpt lat="44.926419492279614" lon="-1.1278866000763093"><ele>20.25</ele><time>2026-04-05T14:58:28.998Z</time></trkpt><trkpt lat="44.926283789177766" lon="-1.1279304182004746"><ele>20.0</ele><time>2026-04-05T14:58:29.998Z</time></trkpt><trkpt lat="44.926112701466614" lon="-1.1279651628452096"><ele>20.0</ele><time>2026-04-05T14:58:30.998Z</time></trkpt><trkpt lat="44.925977843186445" lon="-1.1279787524250349"><ele>20.0</ele><time>2026-04-05T14:58:31.998Z</time></trkpt><trkpt lat="44.92586699091391" lon="-1.1279885481653877"><ele>20.0</ele><time>2026-04-05T14:58:32.998Z</time></trkpt><trkpt lat="44.925771966534306" lon="-1.1279893069306344"><ele>20.0</ele><time>2026-04-05T14:58:33.998Z</time></trkpt><trkpt lat="44.92568291344418" lon="-1.1279483183631687"><ele>20.0</ele><time>2026-04-05T14:58:34.998Z</time></trkpt><trkpt lat="44.92557066083973" lon="-1.1278836141853756"><ele>19.8</ele><time>2026-04-05T14:58:35.998Z</time></trkpt><trkpt lat="44.925490958170776" lon="-1.1278475253310982"><ele>19.6</ele><time>2026-04-05T14:58:36.998Z</time></trkpt><trkpt lat="44.925405166620315" lon="-1.1277925572901937"><ele>19.4</ele><time>2026-04-05T14:58:39Z</time></trkpt><trkpt lat="44.925360308023464" lon="-1.12771131490543"><ele>19.2</ele><time>2026-04-05T14:58:40Z</time></trkpt><trkpt lat="44.92530241174957" lon="-1.1275384670571806"><ele>19.0</ele><time>2026-04-05T14:58:41Z</time></trkpt><trkpt lat="44.92524447438851" lon="-1.1273639583222506"><ele>18.0</ele><time>2026-04-05T14:58:42Z</time></trkpt><trkpt lat="44.92519234921375" lon="-1.12721752783808"><ele>17.0</ele><time>2026-04-05T14:58:43Z</time></trkpt><trkpt lat="44.925141786236416" lon="-1.12707448185637"><ele>15.999999999999998</ele><time>2026-04-05T14:58:44Z</time></trkpt><trkpt lat="44.92509454369276" lon="-1.1269376681760208"><ele>15.0</ele><time>2026-04-05T14:58:45Z</time></trkpt><trkpt lat="44.9250431655229" lon="-1.1268630628380647"><ele>14.0</ele><time>2026-04-05T14:58:47Z</time></trkpt><trkpt lat="44.92498202324253" lon="-1.12690371257288"><ele>16.5</ele><time>2026-04-05T14:58:48Z</time></trkpt><trkpt lat="44.92489151623782" lon="-1.126953025104547"><ele>19.0</ele><time>2026-04-05T14:58:49Z</time></trkpt><trkpt lat="44.92475013885659" lon="-1.1270175883419695"><ele>21.5</ele><time>2026-04-05T14:58:50Z</time></trkpt><trkpt lat="44.92458560312168" lon="-1.127075854875362"><ele>24.0</ele><time>2026-04-05T14:58:51Z</time></trkpt><trkpt lat="44.924436177236835" lon="-1.1271232848130386"><ele>24.0</ele><time>2026-04-05T14:58:52Z</time></trkpt><trkpt lat="44.9243240359143" lon="-1.1271535330731406"><ele>24.0</ele><time>2026-04-05T14:58:53Z</time></trkpt><trkpt lat="44.924205294005766" lon="-1.1272100616586738"><ele>24.0</ele><time>2026-04-05T14:58:54Z</time></trkpt><trkpt lat="44.92411513230968" lon="-1.1272332498313058"><ele>24.0</ele><time>2026-04-05T14:58:55Z</time></trkpt><trkpt lat="44.924002500895256" lon="-1.1272508581464387"><ele>24.0</ele><time>2026-04-05T14:58:57Z</time></trkpt><trkpt lat="44.92392376390847" lon="-1.127278099794084"><ele>24.6</ele><time>2026-04-05T14:58:58Z</time></trkpt><trkpt lat="44.92382592671315" lon="-1.1273040063407314"><ele>25.2</ele><time>2026-04-05T14:58:59Z</time></trkpt><trkpt lat="44.92371648329891" lon="-1.1273438324203056"><ele>25.800000000000004</ele><time>2026-04-05T14:59:00Z</time></trkpt><trkpt lat="44.92360988799234" lon="-1.1273803273902114"><ele>26.400000000000002</ele><time>2026-04-05T14:59:01Z</time></trkpt><trkpt lat="44.92350972642952" lon="-1.1274187340853932"><ele>27.0</ele><time>2026-04-05T14:59:02Z</time></trkpt><trkpt lat="44.92341682623997" lon="-1.127445623555738"><ele>27.0</ele><time>2026-04-05T14:59:03Z</time></trkpt><trkpt lat="44.92329861772039" lon="-1.1274761286252826"><ele>27.000000000000004</ele><time>2026-04-05T14:59:04Z</time></trkpt><trkpt lat="44.92321270327866" lon="-1.1275024543387564"><ele>27.000000000000004</ele><time>2026-04-05T14:59:05Z</time></trkpt><trkpt lat="44.92310834056366" lon="-1.1275262320956412"><ele>27.0</ele><time>2026-04-05T14:59:06Z</time></trkpt><trkpt lat="44.922994593059585" lon="-1.1275326951712914"><ele>27.0</ele><time>2026-04-05T14:59:07Z</time></trkpt><trkpt lat="44.92287948380263" lon="-1.1275253553842903"><ele>27.0</ele><time>2026-04-05T14:59:08Z</time></trkpt><trkpt lat="44.92278968620579" lon="-1.127511286573707"><ele>27.000000000000004</ele><time>2026-04-05T14:59:09Z</time></trkpt><trkpt lat="44.92269123811519" lon="-1.1275183698962465"><ele>27.000000000000004</ele><time>2026-04-05T14:59:11Z</time></trkpt><trkpt lat="44.92262722810101" lon="-1.1273915407787296"><ele>27.0</ele><time>2026-04-05T15:02:48.998Z</time></trkpt><trkpt lat="44.92263678707579" lon="-1.1272849490764778"><ele>27.0</ele><time>2026-04-05T15:02:51Z</time></trkpt><trkpt lat="44.92264940921823" lon="-1.1271076850601367"><ele>27.0</ele><time>2026-04-05T15:02:53Z</time></trkpt><trkpt lat="44.92265102531269" lon="-1.1270141946896324"><ele>27.0</ele><time>2026-04-05T15:02:54Z</time></trkpt><trkpt lat="44.92265508548348" lon="-1.1269058211616576"><ele>27.0</ele><time>2026-04-05T15:02:55Z</time></trkpt><trkpt lat="44.92266271375948" lon="-1.1267850440866811"><ele>27.0</ele><time>2026-04-05T15:02:56Z</time></trkpt><trkpt lat="44.92267073225319" lon="-1.12666717202664"><ele>27.0</ele><time>2026-04-05T15:02:57Z</time></trkpt><trkpt lat="44.92267534277687" lon="-1.12653971482383"><ele>27.0</ele><time>2026-04-05T15:02:58Z</time></trkpt><trkpt lat="44.922678433469486" lon="-1.1264195684039082"><ele>26.6</ele><time>2026-04-05T15:02:59Z</time></trkpt><trkpt lat="44.92268602063949" lon="-1.1262812300896332"><ele>26.200000000000003</ele><time>2026-04-05T15:03:00Z</time></trkpt><trkpt lat="44.92269430199873" lon="-1.1261231429100917"><ele>25.8</ele><time>2026-04-05T15:03:01Z</time></trkpt><trkpt lat="44.92270044320313" lon="-1.1259670315282455"><ele>25.4</ele><time>2026-04-05T15:03:02Z</time></trkpt><trkpt lat="44.92271101941556" lon="-1.1258344302242442"><ele>25.0</ele><time>2026-04-05T15:03:03Z</time></trkpt><trkpt lat="44.922717205999916" lon="-1.1257263388602246"><ele>24.8</ele><time>2026-04-05T15:03:04Z</time></trkpt><trkpt lat="44.92272049133404" lon="-1.1255831555931108"><ele>24.6</ele><time>2026-04-05T15:03:05Z</time></trkpt><trkpt lat="44.92272572938371" lon="-1.125444192772461"><ele>24.4</ele><time>2026-04-05T15:03:06Z</time></trkpt><trkpt lat="44.922733953620295" lon="-1.1253005828612148"><ele>24.2</ele><time>2026-04-05T15:03:07Z</time></trkpt><trkpt lat="44.9227384077536" lon="-1.125143990088655"><ele>24.0</ele><time>2026-04-05T15:03:08Z</time></trkpt><trkpt lat="44.92274436018164" lon="-1.1249827045485055"><ele>24.2</ele><time>2026-04-05T15:03:09Z</time></trkpt><trkpt lat="44.92275153892535" lon="-1.1248148953386827"><ele>24.4</ele><time>2026-04-05T15:03:10Z</time></trkpt><trkpt lat="44.92275622199564" lon="-1.1246556540033357"><ele>24.6</ele><time>2026-04-05T15:03:11Z</time></trkpt><trkpt lat="44.922762573783146" lon="-1.1245159506668485"><ele>24.8</ele><time>2026-04-05T15:03:12Z</time></trkpt><trkpt lat="44.922768592376585" lon="-1.124370515179629"><ele>25.0</ele><time>2026-04-05T15:03:13Z</time></trkpt><trkpt lat="44.92277603933879" lon="-1.124204503899913"><ele>24.8</ele><time>2026-04-05T15:03:14Z</time></trkpt><trkpt lat="44.922785123707655" lon="-1.1240594530791246"><ele>24.6</ele><time>2026-04-05T15:03:15Z</time></trkpt><trkpt lat="44.922790289507844" lon="-1.1239091459646535"><ele>24.4</ele><time>2026-04-05T15:03:16Z</time></trkpt><trkpt lat="44.92280314701359" lon="-1.123757941813753"><ele>24.2</ele><time>2026-04-05T15:03:17Z</time></trkpt><trkpt lat="44.92281110620364" lon="-1.1235788113912144"><ele>24.0</ele><time>2026-04-05T15:03:18Z</time></trkpt><trkpt lat="44.92281473219097" lon="-1.1234288008310536"><ele>24.0</ele><time>2026-04-05T15:03:19Z</time></trkpt><trkpt lat="44.92282264626576" lon="-1.1232840512765174"><ele>24.0</ele><time>2026-04-05T15:03:20Z</time></trkpt><trkpt lat="44.922833569307436" lon="-1.1231172443289408"><ele>24.0</ele><time>2026-04-05T15:03:21Z</time></trkpt><trkpt lat="44.922840936938236" lon="-1.1229333358360347"><ele>24.0</ele><time>2026-04-05T15:03:22Z</time></trkpt><trkpt lat="44.92284743116324" lon="-1.1227650923702794"><ele>23.4</ele><time>2026-04-05T15:03:23Z</time></trkpt><trkpt lat="44.9228560232404" lon="-1.1226357109764855"><ele>22.799999999999997</ele><time>2026-04-05T15:03:24Z</time></trkpt><trkpt lat="44.92286656587132" lon="-1.1224808691827275"><ele>22.200000000000003</ele><time>2026-04-05T15:03:25Z</time></trkpt><trkpt lat="44.92287510839989" lon="-1.122317099346878"><ele>21.6</ele><time>2026-04-05T15:03:26Z</time></trkpt><trkpt lat="44.92288304963827" lon="-1.1221342507535526"><ele>21.0</ele><time>2026-04-05T15:03:27Z</time></trkpt><trkpt lat="44.92289045930743" lon="-1.1219540031801118"><ele>20.400000000000002</ele><time>2026-04-05T15:03:27.999Z</time></trkpt><trkpt lat="44.92289778398305" lon="-1.12179688853445"><ele>19.8</ele><time>2026-04-05T15:03:28.999Z</time></trkpt><trkpt lat="44.92290538501619" lon="-1.1216688254071523"><ele>19.200000000000003</ele><time>2026-04-05T15:03:29.999Z</time></trkpt><trkpt lat="44.92291161136977" lon="-1.121531040611166"><ele>18.6</ele><time>2026-04-05T15:03:30.999Z</time></trkpt><trkpt lat="44.92292173599236" lon="-1.121416868892782"><ele>18.0</ele><time>2026-04-05T15:03:31.999Z</time></trkpt><trkpt lat="44.9229324317319" lon="-1.1213151365343004"><ele>18.0</ele><time>2026-04-05T15:03:32.999Z</time></trkpt><trkpt lat="44.92294363469016" lon="-1.1211949165039343"><ele>18.0</ele><time>2026-04-05T15:03:33.999Z</time></trkpt><trkpt lat="44.92295778630173" lon="-1.121106340040039"><ele>18.0</ele><time>2026-04-05T15:03:34.999Z</time></trkpt><trkpt lat="44.922918064202484" lon="-1.121019400441854"><ele>18.0</ele><time>2026-04-05T15:03:37.999Z</time></trkpt><trkpt lat="44.92277479222334" lon="-1.1210069060742445"><ele>18.0</ele><time>2026-04-05T15:03:39.999Z</time></trkpt><trkpt lat="44.92266001298638" lon="-1.120964795102805"><ele>17.0</ele><time>2026-04-05T15:03:40.999Z</time></trkpt><trkpt lat="44.92253184428862" lon="-1.1209398275631113"><ele>16.0</ele><time>2026-04-05T15:03:41.999Z</time></trkpt><trkpt lat="44.92241370279247" lon="-1.12092912660918"><ele>15.0</ele><time>2026-04-05T15:03:42.999Z</time></trkpt><trkpt lat="44.922284977359226" lon="-1.120930096124454"><ele>14.0</ele><time>2026-04-05T15:03:43.999Z</time></trkpt><trkpt lat="44.922142564611924" lon="-1.120895367821548"><ele>14.0</ele><time>2026-04-05T15:03:44.999Z</time></trkpt><trkpt lat="44.921965269890634" lon="-1.1208649518464442"><ele>14.0</ele><time>2026-04-05T15:03:45.999Z</time></trkpt><trkpt lat="44.92178462380389" lon="-1.1208270050675098"><ele>14.0</ele><time>2026-04-05T15:03:46.999Z</time></trkpt><trkpt lat="44.9216117646301" lon="-1.1208016611189224"><ele>14.0</ele><time>2026-04-05T15:03:47.999Z</time></trkpt><trkpt lat="44.92148129612415" lon="-1.1207743268745778"><ele>14.0</ele><time>2026-04-05T15:03:48.999Z</time></trkpt><trkpt lat="44.921331683624224" lon="-1.1207291442544491"><ele>14.0</ele><time>2026-04-05T15:03:49.999Z</time></trkpt><trkpt lat="44.9211923952759" lon="-1.1207090861580962"><ele>14.0</ele><time>2026-04-05T15:03:50.999Z</time></trkpt><trkpt lat="44.92101948398427" lon="-1.1206930988637838"><ele>14.0</ele><time>2026-04-05T15:03:51.999Z</time></trkpt><trkpt lat="44.920884575915416" lon="-1.1206567523454805"><ele>14.0</ele><time>2026-04-05T15:03:52.999Z</time></trkpt><trkpt lat="44.92074617012531" lon="-1.1206321337559615"><ele>14.0</ele><time>2026-04-05T15:03:53.999Z</time></trkpt><trkpt lat="44.92057485378647" lon="-1.1206205023016025"><ele>14.0</ele><time>2026-04-05T15:03:54.999Z</time></trkpt><trkpt lat="44.92043255732279" lon="-1.1206099203655837"><ele>14.0</ele><time>2026-04-05T15:03:55.999Z</time></trkpt><trkpt lat="44.9202749982356" lon="-1.1206148021490892"><ele>14.0</ele><time>2026-04-05T15:03:56.999Z</time></trkpt><trkpt lat="44.92013109906342" lon="-1.1206525066528696"><ele>14.0</ele><time>2026-04-05T15:03:57.999Z</time></trkpt><trkpt lat="44.919986725836225" lon="-1.1206953827892805"><ele>14.0</ele><time>2026-04-05T15:03:58.999Z</time></trkpt><trkpt lat="44.919859057723954" lon="-1.12073386530768"><ele>14.0</ele><time>2026-04-05T15:03:59.999Z</time></trkpt><trkpt lat="44.919723057192044" lon="-1.1207805402879272"><ele>14.0</ele><time>2026-04-05T15:04:00.999Z</time></trkpt><trkpt lat="44.91956256519907" lon="-1.1208684082682732"><ele>14.0</ele><time>2026-04-05T15:04:01.999Z</time></trkpt><trkpt lat="44.919435863485496" lon="-1.1209241953999738"><ele>14.0</ele><time>2026-04-05T15:04:02.999Z</time></trkpt><trkpt lat="44.91930786951347" lon="-1.121006971844111"><ele>14.0</ele><time>2026-04-05T15:04:03.999Z</time></trkpt><trkpt lat="44.919153251135164" lon="-1.121135726051641"><ele>14.0</ele><time>2026-04-05T15:04:04.999Z</time></trkpt><trkpt lat="44.91897660626051" lon="-1.1212726866246387"><ele>14.25</ele><time>2026-04-05T15:04:05.999Z</time></trkpt><trkpt lat="44.91881327259718" lon="-1.12139713043678"><ele>14.5</ele><time>2026-04-05T15:04:06.999Z</time></trkpt><trkpt lat="44.91868962576138" lon="-1.1214739276370005"><ele>14.75</ele><time>2026-04-05T15:04:07.999Z</time></trkpt><trkpt lat="44.91859616943928" lon="-1.1215449278830987"><ele>15.0</ele><time>2026-04-05T15:04:08.999Z</time></trkpt><trkpt lat="44.91848177979176" lon="-1.121664782097593"><ele>14.666666666666668</ele><time>2026-04-05T15:04:09.999Z</time></trkpt><trkpt lat="44.91834169309515" lon="-1.1218019100292234"><ele>14.333333333333334</ele><time>2026-04-05T15:04:10.999Z</time></trkpt><trkpt lat="44.91818851924216" lon="-1.1219251961058432"><ele>14.0</ele><time>2026-04-05T15:04:11.999Z</time></trkpt><trkpt lat="44.918062435235285" lon="-1.1220351192101792"><ele>14.0</ele><time>2026-04-05T15:04:12.999Z</time></trkpt><trkpt lat="44.91795684834762" lon="-1.1221296881465697"><ele>14.0</ele><time>2026-04-05T15:04:13.999Z</time></trkpt><trkpt lat="44.91782298516415" lon="-1.1222421992902547"><ele>14.0</ele><time>2026-04-05T15:04:14.999Z</time></trkpt><trkpt lat="44.91770008184309" lon="-1.1223070031515672"><ele>14.0</ele><time>2026-04-05T15:04:15.999Z</time></trkpt><trkpt lat="44.91762813954269" lon="-1.1223382105547084"><ele>14.25</ele><time>2026-04-05T15:04:16.998Z</time></trkpt><trkpt lat="44.91748975710117" lon="-1.1224603083184526"><ele>14.5</ele><time>2026-04-05T15:04:18.998Z</time></trkpt><trkpt lat="44.917392515427316" lon="-1.1225597033548633"><ele>14.75</ele><time>2026-04-05T15:04:19.998Z</time></trkpt><trkpt lat="44.91730456846979" lon="-1.1226273061259737"><ele>15.0</ele><time>2026-04-05T15:04:20.998Z</time></trkpt><trkpt lat="44.91698766367427" lon="-1.1228453290598504"><ele>15.0</ele><time>2026-04-05T15:04:21.998Z</time></trkpt><trkpt lat="44.916778276281455" lon="-1.1229895630412616"><ele>15.0</ele><time>2026-04-05T15:04:22.998Z</time></trkpt><trkpt lat="44.91655602771804" lon="-1.1231676078634205"><ele>15.0</ele><time>2026-04-05T15:04:23.998Z</time></trkpt><trkpt lat="44.91631245311665" lon="-1.1233655389830561"><ele>15.0</ele><time>2026-04-05T15:04:24.998Z</time></trkpt><trkpt lat="44.91607229522666" lon="-1.1235579406720622"><ele>15.5</ele><time>2026-04-05T15:04:25.998Z</time></trkpt><trkpt lat="44.9158482524281" lon="-1.1237239524798748"><ele>16.0</ele><time>2026-04-05T15:04:26.998Z</time></trkpt><trkpt lat="44.91566159384562" lon="-1.123865843262211"><ele>16.0</ele><time>2026-04-05T15:04:27.998Z</time></trkpt><trkpt lat="44.91546030925281" lon="-1.124020970298937"><ele>16.0</ele><time>2026-04-05T15:04:28.998Z</time></trkpt><trkpt lat="44.915267430090076" lon="-1.1241496264554063"><ele>16.0</ele><time>2026-04-05T15:04:29.998Z</time></trkpt><trkpt lat="44.91506535671049" lon="-1.124308758662685"><ele>16.0</ele><time>2026-04-05T15:04:30.998Z</time></trkpt><trkpt lat="44.91488423039025" lon="-1.1244561358979186"><ele>16.0</ele><time>2026-04-05T15:04:31.998Z</time></trkpt><trkpt lat="44.91468341309822" lon="-1.1246078167730946"><ele>16.0</ele><time>2026-04-05T15:04:32.998Z</time></trkpt><trkpt lat="44.91449341617715" lon="-1.1247624109931258"><ele>15.5</ele><time>2026-04-05T15:04:33.998Z</time></trkpt><trkpt lat="44.914273431023474" lon="-1.124920392036266"><ele>15.0</ele><time>2026-04-05T15:04:34.998Z</time></trkpt><trkpt lat="44.9140590834274" lon="-1.1250797219505266"><ele>15.0</ele><time>2026-04-05T15:04:35.998Z</time></trkpt><trkpt lat="44.91387926095343" lon="-1.1252060221116091"><ele>15.0</ele><time>2026-04-05T15:04:36.998Z</time></trkpt><trkpt lat="44.91370872440004" lon="-1.125325270100901"><ele>15.0</ele><time>2026-04-05T15:04:37.998Z</time></trkpt><trkpt lat="44.9135431268559" lon="-1.125451008326062"><ele>14.666666666666668</ele><time>2026-04-05T15:04:38.998Z</time></trkpt><trkpt lat="44.91338104034374" lon="-1.1255765196315481"><ele>14.333333333333334</ele><time>2026-04-05T15:04:39.998Z</time></trkpt><trkpt lat="44.913202284839144" lon="-1.125710621525249"><ele>14.0</ele><time>2026-04-05T15:04:40.998Z</time></trkpt><trkpt lat="44.913023205522755" lon="-1.1258559061589972"><ele>14.0</ele><time>2026-04-05T15:04:41.998Z</time></trkpt><trkpt lat="44.912837354764434" lon="-1.126005208470733"><ele>14.0</ele><time>2026-04-05T15:04:42.998Z</time></trkpt><trkpt lat="44.91265929008773" lon="-1.126142536238449"><ele>14.0</ele><time>2026-04-05T15:04:43.998Z</time></trkpt><trkpt lat="44.91248273703217" lon="-1.1262717458501448"><ele>14.333333333333334</ele><time>2026-04-05T15:04:44.998Z</time></trkpt><trkpt lat="44.91231698253943" lon="-1.1264052212910918"><ele>14.666666666666668</ele><time>2026-04-05T15:04:45.998Z</time></trkpt><trkpt lat="44.912169860936366" lon="-1.1265148856991334"><ele>15.0</ele><time>2026-04-05T15:04:46.998Z</time></trkpt><trkpt lat="44.912009902962666" lon="-1.1266387278351826"><ele>14.666666666666668</ele><time>2026-04-05T15:04:47.998Z</time></trkpt><trkpt lat="44.91184274208689" lon="-1.1267637041123888"><ele>14.333333333333334</ele><time>2026-04-05T15:04:48.998Z</time></trkpt><trkpt lat="44.911660602794306" lon="-1.1268942900749959"><ele>14.0</ele><time>2026-04-05T15:04:49.998Z</time></trkpt><trkpt lat="44.91150909571268" lon="-1.1269952926525355"><ele>14.0</ele><time>2026-04-05T15:04:50.998Z</time></trkpt><trkpt lat="44.91136649581978" lon="-1.1270852944969834"><ele>14.0</ele><time>2026-04-05T15:04:51.998Z</time></trkpt><trkpt lat="44.91119905371842" lon="-1.1272032781900154"><ele>14.0</ele><time>2026-04-05T15:04:52.998Z</time></trkpt><trkpt lat="44.91105154104576" lon="-1.127318359288547"><ele>14.0</ele><time>2026-04-05T15:04:53.998Z</time></trkpt><trkpt lat="44.91089927918746" lon="-1.1274388764252432"><ele>14.0</ele><time>2026-04-05T15:04:54.998Z</time></trkpt><trkpt lat="44.91074999730058" lon="-1.1275669958856864"><ele>14.0</ele><time>2026-04-05T15:04:56Z</time></trkpt><trkpt lat="44.91061817725553" lon="-1.1276672196226911"><ele>14.0</ele><time>2026-04-05T15:04:57Z</time></trkpt><trkpt lat="44.9104588956502" lon="-1.127783750194094"><ele>14.0</ele><time>2026-04-05T15:04:58Z</time></trkpt><trkpt lat="44.910302920585465" lon="-1.1279198721192514"><ele>14.0</ele><time>2026-04-05T15:04:59Z</time></trkpt><trkpt lat="44.91012924449873" lon="-1.1280559118414102"><ele>14.0</ele><time>2026-04-05T15:05:00Z</time></trkpt><trkpt lat="44.909976536247285" lon="-1.128156752400355"><ele>14.0</ele><time>2026-04-05T15:05:01Z</time></trkpt><trkpt lat="44.90981230328628" lon="-1.1282603203588208"><ele>14.0</ele><time>2026-04-05T15:05:02Z</time></trkpt><trkpt lat="44.909654542542015" lon="-1.1283760250424777"><ele>14.0</ele><time>2026-04-05T15:05:03Z</time></trkpt><trkpt lat="44.9094820882886" lon="-1.1285066187340498"><ele>14.0</ele><time>2026-04-05T15:05:04Z</time></trkpt><trkpt lat="44.90934392809576" lon="-1.128616521916107"><ele>14.0</ele><time>2026-04-05T15:05:05Z</time></trkpt><trkpt lat="44.90919246091615" lon="-1.128719089768007"><ele>14.0</ele><time>2026-04-05T15:05:06Z</time></trkpt><trkpt lat="44.90906242961383" lon="-1.1288171260510451"><ele>14.0</ele><time>2026-04-05T15:05:07Z</time></trkpt><trkpt lat="44.90892963105414" lon="-1.1289488608922524"><ele>14.0</ele><time>2026-04-05T15:05:08Z</time></trkpt><trkpt lat="44.908802427371064" lon="-1.1290451225542018"><ele>14.0</ele><time>2026-04-05T15:05:09Z</time></trkpt><trkpt lat="44.908664567802" lon="-1.1291221261443416"><ele>14.0</ele><time>2026-04-05T15:05:10Z</time></trkpt><trkpt lat="44.9085303014779" lon="-1.129186327395025"><ele>14.0</ele><time>2026-04-05T15:05:11Z</time></trkpt><trkpt lat="44.908388968844086" lon="-1.129250914686095"><ele>14.0</ele><time>2026-04-05T15:05:12Z</time></trkpt><trkpt lat="44.90827312635368" lon="-1.1293113643346995"><ele>14.0</ele><time>2026-04-05T15:05:13Z</time></trkpt><trkpt lat="44.90815315833244" lon="-1.12937396724137"><ele>14.0</ele><time>2026-04-05T15:05:14Z</time></trkpt><trkpt lat="44.90800598722777" lon="-1.1294074968989207"><ele>14.0</ele><time>2026-04-05T15:05:15Z</time></trkpt><trkpt lat="44.90786374381234" lon="-1.1294106053891915"><ele>14.0</ele><time>2026-04-05T15:05:16Z</time></trkpt><trkpt lat="44.907693510915365" lon="-1.1294078401328431"><ele>14.0</ele><time>2026-04-05T15:05:17Z</time></trkpt><trkpt lat="44.907530061384456" lon="-1.1294023347659892"><ele>14.0</ele><time>2026-04-05T15:05:18Z</time></trkpt><trkpt lat="44.90738667368184" lon="-1.1293807806980283"><ele>14.0</ele><time>2026-04-05T15:05:19Z</time></trkpt><trkpt lat="44.907233085607984" lon="-1.1293309862083687"><ele>14.0</ele><time>2026-04-05T15:05:20Z</time></trkpt><trkpt lat="44.90709167160752" lon="-1.1292463106873987"><ele>14.0</ele><time>2026-04-05T15:05:21Z</time></trkpt><trkpt lat="44.906967982676974" lon="-1.129203501409466"><ele>14.0</ele><time>2026-04-05T15:05:22Z</time></trkpt><trkpt lat="44.90682996594923" lon="-1.1291880412402946"><ele>14.0</ele><time>2026-04-05T15:05:23Z</time></trkpt><trkpt lat="44.906672170495156" lon="-1.1291489073280938"><ele>14.25</ele><time>2026-04-05T15:05:24Z</time></trkpt><trkpt lat="44.906541656119366" lon="-1.1290987328235127"><ele>14.5</ele><time>2026-04-05T15:05:25Z</time></trkpt><trkpt lat="44.906387891709734" lon="-1.129080258738125"><ele>14.75</ele><time>2026-04-05T15:05:26Z</time></trkpt><trkpt lat="44.90623580240107" lon="-1.1290586453887261"><ele>15.0</ele><time>2026-04-05T15:05:27Z</time></trkpt><trkpt lat="44.90605521166356" lon="-1.1290139812661801"><ele>15.333333333333332</ele><time>2026-04-05T15:05:28Z</time></trkpt><trkpt lat="44.90585117855892" lon="-1.1289451343883703"><ele>15.666666666666666</ele><time>2026-04-05T15:05:29Z</time></trkpt><trkpt lat="44.90562922963705" lon="-1.1288700981710509"><ele>16.0</ele><time>2026-04-05T15:05:29.999Z</time></trkpt><trkpt lat="44.905409905241875" lon="-1.1287997468696904"><ele>16.0</ele><time>2026-04-05T15:05:30.999Z</time></trkpt><trkpt lat="44.905179389438835" lon="-1.1287178190437435"><ele>16.0</ele><time>2026-04-05T15:05:31.999Z</time></trkpt><trkpt lat="44.90497271113323" lon="-1.128656006722446"><ele>16.0</ele><time>2026-04-05T15:05:32.999Z</time></trkpt><trkpt lat="44.90477815398684" lon="-1.1286036488020363"><ele>15.666666666666666</ele><time>2026-04-05T15:05:33.999Z</time></trkpt><trkpt lat="44.90459029528367" lon="-1.1285707630002688"><ele>15.333333333333332</ele><time>2026-04-05T15:05:34.999Z</time></trkpt><trkpt lat="44.90442978059428" lon="-1.1285381440239959"><ele>15.0</ele><time>2026-04-05T15:05:35.999Z</time></trkpt><trkpt lat="44.9042886965787" lon="-1.1285005614517936"><ele>15.0</ele><time>2026-04-05T15:05:36.999Z</time></trkpt><trkpt lat="44.904174202454" lon="-1.1284693383674431"><ele>15.0</ele><time>2026-04-05T15:05:37.999Z</time></trkpt><trkpt lat="44.904074123010794" lon="-1.128421811812837"><ele>15.0</ele><time>2026-04-05T15:05:38.999Z</time></trkpt><trkpt lat="44.90398573538314" lon="-1.1283764112339467"><ele>15.0</ele><time>2026-04-05T15:05:39.999Z</time></trkpt><trkpt lat="44.903908843583395" lon="-1.128345625669043"><ele>15.0</ele><time>2026-04-05T15:05:40.999Z</time></trkpt><trkpt lat="44.903828838434706" lon="-1.1283175340517604"><ele>15.0</ele><time>2026-04-05T15:05:41.999Z</time></trkpt><trkpt lat="44.903758454048976" lon="-1.128319843482793"><ele>15.0</ele><time>2026-04-05T15:05:42.999Z</time></trkpt><trkpt lat="44.90365108866888" lon="-1.1282851129432407"><ele>15.0</ele><time>2026-04-05T15:05:44.999Z</time></trkpt><trkpt lat="44.90356365662988" lon="-1.1282390227844692"><ele>15.0</ele><time>2026-04-05T15:05:46.999Z</time></trkpt><trkpt lat="44.903501576647585" lon="-1.1281958114677786"><ele>15.0</ele><time>2026-04-05T15:06:37.998Z</time></trkpt><trkpt lat="44.90341027514896" lon="-1.1281782420583377"><ele>15.0</ele><time>2026-04-05T15:06:40.998Z</time></trkpt><trkpt lat="44.903345742591625" lon="-1.1281814342997054"><ele>14.8</ele><time>2026-04-05T15:06:43.998Z</time></trkpt><trkpt lat="44.90324448396503" lon="-1.1281626195475434"><ele>14.6</ele><time>2026-04-05T15:06:46.998Z</time></trkpt><trkpt lat="44.903166140599026" lon="-1.128165078763095"><ele>14.399999999999999</ele><time>2026-04-05T15:06:47.998Z</time></trkpt><trkpt lat="44.90307697857926" lon="-1.128153352891705"><ele>14.2</ele><time>2026-04-05T15:06:48.998Z</time></trkpt><trkpt lat="44.90294407469419" lon="-1.128123784970201"><ele>14.0</ele><time>2026-04-05T15:06:49.998Z</time></trkpt><trkpt lat="44.90282747400909" lon="-1.1280869430975478"><ele>14.0</ele><time>2026-04-05T15:06:50.998Z</time></trkpt><trkpt lat="44.90261423482239" lon="-1.1280792232619885"><ele>14.0</ele><time>2026-04-05T15:06:51.998Z</time></trkpt><trkpt lat="44.90250050438008" lon="-1.1280598908801307"><ele>14.0</ele><time>2026-04-05T15:06:52.998Z</time></trkpt><trkpt lat="44.9023901357642" lon="-1.1280483860771846"><ele>14.0</ele><time>2026-04-05T15:06:53.998Z</time></trkpt><trkpt lat="44.90227306538703" lon="-1.1280728857991067"><ele>14.333333333333334</ele><time>2026-04-05T15:06:54.998Z</time></trkpt><trkpt lat="44.90213011125514" lon="-1.1281494670852936"><ele>14.666666666666668</ele><time>2026-04-05T15:06:55.998Z</time></trkpt><trkpt lat="44.90195616055493" lon="-1.128232845996542"><ele>15.0</ele><time>2026-04-05T15:06:56.998Z</time></trkpt><trkpt lat="44.90173926474166" lon="-1.128325840356612"><ele>15.0</ele><time>2026-04-05T15:06:57.998Z</time></trkpt><trkpt lat="44.901518493937935" lon="-1.1284148323685208"><ele>15.0</ele><time>2026-04-05T15:06:58.998Z</time></trkpt><trkpt lat="44.90133638348522" lon="-1.1285055939049107"><ele>15.0</ele><time>2026-04-05T15:06:59.998Z</time></trkpt><trkpt lat="44.901167040736716" lon="-1.1285917105299847"><ele>15.0</ele><time>2026-04-05T15:07:00.998Z</time></trkpt><trkpt lat="44.901005213342685" lon="-1.1286848652954131"><ele>15.0</ele><time>2026-04-05T15:07:02Z</time></trkpt><trkpt lat="44.900823772122784" lon="-1.1287970334440687"><ele>15.0</ele><time>2026-04-05T15:07:03Z</time></trkpt><trkpt lat="44.90065365539148" lon="-1.1289029213478616"><ele>15.0</ele><time>2026-04-05T15:07:04Z</time></trkpt><trkpt lat="44.90048673604181" lon="-1.1289780767238193"><ele>15.0</ele><time>2026-04-05T15:07:05Z</time></trkpt><trkpt lat="44.90031350998354" lon="-1.129068647290905"><ele>15.0</ele><time>2026-04-05T15:07:06Z</time></trkpt><trkpt lat="44.90016336296793" lon="-1.1291645834909885"><ele>14.666666666666668</ele><time>2026-04-05T15:07:07Z</time></trkpt><trkpt lat="44.90000676345442" lon="-1.1292531229768845"><ele>14.333333333333334</ele><time>2026-04-05T15:07:08Z</time></trkpt><trkpt lat="44.899844343717305" lon="-1.1293289500962393"><ele>14.0</ele><time>2026-04-05T15:07:09Z</time></trkpt><trkpt lat="44.899729826617765" lon="-1.1293596406379158"><ele>14.0</ele><time>2026-04-05T15:07:10Z</time></trkpt><trkpt lat="44.89964156326144" lon="-1.129379764428106"><ele>14.0</ele><time>2026-04-05T15:07:11Z</time></trkpt><trkpt lat="44.89954838002392" lon="-1.12942955906693"><ele>14.0</ele><time>2026-04-05T15:07:12Z</time></trkpt><trkpt lat="44.89942501286599" lon="-1.1295434564961953"><ele>14.0</ele><time>2026-04-05T15:07:13Z</time></trkpt><trkpt lat="44.89927956309965" lon="-1.1296575756969107"><ele>14.0</ele><time>2026-04-05T15:07:14Z</time></trkpt><trkpt lat="44.89911822405043" lon="-1.1297202907304662"><ele>14.0</ele><time>2026-04-05T15:07:15Z</time></trkpt><trkpt lat="44.89894502834745" lon="-1.129802995782554"><ele>14.0</ele><time>2026-04-05T15:07:16Z</time></trkpt><trkpt lat="44.898783524239875" lon="-1.129888933086416"><ele>14.0</ele><time>2026-04-05T15:07:17Z</time></trkpt><trkpt lat="44.898622886506296" lon="-1.1299758633753327"><ele>14.0</ele><time>2026-04-05T15:07:18Z</time></trkpt><trkpt lat="44.8984771364291" lon="-1.1300809422829086"><ele>14.0</ele><time>2026-04-05T15:07:19Z</time></trkpt><trkpt lat="44.89835534470998" lon="-1.130153289268666"><ele>14.0</ele><time>2026-04-05T15:07:20Z</time></trkpt><trkpt lat="44.89823894522528" lon="-1.1302047646223663"><ele>13.999999999999998</ele><time>2026-04-05T15:07:21Z</time></trkpt><trkpt lat="44.89813627257461" lon="-1.1302427397237036"><ele>13.999999999999998</ele><time>2026-04-05T15:07:22Z</time></trkpt><trkpt lat="44.89804080502247" lon="-1.130278048029493"><ele>14.0</ele><time>2026-04-05T15:07:23Z</time></trkpt><trkpt lat="44.897977085163824" lon="-1.1302853354281899"><ele>14.0</ele><time>2026-04-05T15:07:24Z</time></trkpt><trkpt lat="44.89791344209012" lon="-1.1303460009313864"><ele>14.0</ele><time>2026-04-05T15:07:25Z</time></trkpt><trkpt lat="44.89779848934556" lon="-1.130451353494349"><ele>14.0</ele><time>2026-04-05T15:07:26Z</time></trkpt><trkpt lat="44.897638026174825" lon="-1.1305405706456015"><ele>14.0</ele><time>2026-04-05T15:07:27Z</time></trkpt><trkpt lat="44.89747732102385" lon="-1.1306166382720693"><ele>14.0</ele><time>2026-04-05T15:07:28Z</time></trkpt><trkpt lat="44.89736102828299" lon="-1.1306800573273095"><ele>14.0</ele><time>2026-04-05T15:07:29Z</time></trkpt><trkpt lat="44.897253402920065" lon="-1.1307398946905873"><ele>14.0</ele><time>2026-04-05T15:07:30Z</time></trkpt><trkpt lat="44.897121039131655" lon="-1.1308138603863542"><ele>14.0</ele><time>2026-04-05T15:07:31Z</time></trkpt><trkpt lat="44.89697134002915" lon="-1.1308831207935304"><ele>14.0</ele><time>2026-04-05T15:07:32Z</time></trkpt><trkpt lat="44.896824757786995" lon="-1.13095495739507"><ele>14.0</ele><time>2026-04-05T15:07:32.999Z</time></trkpt><trkpt lat="44.89668630909211" lon="-1.131030344918407"><ele>14.0</ele><time>2026-04-05T15:07:33.999Z</time></trkpt><trkpt lat="44.896560410994184" lon="-1.1310855251532381"><ele>14.0</ele><time>2026-04-05T15:07:34.999Z</time></trkpt><trkpt lat="44.89645577697996" lon="-1.1311597931958568"><ele>14.25</ele><time>2026-04-05T15:07:35.999Z</time></trkpt><trkpt lat="44.89635664663109" lon="-1.1312345471679204"><ele>14.5</ele><time>2026-04-05T15:07:36.999Z</time></trkpt><trkpt lat="44.89622613264057" lon="-1.1312962112509546"><ele>14.75</ele><time>2026-04-05T15:07:37.999Z</time></trkpt><trkpt lat="44.89608758290475" lon="-1.131362420551744"><ele>15.0</ele><time>2026-04-05T15:07:38.999Z</time></trkpt><trkpt lat="44.89591343536006" lon="-1.1314453604701509"><ele>15.0</ele><time>2026-04-05T15:07:39.999Z</time></trkpt><trkpt lat="44.895718206948395" lon="-1.1315523550440971"><ele>15.0</ele><time>2026-04-05T15:07:40.999Z</time></trkpt><trkpt lat="44.89551820197324" lon="-1.1316648228879493"><ele>15.0</ele><time>2026-04-05T15:07:41.999Z</time></trkpt><trkpt lat="44.89534704446144" lon="-1.1317672884857273"><ele>15.0</ele><time>2026-04-05T15:07:42.999Z</time></trkpt><trkpt lat="44.895197578114725" lon="-1.1318509056416808"><ele>15.0</ele><time>2026-04-05T15:07:43.999Z</time></trkpt><trkpt lat="44.895050450986616" lon="-1.131916275267118"><ele>15.0</ele><time>2026-04-05T15:07:44.999Z</time></trkpt><trkpt lat="44.89489091840946" lon="-1.1319888261550488"><ele>15.0</ele><time>2026-04-05T15:07:45.999Z</time></trkpt><trkpt lat="44.894747623563866" lon="-1.1320610036747827"><ele>15.0</ele><time>2026-04-05T15:07:46.999Z</time></trkpt><trkpt lat="44.89456658091137" lon="-1.1321506078655315"><ele>15.0</ele><time>2026-04-05T15:07:47.999Z</time></trkpt><trkpt lat="44.89436068877686" lon="-1.132262222782808"><ele>14.5</ele><time>2026-04-05T15:07:48.999Z</time></trkpt><trkpt lat="44.89414026648162" lon="-1.1323876609625023"><ele>14.0</ele><time>2026-04-05T15:07:49.999Z</time></trkpt><trkpt lat="44.89391661087141" lon="-1.1325160641491343"><ele>14.0</ele><time>2026-04-05T15:07:50.999Z</time></trkpt><trkpt lat="44.89367463050945" lon="-1.1326472854243002"><ele>14.0</ele><time>2026-04-05T15:07:51.999Z</time></trkpt><trkpt lat="44.89346238067924" lon="-1.1327685940354795"><ele>13.666666666666668</ele><time>2026-04-05T15:07:52.999Z</time></trkpt><trkpt lat="44.89325945653636" lon="-1.1328810782330838"><ele>13.333333333333332</ele><time>2026-04-05T15:07:53.999Z</time></trkpt><trkpt lat="44.89304809572065" lon="-1.132975795528687"><ele>13.0</ele><time>2026-04-05T15:07:54.999Z</time></trkpt><trkpt lat="44.89287937382171" lon="-1.1330484446688234"><ele>13.0</ele><time>2026-04-05T15:07:55.999Z</time></trkpt><trkpt lat="44.89273790495412" lon="-1.1331130274003631"><ele>13.0</ele><time>2026-04-05T15:07:56.999Z</time></trkpt><trkpt lat="44.892583852537115" lon="-1.1331783281782475"><ele>13.0</ele><time>2026-04-05T15:07:57.999Z</time></trkpt><trkpt lat="44.892463807764315" lon="-1.1332478074193792"><ele>13.0</ele><time>2026-04-05T15:07:58.999Z</time></trkpt><trkpt lat="44.89233144152601" lon="-1.1333502516830467"><ele>13.0</ele><time>2026-04-05T15:07:59.999Z</time></trkpt><trkpt lat="44.89220216749886" lon="-1.1334423744359077"><ele>13.0</ele><time>2026-04-05T15:08:00.999Z</time></trkpt><trkpt lat="44.892083875101456" lon="-1.1334910130699454"><ele>13.0</ele><time>2026-04-05T15:08:01.999Z</time></trkpt><trkpt lat="44.89193978036502" lon="-1.1335376337397496"><ele>13.0</ele><time>2026-04-05T15:08:02.999Z</time></trkpt><trkpt lat="44.89175219385546" lon="-1.1336231325695552"><ele>14.0</ele><time>2026-04-05T15:08:03.999Z</time></trkpt><trkpt lat="44.89156781224083" lon="-1.1337183905674202"><ele>15.0</ele><time>2026-04-05T15:08:04.999Z</time></trkpt><trkpt lat="44.891378067583766" lon="-1.13383140647418"><ele>16.0</ele><time>2026-04-05T15:08:05.999Z</time></trkpt><trkpt lat="44.891201124603654" lon="-1.133946792933897"><ele>16.0</ele><time>2026-04-05T15:08:06.999Z</time></trkpt><trkpt lat="44.89102344613307" lon="-1.1340592432668013"><ele>16.0</ele><time>2026-04-05T15:08:07.999Z</time></trkpt><trkpt lat="44.890871868884304" lon="-1.134136079888006"><ele>16.0</ele><time>2026-04-05T15:08:08.999Z</time></trkpt><trkpt lat="44.8907200260092" lon="-1.1342151499318107"><ele>16.0</ele><time>2026-04-05T15:08:09.999Z</time></trkpt><trkpt lat="44.89058254289845" lon="-1.1342792557039547"><ele>16.0</ele><time>2026-04-05T15:08:10.999Z</time></trkpt><trkpt lat="44.890458248876904" lon="-1.1343254545553974"><ele>16.0</ele><time>2026-04-05T15:08:11.999Z</time></trkpt><trkpt lat="44.890321615360044" lon="-1.134405251710928"><ele>16.0</ele><time>2026-04-05T15:08:12.999Z</time></trkpt><trkpt lat="44.89015650178413" lon="-1.1344973305426629"><ele>15.333333333333332</ele><time>2026-04-05T15:08:13.999Z</time></trkpt><trkpt lat="44.89000806310631" lon="-1.1345721592288682"><ele>14.666666666666668</ele><time>2026-04-05T15:08:14.999Z</time></trkpt><trkpt lat="44.88982925469829" lon="-1.1346590964658532"><ele>14.0</ele><time>2026-04-05T15:08:15.999Z</time></trkpt><trkpt lat="44.889631876119374" lon="-1.1347628458628805"><ele>14.0</ele><time>2026-04-05T15:08:16.999Z</time></trkpt><trkpt lat="44.88943539945211" lon="-1.134861364041483"><ele>14.0</ele><time>2026-04-05T15:08:17.999Z</time></trkpt><trkpt lat="44.88923200831365" lon="-1.1349693984484108"><ele>14.0</ele><time>2026-04-05T15:08:18.999Z</time></trkpt><trkpt lat="44.88903766026696" lon="-1.1350789453129988"><ele>14.666666666666668</ele><time>2026-04-05T15:08:19.999Z</time></trkpt><trkpt lat="44.88884432286258" lon="-1.1351725358881557"><ele>15.333333333333332</ele><time>2026-04-05T15:08:20.998Z</time></trkpt><trkpt lat="44.888671800318726" lon="-1.1352622810380077"><ele>16.0</ele><time>2026-04-05T15:08:21.998Z</time></trkpt><trkpt lat="44.88850925852904" lon="-1.1353433042338978"><ele>16.0</ele><time>2026-04-05T15:08:22.998Z</time></trkpt><trkpt lat="44.88834589290456" lon="-1.1354216519361617"><ele>16.0</ele><time>2026-04-05T15:08:23.998Z</time></trkpt><trkpt lat="44.88821207458902" lon="-1.1354980837927224"><ele>16.0</ele><time>2026-04-05T15:08:24.998Z</time></trkpt><trkpt lat="44.888128316852296" lon="-1.135583650398746"><ele>16.0</ele><time>2026-04-05T15:08:25.998Z</time></trkpt><trkpt lat="44.88800357955908" lon="-1.1356798999808597"><ele>16.0</ele><time>2026-04-05T15:08:26.998Z</time></trkpt><trkpt lat="44.887896722247085" lon="-1.1357960952337736"><ele>16.0</ele><time>2026-04-05T15:08:27.998Z</time></trkpt><trkpt lat="44.887654477334344" lon="-1.1358143756772847"><ele>16.0</ele><time>2026-04-05T15:08:28.998Z</time></trkpt><trkpt lat="44.88749278215114" lon="-1.1358709040264319"><ele>16.0</ele><time>2026-04-05T15:08:29.998Z</time></trkpt><trkpt lat="44.88728296187402" lon="-1.1359541451204542"><ele>16.0</ele><time>2026-04-05T15:08:30.998Z</time></trkpt><trkpt lat="44.88707693632366" lon="-1.1360483835570256"><ele>16.0</ele><time>2026-04-05T15:08:31.998Z</time></trkpt><trkpt lat="44.886855430649746" lon="-1.13616678775996"><ele>16.0</ele><time>2026-04-05T15:08:32.998Z</time></trkpt><trkpt lat="44.88662263899715" lon="-1.136297450500033"><ele>16.0</ele><time>2026-04-05T15:08:33.998Z</time></trkpt><trkpt lat="44.886424067594525" lon="-1.1364207278452385"><ele>16.0</ele><time>2026-04-05T15:08:34.998Z</time></trkpt><trkpt lat="44.88625759497472" lon="-1.136520135028812"><ele>16.0</ele><time>2026-04-05T15:08:35.998Z</time></trkpt><trkpt lat="44.88611320785492" lon="-1.136610738968492"><ele>16.0</ele><time>2026-04-05T15:08:36.998Z</time></trkpt><trkpt lat="44.88599133773567" lon="-1.1366888088875893"><ele>16.333333333333332</ele><time>2026-04-05T15:08:37.998Z</time></trkpt><trkpt lat="44.88584890977764" lon="-1.1367394930926997"><ele>16.666666666666668</ele><time>2026-04-05T15:08:38.998Z</time></trkpt><trkpt lat="44.88566973369974" lon="-1.1367707701225853"><ele>17.0</ele><time>2026-04-05T15:08:39.998Z</time></trkpt><trkpt lat="44.88548675523821" lon="-1.1367973279001222"><ele>17.0</ele><time>2026-04-05T15:08:40.998Z</time></trkpt><trkpt lat="44.88530068631446" lon="-1.1368121772796238"><ele>17.0</ele><time>2026-04-05T15:08:41.998Z</time></trkpt><trkpt lat="44.885127545040454" lon="-1.1368252304624813"><ele>17.0</ele><time>2026-04-05T15:08:42.998Z</time></trkpt><trkpt lat="44.8849399260165" lon="-1.1368161154001317"><ele>16.666666666666668</ele><time>2026-04-05T15:08:43.998Z</time></trkpt><trkpt lat="44.88473728162104" lon="-1.1367736916851674"><ele>16.333333333333332</ele><time>2026-04-05T15:08:44.998Z</time></trkpt><trkpt lat="44.88456055717909" lon="-1.1367165069159038"><ele>16.0</ele><time>2026-04-05T15:08:45.998Z</time></trkpt><trkpt lat="44.88440733558354" lon="-1.1366776859450316"><ele>15.333333333333332</ele><time>2026-04-05T15:08:46.998Z</time></trkpt><trkpt lat="44.88422651157946" lon="-1.1366478334245218"><ele>14.666666666666668</ele><time>2026-04-05T15:08:47.998Z</time></trkpt><trkpt lat="44.88401624655101" lon="-1.1366082774864863"><ele>14.0</ele><time>2026-04-05T15:08:48.998Z</time></trkpt><trkpt lat="44.88381609378561" lon="-1.1365647873735332"><ele>14.666666666666668</ele><time>2026-04-05T15:08:49.998Z</time></trkpt><trkpt lat="44.88362832739482" lon="-1.136530959475238"><ele>15.333333333333332</ele><time>2026-04-05T15:08:50.998Z</time></trkpt><trkpt lat="44.883438243972265" lon="-1.136496321724423"><ele>16.0</ele><time>2026-04-05T15:08:51.998Z</time></trkpt><trkpt lat="44.8832367122619" lon="-1.1364558954562936"><ele>16.0</ele><time>2026-04-05T15:08:52.998Z</time></trkpt><trkpt lat="44.88307468738426" lon="-1.1364161581910488"><ele>16.0</ele><time>2026-04-05T15:08:53.998Z</time></trkpt><trkpt lat="44.88295535661598" lon="-1.1364000939253223"><ele>16.0</ele><time>2026-04-05T15:08:54.998Z</time></trkpt><trkpt lat="44.88286067147834" lon="-1.1363965410825223"><ele>16.0</ele><time>2026-04-05T15:08:55.998Z</time></trkpt><trkpt lat="44.88275831692273" lon="-1.1364051786409028"><ele>16.0</ele><time>2026-04-05T15:08:56.998Z</time></trkpt><trkpt lat="44.88267402081071" lon="-1.1364274477264888"><ele>16.0</ele><time>2026-04-05T15:08:57.998Z</time></trkpt><trkpt lat="44.88260653170397" lon="-1.1364432499622221"><ele>16.0</ele><time>2026-04-05T15:08:58.998Z</time></trkpt><trkpt lat="44.88250025200395" lon="-1.136419658058068"><ele>16.0</ele><time>2026-04-05T15:09:00.998Z</time></trkpt><trkpt lat="44.882419671734816" lon="-1.1364096652716031"><ele>16.0</ele><time>2026-04-05T15:09:02.998Z</time></trkpt><trkpt lat="44.882312554732735" lon="-1.1363564807113797"><ele>15.666666666666666</ele><time>2026-04-05T15:10:24.998Z</time></trkpt><trkpt lat="44.882250685399626" lon="-1.1363349261294502"><ele>15.333333333333332</ele><time>2026-04-05T15:10:25.998Z</time></trkpt><trkpt lat="44.882149927355314" lon="-1.136309239715456"><ele>15.0</ele><time>2026-04-05T15:10:27.998Z</time></trkpt><trkpt lat="44.882080353075594" lon="-1.1362898720482157"><ele>14.666666666666668</ele><time>2026-04-05T15:10:28.998Z</time></trkpt><trkpt lat="44.88199923231909" lon="-1.1362564004220377"><ele>14.333333333333334</ele><time>2026-04-05T15:10:29.998Z</time></trkpt><trkpt lat="44.88189903410449" lon="-1.136205242628854"><ele>14.0</ele><time>2026-04-05T15:10:30.998Z</time></trkpt><trkpt lat="44.88179282356831" lon="-1.1361594047728272"><ele>14.333333333333334</ele><time>2026-04-05T15:10:31.998Z</time></trkpt><trkpt lat="44.8816701928897" lon="-1.13612610985444"><ele>14.666666666666668</ele><time>2026-04-05T15:10:32.998Z</time></trkpt><trkpt lat="44.88151953998604" lon="-1.136091635648444"><ele>15.0</ele><time>2026-04-05T15:10:33.998Z</time></trkpt><trkpt lat="44.88134876473551" lon="-1.1360543199647806"><ele>15.0</ele><time>2026-04-05T15:10:34.998Z</time></trkpt><trkpt lat="44.881161427725" lon="-1.1360119985863577"><ele>15.0</ele><time>2026-04-05T15:10:35.998Z</time></trkpt><trkpt lat="44.88095596904522" lon="-1.135960812934237"><ele>15.0</ele><time>2026-04-05T15:10:36.998Z</time></trkpt><trkpt lat="44.8807215567977" lon="-1.1359086911082779"><ele>14.5</ele><time>2026-04-05T15:10:37.998Z</time></trkpt><trkpt lat="44.880497643244205" lon="-1.135868627850308"><ele>14.0</ele><time>2026-04-05T15:10:38.998Z</time></trkpt><trkpt lat="44.88023212901988" lon="-1.1358140278769737"><ele>14.0</ele><time>2026-04-05T15:10:39.998Z</time></trkpt><trkpt lat="44.87997522415057" lon="-1.1357542503667217"><ele>14.0</ele><time>2026-04-05T15:10:40.998Z</time></trkpt><trkpt lat="44.87973187275013" lon="-1.1357024498346584"><ele>14.666666666666668</ele><time>2026-04-05T15:10:41.998Z</time></trkpt><trkpt lat="44.87952260067064" lon="-1.1356708998602443"><ele>15.333333333333332</ele><time>2026-04-05T15:10:42.998Z</time></trkpt><trkpt lat="44.87930683586379" lon="-1.1356457551152959"><ele>16.0</ele><time>2026-04-05T15:10:43.998Z</time></trkpt><trkpt lat="44.8790732283098" lon="-1.1356068107849397"><ele>16.0</ele><time>2026-04-05T15:10:44.998Z</time></trkpt><trkpt lat="44.8788357005896" lon="-1.1355693932504594"><ele>16.0</ele><time>2026-04-05T15:10:45.998Z</time></trkpt><trkpt lat="44.878603092795565" lon="-1.135530604654397"><ele>16.0</ele><time>2026-04-05T15:10:46.998Z</time></trkpt><trkpt lat="44.87841281697877" lon="-1.1354847586844932"><ele>16.0</ele><time>2026-04-05T15:10:47.998Z</time></trkpt><trkpt lat="44.87821368571358" lon="-1.1354393427132867"><ele>16.0</ele><time>2026-04-05T15:10:48.998Z</time></trkpt><trkpt lat="44.87800578082435" lon="-1.1353960221602428"><ele>16.0</ele><time>2026-04-05T15:10:49.998Z</time></trkpt><trkpt lat="44.87780654339072" lon="-1.135364394928841"><ele>16.0</ele><time>2026-04-05T15:10:50.998Z</time></trkpt><trkpt lat="44.8776434975051" lon="-1.1353234788853042"><ele>16.0</ele><time>2026-04-05T15:10:51.998Z</time></trkpt><trkpt lat="44.87745845309912" lon="-1.1352835159893275"><ele>15.666666666666666</ele><time>2026-04-05T15:10:52.998Z</time></trkpt><trkpt lat="44.87725473958138" lon="-1.1352442033863466"><ele>15.333333333333332</ele><time>2026-04-05T15:10:53.998Z</time></trkpt><trkpt lat="44.87704685884615" lon="-1.1352174521897231"><ele>15.0</ele><time>2026-04-05T15:10:54.998Z</time></trkpt><trkpt lat="44.876870365410014" lon="-1.135199253317772"><ele>15.0</ele><time>2026-04-05T15:10:55.998Z</time></trkpt><trkpt lat="44.87670763187067" lon="-1.1351666493517438"><ele>15.0</ele><time>2026-04-05T15:10:56.998Z</time></trkpt><trkpt lat="44.87654356745527" lon="-1.135121969936374"><ele>15.0</ele><time>2026-04-05T15:10:57.998Z</time></trkpt><trkpt lat="44.87639499940074" lon="-1.1351017812441326"><ele>15.0</ele><time>2026-04-05T15:10:58.998Z</time></trkpt><trkpt lat="44.87621497765688" lon="-1.1350896439573006"><ele>15.0</ele><time>2026-04-05T15:10:59.998Z</time></trkpt><trkpt lat="44.876004702766146" lon="-1.1350743689731462"><ele>15.0</ele><time>2026-04-05T15:11:00.998Z</time></trkpt><trkpt lat="44.87581728038701" lon="-1.1350473149167126"><ele>15.0</ele><time>2026-04-05T15:11:01.998Z</time></trkpt><trkpt lat="44.87566757447318" lon="-1.1350290202084508"><ele>15.0</ele><time>2026-04-05T15:11:02.998Z</time></trkpt><trkpt lat="44.87553036258631" lon="-1.1350297206733408"><ele>15.0</ele><time>2026-04-05T15:11:03.998Z</time></trkpt><trkpt lat="44.875419054409" lon="-1.1350203686125249"><ele>15.0</ele><time>2026-04-05T15:11:04.998Z</time></trkpt><trkpt lat="44.87534585220907" lon="-1.1350070774350025"><ele>15.0</ele><time>2026-04-05T15:11:05.998Z</time></trkpt><trkpt lat="44.87529041394949" lon="-1.1349513089075307"><ele>15.0</ele><time>2026-04-05T15:11:07.998Z</time></trkpt><trkpt lat="44.87528352826507" lon="-1.1347592073092008"><ele>15.0</ele><time>2026-04-05T15:11:09.997Z</time></trkpt><trkpt lat="44.87526697240819" lon="-1.1345862965692968"><ele>15.0</ele><time>2026-04-05T15:11:10.997Z</time></trkpt><trkpt lat="44.87523761867209" lon="-1.1343981091390671"><ele>15.6</ele><time>2026-04-05T15:11:11.997Z</time></trkpt><trkpt lat="44.875215443194776" lon="-1.134266527230138"><ele>16.2</ele><time>2026-04-05T15:11:13Z</time></trkpt><trkpt lat="44.87520182141909" lon="-1.1341664554050042"><ele>16.8</ele><time>2026-04-05T15:11:14Z</time></trkpt><trkpt lat="44.875189693103565" lon="-1.133982419619193"><ele>17.4</ele><time>2026-04-05T15:11:16Z</time></trkpt><trkpt lat="44.87518175602133" lon="-1.1338444448882086"><ele>18.0</ele><time>2026-04-05T15:11:18Z</time></trkpt><trkpt lat="44.87515683428715" lon="-1.1337310913189897"><ele>18.166666666666668</ele><time>2026-04-05T15:11:20Z</time></trkpt><trkpt lat="44.875138845508474" lon="-1.1336363542727155"><ele>18.333333333333332</ele><time>2026-04-05T15:11:22Z</time></trkpt><trkpt lat="44.87511501396972" lon="-1.1335170756853739"><ele>18.5</ele><time>2026-04-05T15:11:24Z</time></trkpt><trkpt lat="44.87508851132365" lon="-1.133324868712207"><ele>18.666666666666664</ele><time>2026-04-05T15:11:26Z</time></trkpt><trkpt lat="44.87507581503117" lon="-1.1332318989625423"><ele>18.833333333333332</ele><time>2026-04-05T15:11:27Z</time></trkpt><trkpt lat="44.87506195489833" lon="-1.1331268135692132"><ele>19.0</ele><time>2026-04-05T15:11:28Z</time></trkpt><trkpt lat="44.875050696350634" lon="-1.133036429587914"><ele>20.0</ele><time>2026-04-05T15:11:29Z</time></trkpt><trkpt lat="44.875033363892754" lon="-1.13291481670186"><ele>21.0</ele><time>2026-04-05T15:11:30Z</time></trkpt><trkpt lat="44.87500859526878" lon="-1.1327584277159282"><ele>22.0</ele><time>2026-04-05T15:11:31Z</time></trkpt><trkpt lat="44.87498799772" lon="-1.1325772497387245"><ele>23.0</ele><time>2026-04-05T15:11:32Z</time></trkpt><trkpt lat="44.87496571034582" lon="-1.1324097103025013"><ele>22.333333333333336</ele><time>2026-04-05T15:11:33Z</time></trkpt><trkpt lat="44.87493736561844" lon="-1.132206086802976"><ele>21.666666666666668</ele><time>2026-04-05T15:11:34Z</time></trkpt><trkpt lat="44.8749050218841" lon="-1.131971861232098"><ele>21.0</ele><time>2026-04-05T15:11:35Z</time></trkpt><trkpt lat="44.87486190295182" lon="-1.1317372570954147"><ele>20.75</ele><time>2026-04-05T15:11:35.999Z</time></trkpt><trkpt lat="44.87483601757188" lon="-1.1315322996302153"><ele>20.5</ele><time>2026-04-05T15:11:36.999Z</time></trkpt><trkpt lat="44.874813184973206" lon="-1.1313262135505189"><ele>20.25</ele><time>2026-04-05T15:11:37.999Z</time></trkpt><trkpt lat="44.874788251615925" lon="-1.1311401301374842"><ele>20.0</ele><time>2026-04-05T15:11:38.999Z</time></trkpt><trkpt lat="44.87476922968394" lon="-1.1309462046679883"><ele>20.0</ele><time>2026-04-05T15:11:39.999Z</time></trkpt><trkpt lat="44.874743175131755" lon="-1.130746179421668"><ele>20.0</ele><time>2026-04-05T15:11:40.999Z</time></trkpt><trkpt lat="44.87472028378095" lon="-1.130556718577147"><ele>20.0</ele><time>2026-04-05T15:11:41.999Z</time></trkpt><trkpt lat="44.87469559073073" lon="-1.1304019818913547"><ele>20.0</ele><time>2026-04-05T15:11:42.999Z</time></trkpt><trkpt lat="44.87467146037043" lon="-1.1302708742785081"><ele>19.4</ele><time>2026-04-05T15:11:43.999Z</time></trkpt><trkpt lat="44.874654623368144" lon="-1.130159832243745"><ele>18.8</ele><time>2026-04-05T15:11:44.999Z</time></trkpt><trkpt lat="44.87464898844201" lon="-1.1300501750119114"><ele>18.2</ele><time>2026-04-05T15:11:46.999Z</time></trkpt><trkpt lat="44.87455642266806" lon="-1.129997468894962"><ele>17.6</ele><time>2026-04-05T15:11:50.999Z</time></trkpt><trkpt lat="44.87445485261678" lon="-1.1300472579870315"><ele>17.0</ele><time>2026-04-05T15:11:51.999Z</time></trkpt><trkpt lat="44.8743284986618" lon="-1.1301040959329962"><ele>17.25</ele><time>2026-04-05T15:11:52.999Z</time></trkpt><trkpt lat="44.8741592131674" lon="-1.1301637453351876"><ele>17.5</ele><time>2026-04-05T15:11:53.999Z</time></trkpt><trkpt lat="44.87401275907986" lon="-1.130214577334805"><ele>17.75</ele><time>2026-04-05T15:11:54.999Z</time></trkpt><trkpt lat="44.87389308922961" lon="-1.1302424361473533"><ele>18.0</ele><time>2026-04-05T15:11:55.999Z</time></trkpt><trkpt lat="44.87374660110975" lon="-1.130281033506666"><ele>18.0</ele><time>2026-04-05T15:11:56.999Z</time></trkpt><trkpt lat="44.87362389009715" lon="-1.1303233602964406"><ele>18.0</ele><time>2026-04-05T15:11:57.999Z</time></trkpt><trkpt lat="44.87351852890878" lon="-1.1303560437481548"><ele>18.0</ele><time>2026-04-05T15:11:58.999Z</time></trkpt><trkpt lat="44.87342533692811" lon="-1.1303830350132533"><ele>18.0</ele><time>2026-04-05T15:11:59.999Z</time></trkpt><trkpt lat="44.87333437326985" lon="-1.130408276896627"><ele>18.0</ele><time>2026-04-05T15:12:00.999Z</time></trkpt><trkpt lat="44.87325017357334" lon="-1.1304356706362122"><ele>17.5</ele><time>2026-04-05T15:12:01.999Z</time></trkpt><trkpt lat="44.87317926576682" lon="-1.1304623906778097"><ele>17.0</ele><time>2026-04-05T15:12:02.999Z</time></trkpt><trkpt lat="44.87311502874158" lon="-1.1304808545623353"><ele>16.5</ele><time>2026-04-05T15:12:03.999Z</time></trkpt><trkpt lat="44.87302826132539" lon="-1.1304994537079769"><ele>16.0</ele><time>2026-04-05T15:12:05.999Z</time></trkpt><trkpt lat="44.872952914183365" lon="-1.1304968110298652"><ele>15.5</ele><time>2026-04-05T15:12:08.999Z</time></trkpt><trkpt lat="44.872836540809985" lon="-1.130471003283052"><ele>15.0</ele><time>2026-04-05T15:12:10.999Z</time></trkpt><trkpt lat="44.872744981854105" lon="-1.1304766317845825"><ele>15.0</ele><time>2026-04-05T15:12:12.999Z</time></trkpt><trkpt lat="44.87265838433334" lon="-1.1304538632960603"><ele>15.0</ele><time>2026-04-05T15:12:14.999Z</time></trkpt><trkpt lat="44.87255384471034" lon="-1.130405493638295"><ele>15.0</ele><time>2026-04-05T15:12:16.999Z</time></trkpt><trkpt lat="44.87247921286996" lon="-1.1303497762495205"><ele>15.0</ele><time>2026-04-05T15:12:17.999Z</time></trkpt><trkpt lat="44.87236939169673" lon="-1.1302621493177554"><ele>15.0</ele><time>2026-04-05T15:12:18.999Z</time></trkpt><trkpt lat="44.87229596735377" lon="-1.1302082791824575"><ele>14.8</ele><time>2026-04-05T15:12:19.999Z</time></trkpt><trkpt lat="44.87219064088346" lon="-1.1301484252848322"><ele>14.6</ele><time>2026-04-05T15:12:21.998Z</time></trkpt><trkpt lat="44.8720813165531" lon="-1.1301003107496204"><ele>14.399999999999999</ele><time>2026-04-05T15:12:23.998Z</time></trkpt><trkpt lat="44.872001158707285" lon="-1.1299999532475258"><ele>14.2</ele><time>2026-04-05T15:12:25.998Z</time></trkpt><trkpt lat="44.87193401207309" lon="-1.129952543288557"><ele>14.0</ele><time>2026-04-05T15:12:27.998Z</time></trkpt><trkpt lat="44.871852184438865" lon="-1.1299218600829777"><ele>15.000000000000002</ele><time>2026-04-05T15:12:30.998Z</time></trkpt><trkpt lat="44.87182893542007" lon="-1.1298355020076436"><ele>16.0</ele><time>2026-04-05T15:12:33.998Z</time></trkpt><trkpt lat="44.871852202672024" lon="-1.1297482832562287"><ele>17.0</ele><time>2026-04-05T15:12:37.998Z</time></trkpt><trkpt lat="44.8718610990323" lon="-1.1296563013448637"><ele>18.0</ele><time>2026-04-05T15:12:49.998Z</time></trkpt><trkpt lat="44.8718708063472" lon="-1.1295174483948722"><ele>19.0</ele><time>2026-04-05T15:12:50.998Z</time></trkpt><trkpt lat="44.87187800835244" lon="-1.1293816492700832"><ele>20.0</ele><time>2026-04-05T15:12:51.998Z</time></trkpt><trkpt lat="44.87188414424256" lon="-1.1292323123936419"><ele>20.0</ele><time>2026-04-05T15:12:52.998Z</time></trkpt><trkpt lat="44.87188337494524" lon="-1.1290656339225595"><ele>20.0</ele><time>2026-04-05T15:12:53.998Z</time></trkpt><trkpt lat="44.871885400538766" lon="-1.128887922311691"><ele>20.0</ele><time>2026-04-05T15:12:54.998Z</time></trkpt><trkpt lat="44.87188785570469" lon="-1.1286975132792918"><ele>20.0</ele><time>2026-04-05T15:12:55.998Z</time></trkpt><trkpt lat="44.87188867511029" lon="-1.1284970457044696"><ele>20.5</ele><time>2026-04-05T15:12:56.998Z</time></trkpt><trkpt lat="44.87189249203293" lon="-1.1283019237789"><ele>21.0</ele><time>2026-04-05T15:12:57.998Z</time></trkpt><trkpt lat="44.87189319022861" lon="-1.1281006670586233"><ele>21.5</ele><time>2026-04-05T15:12:58.998Z</time></trkpt><trkpt lat="44.8718921105249" lon="-1.1279067241146825"><ele>22.0</ele><time>2026-04-05T15:12:59.998Z</time></trkpt><trkpt lat="44.8718958507254" lon="-1.1277163042140246"><ele>22.0</ele><time>2026-04-05T15:13:00.998Z</time></trkpt><trkpt lat="44.87190487475883" lon="-1.1275058529310285"><ele>22.0</ele><time>2026-04-05T15:13:01.998Z</time></trkpt><trkpt lat="44.87188841044223" lon="-1.1272863951019347"><ele>22.0</ele><time>2026-04-05T15:13:02.998Z</time></trkpt><trkpt lat="44.87187392384706" lon="-1.1270541173016908"><ele>22.0</ele><time>2026-04-05T15:13:03.998Z</time></trkpt><trkpt lat="44.87186876625911" lon="-1.1268014502842754"><ele>22.0</ele><time>2026-04-05T15:13:04.998Z</time></trkpt><trkpt lat="44.871868535609835" lon="-1.126575367176963"><ele>22.0</ele><time>2026-04-05T15:13:05.998Z</time></trkpt><trkpt lat="44.87186059854414" lon="-1.1263497079751554"><ele>22.0</ele><time>2026-04-05T15:13:06.998Z</time></trkpt><trkpt lat="44.871841943247226" lon="-1.1261206329356286"><ele>22.0</ele><time>2026-04-05T15:13:07.998Z</time></trkpt><trkpt lat="44.87181757748335" lon="-1.1259105613604596"><ele>22.0</ele><time>2026-04-05T15:13:08.997Z</time></trkpt><trkpt lat="44.87178052256445" lon="-1.1257061507160568"><ele>20.5</ele><time>2026-04-05T15:13:09.997Z</time></trkpt><trkpt lat="44.871732134984214" lon="-1.1255089713152309"><ele>19.0</ele><time>2026-04-05T15:13:10.997Z</time></trkpt><trkpt lat="44.87167981704154" lon="-1.1253094197639304"><ele>17.5</ele><time>2026-04-05T15:13:11.997Z</time></trkpt><trkpt lat="44.871632288991094" lon="-1.1251411906647664"><ele>16.0</ele><time>2026-04-05T15:13:12.997Z</time></trkpt><trkpt lat="44.87158824182882" lon="-1.1249835320144856"><ele>16.0</ele><time>2026-04-05T15:13:13.997Z</time></trkpt><trkpt lat="44.87154905382514" lon="-1.1248429132358826"><ele>16.0</ele><time>2026-04-05T15:13:14.997Z</time></trkpt><trkpt lat="44.87150607579669" lon="-1.124680566829573"><ele>16.0</ele><time>2026-04-05T15:13:15.997Z</time></trkpt><trkpt lat="44.871454546396684" lon="-1.1244926335116248"><ele>16.0</ele><time>2026-04-05T15:13:16.997Z</time></trkpt><trkpt lat="44.87140589437774" lon="-1.1242967366263243"><ele>16.0</ele><time>2026-04-05T15:13:17.997Z</time></trkpt><trkpt lat="44.87135940714319" lon="-1.1241139869828725"><ele>16.0</ele><time>2026-04-05T15:13:19Z</time></trkpt><trkpt lat="44.871307911119324" lon="-1.1239005690817985"><ele>16.0</ele><time>2026-04-05T15:13:20Z</time></trkpt><trkpt lat="44.87124302295841" lon="-1.1236750200930479"><ele>16.333333333333332</ele><time>2026-04-05T15:13:21Z</time></trkpt><trkpt lat="44.87117504613301" lon="-1.1234287456235477"><ele>16.666666666666668</ele><time>2026-04-05T15:13:22Z</time></trkpt><trkpt lat="44.87109839440233" lon="-1.1231349089880553"><ele>17.0</ele><time>2026-04-05T15:13:23Z</time></trkpt><trkpt lat="44.87103408804496" lon="-1.1228913052336618"><ele>17.333333333333336</ele><time>2026-04-05T15:13:24Z</time></trkpt><trkpt lat="44.8709729945619" lon="-1.1226626105981705"><ele>17.666666666666668</ele><time>2026-04-05T15:13:25Z</time></trkpt><trkpt lat="44.87091088182783" lon="-1.1224438785182216"><ele>18.0</ele><time>2026-04-05T15:13:26Z</time></trkpt><trkpt lat="44.870850469659224" lon="-1.122225809480496"><ele>19.0</ele><time>2026-04-05T15:13:27Z</time></trkpt><trkpt lat="44.870794516549836" lon="-1.1220052630365556"><ele>20.0</ele><time>2026-04-05T15:13:28Z</time></trkpt><trkpt lat="44.87074054121325" lon="-1.12179259539627"><ele>21.0</ele><time>2026-04-05T15:13:29Z</time></trkpt><trkpt lat="44.870707490228625" lon="-1.1216107458702649"><ele>21.4</ele><time>2026-04-05T15:13:30Z</time></trkpt><trkpt lat="44.87067351276942" lon="-1.1214460498148258"><ele>21.8</ele><time>2026-04-05T15:13:31Z</time></trkpt><trkpt lat="44.87064823805878" lon="-1.1212976172292126"><ele>22.2</ele><time>2026-04-05T15:13:32Z</time></trkpt><trkpt lat="44.87063559220625" lon="-1.1211574158976436"><ele>22.599999999999998</ele><time>2026-04-05T15:13:33Z</time></trkpt><trkpt lat="44.87063365705331" lon="-1.121019823571334"><ele>23.0</ele><time>2026-04-05T15:13:34Z</time></trkpt><trkpt lat="44.87063501205932" lon="-1.1208586698779104"><ele>22.75</ele><time>2026-04-05T15:13:35Z</time></trkpt><trkpt lat="44.87062847866418" lon="-1.1206685956178009"><ele>22.5</ele><time>2026-04-05T15:13:36Z</time></trkpt><trkpt lat="44.87061352262569" lon="-1.1204612111435417"><ele>22.25</ele><time>2026-04-05T15:13:36.999Z</time></trkpt><trkpt lat="44.87060145731456" lon="-1.1202560530704757"><ele>22.0</ele><time>2026-04-05T15:13:37.999Z</time></trkpt><trkpt lat="44.870580308954075" lon="-1.1200541931992736"><ele>23.0</ele><time>2026-04-05T15:13:38.999Z</time></trkpt><trkpt lat="44.87056039817011" lon="-1.1198482196228825"><ele>24.0</ele><time>2026-04-05T15:13:39.999Z</time></trkpt><trkpt lat="44.87053580038061" lon="-1.119620300961414"><ele>25.0</ele><time>2026-04-05T15:13:40.999Z</time></trkpt><trkpt lat="44.87050906835633" lon="-1.1194159850723555"><ele>25.0</ele><time>2026-04-05T15:13:41.999Z</time></trkpt><trkpt lat="44.87048276004806" lon="-1.1191934274508204"><ele>25.0</ele><time>2026-04-05T15:13:42.999Z</time></trkpt><trkpt lat="44.87045643142538" lon="-1.1189545001327037"><ele>25.0</ele><time>2026-04-05T15:13:43.999Z</time></trkpt><trkpt lat="44.870432570930376" lon="-1.118731803490708"><ele>24.0</ele><time>2026-04-05T15:13:44.999Z</time></trkpt><trkpt lat="44.870408577945526" lon="-1.1184944616841297"><ele>23.0</ele><time>2026-04-05T15:13:45.999Z</time></trkpt><trkpt lat="44.870381352625074" lon="-1.1182520855384237"><ele>22.0</ele><time>2026-04-05T15:13:46.999Z</time></trkpt><trkpt lat="44.870360905275625" lon="-1.1180370833902096"><ele>22.0</ele><time>2026-04-05T15:13:47.999Z</time></trkpt><trkpt lat="44.870332603194264" lon="-1.1178170517472517"><ele>22.0</ele><time>2026-04-05T15:13:48.999Z</time></trkpt><trkpt lat="44.87030655916733" lon="-1.117597558155272"><ele>22.0</ele><time>2026-04-05T15:13:49.999Z</time></trkpt><trkpt lat="44.8702748861152" lon="-1.1173981962222432"><ele>23.666666666666664</ele><time>2026-04-05T15:13:50.999Z</time></trkpt><trkpt lat="44.87023235292348" lon="-1.1171817204873034"><ele>25.333333333333332</ele><time>2026-04-05T15:13:51.999Z</time></trkpt><trkpt lat="44.87017509728941" lon="-1.1169490897960443"><ele>27.0</ele><time>2026-04-05T15:13:52.999Z</time></trkpt><trkpt lat="44.870112786035605" lon="-1.1167132444864825"><ele>26.666666666666664</ele><time>2026-04-05T15:13:53.999Z</time></trkpt><trkpt lat="44.870054969306054" lon="-1.1165160763956825"><ele>26.333333333333332</ele><time>2026-04-05T15:13:54.999Z</time></trkpt><trkpt lat="44.8699946174389" lon="-1.1163060598190977"><ele>26.0</ele><time>2026-04-05T15:13:55.999Z</time></trkpt><trkpt lat="44.869940063787595" lon="-1.116091220631924"><ele>26.0</ele><time>2026-04-05T15:13:56.999Z</time></trkpt><trkpt lat="44.869897404924124" lon="-1.1158966535813875"><ele>26.0</ele><time>2026-04-05T15:13:57.999Z</time></trkpt><trkpt lat="44.86985593798794" lon="-1.1156978199049143"><ele>26.0</ele><time>2026-04-05T15:13:58.999Z</time></trkpt><trkpt lat="44.86981053349869" lon="-1.1155066967689424"><ele>26.0</ele><time>2026-04-05T15:13:59.999Z</time></trkpt><trkpt lat="44.869761927459045" lon="-1.115312991048311"><ele>26.0</ele><time>2026-04-05T15:14:00.999Z</time></trkpt><trkpt lat="44.869717470076296" lon="-1.1151414122950447"><ele>26.0</ele><time>2026-04-05T15:14:01.999Z</time></trkpt><trkpt lat="44.86966078628358" lon="-1.1149684953371222"><ele>26.0</ele><time>2026-04-05T15:14:02.999Z</time></trkpt><trkpt lat="44.86959136126242" lon="-1.1148377673040737"><ele>26.0</ele><time>2026-04-05T15:14:03.999Z</time></trkpt><trkpt lat="44.86950831882897" lon="-1.1147111136461532"><ele>26.0</ele><time>2026-04-05T15:14:04.999Z</time></trkpt><trkpt lat="44.86942713280725" lon="-1.1145940592087915"><ele>26.0</ele><time>2026-04-05T15:14:05.999Z</time></trkpt><trkpt lat="44.869340648772194" lon="-1.1144756898143249"><ele>26.0</ele><time>2026-04-05T15:14:06.999Z</time></trkpt><trkpt lat="44.86924308519736" lon="-1.1143316352117691"><ele>26.0</ele><time>2026-04-05T15:14:07.999Z</time></trkpt><trkpt lat="44.86914335047526" lon="-1.1141768662169553"><ele>24.8</ele><time>2026-04-05T15:14:08.999Z</time></trkpt><trkpt lat="44.86904915222822" lon="-1.114022265877484"><ele>23.6</ele><time>2026-04-05T15:14:09.999Z</time></trkpt><trkpt lat="44.86897500841354" lon="-1.113888626038711"><ele>22.4</ele><time>2026-04-05T15:14:10.999Z</time></trkpt><trkpt lat="44.86893444567358" lon="-1.1138063080662293"><ele>21.2</ele><time>2026-04-05T15:14:11.999Z</time></trkpt><trkpt lat="44.8690165265291" lon="-1.1137804711790018"><ele>20.0</ele><time>2026-04-05T15:14:27.998Z</time></trkpt><trkpt lat="44.86908524538317" lon="-1.1136943476171846"><ele>20.0</ele><time>2026-04-05T15:14:30.998Z</time></trkpt><trkpt lat="44.86917099475459" lon="-1.113683928841015"><ele>20.0</ele><time>2026-04-05T15:14:32.998Z</time></trkpt><trkpt lat="44.86929684735657" lon="-1.1137012533873605"><ele>20.0</ele><time>2026-04-05T15:14:34.998Z</time></trkpt><trkpt lat="44.86939554582702" lon="-1.1136890214894437"><ele>20.0</ele><time>2026-04-05T15:14:35.998Z</time></trkpt><trkpt lat="44.86952393491454" lon="-1.1136383164653583"><ele>20.0</ele><time>2026-04-05T15:14:36.998Z</time></trkpt><trkpt lat="44.86966042809999" lon="-1.1135877748345704"><ele>20.833333333333336</ele><time>2026-04-05T15:14:37.998Z</time></trkpt><trkpt lat="44.8697758048758" lon="-1.1135464655801937"><ele>21.666666666666668</ele><time>2026-04-05T15:14:38.998Z</time></trkpt><trkpt lat="44.869856613435935" lon="-1.1134876089621106"><ele>22.5</ele><time>2026-04-05T15:14:39.998Z</time></trkpt><trkpt lat="44.86992587456034" lon="-1.1134187978477657"><ele>23.333333333333336</ele><time>2026-04-05T15:14:40.998Z</time></trkpt><trkpt lat="44.86998526802648" lon="-1.113386831581118"><ele>24.166666666666668</ele><time>2026-04-05T15:14:41.998Z</time></trkpt><trkpt lat="44.870065225350714" lon="-1.1133603117668096"><ele>25.0</ele><time>2026-04-05T15:14:42.998Z</time></trkpt><trkpt lat="44.870152886180655" lon="-1.113301536706608"><ele>26.333333333333336</ele><time>2026-04-05T15:14:44.998Z</time></trkpt><trkpt lat="44.87017567063885" lon="-1.1132156711399765"><ele>27.666666666666668</ele><time>2026-04-05T15:14:46.998Z</time></trkpt><trkpt lat="44.870227352912934" lon="-1.1131582329321357"><ele>29.0</ele><time>2026-04-05T15:14:47.998Z</time></trkpt><trkpt lat="44.87028125379139" lon="-1.1130863729434104"><ele>30.333333333333336</ele><time>2026-04-05T15:14:48.998Z</time></trkpt><trkpt lat="44.87033770801549" lon="-1.1129154062721773"><ele>31.666666666666668</ele><time>2026-04-05T15:14:50.998Z</time></trkpt><trkpt lat="44.87035827558602" lon="-1.112774566173523"><ele>33.0</ele><time>2026-04-05T15:14:51.998Z</time></trkpt><trkpt lat="44.87036492506297" lon="-1.1126417300220084"><ele>33.0</ele><time>2026-04-05T15:14:52.998Z</time></trkpt><trkpt lat="44.870367264144775" lon="-1.1125385267821253"><ele>33.0</ele><time>2026-04-05T15:14:53.998Z</time></trkpt><trkpt lat="44.8703930173524" lon="-1.1124281761426102"><ele>33.0</ele><time>2026-04-05T15:14:54.998Z</time></trkpt><trkpt lat="44.870414711315526" lon="-1.1123243812085344"><ele>33.0</ele><time>2026-04-05T15:14:55.998Z</time></trkpt><trkpt lat="44.870416527179046" lon="-1.1121894054961463"><ele>33.0</ele><time>2026-04-05T15:14:56.998Z</time></trkpt><trkpt lat="44.870404373018275" lon="-1.1120682250721312"><ele>33.0</ele><time>2026-04-05T15:14:57.998Z</time></trkpt><trkpt lat="44.87039923793081" lon="-1.1119789555818966"><ele>33.0</ele><time>2026-04-05T15:14:58.998Z</time></trkpt><trkpt lat="44.87042688106476" lon="-1.111892516556137"><ele>33.0</ele><time>2026-04-05T15:14:59.998Z</time></trkpt><trkpt lat="44.87047681719175" lon="-1.111789452796468"><ele>33.0</ele><time>2026-04-05T15:15:00.998Z</time></trkpt><trkpt lat="44.87049916002844" lon="-1.1115793134225394"><ele>33.0</ele><time>2026-04-05T15:15:02.998Z</time></trkpt><trkpt lat="44.870491428658646" lon="-1.1114404940507028"><ele>33.0</ele><time>2026-04-05T15:15:03.998Z</time></trkpt><trkpt lat="44.87050409258504" lon="-1.1113151902178904"><ele>33.333333333333336</ele><time>2026-04-05T15:15:04.998Z</time></trkpt><trkpt lat="44.870516250625094" lon="-1.1111948352875887"><ele>33.666666666666664</ele><time>2026-04-05T15:15:05.998Z</time></trkpt><trkpt lat="44.87053799579237" lon="-1.1110962205481978"><ele>34.0</ele><time>2026-04-05T15:15:06.998Z</time></trkpt><trkpt lat="44.87058018875203" lon="-1.111004601453965"><ele>34.33333333333333</ele><time>2026-04-05T15:15:07.998Z</time></trkpt><trkpt lat="44.870619772114544" lon="-1.1109197091729262"><ele>34.666666666666664</ele><time>2026-04-05T15:15:08.998Z</time></trkpt><trkpt lat="44.870728298567286" lon="-1.1108409481997297"><ele>35.0</ele><time>2026-04-05T15:15:10.997Z</time></trkpt><trkpt lat="44.87083825892535" lon="-1.1108423333131277"><ele>35.0</ele><time>2026-04-05T15:15:11.997Z</time></trkpt><trkpt lat="44.8709217106986" lon="-1.1108408558492173"><ele>35.0</ele><time>2026-04-05T15:15:12.997Z</time></trkpt><trkpt lat="44.87099271011165" lon="-1.1108363176577445"><ele>35.0</ele><time>2026-04-05T15:15:13.997Z</time></trkpt><trkpt lat="44.871068647158" lon="-1.110829327045876"><ele>35.0</ele><time>2026-04-05T15:15:14.997Z</time></trkpt><trkpt lat="44.871134999160425" lon="-1.1108381514095533"><ele>35.0</ele><time>2026-04-05T15:15:15.997Z</time></trkpt><trkpt lat="44.87120431527187" lon="-1.1108342440111705"><ele>35.0</ele><time>2026-04-05T15:15:16.997Z</time></trkpt><trkpt lat="44.87123245450673" lon="-1.1107307597471685"><ele>35.0</ele><time>2026-04-05T15:15:18.997Z</time></trkpt><trkpt lat="44.871296059960855" lon="-1.1106390363675658"><ele>35.0</ele><time>2026-04-05T15:15:20.997Z</time></trkpt><trkpt lat="44.871371657017626" lon="-1.1106150895863178"><ele>35.0</ele><time>2026-04-05T15:15:22.997Z</time></trkpt><trkpt lat="44.87145435036839" lon="-1.1105921857566434"><ele>35.0</ele><time>2026-04-05T15:15:25Z</time></trkpt><trkpt lat="44.871518949940196" lon="-1.1105999022030235"><ele>35.0</ele><time>2026-04-05T15:15:27Z</time></trkpt><trkpt lat="44.871593744284425" lon="-1.1105749426606846"><ele>35.0</ele><time>2026-04-05T15:15:31.999Z</time></trkpt><trkpt lat="44.87166963403802" lon="-1.1104816266219926"><ele>35.0</ele><time>2026-04-05T15:15:34.999Z</time></trkpt><trkpt lat="44.87170207555446" lon="-1.1103903497879415"><ele>35.0</ele><time>2026-04-05T15:15:37.999Z</time></trkpt><trkpt lat="44.87172308006639" lon="-1.110281761068656"><ele>35.0</ele><time>2026-04-05T15:15:41Z</time></trkpt><trkpt lat="44.87173342661809" lon="-1.110171147363862"><ele>35.0</ele><time>2026-04-05T15:16:51.999Z</time></trkpt><trkpt lat="44.87179374581524" lon="-1.110207114572045"><ele>35.0</ele><time>2026-04-05T15:16:56.999Z</time></trkpt><trkpt lat="44.87174793717411" lon="-1.110277611634813"><ele>35.0</ele><time>2026-04-05T15:17:05.999Z</time></trkpt><trkpt lat="44.87169151489609" lon="-1.1103636148682863"><ele>35.0</ele><time>2026-04-05T15:17:08.999Z</time></trkpt><trkpt lat="44.87167961646143" lon="-1.110473186186516"><ele>35.0</ele><time>2026-04-05T15:17:11.998Z</time></trkpt><trkpt lat="44.87161436721813" lon="-1.110538811280854"><ele>35.0</ele><time>2026-04-05T15:17:13.998Z</time></trkpt><trkpt lat="44.87152791495761" lon="-1.1105889879883764"><ele>35.0</ele><time>2026-04-05T15:17:15.998Z</time></trkpt><trkpt lat="44.8714282570549" lon="-1.1106109662099717"><ele>35.0</ele><time>2026-04-05T15:17:17.998Z</time></trkpt><trkpt lat="44.871346375405274" lon="-1.1106201303693133"><ele>35.0</ele><time>2026-04-05T15:17:19.998Z</time></trkpt><trkpt lat="44.87128205181345" lon="-1.110668451596046"><ele>35.0</ele><time>2026-04-05T15:18:03Z</time></trkpt><trkpt lat="44.87120466386254" lon="-1.1107355159466448"><ele>35.0</ele><time>2026-04-05T15:18:05Z</time></trkpt><trkpt lat="44.871160044389235" lon="-1.1108104823198977"><ele>35.0</ele><time>2026-04-05T15:18:06Z</time></trkpt><trkpt lat="44.87110073082009" lon="-1.1108591665736445"><ele>35.0</ele><time>2026-04-05T15:18:08Z</time></trkpt><trkpt lat="44.87101700895564" lon="-1.1108525006323635"><ele>35.0</ele><time>2026-04-05T15:18:46.999Z</time></trkpt><trkpt lat="44.870949979666946" lon="-1.1108529834295697"><ele>35.0</ele><time>2026-04-05T15:18:47.999Z</time></trkpt><trkpt lat="44.87085636200291" lon="-1.1108665996011495"><ele>35.0</ele><time>2026-04-05T15:18:48.999Z</time></trkpt><trkpt lat="44.870780170380854" lon="-1.1108700229721065"><ele>35.0</ele><time>2026-04-05T15:18:49.999Z</time></trkpt><trkpt lat="44.87067175233607" lon="-1.1108995032151925"><ele>35.0</ele><time>2026-04-05T15:18:51.999Z</time></trkpt><trkpt lat="44.87059503957333" lon="-1.1109535058937496"><ele>35.0</ele><time>2026-04-05T15:18:53.999Z</time></trkpt><trkpt lat="44.87054659605828" lon="-1.1110321712577087"><ele>35.0</ele><time>2026-04-05T15:18:54.999Z</time></trkpt><trkpt lat="44.87053096894368" lon="-1.1111364771730332"><ele>35.0</ele><time>2026-04-05T15:18:55.999Z</time></trkpt><trkpt lat="44.870504498215915" lon="-1.1112714772880288"><ele>35.0</ele><time>2026-04-05T15:18:56.999Z</time></trkpt><trkpt lat="44.87048548967539" lon="-1.1113865726472478"><ele>35.0</ele><time>2026-04-05T15:18:57.999Z</time></trkpt><trkpt lat="44.87047642376853" lon="-1.1115237097437827"><ele>35.0</ele><time>2026-04-05T15:18:58.999Z</time></trkpt><trkpt lat="44.87046980341681" lon="-1.1116662526150727"><ele>35.0</ele><time>2026-04-05T15:18:59.999Z</time></trkpt><trkpt lat="44.87044893976348" lon="-1.1117809136120946"><ele>35.0</ele><time>2026-04-05T15:19:00.999Z</time></trkpt><trkpt lat="44.87045848458075" lon="-1.111901499718125"><ele>35.0</ele><time>2026-04-05T15:19:01.999Z</time></trkpt><trkpt lat="44.87041178709976" lon="-1.1120052072786824"><ele>34.6</ele><time>2026-04-05T15:19:02.999Z</time></trkpt><trkpt lat="44.870375339265784" lon="-1.112095372644894"><ele>34.2</ele><time>2026-04-05T15:19:03.999Z</time></trkpt><trkpt lat="44.87039916788307" lon="-1.1123247577531832"><ele>33.8</ele><time>2026-04-05T15:19:05.999Z</time></trkpt><trkpt lat="44.870398473700114" lon="-1.1124916571944348"><ele>33.4</ele><time>2026-04-05T15:19:06.999Z</time></trkpt><trkpt lat="44.870378450630206" lon="-1.112600654067617"><ele>33.0</ele><time>2026-04-05T15:19:07.999Z</time></trkpt><trkpt lat="44.870343881878775" lon="-1.1127027118562256"><ele>33.0</ele><time>2026-04-05T15:19:08.999Z</time></trkpt><trkpt lat="44.87033559167703" lon="-1.1128258503379265"><ele>33.0</ele><time>2026-04-05T15:19:09.999Z</time></trkpt><trkpt lat="44.870322098136164" lon="-1.1129682233489568"><ele>33.0</ele><time>2026-04-05T15:19:10.999Z</time></trkpt><trkpt lat="44.870294805387154" lon="-1.1130996206277834"><ele>33.0</ele><time>2026-04-05T15:19:11.999Z</time></trkpt><trkpt lat="44.87025355591367" lon="-1.1131805995658173"><ele>33.0</ele><time>2026-04-05T15:19:12.998Z</time></trkpt><trkpt lat="44.87019577822602" lon="-1.1132462284401692"><ele>33.0</ele><time>2026-04-05T15:19:13.998Z</time></trkpt><trkpt lat="44.87013246990596" lon="-1.1132998707988273"><ele>31.666666666666668</ele><time>2026-04-05T15:19:14.998Z</time></trkpt><trkpt lat="44.87003799194733" lon="-1.1134247923803402"><ele>30.333333333333336</ele><time>2026-04-05T15:19:16.998Z</time></trkpt><trkpt lat="44.86997297463002" lon="-1.1134487501610686"><ele>29.0</ele><time>2026-04-05T15:19:17.998Z</time></trkpt><trkpt lat="44.86988929743331" lon="-1.1134525764680356"><ele>27.666666666666668</ele><time>2026-04-05T15:19:18.998Z</time></trkpt><trkpt lat="44.869818159954264" lon="-1.113466553912293"><ele>26.333333333333336</ele><time>2026-04-05T15:19:19.998Z</time></trkpt><trkpt lat="44.86974137699352" lon="-1.1135062018649564"><ele>25.0</ele><time>2026-04-05T15:19:20.998Z</time></trkpt><trkpt lat="44.86965597824885" lon="-1.113572772732853"><ele>25.0</ele><time>2026-04-05T15:19:21.998Z</time></trkpt><trkpt lat="44.869546821196245" lon="-1.1136330225515727"><ele>25.0</ele><time>2026-04-05T15:19:22.998Z</time></trkpt><trkpt lat="44.86944560111989" lon="-1.1136523414356867"><ele>25.0</ele><time>2026-04-05T15:19:23.998Z</time></trkpt><trkpt lat="44.869348982684926" lon="-1.1136821584995156"><ele>25.0</ele><time>2026-04-05T15:19:24.998Z</time></trkpt><trkpt lat="44.869272910046085" lon="-1.11371199183427"><ele>25.0</ele><time>2026-04-05T15:19:25.998Z</time></trkpt><trkpt lat="44.869126495601016" lon="-1.1136915165745236"><ele>23.75</ele><time>2026-04-05T15:19:27.998Z</time></trkpt><trkpt lat="44.86901591619873" lon="-1.1137321118123995"><ele>22.5</ele><time>2026-04-05T15:19:29.998Z</time></trkpt><trkpt lat="44.86894473916602" lon="-1.1138226075289344"><ele>21.25</ele><time>2026-04-05T15:19:31.998Z</time></trkpt><trkpt lat="44.86886679467083" lon="-1.113621935683755"><ele>20.0</ele><time>2026-04-05T15:19:35Z</time></trkpt><trkpt lat="44.868787709412956" lon="-1.1134908099377623"><ele>20.0</ele><time>2026-04-05T15:19:36Z</time></trkpt><trkpt lat="44.868705898199416" lon="-1.113357234329999"><ele>20.0</ele><time>2026-04-05T15:19:37Z</time></trkpt><trkpt lat="44.86862306173055" lon="-1.1131978900249233"><ele>20.0</ele><time>2026-04-05T15:19:38Z</time></trkpt><trkpt lat="44.86854370243406" lon="-1.1130356869751792"><ele>20.0</ele><time>2026-04-05T15:19:39Z</time></trkpt><trkpt lat="44.86846082919654" lon="-1.1128559120595902"><ele>20.0</ele><time>2026-04-05T15:19:40Z</time></trkpt><trkpt lat="44.86836925006836" lon="-1.1126829537707648"><ele>20.0</ele><time>2026-04-05T15:19:41Z</time></trkpt><trkpt lat="44.86827990297625" lon="-1.1125136736437167"><ele>20.0</ele><time>2026-04-05T15:19:42Z</time></trkpt><trkpt lat="44.86821000400226" lon="-1.1123455514510796"><ele>20.0</ele><time>2026-04-05T15:19:43Z</time></trkpt><trkpt lat="44.86813099169754" lon="-1.1121878345002285"><ele>20.0</ele><time>2026-04-05T15:19:44Z</time></trkpt><trkpt lat="44.86804897526263" lon="-1.1120374879058101"><ele>20.0</ele><time>2026-04-05T15:19:45Z</time></trkpt><trkpt lat="44.86796971144822" lon="-1.1119114606981986"><ele>20.0</ele><time>2026-04-05T15:19:46Z</time></trkpt><trkpt lat="44.86787386509004" lon="-1.1117586191114677"><ele>20.0</ele><time>2026-04-05T15:19:47Z</time></trkpt><trkpt lat="44.86777826172575" lon="-1.1116530928641393"><ele>20.25</ele><time>2026-04-05T15:19:48Z</time></trkpt><trkpt lat="44.86769096467458" lon="-1.1115236409311682"><ele>20.5</ele><time>2026-04-05T15:19:49Z</time></trkpt><trkpt lat="44.86760025078791" lon="-1.1114020846432642"><ele>20.75</ele><time>2026-04-05T15:19:50Z</time></trkpt><trkpt lat="44.867516998634464" lon="-1.1112829561929354"><ele>21.0</ele><time>2026-04-05T15:19:51Z</time></trkpt><trkpt lat="44.86742614766399" lon="-1.111146976581112"><ele>21.0</ele><time>2026-04-05T15:19:52Z</time></trkpt><trkpt lat="44.867323410941474" lon="-1.1110208884655535"><ele>21.0</ele><time>2026-04-05T15:19:53Z</time></trkpt><trkpt lat="44.86722148009015" lon="-1.110895214411812"><ele>21.0</ele><time>2026-04-05T15:19:54Z</time></trkpt><trkpt lat="44.867107884525275" lon="-1.1107608843059213"><ele>21.0</ele><time>2026-04-05T15:19:55Z</time></trkpt><trkpt lat="44.86701039020146" lon="-1.1106450548813736"><ele>21.0</ele><time>2026-04-05T15:19:56Z</time></trkpt><trkpt lat="44.86692142822974" lon="-1.1105289860314018"><ele>21.0</ele><time>2026-04-05T15:19:57Z</time></trkpt><trkpt lat="44.86685032400896" lon="-1.1104091321852363"><ele>21.0</ele><time>2026-04-05T15:19:58Z</time></trkpt><trkpt lat="44.86678923884749" lon="-1.1102981416635556"><ele>21.0</ele><time>2026-04-05T15:19:59Z</time></trkpt><trkpt lat="44.86667219938069" lon="-1.110175487565576"><ele>21.0</ele><time>2026-04-05T15:20:00Z</time></trkpt><trkpt lat="44.866606425904656" lon="-1.1100732561149709"><ele>21.0</ele><time>2026-04-05T15:20:01Z</time></trkpt><trkpt lat="44.86656440913697" lon="-1.1099658610630097"><ele>21.0</ele><time>2026-04-05T15:20:02Z</time></trkpt><trkpt lat="44.86651320780723" lon="-1.1098107918507298"><ele>21.0</ele><time>2026-04-05T15:20:03Z</time></trkpt><trkpt lat="44.86644572313658" lon="-1.1096194040897025"><ele>21.0</ele><time>2026-04-05T15:20:04Z</time></trkpt><trkpt lat="44.86639030943262" lon="-1.1094661912078108"><ele>21.0</ele><time>2026-04-05T15:20:05Z</time></trkpt><trkpt lat="44.86632240622936" lon="-1.1092982843105976"><ele>21.0</ele><time>2026-04-05T15:20:06Z</time></trkpt><trkpt lat="44.86626185929545" lon="-1.109151522868676"><ele>21.0</ele><time>2026-04-05T15:20:07Z</time></trkpt><trkpt lat="44.86620146404451" lon="-1.109008896860281"><ele>21.0</ele><time>2026-04-05T15:20:08Z</time></trkpt><trkpt lat="44.866137847559635" lon="-1.108834839816406"><ele>21.0</ele><time>2026-04-05T15:20:09Z</time></trkpt><trkpt lat="44.86607290144926" lon="-1.1086596365513233"><ele>21.0</ele><time>2026-04-05T15:20:10Z</time></trkpt><trkpt lat="44.866010876203816" lon="-1.1085157862198889"><ele>21.0</ele><time>2026-04-05T15:20:11Z</time></trkpt><trkpt lat="44.86596215517596" lon="-1.1083863403986658"><ele>20.75</ele><time>2026-04-05T15:20:12Z</time></trkpt><trkpt lat="44.865900743978095" lon="-1.1082209992571164"><ele>20.5</ele><time>2026-04-05T15:20:13Z</time></trkpt><trkpt lat="44.865832049852756" lon="-1.1080583049818182"><ele>20.25</ele><time>2026-04-05T15:20:14Z</time></trkpt><trkpt lat="44.86575376766722" lon="-1.107898031419508"><ele>20.0</ele><time>2026-04-05T15:20:15Z</time></trkpt><trkpt lat="44.86568803819608" lon="-1.107758176158308"><ele>20.0</ele><time>2026-04-05T15:20:16Z</time></trkpt><trkpt lat="44.86562390624861" lon="-1.1076378432553355"><ele>20.0</ele><time>2026-04-05T15:20:17Z</time></trkpt><trkpt lat="44.86555417729134" lon="-1.1074968886759258"><ele>20.0</ele><time>2026-04-05T15:20:18Z</time></trkpt><trkpt lat="44.8654743362091" lon="-1.107320629389699"><ele>20.0</ele><time>2026-04-05T15:20:19Z</time></trkpt><trkpt lat="44.86536689145523" lon="-1.1071660149110158"><ele>20.0</ele><time>2026-04-05T15:20:20Z</time></trkpt><trkpt lat="44.865285291376615" lon="-1.107024761912701"><ele>20.0</ele><time>2026-04-05T15:20:21Z</time></trkpt><trkpt lat="44.865208412121866" lon="-1.1069028183225667"><ele>20.0</ele><time>2026-04-05T15:20:22Z</time></trkpt><trkpt lat="44.86513670953151" lon="-1.106804218957845"><ele>20.0</ele><time>2026-04-05T15:20:23Z</time></trkpt><trkpt lat="44.86504458729261" lon="-1.1067194305738732"><ele>20.75</ele><time>2026-04-05T15:20:24Z</time></trkpt><trkpt lat="44.86494290273276" lon="-1.106642846646643"><ele>21.5</ele><time>2026-04-05T15:20:25Z</time></trkpt><trkpt lat="44.86484196158707" lon="-1.106562248713046"><ele>22.25</ele><time>2026-04-05T15:20:25.999Z</time></trkpt><trkpt lat="44.86473800905945" lon="-1.1064528679720635"><ele>23.0</ele><time>2026-04-05T15:20:26.999Z</time></trkpt><trkpt lat="44.86464312384489" lon="-1.106363324041719"><ele>23.0</ele><time>2026-04-05T15:20:27.999Z</time></trkpt><trkpt lat="44.864557554285355" lon="-1.106267312903245"><ele>23.0</ele><time>2026-04-05T15:20:28.999Z</time></trkpt><trkpt lat="44.86447739684788" lon="-1.1062059655356549"><ele>23.0</ele><time>2026-04-05T15:20:29.999Z</time></trkpt><trkpt lat="44.86438622227692" lon="-1.10610940009542"><ele>23.0</ele><time>2026-04-05T15:20:30.999Z</time></trkpt><trkpt lat="44.864286012862586" lon="-1.106019752857933"><ele>23.0</ele><time>2026-04-05T15:20:31.999Z</time></trkpt><trkpt lat="44.86420710361967" lon="-1.1059313750264348"><ele>23.0</ele><time>2026-04-05T15:20:32.999Z</time></trkpt><trkpt lat="44.864097914589536" lon="-1.105819038703282"><ele>23.0</ele><time>2026-04-05T15:20:33.999Z</time></trkpt><trkpt lat="44.864021656219066" lon="-1.105751412462449"><ele>23.0</ele><time>2026-04-05T15:20:34.999Z</time></trkpt><trkpt lat="44.863953063673975" lon="-1.1056888569126304"><ele>23.0</ele><time>2026-04-05T15:20:35.999Z</time></trkpt><trkpt lat="44.86387679358207" lon="-1.1056094437175494"><ele>23.0</ele><time>2026-04-05T15:20:37.999Z</time></trkpt><trkpt lat="44.863827648385595" lon="-1.105526093464888"><ele>23.0</ele><time>2026-04-05T15:20:40.999Z</time></trkpt><trkpt lat="44.863736341561705" lon="-1.1054554180903193"><ele>23.0</ele><time>2026-04-05T15:20:42.999Z</time></trkpt><trkpt lat="44.863668736534066" lon="-1.1053920092273954"><ele>23.0</ele><time>2026-04-05T15:20:43.999Z</time></trkpt><trkpt lat="44.86360039728675" lon="-1.105326718077114"><ele>23.0</ele><time>2026-04-05T15:20:44.999Z</time></trkpt><trkpt lat="44.86354035379314" lon="-1.1052705386394719"><ele>23.0</ele><time>2026-04-05T15:20:45.999Z</time></trkpt><trkpt lat="44.863463723664196" lon="-1.1051971451831801"><ele>23.0</ele><time>2026-04-05T15:20:46.999Z</time></trkpt><trkpt lat="44.86340404950088" lon="-1.1051265764325124"><ele>23.0</ele><time>2026-04-05T15:20:47.999Z</time></trkpt><trkpt lat="44.863336629495144" lon="-1.1050605109690055"><ele>23.0</ele><time>2026-04-05T15:20:48.999Z</time></trkpt><trkpt lat="44.863262955575635" lon="-1.1049749657758396"><ele>23.0</ele><time>2026-04-05T15:20:49.999Z</time></trkpt><trkpt lat="44.86320413799312" lon="-1.1048985606548063"><ele>23.0</ele><time>2026-04-05T15:20:50.999Z</time></trkpt><trkpt lat="44.86314955970467" lon="-1.1048434545650239"><ele>23.0</ele><time>2026-04-05T15:20:51.999Z</time></trkpt><trkpt lat="44.86308647877548" lon="-1.104797755948689"><ele>23.0</ele><time>2026-04-05T15:20:53.999Z</time></trkpt><trkpt lat="44.863104438015974" lon="-1.1047021109164068"><ele>22.799999999999997</ele><time>2026-04-05T15:21:32.998Z</time></trkpt><trkpt lat="44.86322053201103" lon="-1.104591742713359"><ele>22.6</ele><time>2026-04-05T15:21:34.998Z</time></trkpt><trkpt lat="44.86327847762422" lon="-1.104524873147684"><ele>22.4</ele><time>2026-04-05T15:21:35.998Z</time></trkpt><trkpt lat="44.86332702761288" lon="-1.1044079013413937"><ele>22.200000000000003</ele><time>2026-04-05T15:21:37.998Z</time></trkpt><trkpt lat="44.86327599235239" lon="-1.1042583696084678"><ele>22.0</ele><time>2026-04-05T15:21:40Z</time></trkpt><trkpt lat="44.86322092070148" lon="-1.1041533211407206"><ele>23.8</ele><time>2026-04-05T15:21:41Z</time></trkpt><trkpt lat="44.86315385569571" lon="-1.1040229841249338"><ele>25.6</ele><time>2026-04-05T15:21:42Z</time></trkpt><trkpt lat="44.86310179256842" lon="-1.1039150249170668"><ele>27.400000000000002</ele><time>2026-04-05T15:21:44Z</time></trkpt><trkpt lat="44.86312510753593" lon="-1.1038131705688843"><ele>29.200000000000003</ele><time>2026-04-05T15:21:46Z</time></trkpt><trkpt lat="44.86320214596038" lon="-1.1037168416103023"><ele>31.0</ele><time>2026-04-05T15:21:48Z</time></trkpt><trkpt lat="44.86327897729858" lon="-1.1036402672510937"><ele>31.0</ele><time>2026-04-05T15:21:49Z</time></trkpt><trkpt lat="44.86334988473392" lon="-1.1035523119889838"><ele>31.0</ele><time>2026-04-05T15:21:50Z</time></trkpt><trkpt lat="44.863423787756275" lon="-1.1034664476059601"><ele>31.0</ele><time>2026-04-05T15:21:51Z</time></trkpt><trkpt lat="44.863542833251515" lon="-1.1033136518129418"><ele>31.0</ele><time>2026-04-05T15:21:52Z</time></trkpt><trkpt lat="44.86365493101757" lon="-1.1031851150904801"><ele>31.25</ele><time>2026-04-05T15:21:53Z</time></trkpt><trkpt lat="44.86374175338008" lon="-1.1030501324615924"><ele>31.5</ele><time>2026-04-05T15:21:54Z</time></trkpt><trkpt lat="44.86385224996058" lon="-1.1029529853006106"><ele>31.75</ele><time>2026-04-05T15:21:55Z</time></trkpt><trkpt lat="44.863908661862" lon="-1.1028446594124548"><ele>32.0</ele><time>2026-04-05T15:21:56Z</time></trkpt><trkpt lat="44.86394043339301" lon="-1.102709923097447"><ele>32.0</ele><time>2026-04-05T15:21:57Z</time></trkpt><trkpt lat="44.863945851747296" lon="-1.1024938331076413"><ele>32.0</ele><time>2026-04-05T15:21:58Z</time></trkpt><trkpt lat="44.8639750147601" lon="-1.1022679415082683"><ele>32.0</ele><time>2026-04-05T15:21:59Z</time></trkpt><trkpt lat="44.86401146694019" lon="-1.1020785156212711"><ele>32.25</ele><time>2026-04-05T15:22:00Z</time></trkpt><trkpt lat="44.8640448516755" lon="-1.101892999311987"><ele>32.5</ele><time>2026-04-05T15:22:01Z</time></trkpt><trkpt lat="44.86405710369297" lon="-1.1016917645106565"><ele>32.75</ele><time>2026-04-05T15:22:02Z</time></trkpt><trkpt lat="44.86407500467152" lon="-1.1014625528949964"><ele>33.0</ele><time>2026-04-05T15:22:03Z</time></trkpt><trkpt lat="44.86407505097427" lon="-1.1012759491796806"><ele>33.0</ele><time>2026-04-05T15:22:04Z</time></trkpt><trkpt lat="44.864120138828895" lon="-1.1010704450235562"><ele>33.0</ele><time>2026-04-05T15:22:05Z</time></trkpt><trkpt lat="44.86416835847604" lon="-1.1008476239543363"><ele>33.0</ele><time>2026-04-05T15:22:06Z</time></trkpt><trkpt lat="44.86421077896158" lon="-1.1006537834291565"><ele>31.5</ele><time>2026-04-05T15:22:07Z</time></trkpt><trkpt lat="44.8642480857445" lon="-1.1004479000014842"><ele>30.0</ele><time>2026-04-05T15:22:08Z</time></trkpt><trkpt lat="44.86427660219925" lon="-1.1002464795091689"><ele>28.5</ele><time>2026-04-05T15:22:09Z</time></trkpt><trkpt lat="44.864305755432774" lon="-1.1000548721225398"><ele>27.0</ele><time>2026-04-05T15:22:10Z</time></trkpt><trkpt lat="44.864341091696986" lon="-1.0998687337143382"><ele>25.5</ele><time>2026-04-05T15:22:11Z</time></trkpt><trkpt lat="44.864379950200366" lon="-1.0996957509570267"><ele>24.0</ele><time>2026-04-05T15:22:12Z</time></trkpt><trkpt lat="44.86441506227851" lon="-1.0994961626810689"><ele>22.5</ele><time>2026-04-05T15:22:13Z</time></trkpt><trkpt lat="44.86445127283633" lon="-1.099272986410443"><ele>21.0</ele><time>2026-04-05T15:22:14Z</time></trkpt><trkpt lat="44.864470969808195" lon="-1.0990891519120953"><ele>21.0</ele><time>2026-04-05T15:22:15Z</time></trkpt><trkpt lat="44.86446300825163" lon="-1.0988843774038932"><ele>21.0</ele><time>2026-04-05T15:22:16Z</time></trkpt><trkpt lat="44.86445301576591" lon="-1.0986977665081412"><ele>21.0</ele><time>2026-04-05T15:22:17Z</time></trkpt><trkpt lat="44.86445909222195" lon="-1.0985189849545087"><ele>21.0</ele><time>2026-04-05T15:22:18Z</time></trkpt><trkpt lat="44.86447731635243" lon="-1.0983232676439232"><ele>21.25</ele><time>2026-04-05T15:22:19Z</time></trkpt><trkpt lat="44.8644976010476" lon="-1.0981109377322817"><ele>21.5</ele><time>2026-04-05T15:22:20Z</time></trkpt><trkpt lat="44.864517935811534" lon="-1.097929517879304"><ele>21.75</ele><time>2026-04-05T15:22:21Z</time></trkpt><trkpt lat="44.86456014970617" lon="-1.097719923793766"><ele>22.0</ele><time>2026-04-05T15:22:22Z</time></trkpt><trkpt lat="44.86461365170909" lon="-1.097494831134567"><ele>23.25</ele><time>2026-04-05T15:22:23Z</time></trkpt><trkpt lat="44.864660229693776" lon="-1.0972909405001643"><ele>24.5</ele><time>2026-04-05T15:22:24Z</time></trkpt><trkpt lat="44.86470204671629" lon="-1.0971224815035807"><ele>25.75</ele><time>2026-04-05T15:22:25Z</time></trkpt><trkpt lat="44.864741118923604" lon="-1.096971948702079"><ele>27.0</ele><time>2026-04-05T15:22:26Z</time></trkpt><trkpt lat="44.86477926423998" lon="-1.096837531733894"><ele>27.0</ele><time>2026-04-05T15:22:27Z</time></trkpt><trkpt lat="44.86482079243697" lon="-1.0967167820615362"><ele>27.000000000000004</ele><time>2026-04-05T15:22:28Z</time></trkpt><trkpt lat="44.864877737201816" lon="-1.096632265113113"><ele>27.000000000000004</ele><time>2026-04-05T15:22:29Z</time></trkpt><trkpt lat="44.864963285304135" lon="-1.096548608212502"><ele>27.0</ele><time>2026-04-05T15:22:29.999Z</time></trkpt><trkpt lat="44.86506675868614" lon="-1.0964211064211495"><ele>27.0</ele><time>2026-04-05T15:22:30.999Z</time></trkpt><trkpt lat="44.865178661386146" lon="-1.0962961657637764"><ele>26.666666666666664</ele><time>2026-04-05T15:22:31.999Z</time></trkpt><trkpt lat="44.86531342544973" lon="-1.0961697899286196"><ele>26.333333333333332</ele><time>2026-04-05T15:22:32.999Z</time></trkpt><trkpt lat="44.86545085091637" lon="-1.096037498336169"><ele>26.0</ele><time>2026-04-05T15:22:33.999Z</time></trkpt><trkpt lat="44.86558671627972" lon="-1.095906084775509"><ele>26.0</ele><time>2026-04-05T15:22:34.999Z</time></trkpt><trkpt lat="44.865704839319164" lon="-1.0957890999815285"><ele>26.0</ele><time>2026-04-05T15:22:35.999Z</time></trkpt><trkpt lat="44.865822626893916" lon="-1.0956578953239415"><ele>26.0</ele><time>2026-04-05T15:22:36.999Z</time></trkpt><trkpt lat="44.8659591160237" lon="-1.0955266254418816"><ele>25.333333333333332</ele><time>2026-04-05T15:22:37.999Z</time></trkpt><trkpt lat="44.866084760202824" lon="-1.0953828007651303"><ele>24.666666666666664</ele><time>2026-04-05T15:22:38.999Z</time></trkpt><trkpt lat="44.86620108489484" lon="-1.095250641734717"><ele>24.0</ele><time>2026-04-05T15:22:39.999Z</time></trkpt><trkpt lat="44.866329179276526" lon="-1.0951280013828133"><ele>24.0</ele><time>2026-04-05T15:22:40.999Z</time></trkpt><trkpt lat="44.86645792704668" lon="-1.095007294565741"><ele>24.0</ele><time>2026-04-05T15:22:41.999Z</time></trkpt><trkpt lat="44.86659683561274" lon="-1.0948806328478997"><ele>24.0</ele><time>2026-04-05T15:22:42.999Z</time></trkpt><trkpt lat="44.866745841648516" lon="-1.0947620243347105"><ele>24.0</ele><time>2026-04-05T15:22:43.999Z</time></trkpt><trkpt lat="44.866875691051526" lon="-1.0946603491711238"><ele>24.0</ele><time>2026-04-05T15:22:44.999Z</time></trkpt><trkpt lat="44.866992904439584" lon="-1.0945406044084252"><ele>24.0</ele><time>2026-04-05T15:22:45.999Z</time></trkpt><trkpt lat="44.867123795722115" lon="-1.094437820452842"><ele>24.0</ele><time>2026-04-05T15:22:46.999Z</time></trkpt><trkpt lat="44.86725478157127" lon="-1.094317689359402"><ele>24.0</ele><time>2026-04-05T15:22:47.999Z</time></trkpt><trkpt lat="44.86739412903891" lon="-1.094214931658143"><ele>24.0</ele><time>2026-04-05T15:22:48.999Z</time></trkpt><trkpt lat="44.867536839971166" lon="-1.0941089501323396"><ele>24.0</ele><time>2026-04-05T15:22:49.999Z</time></trkpt><trkpt lat="44.86764556678872" lon="-1.0940321375696573"><ele>24.0</ele><time>2026-04-05T15:22:50.999Z</time></trkpt><trkpt lat="44.86776122349929" lon="-1.0939464020482508"><ele>25.0</ele><time>2026-04-05T15:22:51.999Z</time></trkpt><trkpt lat="44.86795383014901" lon="-1.093774370503252"><ele>26.0</ele><time>2026-04-05T15:22:52.999Z</time></trkpt><trkpt lat="44.86809775105079" lon="-1.0936747488748497"><ele>27.0</ele><time>2026-04-05T15:22:53.999Z</time></trkpt><trkpt lat="44.86825741674789" lon="-1.0935468682043878"><ele>27.0</ele><time>2026-04-05T15:22:54.999Z</time></trkpt><trkpt lat="44.86839757742439" lon="-1.0934412892758885"><ele>27.0</ele><time>2026-04-05T15:22:55.999Z</time></trkpt><trkpt lat="44.86854934684672" lon="-1.0933312143011662"><ele>27.0</ele><time>2026-04-05T15:22:56.999Z</time></trkpt><trkpt lat="44.86869310189144" lon="-1.0932267075282085"><ele>26.75</ele><time>2026-04-05T15:22:57.999Z</time></trkpt><trkpt lat="44.86882547736126" lon="-1.0931283718668037"><ele>26.5</ele><time>2026-04-05T15:22:58.999Z</time></trkpt><trkpt lat="44.86895293097442" lon="-1.0930330154487544"><ele>26.25</ele><time>2026-04-05T15:22:59.999Z</time></trkpt><trkpt lat="44.869065644061386" lon="-1.0929571898227413"><ele>26.0</ele><time>2026-04-05T15:23:00.999Z</time></trkpt><trkpt lat="44.86916059896745" lon="-1.0928911047499013"><ele>25.999999999999996</ele><time>2026-04-05T15:23:01.999Z</time></trkpt><trkpt lat="44.869225902198565" lon="-1.0928446917068593"><ele>26.0</ele><time>2026-04-05T15:23:02.999Z</time></trkpt><trkpt lat="44.86931721578551" lon="-1.0927980815523497"><ele>26.0</ele><time>2026-04-05T15:23:04.999Z</time></trkpt><trkpt lat="44.86928191032912" lon="-1.0926719330992887"><ele>26.0</ele><time>2026-04-05T15:23:07.999Z</time></trkpt><trkpt lat="44.86921676162566" lon="-1.0926263538115657"><ele>25.999999999999996</ele><time>2026-04-05T15:23:08.999Z</time></trkpt><trkpt lat="44.86911201212405" lon="-1.0926596896255423"><ele>26.0</ele><time>2026-04-05T15:23:10.999Z</time></trkpt><trkpt lat="44.869010919214794" lon="-1.0927006330264888"><ele>26.0</ele><time>2026-04-05T15:23:12.999Z</time></trkpt><trkpt lat="44.86897000828314" lon="-1.0926226910561327"><ele>26.0</ele><time>2026-04-05T15:23:14.999Z</time></trkpt><trkpt lat="44.86893869607566" lon="-1.0925049103813689"><ele>26.0</ele><time>2026-04-05T15:23:16.998Z</time></trkpt><trkpt lat="44.868872278987695" lon="-1.0923654608710989"><ele>26.0</ele><time>2026-04-05T15:23:18.998Z</time></trkpt><trkpt lat="44.868809492385985" lon="-1.0922170104148103"><ele>26.0</ele><time>2026-04-05T15:23:20.998Z</time></trkpt><trkpt lat="44.868757866902996" lon="-1.09210593577145"><ele>25.5</ele><time>2026-04-05T15:23:21.998Z</time></trkpt><trkpt lat="44.868707938984876" lon="-1.0919888259159338"><ele>25.0</ele><time>2026-04-05T15:23:22.998Z</time></trkpt><trkpt lat="44.86862217733428" lon="-1.0917870661542548"><ele>24.5</ele><time>2026-04-05T15:23:23.998Z</time></trkpt><trkpt lat="44.86855912257621" lon="-1.0916283111282619"><ele>24.0</ele><time>2026-04-05T15:23:24.998Z</time></trkpt><trkpt lat="44.86851731899713" lon="-1.091516680854688"><ele>23.833333333333332</ele><time>2026-04-05T15:23:25.998Z</time></trkpt><trkpt lat="44.86847871370463" lon="-1.091420190555215"><ele>23.666666666666668</ele><time>2026-04-05T15:23:26.998Z</time></trkpt><trkpt lat="44.868439718959486" lon="-1.0913359413712225"><ele>23.5</ele><time>2026-04-05T15:23:27.998Z</time></trkpt><trkpt lat="44.86840587624894" lon="-1.091250246507555"><ele>23.333333333333336</ele><time>2026-04-05T15:23:28.998Z</time></trkpt><trkpt lat="44.86833218337274" lon="-1.0910815804067722"><ele>23.166666666666668</ele><time>2026-04-05T15:23:30.998Z</time></trkpt><trkpt lat="44.86829925623641" lon="-1.090978780525174"><ele>23.0</ele><time>2026-04-05T15:23:31.998Z</time></trkpt><trkpt lat="44.86829077911148" lon="-1.0908535572478046"><ele>23.166666666666668</ele><time>2026-04-05T15:23:32.998Z</time></trkpt><trkpt lat="44.868294540197624" lon="-1.0907417219669175"><ele>23.333333333333336</ele><time>2026-04-05T15:23:33.998Z</time></trkpt><trkpt lat="44.8683089179355" lon="-1.0906128098775723"><ele>23.5</ele><time>2026-04-05T15:23:34.998Z</time></trkpt><trkpt lat="44.86831686405997" lon="-1.0904663750985468"><ele>23.666666666666668</ele><time>2026-04-05T15:23:35.998Z</time></trkpt><trkpt lat="44.86832499095167" lon="-1.090347273275729"><ele>23.833333333333332</ele><time>2026-04-05T15:23:36.998Z</time></trkpt><trkpt lat="44.8683276160042" lon="-1.0902469452325658"><ele>24.0</ele><time>2026-04-05T15:23:37.998Z</time></trkpt><trkpt lat="44.86833098258731" lon="-1.0900822597210182"><ele>24.0</ele><time>2026-04-05T15:23:39.998Z</time></trkpt><trkpt lat="44.86832285751725" lon="-1.089947432367314"><ele>24.0</ele><time>2026-04-05T15:23:41.998Z</time></trkpt><trkpt lat="44.86836086723182" lon="-1.0898591505494746"><ele>24.0</ele><time>2026-04-05T15:23:54Z</time></trkpt><trkpt lat="44.86839448912122" lon="-1.0897642392524274"><ele>24.0</ele><time>2026-04-05T15:23:57Z</time></trkpt><trkpt lat="44.86848479284796" lon="-1.0898064434011692"><ele>24.0</ele><time>2026-04-05T15:27:22.998Z</time></trkpt><trkpt lat="44.86855185792718" lon="-1.089874557981109"><ele>24.0</ele><time>2026-04-05T15:27:23.998Z</time></trkpt><trkpt lat="44.86866408657528" lon="-1.0899092723681878"><ele>23.75</ele><time>2026-04-05T15:27:24.998Z</time></trkpt><trkpt lat="44.86877427922897" lon="-1.0899215828927773"><ele>23.5</ele><time>2026-04-05T15:27:25.998Z</time></trkpt><trkpt lat="44.8689376590997" lon="-1.089923962475053"><ele>23.25</ele><time>2026-04-05T15:27:26.998Z</time></trkpt><trkpt lat="44.86909340708727" lon="-1.0899346623972048"><ele>23.0</ele><time>2026-04-05T15:27:27.998Z</time></trkpt><trkpt lat="44.86922631843686" lon="-1.0899528162621828"><ele>23.0</ele><time>2026-04-05T15:27:28.998Z</time></trkpt><trkpt lat="44.86939350338795" lon="-1.0899714627839938"><ele>23.0</ele><time>2026-04-05T15:27:29.998Z</time></trkpt><trkpt lat="44.86956692606195" lon="-1.089998382809804"><ele>23.0</ele><time>2026-04-05T15:27:30.998Z</time></trkpt><trkpt lat="44.869699203060215" lon="-1.0900477986487476"><ele>23.0</ele><time>2026-04-05T15:27:31.998Z</time></trkpt><trkpt lat="44.86980877964846" lon="-1.0901233318012713"><ele>23.0</ele><time>2026-04-05T15:27:32.998Z</time></trkpt><trkpt lat="44.869926295802955" lon="-1.0901945928709986"><ele>23.0</ele><time>2026-04-05T15:27:33.998Z</time></trkpt><trkpt lat="44.870043981183116" lon="-1.090260430847971"><ele>23.0</ele><time>2026-04-05T15:27:34.998Z</time></trkpt><trkpt lat="44.87015606531345" lon="-1.09034409278176"><ele>22.666666666666668</ele><time>2026-04-05T15:27:35.998Z</time></trkpt><trkpt lat="44.87029761634691" lon="-1.0904542138645676"><ele>22.333333333333332</ele><time>2026-04-05T15:27:36.998Z</time></trkpt><trkpt lat="44.870452615880374" lon="-1.0905621166873156"><ele>22.0</ele><time>2026-04-05T15:27:37.998Z</time></trkpt><trkpt lat="44.87056908269607" lon="-1.090643342671953"><ele>22.0</ele><time>2026-04-05T15:27:38.998Z</time></trkpt><trkpt lat="44.87067382318805" lon="-1.0907114703592997"><ele>22.0</ele><time>2026-04-05T15:27:39.998Z</time></trkpt><trkpt lat="44.8707717599567" lon="-1.0907778335803484"><ele>22.0</ele><time>2026-04-05T15:27:40.998Z</time></trkpt><trkpt lat="44.870857785206205" lon="-1.0908454097697498"><ele>22.0</ele><time>2026-04-05T15:27:41.998Z</time></trkpt><trkpt lat="44.87094634657238" lon="-1.0909084153935749"><ele>22.0</ele><time>2026-04-05T15:27:42.998Z</time></trkpt><trkpt lat="44.87104802753127" lon="-1.0909741436415317"><ele>21.8</ele><time>2026-04-05T15:27:43.998Z</time></trkpt><trkpt lat="44.87115299506881" lon="-1.091032735770744"><ele>21.6</ele><time>2026-04-05T15:27:44.998Z</time></trkpt><trkpt lat="44.87124902748937" lon="-1.0910969049604984"><ele>21.400000000000002</ele><time>2026-04-05T15:27:45.998Z</time></trkpt><trkpt lat="44.871332407734755" lon="-1.0911559589234308"><ele>21.200000000000003</ele><time>2026-04-05T15:27:46.998Z</time></trkpt><trkpt lat="44.87140463935469" lon="-1.0912109684066928"><ele>21.0</ele><time>2026-04-05T15:27:47.998Z</time></trkpt><trkpt lat="44.87148412715144" lon="-1.091265687900279"><ele>21.0</ele><time>2026-04-05T15:27:48.998Z</time></trkpt><trkpt lat="44.871570478747614" lon="-1.0913207036365724"><ele>21.0</ele><time>2026-04-05T15:27:49.998Z</time></trkpt><trkpt lat="44.87166670576745" lon="-1.091388935097853"><ele>21.0</ele><time>2026-04-05T15:27:50.998Z</time></trkpt><trkpt lat="44.871759059829714" lon="-1.091458002897144"><ele>21.0</ele><time>2026-04-05T15:27:51.998Z</time></trkpt><trkpt lat="44.871842771709595" lon="-1.0915165544174448"><ele>21.0</ele><time>2026-04-05T15:27:52.998Z</time></trkpt><trkpt lat="44.871948492204204" lon="-1.0915858274523702"><ele>21.200000000000003</ele><time>2026-04-05T15:27:53.998Z</time></trkpt><trkpt lat="44.87204460898719" lon="-1.0916515250796142"><ele>21.400000000000002</ele><time>2026-04-05T15:27:54.998Z</time></trkpt><trkpt lat="44.87213240876125" lon="-1.091708591497803"><ele>21.6</ele><time>2026-04-05T15:27:55.998Z</time></trkpt><trkpt lat="44.87222257427881" lon="-1.0917678116081637"><ele>21.8</ele><time>2026-04-05T15:27:57Z</time></trkpt><trkpt lat="44.872307218849215" lon="-1.091823034430874"><ele>22.0</ele><time>2026-04-05T15:27:58Z</time></trkpt><trkpt lat="44.872375056606124" lon="-1.0918669411953565"><ele>22.0</ele><time>2026-04-05T15:27:59Z</time></trkpt><trkpt lat="44.87245275336116" lon="-1.0919234180424218"><ele>22.0</ele><time>2026-04-05T15:28:00Z</time></trkpt><trkpt lat="44.8725407719165" lon="-1.0919912358709156"><ele>22.0</ele><time>2026-04-05T15:28:01Z</time></trkpt><trkpt lat="44.87264600034414" lon="-1.0920790905921836"><ele>22.0</ele><time>2026-04-05T15:28:02Z</time></trkpt><trkpt lat="44.87272050682948" lon="-1.0922024621134565"><ele>22.0</ele><time>2026-04-05T15:28:03Z</time></trkpt><trkpt lat="44.87279201597323" lon="-1.092316987147924"><ele>22.0</ele><time>2026-04-05T15:28:04Z</time></trkpt><trkpt lat="44.87285494785322" lon="-1.0924021708356657"><ele>22.0</ele><time>2026-04-05T15:28:05Z</time></trkpt><trkpt lat="44.87290042590401" lon="-1.0924694730604787"><ele>22.0</ele><time>2026-04-05T15:28:06Z</time></trkpt><trkpt lat="44.87302055418693" lon="-1.0925204110819853"><ele>22.0</ele><time>2026-04-05T15:28:08Z</time></trkpt><trkpt lat="44.873126890343165" lon="-1.0924693684327607"><ele>22.0</ele><time>2026-04-05T15:28:09Z</time></trkpt><trkpt lat="44.8732312111651" lon="-1.0923867851944895"><ele>22.0</ele><time>2026-04-05T15:28:10Z</time></trkpt><trkpt lat="44.8733535931192" lon="-1.0922818600919768"><ele>22.0</ele><time>2026-04-05T15:28:11Z</time></trkpt><trkpt lat="44.87348478433282" lon="-1.0921797147688688"><ele>22.0</ele><time>2026-04-05T15:28:12Z</time></trkpt><trkpt lat="44.87361195204975" lon="-1.0920855478388642"><ele>22.0</ele><time>2026-04-05T15:28:13Z</time></trkpt><trkpt lat="44.87372156857022" lon="-1.092003776816091"><ele>22.400000000000002</ele><time>2026-04-05T15:28:14Z</time></trkpt><trkpt lat="44.873819289691895" lon="-1.0919240996765704"><ele>22.8</ele><time>2026-04-05T15:28:15Z</time></trkpt><trkpt lat="44.87390738518208" lon="-1.0918598422065897"><ele>23.2</ele><time>2026-04-05T15:28:16Z</time></trkpt><trkpt lat="44.87399699713002" lon="-1.0917949814331906"><ele>23.6</ele><time>2026-04-05T15:28:17Z</time></trkpt><trkpt lat="44.874070279508665" lon="-1.0917422356376145"><ele>24.0</ele><time>2026-04-05T15:28:18Z</time></trkpt><trkpt lat="44.87413831829208" lon="-1.091664502250434"><ele>24.0</ele><time>2026-04-05T15:28:19Z</time></trkpt><trkpt lat="44.87419161152215" lon="-1.0915460655832472"><ele>24.0</ele><time>2026-04-05T15:28:20Z</time></trkpt><trkpt lat="44.8742329403533" lon="-1.0913704322019004"><ele>24.0</ele><time>2026-04-05T15:28:21Z</time></trkpt><trkpt lat="44.87427529175785" lon="-1.091218609364151"><ele>24.0</ele><time>2026-04-05T15:28:22Z</time></trkpt><trkpt lat="44.874317560704654" lon="-1.0910855646133681"><ele>24.0</ele><time>2026-04-05T15:28:23Z</time></trkpt><trkpt lat="44.874352297519714" lon="-1.0909477324711023"><ele>23.75</ele><time>2026-04-05T15:28:24Z</time></trkpt><trkpt lat="44.87438865622473" lon="-1.0907939343793978"><ele>23.5</ele><time>2026-04-05T15:28:25Z</time></trkpt><trkpt lat="44.8744502214623" lon="-1.0906258127660164"><ele>23.25</ele><time>2026-04-05T15:28:26Z</time></trkpt><trkpt lat="44.874539640837185" lon="-1.0904784382948498"><ele>23.0</ele><time>2026-04-05T15:28:27Z</time></trkpt><trkpt lat="44.87465682432904" lon="-1.0903055019384738"><ele>23.0</ele><time>2026-04-05T15:28:28Z</time></trkpt><trkpt lat="44.874771412121255" lon="-1.0901400728621178"><ele>23.0</ele><time>2026-04-05T15:28:29Z</time></trkpt><trkpt lat="44.87486119889956" lon="-1.0899979752069904"><ele>23.0</ele><time>2026-04-05T15:28:30Z</time></trkpt><trkpt lat="44.87494569379156" lon="-1.089836183366917"><ele>23.0</ele><time>2026-04-05T15:28:30.999Z</time></trkpt><trkpt lat="44.875005083024064" lon="-1.0896404646262505"><ele>23.0</ele><time>2026-04-05T15:28:31.999Z</time></trkpt><trkpt lat="44.87503479324108" lon="-1.0894112560887994"><ele>23.0</ele><time>2026-04-05T15:28:32.999Z</time></trkpt><trkpt lat="44.87506351969327" lon="-1.089168384173652"><ele>23.0</ele><time>2026-04-05T15:28:33.999Z</time></trkpt><trkpt lat="44.875102708527585" lon="-1.0888672762901934"><ele>22.5</ele><time>2026-04-05T15:28:34.999Z</time></trkpt><trkpt lat="44.87514808839867" lon="-1.0885362743311997"><ele>22.0</ele><time>2026-04-05T15:28:35.999Z</time></trkpt><trkpt lat="44.87518841579888" lon="-1.0881809954255288"><ele>22.0</ele><time>2026-04-05T15:28:36.999Z</time></trkpt><trkpt lat="44.875221365224355" lon="-1.0878121891824366"><ele>22.0</ele><time>2026-04-05T15:28:37.999Z</time></trkpt><trkpt lat="44.87524059427038" lon="-1.0874703388806295"><ele>22.333333333333332</ele><time>2026-04-05T15:28:38.999Z</time></trkpt><trkpt lat="44.875264998026964" lon="-1.0871862138909067"><ele>22.666666666666668</ele><time>2026-04-05T15:28:39.999Z</time></trkpt><trkpt lat="44.875281195281865" lon="-1.0869494537894688"><ele>23.0</ele><time>2026-04-05T15:28:40.999Z</time></trkpt><trkpt lat="44.875293783830884" lon="-1.0867281335824153"><ele>22.75</ele><time>2026-04-05T15:28:41.999Z</time></trkpt><trkpt lat="44.87530308772291" lon="-1.0865139252589877"><ele>22.5</ele><time>2026-04-05T15:28:42.999Z</time></trkpt><trkpt lat="44.875312487034876" lon="-1.0863195030628905"><ele>22.25</ele><time>2026-04-05T15:28:43.999Z</time></trkpt><trkpt lat="44.875317471040816" lon="-1.0861444292986333"><ele>22.0</ele><time>2026-04-05T15:28:44.999Z</time></trkpt><trkpt lat="44.87532162096936" lon="-1.0859758423031385"><ele>22.0</ele><time>2026-04-05T15:28:45.999Z</time></trkpt><trkpt lat="44.875327681008365" lon="-1.0858196952899175"><ele>22.0</ele><time>2026-04-05T15:28:46.999Z</time></trkpt><trkpt lat="44.87533225593056" lon="-1.0856515063936323"><ele>22.0</ele><time>2026-04-05T15:28:47.999Z</time></trkpt><trkpt lat="44.875345587608464" lon="-1.0854884671679652"><ele>22.0</ele><time>2026-04-05T15:28:48.999Z</time></trkpt><trkpt lat="44.87537006944753" lon="-1.0853431521409354"><ele>22.0</ele><time>2026-04-05T15:28:49.999Z</time></trkpt><trkpt lat="44.87539035436071" lon="-1.0852157095619344"><ele>22.0</ele><time>2026-04-05T15:28:50.999Z</time></trkpt><trkpt lat="44.87540905152973" lon="-1.085091943938305"><ele>22.0</ele><time>2026-04-05T15:28:51.999Z</time></trkpt><trkpt lat="44.8754508469221" lon="-1.084889975260289"><ele>22.0</ele><time>2026-04-05T15:28:53.999Z</time></trkpt><trkpt lat="44.87545102158206" lon="-1.084790632912685"><ele>22.0</ele><time>2026-04-05T15:28:54.999Z</time></trkpt><trkpt lat="44.87548557144625" lon="-1.08461850157984"><ele>22.142857142857142</ele><time>2026-04-05T15:28:56.999Z</time></trkpt><trkpt lat="44.8755438203738" lon="-1.0845730286490887"><ele>22.285714285714285</ele><time>2026-04-05T15:28:57.999Z</time></trkpt><trkpt lat="44.87561406668671" lon="-1.084588461867695"><ele>22.42857142857143</ele><time>2026-04-05T15:28:58.999Z</time></trkpt><trkpt lat="44.87567926661512" lon="-1.084638743884086"><ele>22.57142857142857</ele><time>2026-04-05T15:28:59.999Z</time></trkpt><trkpt lat="44.87574076138758" lon="-1.0846607112263291"><ele>22.71428571428571</ele><time>2026-04-05T15:29:00.999Z</time></trkpt><trkpt lat="44.87581227259815" lon="-1.0846459871829448"><ele>22.857142857142858</ele><time>2026-04-05T15:29:01.999Z</time></trkpt><trkpt lat="44.875899305382966" lon="-1.0846174252916136"><ele>23.0</ele><time>2026-04-05T15:29:02.999Z</time></trkpt><trkpt lat="44.875976517853566" lon="-1.0845850701403055"><ele>23.166666666666668</ele><time>2026-04-05T15:29:03.999Z</time></trkpt><trkpt lat="44.876042298155106" lon="-1.084566117319998"><ele>23.333333333333336</ele><time>2026-04-05T15:29:04.999Z</time></trkpt><trkpt lat="44.87611864465808" lon="-1.084541204895686"><ele>23.5</ele><time>2026-04-05T15:29:05.999Z</time></trkpt><trkpt lat="44.87620492021666" lon="-1.0845210245195285"><ele>23.666666666666668</ele><time>2026-04-05T15:29:06.999Z</time></trkpt><trkpt lat="44.876287583652086" lon="-1.0845022483658768"><ele>23.833333333333332</ele><time>2026-04-05T15:29:07.999Z</time></trkpt><trkpt lat="44.876364510010795" lon="-1.0844922054348525"><ele>24.0</ele><time>2026-04-05T15:29:08.999Z</time></trkpt><trkpt lat="44.87644855924049" lon="-1.0844879263876548"><ele>24.0</ele><time>2026-04-05T15:29:09.999Z</time></trkpt><trkpt lat="44.876543105671324" lon="-1.0845020866959088"><ele>24.0</ele><time>2026-04-05T15:29:10.999Z</time></trkpt><trkpt lat="44.87653002915536" lon="-1.0843894024932816"><ele>24.0</ele><time>2026-04-05T15:29:15.999Z</time></trkpt><trkpt lat="44.876494582230556" lon="-1.084264002041383"><ele>24.0</ele><time>2026-04-05T15:29:17.998Z</time></trkpt><trkpt lat="44.87657700222322" lon="-1.0841103118602766"><ele>24.0</ele><time>2026-04-05T15:29:19.998Z</time></trkpt><trkpt lat="44.87663648812491" lon="-1.0839968416843533"><ele>24.0</ele><time>2026-04-05T15:29:20.998Z</time></trkpt><trkpt lat="44.87669789228468" lon="-1.083852155359498"><ele>24.0</ele><time>2026-04-05T15:29:21.998Z</time></trkpt><trkpt lat="44.876762004855415" lon="-1.0836924271705977"><ele>24.0</ele><time>2026-04-05T15:29:22.998Z</time></trkpt><trkpt lat="44.87682877570054" lon="-1.0835241314857744"><ele>24.0</ele><time>2026-04-05T15:29:23.998Z</time></trkpt><trkpt lat="44.87690626670727" lon="-1.083326974951242"><ele>24.666666666666664</ele><time>2026-04-05T15:29:24.998Z</time></trkpt><trkpt lat="44.876995817381086" lon="-1.0831076159495796"><ele>25.333333333333332</ele><time>2026-04-05T15:29:25.998Z</time></trkpt><trkpt lat="44.87709774391841" lon="-1.0828497777133346"><ele>26.0</ele><time>2026-04-05T15:29:26.998Z</time></trkpt><trkpt lat="44.877183841077645" lon="-1.0826444136636841"><ele>26.0</ele><time>2026-04-05T15:29:27.998Z</time></trkpt><trkpt lat="44.87725229824472" lon="-1.0824601249556702"><ele>26.0</ele><time>2026-04-05T15:29:28.998Z</time></trkpt><trkpt lat="44.87730980914862" lon="-1.0823177310837"><ele>26.0</ele><time>2026-04-05T15:29:29.998Z</time></trkpt><trkpt lat="44.87735830373746" lon="-1.0821981227224347"><ele>26.0</ele><time>2026-04-05T15:29:30.998Z</time></trkpt><trkpt lat="44.87740788753237" lon="-1.0820995886721332"><ele>26.0</ele><time>2026-04-05T15:29:31.998Z</time></trkpt><trkpt lat="44.8774818120572" lon="-1.0820461524625118"><ele>26.0</ele><time>2026-04-05T15:29:32.998Z</time></trkpt><trkpt lat="44.877596863326794" lon="-1.0820339340684015"><ele>26.0</ele><time>2026-04-05T15:29:33.998Z</time></trkpt><trkpt lat="44.87774564205247" lon="-1.082008801324505"><ele>26.0</ele><time>2026-04-05T15:29:34.998Z</time></trkpt><trkpt lat="44.87790538203073" lon="-1.081943841716976"><ele>26.0</ele><time>2026-04-05T15:29:35.998Z</time></trkpt><trkpt lat="44.87807057545301" lon="-1.0818365448602223"><ele>26.0</ele><time>2026-04-05T15:29:36.998Z</time></trkpt><trkpt lat="44.87821785958012" lon="-1.0817292876437776"><ele>26.0</ele><time>2026-04-05T15:29:37.998Z</time></trkpt><trkpt lat="44.87834265960114" lon="-1.0816363722784537"><ele>26.0</ele><time>2026-04-05T15:29:38.998Z</time></trkpt><trkpt lat="44.87845619506501" lon="-1.0815595045079633"><ele>26.0</ele><time>2026-04-05T15:29:39.998Z</time></trkpt><trkpt lat="44.87855853124895" lon="-1.0814776953057366"><ele>26.0</ele><time>2026-04-05T15:29:40.998Z</time></trkpt><trkpt lat="44.87863531610311" lon="-1.081379984372181"><ele>26.0</ele><time>2026-04-05T15:29:41.998Z</time></trkpt><trkpt lat="44.87869763957147" lon="-1.0812666672618143"><ele>26.0</ele><time>2026-04-05T15:29:42.998Z</time></trkpt><trkpt lat="44.87878143712527" lon="-1.081195634585743"><ele>26.0</ele><time>2026-04-05T15:29:43.998Z</time></trkpt><trkpt lat="44.87888857266938" lon="-1.0811681760577756"><ele>26.0</ele><time>2026-04-05T15:29:44.998Z</time></trkpt><trkpt lat="44.87900301111207" lon="-1.0811712510311176"><ele>26.0</ele><time>2026-04-05T15:29:45.998Z</time></trkpt><trkpt lat="44.87911892237726" lon="-1.081171924501618"><ele>26.0</ele><time>2026-04-05T15:29:46.998Z</time></trkpt><trkpt lat="44.87927250965603" lon="-1.0811671222602168"><ele>26.0</ele><time>2026-04-05T15:29:47.998Z</time></trkpt><trkpt lat="44.87944190156367" lon="-1.0811553314149387"><ele>26.0</ele><time>2026-04-05T15:29:48.998Z</time></trkpt><trkpt lat="44.87956993748161" lon="-1.0811554442384896"><ele>26.200000000000003</ele><time>2026-04-05T15:29:49.998Z</time></trkpt><trkpt lat="44.87963960695358" lon="-1.0811492866192465"><ele>26.400000000000002</ele><time>2026-04-05T15:29:50.998Z</time></trkpt><trkpt lat="44.879752498073074" lon="-1.0811420596535752"><ele>26.6</ele><time>2026-04-05T15:29:51.998Z</time></trkpt><trkpt lat="44.87985936150775" lon="-1.0811463292449053"><ele>26.8</ele><time>2026-04-05T15:29:52.998Z</time></trkpt><trkpt lat="44.87990602223868" lon="-1.081219576548392"><ele>27.0</ele><time>2026-04-05T15:29:54.998Z</time></trkpt><trkpt lat="44.87989888319027" lon="-1.0813726795701983"><ele>27.0</ele><time>2026-04-05T15:29:56.998Z</time></trkpt><trkpt lat="44.879876306715325" lon="-1.0815183171139677"><ele>27.0</ele><time>2026-04-05T15:29:58.998Z</time></trkpt><trkpt lat="44.87980251354798" lon="-1.0815941755828007"><ele>27.0</ele><time>2026-04-05T15:30:01.998Z</time></trkpt><trkpt lat="44.8797455039666" lon="-1.0815175944072977"><ele>27.0</ele><time>2026-04-05T15:30:05Z</time></trkpt></trkseg></trk></gpx>